<?xml version='1.0' encoding='UTF-8'?><gpx version="1.1" creator="JPX - https://github.com/jenetics/jpx" xmlns="http://www.topografix.com/GPX/1/1"><trk><trkseg><trkpt lat="42.03830165135417" lon="12.02077961490176"><ele>129.33333333333334</ele><time>2026-04-18T07:17:52.017Z</time></trkpt><trkpt lat="42.03826725486357" lon="12.020879611420531"><ele>129.66666666666666</ele><time>2026-04-18T07:17:56.004Z</time></trkpt><trkpt lat="42.038339246951814" lon="12.020886596210145"><ele>130.0</ele><time>2026-04-18T07:18:03.002Z</time></trkpt><trkpt lat="42.0382952974696" lon="12.02098521263874"><ele>130.33333333333331</ele><time>2026-04-18T07:18:12.001Z</time></trkpt><trkpt lat="42.03820849527803" lon="12.020936586536862"><ele>130.66666666666666</ele><time>2026-04-18T07:18:29Z</time></trkpt><trkpt lat="42.03820007955092" lon="12.021051688208638"><ele>131.0</ele><time>2026-04-18T07:18:39Z</time></trkpt><trkpt lat="42.03821422455839" lon="12.021141937707988"><ele>131.0</ele><time>2026-04-18T07:18:43Z</time></trkpt><trkpt lat="42.038163454326245" lon="12.021192113894578"><ele>131.0</ele><time>2026-04-18T07:20:03.998Z</time></trkpt><trkpt lat="42.03815669596537" lon="12.021281188878755"><ele>131.0</ele><time>2026-04-18T07:20:23.999Z</time></trkpt><trkpt lat="42.03809259256155" lon="12.021243208203115"><ele>131.0</ele><time>2026-04-18T07:20:26.999Z</time></trkpt><trkpt lat="42.03809968575487" lon="12.021149643181321"><ele>131.0</ele><time>2026-04-18T07:20:41.999Z</time></trkpt><trkpt lat="42.038116530903395" lon="12.02103719189885"><ele>131.0</ele><time>2026-04-18T07:21:09Z</time></trkpt><trkpt lat="42.03815617997151" lon="12.02091376493631"><ele>130.8</ele><time>2026-04-18T07:21:11Z</time></trkpt><trkpt lat="42.038172200098195" lon="12.020799325618766"><ele>130.6</ele><time>2026-04-18T07:21:13Z</time></trkpt><trkpt lat="42.038180237209374" lon="12.020669153878764"><ele>130.4</ele><time>2026-04-18T07:21:15Z</time></trkpt><trkpt lat="42.03820951897537" lon="12.020497554186294"><ele>130.2</ele><time>2026-04-18T07:21:17Z</time></trkpt><trkpt lat="42.03824248874082" lon="12.020382916970156"><ele>130.0</ele><time>2026-04-18T07:21:19Z</time></trkpt><trkpt lat="42.038301317571445" lon="12.020251364809823"><ele>129.83333333333334</ele><time>2026-04-18T07:21:21Z</time></trkpt><trkpt lat="42.03831662178468" lon="12.02015580062636"><ele>129.66666666666669</ele><time>2026-04-18T07:21:22Z</time></trkpt><trkpt lat="42.03833066121348" lon="12.02006426579863"><ele>129.5</ele><time>2026-04-18T07:21:23Z</time></trkpt><trkpt lat="42.03834921018482" lon="12.019936700779834"><ele>129.33333333333334</ele><time>2026-04-18T07:21:25Z</time></trkpt><trkpt lat="42.0382923100166" lon="12.019810423135079"><ele>129.16666666666666</ele><time>2026-04-18T07:21:27Z</time></trkpt><trkpt lat="42.03822809971803" lon="12.019756518912729"><ele>129.0</ele><time>2026-04-18T07:21:28Z</time></trkpt><trkpt lat="42.03817249145515" lon="12.01971219528869"><ele>127.66666666666667</ele><time>2026-04-18T07:21:29Z</time></trkpt><trkpt lat="42.0380630602506" lon="12.019654743799382"><ele>126.33333333333334</ele><time>2026-04-18T07:21:31Z</time></trkpt><trkpt lat="42.038000700715585" lon="12.019617874778756"><ele>125.0</ele><time>2026-04-18T07:21:32Z</time></trkpt><trkpt lat="42.03793360940884" lon="12.019586313748404"><ele>123.66666666666667</ele><time>2026-04-18T07:21:33Z</time></trkpt><trkpt lat="42.03786747253443" lon="12.019541593457"><ele>122.33333333333334</ele><time>2026-04-18T07:21:34Z</time></trkpt><trkpt lat="42.03781188441751" lon="12.019480391995089"><ele>121.0</ele><time>2026-04-18T07:21:35Z</time></trkpt><trkpt lat="42.03776168230338" lon="12.019414089423458"><ele>121.00000000000001</ele><time>2026-04-18T07:21:36Z</time></trkpt><trkpt lat="42.03770766367426" lon="12.019359290694922"><ele>121.0</ele><time>2026-04-18T07:21:37Z</time></trkpt><trkpt lat="42.03765271266791" lon="12.019308270900028"><ele>121.0</ele><time>2026-04-18T07:21:38Z</time></trkpt><trkpt lat="42.03760303450918" lon="12.019254627320255"><ele>121.0</ele><time>2026-04-18T07:21:39Z</time></trkpt><trkpt lat="42.03753644430568" lon="12.019138576132319"><ele>121.00000000000001</ele><time>2026-04-18T07:21:41Z</time></trkpt><trkpt lat="42.03747476227976" lon="12.01900645880817"><ele>121.0</ele><time>2026-04-18T07:21:43Z</time></trkpt><trkpt lat="42.037439188033545" lon="12.018935672852951"><ele>118.19999999999999</ele><time>2026-04-18T07:21:44Z</time></trkpt><trkpt lat="42.037369075512025" lon="12.018797985667486"><ele>115.39999999999999</ele><time>2026-04-18T07:21:46Z</time></trkpt><trkpt lat="42.03733037222476" lon="12.018728731304572"><ele>112.6</ele><time>2026-04-18T07:21:47Z</time></trkpt><trkpt lat="42.03728973317798" lon="12.018660051357527"><ele>109.8</ele><time>2026-04-18T07:21:48Z</time></trkpt><trkpt lat="42.03721183524369" lon="12.018541715839117"><ele>107.0</ele><time>2026-04-18T07:21:50Z</time></trkpt><trkpt lat="42.037150889723186" lon="12.01843889218349"><ele>107.0</ele><time>2026-04-18T07:21:52Z</time></trkpt><trkpt lat="42.037101753705215" lon="12.018323093054754"><ele>106.99999999999999</ele><time>2026-04-18T07:21:54Z</time></trkpt><trkpt lat="42.03705642642059" lon="12.018220127133011"><ele>106.99999999999999</ele><time>2026-04-18T07:21:56Z</time></trkpt><trkpt lat="42.03700554434647" lon="12.018121884411764"><ele>107.0</ele><time>2026-04-18T07:21:58Z</time></trkpt><trkpt lat="42.03694460526755" lon="12.018002705892922"><ele>107.0</ele><time>2026-04-18T07:22:01Z</time></trkpt><trkpt lat="42.0368935924596" lon="12.017902053156861"><ele>104.39999999999999</ele><time>2026-04-18T07:22:03Z</time></trkpt><trkpt lat="42.03684875993047" lon="12.017787155525465"><ele>101.79999999999998</ele><time>2026-04-18T07:22:05Z</time></trkpt><trkpt lat="42.03679147220202" lon="12.017664999310353"><ele>99.2</ele><time>2026-04-18T07:22:06.999Z</time></trkpt><trkpt lat="42.03672966332013" lon="12.01755393573647"><ele>96.6</ele><time>2026-04-18T07:22:08.999Z</time></trkpt><trkpt lat="42.03667429415328" lon="12.017446540024752"><ele>94.0</ele><time>2026-04-18T07:22:10.999Z</time></trkpt><trkpt lat="42.03661267281191" lon="12.017338778835306"><ele>91.5</ele><time>2026-04-18T07:22:12.999Z</time></trkpt><trkpt lat="42.03656202113455" lon="12.017246700666874"><ele>89.0</ele><time>2026-04-18T07:22:14.999Z</time></trkpt><trkpt lat="42.036519927153506" lon="12.017166743623529"><ele>86.5</ele><time>2026-04-18T07:22:16.999Z</time></trkpt><trkpt lat="42.036472836384405" lon="12.0170577658789"><ele>84.0</ele><time>2026-04-18T07:22:18.999Z</time></trkpt><trkpt lat="42.036418188631416" lon="12.016948486689596"><ele>81.5</ele><time>2026-04-18T07:22:20.999Z</time></trkpt><trkpt lat="42.03636547219482" lon="12.016842996198935"><ele>79.0</ele><time>2026-04-18T07:22:22.999Z</time></trkpt><trkpt lat="42.0363135681302" lon="12.016715669663578"><ele>77.60000000000001</ele><time>2026-04-18T07:22:24.999Z</time></trkpt><trkpt lat="42.03627604338478" lon="12.016638213511946"><ele>76.2</ele><time>2026-04-18T07:22:25.999Z</time></trkpt><trkpt lat="42.03624202739309" lon="12.016562754962148"><ele>74.80000000000001</ele><time>2026-04-18T07:22:26.999Z</time></trkpt><trkpt lat="42.036187548361546" lon="12.01645106551591"><ele>73.4</ele><time>2026-04-18T07:22:28.999Z</time></trkpt><trkpt lat="42.036126974610056" lon="12.016332164554736"><ele>72.0</ele><time>2026-04-18T07:22:30.999Z</time></trkpt><trkpt lat="42.03605361672255" lon="12.016207450650937"><ele>72.0</ele><time>2026-04-18T07:22:33.999Z</time></trkpt><trkpt lat="42.03599632668037" lon="12.01611423291075"><ele>72.0</ele><time>2026-04-18T07:22:34.999Z</time></trkpt><trkpt lat="42.03594270083642" lon="12.016013349596166"><ele>72.0</ele><time>2026-04-18T07:22:37Z</time></trkpt><trkpt lat="42.03590152004648" lon="12.015928817406358"><ele>72.0</ele><time>2026-04-18T07:22:38Z</time></trkpt><trkpt lat="42.03586870366784" lon="12.015851933283894"><ele>72.0</ele><time>2026-04-18T07:22:39Z</time></trkpt><trkpt lat="42.03583369969514" lon="12.015764068247034"><ele>72.0</ele><time>2026-04-18T07:22:40Z</time></trkpt><trkpt lat="42.035812612238296" lon="12.015668592775052"><ele>69.4</ele><time>2026-04-18T07:22:41Z</time></trkpt><trkpt lat="42.035792006659605" lon="12.015550311533216"><ele>66.80000000000001</ele><time>2026-04-18T07:22:42Z</time></trkpt><trkpt lat="42.03577056004564" lon="12.015398251572233"><ele>64.2</ele><time>2026-04-18T07:22:43Z</time></trkpt><trkpt lat="42.03575360937626" lon="12.015242560435244"><ele>61.6</ele><time>2026-04-18T07:22:44Z</time></trkpt><trkpt lat="42.03572224076998" lon="12.015077782800036"><ele>59.0</ele><time>2026-04-18T07:22:45Z</time></trkpt><trkpt lat="42.03569339097322" lon="12.01494480861161"><ele>58.25</ele><time>2026-04-18T07:22:46Z</time></trkpt><trkpt lat="42.03565451905361" lon="12.014779489615186"><ele>57.5</ele><time>2026-04-18T07:22:47Z</time></trkpt><trkpt lat="42.035613621709004" lon="12.014620347391054"><ele>56.75</ele><time>2026-04-18T07:22:48Z</time></trkpt><trkpt lat="42.03557633259384" lon="12.01447294650474"><ele>56.0</ele><time>2026-04-18T07:22:49Z</time></trkpt><trkpt lat="42.03554862463667" lon="12.014316901316702"><ele>56.00000000000001</ele><time>2026-04-18T07:22:50Z</time></trkpt><trkpt lat="42.03552131275162" lon="12.014191955360927"><ele>56.0</ele><time>2026-04-18T07:22:51Z</time></trkpt><trkpt lat="42.03550249533482" lon="12.014083856809478"><ele>56.0</ele><time>2026-04-18T07:22:52Z</time></trkpt><trkpt lat="42.03549229066268" lon="12.013993262386283"><ele>56.0</ele><time>2026-04-18T07:22:53Z</time></trkpt><trkpt lat="42.03548943772868" lon="12.013871729239174"><ele>56.00000000000001</ele><time>2026-04-18T07:22:55Z</time></trkpt><trkpt lat="42.03547640326229" lon="12.013778840493776"><ele>56.0</ele><time>2026-04-18T07:22:57Z</time></trkpt><trkpt lat="42.035412828355064" lon="12.013670802948104"><ele>56.599999999999994</ele><time>2026-04-18T07:23:00Z</time></trkpt><trkpt lat="42.03535113440387" lon="12.013633564650851"><ele>57.199999999999996</ele><time>2026-04-18T07:23:02Z</time></trkpt><trkpt lat="42.03525858865609" lon="12.013613311784463"><ele>57.800000000000004</ele><time>2026-04-18T07:23:05Z</time></trkpt><trkpt lat="42.03515998170023" lon="12.013581904016876"><ele>58.400000000000006</ele><time>2026-04-18T07:23:07Z</time></trkpt><trkpt lat="42.03502916897138" lon="12.013575353076448"><ele>59.0</ele><time>2026-04-18T07:23:09Z</time></trkpt><trkpt lat="42.03485399717004" lon="12.013453591952308"><ele>59.16666666666667</ele><time>2026-04-18T07:23:13Z</time></trkpt><trkpt lat="42.034800095921746" lon="12.013398252229083"><ele>59.333333333333336</ele><time>2026-04-18T07:23:14Z</time></trkpt><trkpt lat="42.034719630787706" lon="12.013325879656382"><ele>59.5</ele><time>2026-04-18T07:23:16Z</time></trkpt><trkpt lat="42.03466578804852" lon="12.013270931557626"><ele>59.66666666666667</ele><time>2026-04-18T07:23:18Z</time></trkpt><trkpt lat="42.03461578217586" lon="12.01320847292193"><ele>59.833333333333336</ele><time>2026-04-18T07:23:20Z</time></trkpt><trkpt lat="42.03453795385553" lon="12.013129713866123"><ele>60.0</ele><time>2026-04-18T07:23:22Z</time></trkpt><trkpt lat="42.034474480883766" lon="12.013037636338234"><ele>62.4</ele><time>2026-04-18T07:23:24Z</time></trkpt><trkpt lat="42.03439738729766" lon="12.012923441414683"><ele>64.8</ele><time>2026-04-18T07:23:26Z</time></trkpt><trkpt lat="42.03435147006585" lon="12.01286409028673"><ele>67.2</ele><time>2026-04-18T07:23:27Z</time></trkpt><trkpt lat="42.034306561220916" lon="12.012792865205988"><ele>69.6</ele><time>2026-04-18T07:23:28Z</time></trkpt><trkpt lat="42.034250846181536" lon="12.012698451981626"><ele>72.0</ele><time>2026-04-18T07:23:29Z</time></trkpt><trkpt lat="42.03418575087691" lon="12.012572084305164"><ele>73.8</ele><time>2026-04-18T07:23:31Z</time></trkpt><trkpt lat="42.03412768195219" lon="12.012447157588491"><ele>75.6</ele><time>2026-04-18T07:23:33Z</time></trkpt><trkpt lat="42.03411474502205" lon="12.012361036929871"><ele>77.39999999999999</ele><time>2026-04-18T07:23:34Z</time></trkpt><trkpt lat="42.0341076561954" lon="12.01221560778394"><ele>79.2</ele><time>2026-04-18T07:23:36Z</time></trkpt><trkpt lat="42.03409068269799" lon="12.012094480914007"><ele>81.0</ele><time>2026-04-18T07:23:38Z</time></trkpt><trkpt lat="42.03408127075316" lon="12.011951564418817"><ele>81.0</ele><time>2026-04-18T07:23:40Z</time></trkpt><trkpt lat="42.03404043329235" lon="12.011862194355258"><ele>81.0</ele><time>2026-04-18T07:23:42Z</time></trkpt><trkpt lat="42.033990419437245" lon="12.011739778678024"><ele>81.0</ele><time>2026-04-18T07:23:43Z</time></trkpt><trkpt lat="42.0339561338725" lon="12.011648112408636"><ele>81.0</ele><time>2026-04-18T07:23:44Z</time></trkpt><trkpt lat="42.03391132803846" lon="12.01155505344485"><ele>81.0</ele><time>2026-04-18T07:23:45Z</time></trkpt><trkpt lat="42.033865418092205" lon="12.011474227151668"><ele>81.0</ele><time>2026-04-18T07:23:46Z</time></trkpt><trkpt lat="42.033826684808446" lon="12.011385454131085"><ele>80.8</ele><time>2026-04-18T07:23:47Z</time></trkpt><trkpt lat="42.0337611320508" lon="12.011245087020582"><ele>80.6</ele><time>2026-04-18T07:23:49Z</time></trkpt><trkpt lat="42.03370777053207" lon="12.011155960374726"><ele>80.4</ele><time>2026-04-18T07:23:50Z</time></trkpt><trkpt lat="42.03365320934683" lon="12.01105726774756"><ele>80.2</ele><time>2026-04-18T07:23:51Z</time></trkpt><trkpt lat="42.033590073416164" lon="12.010957919208504"><ele>80.0</ele><time>2026-04-18T07:23:52Z</time></trkpt><trkpt lat="42.03354906045343" lon="12.01087400491629"><ele>80.0</ele><time>2026-04-18T07:23:53Z</time></trkpt><trkpt lat="42.03350017467037" lon="12.010786344786663"><ele>80.0</ele><time>2026-04-18T07:23:54Z</time></trkpt><trkpt lat="42.03344844465309" lon="12.010685039237918"><ele>80.0</ele><time>2026-04-18T07:23:55Z</time></trkpt><trkpt lat="42.03339294926616" lon="12.01059367004938"><ele>80.0</ele><time>2026-04-18T07:23:56Z</time></trkpt><trkpt lat="42.033328707909234" lon="12.010481488564718"><ele>80.0</ele><time>2026-04-18T07:23:57Z</time></trkpt><trkpt lat="42.03326789051943" lon="12.010367423482537"><ele>79.6</ele><time>2026-04-18T07:23:58Z</time></trkpt><trkpt lat="42.03320835788226" lon="12.010260511709463"><ele>79.2</ele><time>2026-04-18T07:23:59Z</time></trkpt><trkpt lat="42.03314621403969" lon="12.010152483287554"><ele>78.8</ele><time>2026-04-18T07:24:00Z</time></trkpt><trkpt lat="42.03308971624444" lon="12.01004757249175"><ele>78.4</ele><time>2026-04-18T07:24:01Z</time></trkpt><trkpt lat="42.033031919829845" lon="12.009949525072175"><ele>78.0</ele><time>2026-04-18T07:24:02Z</time></trkpt><trkpt lat="42.03296965828966" lon="12.009839799618108"><ele>77.4</ele><time>2026-04-18T07:24:03Z</time></trkpt><trkpt lat="42.03290331330331" lon="12.009725289829868"><ele>76.8</ele><time>2026-04-18T07:24:04Z</time></trkpt><trkpt lat="42.03283804751749" lon="12.009619101187525"><ele>76.2</ele><time>2026-04-18T07:24:05Z</time></trkpt><trkpt lat="42.03278074539292" lon="12.009517287357628"><ele>75.6</ele><time>2026-04-18T07:24:06Z</time></trkpt><trkpt lat="42.03272551307491" lon="12.009418482317551"><ele>75.0</ele><time>2026-04-18T07:24:07Z</time></trkpt><trkpt lat="42.03267718766879" lon="12.009329088368053"><ele>75.0</ele><time>2026-04-18T07:24:08Z</time></trkpt><trkpt lat="42.032638772405825" lon="12.009234699440736"><ele>75.0</ele><time>2026-04-18T07:24:09Z</time></trkpt><trkpt lat="42.03259012014179" lon="12.00911562441579"><ele>75.0</ele><time>2026-04-18T07:24:10Z</time></trkpt><trkpt lat="42.03253240794185" lon="12.009004663440214"><ele>75.0</ele><time>2026-04-18T07:24:11Z</time></trkpt><trkpt lat="42.03248291214662" lon="12.008903548420093"><ele>75.0</ele><time>2026-04-18T07:24:12Z</time></trkpt><trkpt lat="42.03243510731058" lon="12.008795035657164"><ele>74.4</ele><time>2026-04-18T07:24:13Z</time></trkpt><trkpt lat="42.03238349596723" lon="12.00869365730433"><ele>73.8</ele><time>2026-04-18T07:24:14Z</time></trkpt><trkpt lat="42.03232887850828" lon="12.008600912578856"><ele>73.2</ele><time>2026-04-18T07:24:15Z</time></trkpt><trkpt lat="42.03228020904238" lon="12.008502444412704"><ele>72.6</ele><time>2026-04-18T07:24:16Z</time></trkpt><trkpt lat="42.032227243867304" lon="12.008387681178876"><ele>72.0</ele><time>2026-04-18T07:24:17Z</time></trkpt><trkpt lat="42.03216734207888" lon="12.00827284031238"><ele>71.2</ele><time>2026-04-18T07:24:18Z</time></trkpt><trkpt lat="42.03210683187774" lon="12.008154519142805"><ele>70.4</ele><time>2026-04-18T07:24:19Z</time></trkpt><trkpt lat="42.032064570505554" lon="12.008034289845874"><ele>69.6</ele><time>2026-04-18T07:24:20Z</time></trkpt><trkpt lat="42.032008626486835" lon="12.007925284019809"><ele>68.8</ele><time>2026-04-18T07:24:21Z</time></trkpt><trkpt lat="42.03195363911365" lon="12.007818142181305"><ele>68.0</ele><time>2026-04-18T07:24:22Z</time></trkpt><trkpt lat="42.03190355275707" lon="12.007739696142126"><ele>68.0</ele><time>2026-04-18T07:24:23Z</time></trkpt><trkpt lat="42.0318540800971" lon="12.007652146066128"><ele>68.0</ele><time>2026-04-18T07:24:24Z</time></trkpt><trkpt lat="42.03180561671054" lon="12.007551810026596"><ele>68.0</ele><time>2026-04-18T07:24:25Z</time></trkpt><trkpt lat="42.031754016697995" lon="12.007446513427539"><ele>68.0</ele><time>2026-04-18T07:24:26Z</time></trkpt><trkpt lat="42.03169558121908" lon="12.007335492339507"><ele>68.0</ele><time>2026-04-18T07:24:27Z</time></trkpt><trkpt lat="42.031654316190114" lon="12.007212852658128"><ele>67.16666666666667</ele><time>2026-04-18T07:24:28Z</time></trkpt><trkpt lat="42.03160506906292" lon="12.00710968439553"><ele>66.33333333333334</ele><time>2026-04-18T07:24:29Z</time></trkpt><trkpt lat="42.03156144683333" lon="12.007018299699634"><ele>65.5</ele><time>2026-04-18T07:24:30Z</time></trkpt><trkpt lat="42.031515191335785" lon="12.006923227023089"><ele>64.66666666666667</ele><time>2026-04-18T07:24:31Z</time></trkpt><trkpt lat="42.03145363980155" lon="12.006835335722235"><ele>63.833333333333336</ele><time>2026-04-18T07:24:32Z</time></trkpt><trkpt lat="42.031403588226794" lon="12.006736769085602"><ele>63.0</ele><time>2026-04-18T07:24:33Z</time></trkpt><trkpt lat="42.03136562371488" lon="12.006630859964243"><ele>63.0</ele><time>2026-04-18T07:24:34Z</time></trkpt><trkpt lat="42.03130915052262" lon="12.006523438575764"><ele>63.0</ele><time>2026-04-18T07:24:35Z</time></trkpt><trkpt lat="42.03123663731372" lon="12.00642054231795"><ele>63.0</ele><time>2026-04-18T07:24:36Z</time></trkpt><trkpt lat="42.03117412923392" lon="12.006306206873886"><ele>63.0</ele><time>2026-04-18T07:24:37Z</time></trkpt><trkpt lat="42.03111558622298" lon="12.006202782094386"><ele>63.0</ele><time>2026-04-18T07:24:38Z</time></trkpt><trkpt lat="42.03106124942276" lon="12.006110693551504"><ele>63.0</ele><time>2026-04-18T07:24:39Z</time></trkpt><trkpt lat="42.03100952848079" lon="12.006023961729802"><ele>63.0</ele><time>2026-04-18T07:24:40Z</time></trkpt><trkpt lat="42.030967778115105" lon="12.005943213144484"><ele>63.0</ele><time>2026-04-18T07:24:41Z</time></trkpt><trkpt lat="42.03094372674501" lon="12.005846408104752"><ele>63.0</ele><time>2026-04-18T07:24:42Z</time></trkpt><trkpt lat="42.03090066030074" lon="12.005761608455696"><ele>63.0</ele><time>2026-04-18T07:24:43Z</time></trkpt><trkpt lat="42.030856033673" lon="12.005673736967376"><ele>63.0</ele><time>2026-04-18T07:24:44Z</time></trkpt><trkpt lat="42.03081058017356" lon="12.005580770398694"><ele>61.833333333333336</ele><time>2026-04-18T07:24:45Z</time></trkpt><trkpt lat="42.030768377412905" lon="12.005492575467589"><ele>60.66666666666667</ele><time>2026-04-18T07:24:46Z</time></trkpt><trkpt lat="42.03073179587867" lon="12.005415492004106"><ele>59.5</ele><time>2026-04-18T07:24:47Z</time></trkpt><trkpt lat="42.03067630317879" lon="12.005306161862867"><ele>58.333333333333336</ele><time>2026-04-18T07:24:49Z</time></trkpt><trkpt lat="42.030611210498684" lon="12.005197000429707"><ele>57.16666666666667</ele><time>2026-04-18T07:24:51Z</time></trkpt><trkpt lat="42.03056151636631" lon="12.005117692688676"><ele>56.0</ele><time>2026-04-18T07:24:52Z</time></trkpt><trkpt lat="42.03050428247739" lon="12.005028971692813"><ele>56.199999999999996</ele><time>2026-04-18T07:24:53Z</time></trkpt><trkpt lat="42.030443985535406" lon="12.004937894314734"><ele>56.39999999999999</ele><time>2026-04-18T07:24:54Z</time></trkpt><trkpt lat="42.03039060272556" lon="12.004854809866893"><ele>56.6</ele><time>2026-04-18T07:24:55Z</time></trkpt><trkpt lat="42.030351891891435" lon="12.004785076727321"><ele>56.8</ele><time>2026-04-18T07:24:56Z</time></trkpt><trkpt lat="42.0302850097744" lon="12.004682941795787"><ele>57.0</ele><time>2026-04-18T07:24:58Z</time></trkpt><trkpt lat="42.03021423211201" lon="12.00455854884295"><ele>57.0</ele><time>2026-04-18T07:25:00Z</time></trkpt><trkpt lat="42.03016062556704" lon="12.00447151336573"><ele>57.0</ele><time>2026-04-18T07:25:01Z</time></trkpt><trkpt lat="42.03010201206001" lon="12.004384155010326"><ele>57.0</ele><time>2026-04-18T07:25:02Z</time></trkpt><trkpt lat="42.0300724728218" lon="12.004300986334728"><ele>57.0</ele><time>2026-04-18T07:25:03Z</time></trkpt><trkpt lat="42.02999880358183" lon="12.004181274519464"><ele>57.0</ele><time>2026-04-18T07:25:05Z</time></trkpt><trkpt lat="42.02996019764324" lon="12.004109579917563"><ele>57.0</ele><time>2026-04-18T07:25:06Z</time></trkpt><trkpt lat="42.02991473327623" lon="12.00404376496103"><ele>55.8</ele><time>2026-04-18T07:25:07Z</time></trkpt><trkpt lat="42.02987119040382" lon="12.003978743856504"><ele>54.6</ele><time>2026-04-18T07:25:08Z</time></trkpt><trkpt lat="42.02979704764125" lon="12.003825162686372"><ele>53.4</ele><time>2026-04-18T07:25:10Z</time></trkpt><trkpt lat="42.02974705554816" lon="12.00373853948676"><ele>52.199999999999996</ele><time>2026-04-18T07:25:11Z</time></trkpt><trkpt lat="42.029694318360185" lon="12.00364715980448"><ele>51.0</ele><time>2026-04-18T07:25:12Z</time></trkpt><trkpt lat="42.02964204103766" lon="12.003553933760298"><ele>51.0</ele><time>2026-04-18T07:25:13Z</time></trkpt><trkpt lat="42.02959612372586" lon="12.003471171137752"><ele>51.0</ele><time>2026-04-18T07:25:14Z</time></trkpt><trkpt lat="42.02954283541192" lon="12.003412297149659"><ele>51.0</ele><time>2026-04-18T07:25:15Z</time></trkpt><trkpt lat="42.029519032647094" lon="12.003330972414663"><ele>51.0</ele><time>2026-04-18T07:25:16Z</time></trkpt><trkpt lat="42.02947217175401" lon="12.003244953224081"><ele>51.0</ele><time>2026-04-18T07:25:17Z</time></trkpt><trkpt lat="42.02942946987994" lon="12.003164450289798"><ele>51.0</ele><time>2026-04-18T07:25:18Z</time></trkpt><trkpt lat="42.02938049008065" lon="12.003107930368817"><ele>51.0</ele><time>2026-04-18T07:25:19Z</time></trkpt><trkpt lat="42.02934501802212" lon="12.003023451745893"><ele>51.0</ele><time>2026-04-18T07:25:20Z</time></trkpt><trkpt lat="42.029297262770065" lon="12.002941961529093"><ele>51.0</ele><time>2026-04-18T07:25:21Z</time></trkpt><trkpt lat="42.02926208720512" lon="12.002845699780213"><ele>51.0</ele><time>2026-04-18T07:25:22Z</time></trkpt><trkpt lat="42.029205177641174" lon="12.002778955269859"><ele>51.0</ele><time>2026-04-18T07:25:23Z</time></trkpt><trkpt lat="42.0291649560491" lon="12.002693760766386"><ele>51.0</ele><time>2026-04-18T07:25:24Z</time></trkpt><trkpt lat="42.0291207431086" lon="12.002619980190273"><ele>51.0</ele><time>2026-04-18T07:25:25Z</time></trkpt><trkpt lat="42.02907190488406" lon="12.002542949623034"><ele>51.833333333333336</ele><time>2026-04-18T07:25:26Z</time></trkpt><trkpt lat="42.029017590889644" lon="12.002460768389435"><ele>52.66666666666667</ele><time>2026-04-18T07:25:27Z</time></trkpt><trkpt lat="42.028976843553856" lon="12.002366729676922"><ele>53.5</ele><time>2026-04-18T07:25:28Z</time></trkpt><trkpt lat="42.028928586479026" lon="12.002286313798496"><ele>54.333333333333336</ele><time>2026-04-18T07:25:29Z</time></trkpt><trkpt lat="42.028883185927725" lon="12.002210658021271"><ele>55.16666666666667</ele><time>2026-04-18T07:25:30Z</time></trkpt><trkpt lat="42.02883036098173" lon="12.002122630231906"><ele>56.0</ele><time>2026-04-18T07:25:31Z</time></trkpt><trkpt lat="42.02877304995221" lon="12.002031371789093"><ele>56.00000000000001</ele><time>2026-04-18T07:25:32Z</time></trkpt><trkpt lat="42.02873635407406" lon="12.00195084743964"><ele>56.0</ele><time>2026-04-18T07:25:33Z</time></trkpt><trkpt lat="42.02868826196025" lon="12.00187775854356"><ele>56.0</ele><time>2026-04-18T07:25:34Z</time></trkpt><trkpt lat="42.02863452126255" lon="12.001789741813399"><ele>56.0</ele><time>2026-04-18T07:25:35Z</time></trkpt><trkpt lat="42.02858718626002" lon="12.001699391198757"><ele>56.00000000000001</ele><time>2026-04-18T07:25:36Z</time></trkpt><trkpt lat="42.028548421105484" lon="12.001628427047402"><ele>56.0</ele><time>2026-04-18T07:25:37Z</time></trkpt><trkpt lat="42.02847480780324" lon="12.00149632216264"><ele>55.857142857142854</ele><time>2026-04-18T07:25:39.001Z</time></trkpt><trkpt lat="42.02845591212016" lon="12.001407311408611"><ele>55.714285714285715</ele><time>2026-04-18T07:25:40.001Z</time></trkpt><trkpt lat="42.02842291620994" lon="12.001329190495776"><ele>55.57142857142857</ele><time>2026-04-18T07:25:41.001Z</time></trkpt><trkpt lat="42.02839033428544" lon="12.001255992963234"><ele>55.42857142857143</ele><time>2026-04-18T07:25:42.001Z</time></trkpt><trkpt lat="42.028328460761735" lon="12.001139503876258"><ele>55.285714285714285</ele><time>2026-04-18T07:25:44.001Z</time></trkpt><trkpt lat="42.02833887848527" lon="12.001055354022604"><ele>55.14285714285714</ele><time>2026-04-18T07:25:46.001Z</time></trkpt><trkpt lat="42.02840742123201" lon="12.001007949292864"><ele>55.0</ele><time>2026-04-18T07:25:49.001Z</time></trkpt><trkpt lat="42.02845138474703" lon="12.000926623595065"><ele>54.99999999999999</ele><time>2026-04-18T07:26:11.001Z</time></trkpt><trkpt lat="42.0285148002628" lon="12.000870582100001"><ele>55.0</ele><time>2026-04-18T07:26:13.001Z</time></trkpt><trkpt lat="42.02859386205049" lon="12.000841206227312"><ele>55.0</ele><time>2026-04-18T07:27:48.001Z</time></trkpt><trkpt lat="42.02864111897404" lon="12.000784282942693"><ele>55.0</ele><time>2026-04-18T07:27:50.001Z</time></trkpt><trkpt lat="42.028714465987434" lon="12.000743815257177"><ele>54.99999999999999</ele><time>2026-04-18T07:27:53.001Z</time></trkpt><trkpt lat="42.028806913056414" lon="12.0007001703039"><ele>55.0</ele><time>2026-04-18T07:27:55.001Z</time></trkpt><trkpt lat="42.02892396799547" lon="12.000645209619735"><ele>54.0</ele><time>2026-04-18T07:27:57.001Z</time></trkpt><trkpt lat="42.029057550362126" lon="12.000596810234535"><ele>53.0</ele><time>2026-04-18T07:27:59.001Z</time></trkpt><trkpt lat="42.02914703095836" lon="12.000550606931233"><ele>52.0</ele><time>2026-04-18T07:28:00.001Z</time></trkpt><trkpt lat="42.02925023757894" lon="12.000501687178742"><ele>51.0</ele><time>2026-04-18T07:28:01.001Z</time></trkpt><trkpt lat="42.02938061338841" lon="12.000485710570608"><ele>51.0</ele><time>2026-04-18T07:28:02.001Z</time></trkpt><trkpt lat="42.02950136990908" lon="12.000453425729063"><ele>51.0</ele><time>2026-04-18T07:28:03.001Z</time></trkpt><trkpt lat="42.029598456785784" lon="12.000411575352558"><ele>51.0</ele><time>2026-04-18T07:28:04.001Z</time></trkpt><trkpt lat="42.02968716341651" lon="12.00039167214959"><ele>51.0</ele><time>2026-04-18T07:28:05.001Z</time></trkpt><trkpt lat="42.02977006590498" lon="12.00036988260019"><ele>51.0</ele><time>2026-04-18T07:28:06.001Z</time></trkpt><trkpt lat="42.02985367305535" lon="12.000339304451046"><ele>51.0</ele><time>2026-04-18T07:28:07.001Z</time></trkpt><trkpt lat="42.029948103586285" lon="12.000323363613001"><ele>51.0</ele><time>2026-04-18T07:28:08.001Z</time></trkpt><trkpt lat="42.03005634074497" lon="12.00031094190831"><ele>51.0</ele><time>2026-04-18T07:28:09.001Z</time></trkpt><trkpt lat="42.030175054175366" lon="12.000307452803096"><ele>51.0</ele><time>2026-04-18T07:28:10.001Z</time></trkpt><trkpt lat="42.030292168706715" lon="12.000298747052092"><ele>51.0</ele><time>2026-04-18T07:28:11.001Z</time></trkpt><trkpt lat="42.030409607206174" lon="12.000292061914607"><ele>52.5</ele><time>2026-04-18T07:28:12.001Z</time></trkpt><trkpt lat="42.03052378921636" lon="12.00029122378707"><ele>54.0</ele><time>2026-04-18T07:28:13.001Z</time></trkpt><trkpt lat="42.03063881608124" lon="12.0002854544098"><ele>55.5</ele><time>2026-04-18T07:28:14.001Z</time></trkpt><trkpt lat="42.03076120332836" lon="12.000289046235372"><ele>57.0</ele><time>2026-04-18T07:28:15.001Z</time></trkpt><trkpt lat="42.03088859989095" lon="12.00030052720565"><ele>58.75</ele><time>2026-04-18T07:28:16.001Z</time></trkpt><trkpt lat="42.031014787193186" lon="12.00031140959099"><ele>60.5</ele><time>2026-04-18T07:28:17.001Z</time></trkpt><trkpt lat="42.031149469867536" lon="12.000323471138916"><ele>62.25</ele><time>2026-04-18T07:28:18.001Z</time></trkpt><trkpt lat="42.03126951962749" lon="12.00033312130735"><ele>64.0</ele><time>2026-04-18T07:28:19.001Z</time></trkpt><trkpt lat="42.03136918624754" lon="12.00033993754925"><ele>64.0</ele><time>2026-04-18T07:28:20.001Z</time></trkpt><trkpt lat="42.03147150571189" lon="12.000352494609471"><ele>64.0</ele><time>2026-04-18T07:28:21.001Z</time></trkpt><trkpt lat="42.03158371387613" lon="12.000369424666781"><ele>64.0</ele><time>2026-04-18T07:28:22.001Z</time></trkpt><trkpt lat="42.03169988924455" lon="12.00037945691877"><ele>64.0</ele><time>2026-04-18T07:28:23.001Z</time></trkpt><trkpt lat="42.03182521558363" lon="12.000388280876633"><ele>65.0</ele><time>2026-04-18T07:28:24.001Z</time></trkpt><trkpt lat="42.031950355671356" lon="12.000402903421516"><ele>66.0</ele><time>2026-04-18T07:28:25.001Z</time></trkpt><trkpt lat="42.032066882813325" lon="12.000417092597992"><ele>67.0</ele><time>2026-04-18T07:28:26.001Z</time></trkpt><trkpt lat="42.032184403024736" lon="12.000426596615602"><ele>68.0</ele><time>2026-04-18T07:28:27.001Z</time></trkpt><trkpt lat="42.03229171298716" lon="12.000440410772887"><ele>68.0</ele><time>2026-04-18T07:28:28.001Z</time></trkpt><trkpt lat="42.03240383878381" lon="12.000451386734724"><ele>68.0</ele><time>2026-04-18T07:28:29.001Z</time></trkpt><trkpt lat="42.03251962932115" lon="12.000467062062674"><ele>68.0</ele><time>2026-04-18T07:28:30.001Z</time></trkpt><trkpt lat="42.0326390650067" lon="12.000482783123182"><ele>68.0</ele><time>2026-04-18T07:28:31.001Z</time></trkpt><trkpt lat="42.03275463619927" lon="12.000493663692717"><ele>69.75</ele><time>2026-04-18T07:28:32.001Z</time></trkpt><trkpt lat="42.03287262298484" lon="12.000500075981929"><ele>71.5</ele><time>2026-04-18T07:28:33.001Z</time></trkpt><trkpt lat="42.032995293113565" lon="12.00051289751389"><ele>73.25</ele><time>2026-04-18T07:28:34.001Z</time></trkpt><trkpt lat="42.03312479487684" lon="12.00052440875371"><ele>75.0</ele><time>2026-04-18T07:28:35.001Z</time></trkpt><trkpt lat="42.033251854528785" lon="12.000542387342483"><ele>75.75</ele><time>2026-04-18T07:28:36.001Z</time></trkpt><trkpt lat="42.0333798659754" lon="12.000556997690149"><ele>76.5</ele><time>2026-04-18T07:28:37.001Z</time></trkpt><trkpt lat="42.033508575638415" lon="12.00056961505901"><ele>77.25</ele><time>2026-04-18T07:28:38.001Z</time></trkpt><trkpt lat="42.03363926180099" lon="12.000579553724304"><ele>78.0</ele><time>2026-04-18T07:28:39.001Z</time></trkpt><trkpt lat="42.03377357412166" lon="12.000586212149953"><ele>78.0</ele><time>2026-04-18T07:28:40.001Z</time></trkpt><trkpt lat="42.03391196990387" lon="12.000592566059305"><ele>78.0</ele><time>2026-04-18T07:28:41.001Z</time></trkpt><trkpt lat="42.0340348057372" lon="12.000605264360606"><ele>78.0</ele><time>2026-04-18T07:28:42.001Z</time></trkpt><trkpt lat="42.03414452525822" lon="12.000620211541962"><ele>78.0</ele><time>2026-04-18T07:28:43.001Z</time></trkpt><trkpt lat="42.03425296568641" lon="12.000633377851951"><ele>79.0</ele><time>2026-04-18T07:28:44.001Z</time></trkpt><trkpt lat="42.03435948491959" lon="12.000647206754888"><ele>80.0</ele><time>2026-04-18T07:28:45.001Z</time></trkpt><trkpt lat="42.034469397383084" lon="12.000660461558105"><ele>81.0</ele><time>2026-04-18T07:28:46.001Z</time></trkpt><trkpt lat="42.03457760182647" lon="12.000680487750442"><ele>82.0</ele><time>2026-04-18T07:28:47.001Z</time></trkpt><trkpt lat="42.03468381723135" lon="12.00070356463947"><ele>83.0</ele><time>2026-04-18T07:28:48.001Z</time></trkpt><trkpt lat="42.03479503682938" lon="12.000729193810495"><ele>83.0</ele><time>2026-04-18T07:28:49.001Z</time></trkpt><trkpt lat="42.03490791449594" lon="12.000757008013899"><ele>83.0</ele><time>2026-04-18T07:28:50.001Z</time></trkpt><trkpt lat="42.03502251999154" lon="12.000785386445434"><ele>83.0</ele><time>2026-04-18T07:28:51.001Z</time></trkpt><trkpt lat="42.035134133478294" lon="12.000814277260574"><ele>83.0</ele><time>2026-04-18T07:28:52.001Z</time></trkpt><trkpt lat="42.03524451660747" lon="12.000845479190762"><ele>86.25</ele><time>2026-04-18T07:28:53.001Z</time></trkpt><trkpt lat="42.03534835597667" lon="12.000876562638622"><ele>89.5</ele><time>2026-04-18T07:28:54.001Z</time></trkpt><trkpt lat="42.035454494939884" lon="12.000906026353194"><ele>92.75</ele><time>2026-04-18T07:28:55.001Z</time></trkpt><trkpt lat="42.03557187575424" lon="12.000941852260723"><ele>96.0</ele><time>2026-04-18T07:28:56Z</time></trkpt><trkpt lat="42.03568796613484" lon="12.000974989859014"><ele>97.25</ele><time>2026-04-18T07:28:57Z</time></trkpt><trkpt lat="42.03580441946717" lon="12.001014280761856"><ele>98.5</ele><time>2026-04-18T07:28:58Z</time></trkpt><trkpt lat="42.035917581229725" lon="12.00105304800216"><ele>99.75</ele><time>2026-04-18T07:28:59Z</time></trkpt><trkpt lat="42.036034304020355" lon="12.001078863603302"><ele>101.0</ele><time>2026-04-18T07:29:00Z</time></trkpt><trkpt lat="42.036155059255385" lon="12.001105252753069"><ele>101.0</ele><time>2026-04-18T07:29:01Z</time></trkpt><trkpt lat="42.036276599473126" lon="12.00113837707424"><ele>101.0</ele><time>2026-04-18T07:29:02Z</time></trkpt><trkpt lat="42.036396460570096" lon="12.001160276436638"><ele>101.0</ele><time>2026-04-18T07:29:03Z</time></trkpt><trkpt lat="42.03650393367793" lon="12.001185256634118"><ele>101.0</ele><time>2026-04-18T07:29:04Z</time></trkpt><trkpt lat="42.03661109334577" lon="12.001198426244642"><ele>102.0</ele><time>2026-04-18T07:29:05Z</time></trkpt><trkpt lat="42.03671757399317" lon="12.001186675510011"><ele>103.0</ele><time>2026-04-18T07:29:06Z</time></trkpt><trkpt lat="42.036830550321014" lon="12.001168906290092"><ele>104.0</ele><time>2026-04-18T07:29:07Z</time></trkpt><trkpt lat="42.03694314702465" lon="12.00114724622104"><ele>105.0</ele><time>2026-04-18T07:29:08Z</time></trkpt><trkpt lat="42.0370615809492" lon="12.001124418834964"><ele>105.0</ele><time>2026-04-18T07:29:09Z</time></trkpt><trkpt lat="42.03718288575811" lon="12.001103221371269"><ele>105.0</ele><time>2026-04-18T07:29:10Z</time></trkpt><trkpt lat="42.03730857812199" lon="12.00107052234222"><ele>105.0</ele><time>2026-04-18T07:29:11Z</time></trkpt><trkpt lat="42.03743238300336" lon="12.001033812914761"><ele>105.0</ele><time>2026-04-18T07:29:12Z</time></trkpt><trkpt lat="42.0375626818086" lon="12.001000900196805"><ele>106.75</ele><time>2026-04-18T07:29:13Z</time></trkpt><trkpt lat="42.03769494049785" lon="12.00097901267282"><ele>108.5</ele><time>2026-04-18T07:29:14Z</time></trkpt><trkpt lat="42.03781916858367" lon="12.000957396886825"><ele>110.25</ele><time>2026-04-18T07:29:15Z</time></trkpt><trkpt lat="42.037928033136936" lon="12.000941070053702"><ele>112.0</ele><time>2026-04-18T07:29:16Z</time></trkpt><trkpt lat="42.03803013268394" lon="12.000928197262034"><ele>112.0</ele><time>2026-04-18T07:29:17Z</time></trkpt><trkpt lat="42.03812906611219" lon="12.000907297448657"><ele>111.99999999999999</ele><time>2026-04-18T07:29:18Z</time></trkpt><trkpt lat="42.03822541952689" lon="12.000882067880418"><ele>111.99999999999999</ele><time>2026-04-18T07:29:19Z</time></trkpt><trkpt lat="42.03832217619194" lon="12.000879166856581"><ele>112.0</ele><time>2026-04-18T07:29:20Z</time></trkpt><trkpt lat="42.03841297901879" lon="12.000875459036795"><ele>112.0</ele><time>2026-04-18T07:29:21Z</time></trkpt><trkpt lat="42.03851100029293" lon="12.000859612198724"><ele>113.8</ele><time>2026-04-18T07:29:22Z</time></trkpt><trkpt lat="42.03860953403565" lon="12.000843255293251"><ele>115.6</ele><time>2026-04-18T07:29:23Z</time></trkpt><trkpt lat="42.03870205720843" lon="12.000834619338358"><ele>117.39999999999999</ele><time>2026-04-18T07:29:24Z</time></trkpt><trkpt lat="42.038786756175725" lon="12.000832886655996"><ele>119.19999999999999</ele><time>2026-04-18T07:29:25Z</time></trkpt><trkpt lat="42.03888666410917" lon="12.000835359696138"><ele>121.0</ele><time>2026-04-18T07:29:26Z</time></trkpt><trkpt lat="42.03899169921438" lon="12.000836314318308"><ele>121.0</ele><time>2026-04-18T07:29:27Z</time></trkpt><trkpt lat="42.039102717500924" lon="12.000832809290879"><ele>121.0</ele><time>2026-04-18T07:29:28Z</time></trkpt><trkpt lat="42.03921775284017" lon="12.00082740624776"><ele>121.0</ele><time>2026-04-18T07:29:29Z</time></trkpt><trkpt lat="42.039327790195834" lon="12.00083080482949"><ele>121.0</ele><time>2026-04-18T07:29:30Z</time></trkpt><trkpt lat="42.039438890915406" lon="12.000839160125315"><ele>121.0</ele><time>2026-04-18T07:29:31Z</time></trkpt><trkpt lat="42.03954854521313" lon="12.000843886261059"><ele>123.0</ele><time>2026-04-18T07:29:32.001Z</time></trkpt><trkpt lat="42.039655294774974" lon="12.000845876245133"><ele>125.0</ele><time>2026-04-18T07:29:33.001Z</time></trkpt><trkpt lat="42.039767651935676" lon="12.000846920495183"><ele>127.0</ele><time>2026-04-18T07:29:34.001Z</time></trkpt><trkpt lat="42.03988696954808" lon="12.000848800846612"><ele>129.0</ele><time>2026-04-18T07:29:35.001Z</time></trkpt><trkpt lat="42.04000698130489" lon="12.000848688590464"><ele>131.25</ele><time>2026-04-18T07:29:36.001Z</time></trkpt><trkpt lat="42.040130090593934" lon="12.000848071133664"><ele>133.5</ele><time>2026-04-18T07:29:37.001Z</time></trkpt><trkpt lat="42.04025567786479" lon="12.00087242739886"><ele>135.75</ele><time>2026-04-18T07:29:38.001Z</time></trkpt><trkpt lat="42.040365013999406" lon="12.000875128616585"><ele>138.0</ele><time>2026-04-18T07:29:39.001Z</time></trkpt><trkpt lat="42.04047381864416" lon="12.000864045439027"><ele>138.0</ele><time>2026-04-18T07:29:40.001Z</time></trkpt><trkpt lat="42.04057334049597" lon="12.000875357942421"><ele>138.0</ele><time>2026-04-18T07:29:41.001Z</time></trkpt><trkpt lat="42.040679536089506" lon="12.000885661691884"><ele>138.0</ele><time>2026-04-18T07:29:42.001Z</time></trkpt><trkpt lat="42.04079220252567" lon="12.000906473724772"><ele>138.0</ele><time>2026-04-18T07:29:43.001Z</time></trkpt><trkpt lat="42.040918501929156" lon="12.000926205229481"><ele>138.0</ele><time>2026-04-18T07:29:44.001Z</time></trkpt><trkpt lat="42.0410454016175" lon="12.000951779723088"><ele>139.5</ele><time>2026-04-18T07:29:45.001Z</time></trkpt><trkpt lat="42.04116367266262" lon="12.000981356485203"><ele>141.0</ele><time>2026-04-18T07:29:46.001Z</time></trkpt><trkpt lat="42.04128576529955" lon="12.001030250124444"><ele>142.5</ele><time>2026-04-18T07:29:47.001Z</time></trkpt><trkpt lat="42.04140666942575" lon="12.001058563074334"><ele>144.0</ele><time>2026-04-18T07:29:48.001Z</time></trkpt><trkpt lat="42.041521739374055" lon="12.001085818855664"><ele>145.75</ele><time>2026-04-18T07:29:49.001Z</time></trkpt><trkpt lat="42.04163966793225" lon="12.001113751733003"><ele>147.5</ele><time>2026-04-18T07:29:50.001Z</time></trkpt><trkpt lat="42.04176166889837" lon="12.001145126154261"><ele>149.25</ele><time>2026-04-18T07:29:51.001Z</time></trkpt><trkpt lat="42.04187917473455" lon="12.00116078126489"><ele>151.0</ele><time>2026-04-18T07:29:52.001Z</time></trkpt><trkpt lat="42.041985802058534" lon="12.0011980810845"><ele>151.0</ele><time>2026-04-18T07:29:53.001Z</time></trkpt><trkpt lat="42.042094445707406" lon="12.001269146446079"><ele>151.0</ele><time>2026-04-18T07:29:54.001Z</time></trkpt><trkpt lat="42.04220733176947" lon="12.001299604988892"><ele>151.0</ele><time>2026-04-18T07:29:55.001Z</time></trkpt><trkpt lat="42.04231764128039" lon="12.001363268114652"><ele>151.0</ele><time>2026-04-18T07:29:56.001Z</time></trkpt><trkpt lat="42.04242391818305" lon="12.001442918568484"><ele>152.5</ele><time>2026-04-18T07:29:57.001Z</time></trkpt><trkpt lat="42.04253795880935" lon="12.001504004052803"><ele>154.0</ele><time>2026-04-18T07:29:58.001Z</time></trkpt><trkpt lat="42.04265525024617" lon="12.001537570852262"><ele>155.5</ele><time>2026-04-18T07:29:59.001Z</time></trkpt><trkpt lat="42.042761447199844" lon="12.001592120306512"><ele>157.0</ele><time>2026-04-18T07:30:00.001Z</time></trkpt><trkpt lat="42.04287110065212" lon="12.00164095393319"><ele>158.39999999999998</ele><time>2026-04-18T07:30:01.001Z</time></trkpt><trkpt lat="42.04298148128239" lon="12.001665364275016"><ele>159.79999999999998</ele><time>2026-04-18T07:30:02.001Z</time></trkpt><trkpt lat="42.04308528491697" lon="12.00167437304586"><ele>161.2</ele><time>2026-04-18T07:30:03.001Z</time></trkpt><trkpt lat="42.04319180340589" lon="12.00166904655771"><ele>162.6</ele><time>2026-04-18T07:30:04.001Z</time></trkpt><trkpt lat="42.04330080545408" lon="12.001654511159302"><ele>164.0</ele><time>2026-04-18T07:30:05.001Z</time></trkpt><trkpt lat="42.04341362003791" lon="12.001633322903237"><ele>164.0</ele><time>2026-04-18T07:30:06.001Z</time></trkpt><trkpt lat="42.04351777397829" lon="12.001598651990257"><ele>164.0</ele><time>2026-04-18T07:30:07.001Z</time></trkpt><trkpt lat="42.04362587183669" lon="12.00155228623401"><ele>164.0</ele><time>2026-04-18T07:30:08.001Z</time></trkpt><trkpt lat="42.04373587533098" lon="12.00149703459089"><ele>164.0</ele><time>2026-04-18T07:30:09.001Z</time></trkpt><trkpt lat="42.043841750030495" lon="12.001431680214317"><ele>164.0</ele><time>2026-04-18T07:30:10.001Z</time></trkpt><trkpt lat="42.04394035416442" lon="12.001360137372496"><ele>164.0</ele><time>2026-04-18T07:30:11.001Z</time></trkpt><trkpt lat="42.04405091443668" lon="12.00128730614336"><ele>164.0</ele><time>2026-04-18T07:30:12.001Z</time></trkpt><trkpt lat="42.04415057063827" lon="12.001235271870073"><ele>164.0</ele><time>2026-04-18T07:30:13.001Z</time></trkpt><trkpt lat="42.04424898071956" lon="12.001199410474829"><ele>164.0</ele><time>2026-04-18T07:30:14.001Z</time></trkpt><trkpt lat="42.04435416098387" lon="12.001192267469156"><ele>166.0</ele><time>2026-04-18T07:30:15.001Z</time></trkpt><trkpt lat="42.04446306259908" lon="12.001172324040434"><ele>168.0</ele><time>2026-04-18T07:30:16.001Z</time></trkpt><trkpt lat="42.04456700020841" lon="12.001165958670754"><ele>170.0</ele><time>2026-04-18T07:30:17.001Z</time></trkpt><trkpt lat="42.04466447722042" lon="12.001172103091712"><ele>172.0</ele><time>2026-04-18T07:30:18.001Z</time></trkpt><trkpt lat="42.04475874580392" lon="12.00118979452207"><ele>174.0</ele><time>2026-04-18T07:30:19.001Z</time></trkpt><trkpt lat="42.044851673688214" lon="12.001211509542536"><ele>174.0</ele><time>2026-04-18T07:30:20.001Z</time></trkpt><trkpt lat="42.04494286932142" lon="12.00124073483043"><ele>174.0</ele><time>2026-04-18T07:30:21.001Z</time></trkpt><trkpt lat="42.045049537603916" lon="12.001262950568949"><ele>174.0</ele><time>2026-04-18T07:30:22.001Z</time></trkpt><trkpt lat="42.04515382740351" lon="12.001310772578416"><ele>174.0</ele><time>2026-04-18T07:30:23.001Z</time></trkpt><trkpt lat="42.04526727630155" lon="12.001355785622964"><ele>174.0</ele><time>2026-04-18T07:30:24.001Z</time></trkpt><trkpt lat="42.04537098634694" lon="12.00140717172554"><ele>176.75</ele><time>2026-04-18T07:30:25.001Z</time></trkpt><trkpt lat="42.04547513802163" lon="12.001461554358174"><ele>179.5</ele><time>2026-04-18T07:30:26.001Z</time></trkpt><trkpt lat="42.045582090054126" lon="12.001522614112515"><ele>182.25</ele><time>2026-04-18T07:30:27.001Z</time></trkpt><trkpt lat="42.045691511199706" lon="12.00157947988385"><ele>185.0</ele><time>2026-04-18T07:30:28.001Z</time></trkpt><trkpt lat="42.045792823319935" lon="12.00163963955451"><ele>187.0</ele><time>2026-04-18T07:30:29.001Z</time></trkpt><trkpt lat="42.045902299465844" lon="12.00170659737696"><ele>189.0</ele><time>2026-04-18T07:30:30.001Z</time></trkpt><trkpt lat="42.04600903307944" lon="12.001768486670377"><ele>191.0</ele><time>2026-04-18T07:30:31.001Z</time></trkpt><trkpt lat="42.04610901831872" lon="12.001823572299738"><ele>193.0</ele><time>2026-04-18T07:30:32.001Z</time></trkpt><trkpt lat="42.046207469696704" lon="12.001876767993988"><ele>192.99999999999997</ele><time>2026-04-18T07:30:33.001Z</time></trkpt><trkpt lat="42.046302100446354" lon="12.001916953776005"><ele>193.0</ele><time>2026-04-18T07:30:34.001Z</time></trkpt><trkpt lat="42.046393553634005" lon="12.001939971081072"><ele>193.0</ele><time>2026-04-18T07:30:35.001Z</time></trkpt><trkpt lat="42.046473411762" lon="12.001957299431927"><ele>193.0</ele><time>2026-04-18T07:30:36.001Z</time></trkpt><trkpt lat="42.04655697478574" lon="12.00196058323937"><ele>192.99999999999997</ele><time>2026-04-18T07:30:37.001Z</time></trkpt><trkpt lat="42.046637784085796" lon="12.001943429342482"><ele>193.0</ele><time>2026-04-18T07:30:38.001Z</time></trkpt><trkpt lat="42.046720591171564" lon="12.001910291871365"><ele>193.4</ele><time>2026-04-18T07:30:39.001Z</time></trkpt><trkpt lat="42.04681458031197" lon="12.001866321356436"><ele>193.8</ele><time>2026-04-18T07:30:40.001Z</time></trkpt><trkpt lat="42.046903685422684" lon="12.001815277692124"><ele>194.2</ele><time>2026-04-18T07:30:41.001Z</time></trkpt><trkpt lat="42.04698283301916" lon="12.001763248160696"><ele>194.6</ele><time>2026-04-18T07:30:42.001Z</time></trkpt><trkpt lat="42.04706588189799" lon="12.001706142391381"><ele>195.0</ele><time>2026-04-18T07:30:43.001Z</time></trkpt><trkpt lat="42.04716069219998" lon="12.00165752303714"><ele>197.0</ele><time>2026-04-18T07:30:44.001Z</time></trkpt><trkpt lat="42.04724999477689" lon="12.001614262937304"><ele>199.0</ele><time>2026-04-18T07:30:45.001Z</time></trkpt><trkpt lat="42.047340620514106" lon="12.001559607523799"><ele>201.0</ele><time>2026-04-18T07:30:46.001Z</time></trkpt><trkpt lat="42.04743273222832" lon="12.001507220415787"><ele>203.0</ele><time>2026-04-18T07:30:47Z</time></trkpt><trkpt lat="42.047536072516266" lon="12.001453391631546"><ele>205.0</ele><time>2026-04-18T07:30:48Z</time></trkpt><trkpt lat="42.047649481433346" lon="12.001386492351216"><ele>205.0</ele><time>2026-04-18T07:30:49Z</time></trkpt><trkpt lat="42.04777373914887" lon="12.00133858578619"><ele>205.0</ele><time>2026-04-18T07:30:50Z</time></trkpt><trkpt lat="42.047883690993075" lon="12.00125563565242"><ele>205.0</ele><time>2026-04-18T07:30:51Z</time></trkpt><trkpt lat="42.047982148653475" lon="12.001198218991076"><ele>205.0</ele><time>2026-04-18T07:30:52Z</time></trkpt><trkpt lat="42.04806790342246" lon="12.001146937561344"><ele>205.0</ele><time>2026-04-18T07:30:53Z</time></trkpt><trkpt lat="42.04816588370015" lon="12.001114802971584"><ele>205.0</ele><time>2026-04-18T07:30:54Z</time></trkpt><trkpt lat="42.04826193133114" lon="12.001058407702969"><ele>205.0</ele><time>2026-04-18T07:30:55Z</time></trkpt><trkpt lat="42.04836538541093" lon="12.00099773383105"><ele>205.0</ele><time>2026-04-18T07:30:56Z</time></trkpt><trkpt lat="42.04847877049143" lon="12.000933163662955"><ele>205.0</ele><time>2026-04-18T07:30:57Z</time></trkpt><trkpt lat="42.04858930288949" lon="12.000872674578842"><ele>206.33333333333331</ele><time>2026-04-18T07:30:58Z</time></trkpt><trkpt lat="42.04869188766427" lon="12.000817593273442"><ele>207.66666666666666</ele><time>2026-04-18T07:30:59Z</time></trkpt><trkpt lat="42.04878114165477" lon="12.000761844372606"><ele>209.0</ele><time>2026-04-18T07:31:00Z</time></trkpt><trkpt lat="42.048863018331865" lon="12.000706209797055"><ele>210.33333333333331</ele><time>2026-04-18T07:31:01Z</time></trkpt><trkpt lat="42.048923107304645" lon="12.000637975704661"><ele>211.66666666666666</ele><time>2026-04-18T07:31:02Z</time></trkpt><trkpt lat="42.04898887982617" lon="12.000609557885527"><ele>213.0</ele><time>2026-04-18T07:31:03Z</time></trkpt><trkpt lat="42.04904747939671" lon="12.000561596903436"><ele>213.0</ele><time>2026-04-18T07:31:04Z</time></trkpt><trkpt lat="42.0491101799358" lon="12.00050809967686"><ele>213.0</ele><time>2026-04-18T07:31:05Z</time></trkpt><trkpt lat="42.0491690556384" lon="12.00045587016266"><ele>213.0</ele><time>2026-04-18T07:31:06Z</time></trkpt><trkpt lat="42.04925326935227" lon="12.000353526665629"><ele>213.0</ele><time>2026-04-18T07:31:08Z</time></trkpt><trkpt lat="42.049338633545275" lon="12.00028335574641"><ele>213.0</ele><time>2026-04-18T07:31:10Z</time></trkpt><trkpt lat="42.04938552361915" lon="12.00021937740367"><ele>213.0</ele><time>2026-04-18T07:31:11Z</time></trkpt><trkpt lat="42.04944453291593" lon="12.000143041244753"><ele>213.4</ele><time>2026-04-18T07:31:12Z</time></trkpt><trkpt lat="42.04951215673378" lon="12.000056377419975"><ele>213.8</ele><time>2026-04-18T07:31:13Z</time></trkpt><trkpt lat="42.04956946034388" lon="11.999956238859285"><ele>214.2</ele><time>2026-04-18T07:31:14Z</time></trkpt><trkpt lat="42.04962441383535" lon="11.999833521017242"><ele>214.6</ele><time>2026-04-18T07:31:15Z</time></trkpt><trkpt lat="42.04968029022209" lon="11.999706564345162"><ele>215.0</ele><time>2026-04-18T07:31:16Z</time></trkpt><trkpt lat="42.04975494909794" lon="11.999585866852414"><ele>215.0</ele><time>2026-04-18T07:31:17Z</time></trkpt><trkpt lat="42.04981033205928" lon="11.999463944384303"><ele>215.0</ele><time>2026-04-18T07:31:18Z</time></trkpt><trkpt lat="42.04987036540358" lon="11.999331785262143"><ele>215.0</ele><time>2026-04-18T07:31:19Z</time></trkpt><trkpt lat="42.04993431367714" lon="11.999189279029403"><ele>215.0</ele><time>2026-04-18T07:31:20Z</time></trkpt><trkpt lat="42.049987667022094" lon="11.999023693318248"><ele>216.0</ele><time>2026-04-18T07:31:21Z</time></trkpt><trkpt lat="42.050056678013334" lon="11.998865229200188"><ele>217.0</ele><time>2026-04-18T07:31:22Z</time></trkpt><trkpt lat="42.05011945576317" lon="11.998714336789293"><ele>218.0</ele><time>2026-04-18T07:31:23Z</time></trkpt><trkpt lat="42.05019694100778" lon="11.998578670343429"><ele>219.0</ele><time>2026-04-18T07:31:24Z</time></trkpt><trkpt lat="42.05024951325338" lon="11.998480595595023"><ele>219.0</ele><time>2026-04-18T07:31:25Z</time></trkpt><trkpt lat="42.05030458744437" lon="11.998397937136163"><ele>218.99999999999997</ele><time>2026-04-18T07:31:26Z</time></trkpt><trkpt lat="42.05036361455193" lon="11.998333442737264"><ele>218.99999999999997</ele><time>2026-04-18T07:31:27Z</time></trkpt><trkpt lat="42.05042662088054" lon="11.998262625689504"><ele>219.0</ele><time>2026-04-18T07:31:28Z</time></trkpt><trkpt lat="42.05050844784245" lon="11.998176978620709"><ele>219.0</ele><time>2026-04-18T07:31:29Z</time></trkpt><trkpt lat="42.05060012230094" lon="11.998084601674035"><ele>220.25</ele><time>2026-04-18T07:31:30Z</time></trkpt><trkpt lat="42.0507115454447" lon="11.997972992840953"><ele>221.5</ele><time>2026-04-18T07:31:31Z</time></trkpt><trkpt lat="42.05082880788429" lon="11.997855832757255"><ele>222.75</ele><time>2026-04-18T07:31:32Z</time></trkpt><trkpt lat="42.050950728617316" lon="11.99773401846863"><ele>224.0</ele><time>2026-04-18T07:31:33Z</time></trkpt><trkpt lat="42.05105387422552" lon="11.99759511107091"><ele>226.25</ele><time>2026-04-18T07:31:34Z</time></trkpt><trkpt lat="42.05115665304927" lon="11.997486909497285"><ele>228.5</ele><time>2026-04-18T07:31:35Z</time></trkpt><trkpt lat="42.05126686782353" lon="11.997380213281922"><ele>230.75</ele><time>2026-04-18T07:31:36Z</time></trkpt><trkpt lat="42.051386171384706" lon="11.997274617208287"><ele>233.0</ele><time>2026-04-18T07:31:37Z</time></trkpt><trkpt lat="42.05151193004817" lon="11.99715431450756"><ele>234.33333333333334</ele><time>2026-04-18T07:31:38Z</time></trkpt><trkpt lat="42.051635866349386" lon="11.99702197048786"><ele>235.66666666666669</ele><time>2026-04-18T07:31:39Z</time></trkpt><trkpt lat="42.05175745073791" lon="11.996903063363977"><ele>237.0</ele><time>2026-04-18T07:31:40Z</time></trkpt><trkpt lat="42.051878528478504" lon="11.996788001314009"><ele>237.0</ele><time>2026-04-18T07:31:41Z</time></trkpt><trkpt lat="42.05199666379418" lon="11.996674594892069"><ele>237.0</ele><time>2026-04-18T07:31:42Z</time></trkpt><trkpt lat="42.052112284934644" lon="11.996565971050469"><ele>237.0</ele><time>2026-04-18T07:31:43Z</time></trkpt><trkpt lat="42.052223064991026" lon="11.996462021644682"><ele>237.0</ele><time>2026-04-18T07:31:44Z</time></trkpt><trkpt lat="42.05232323630339" lon="11.996376579408404"><ele>238.5</ele><time>2026-04-18T07:31:45Z</time></trkpt><trkpt lat="42.052426737544664" lon="11.996330901633526"><ele>240.0</ele><time>2026-04-18T07:31:46Z</time></trkpt><trkpt lat="42.052531523965335" lon="11.996263427203745"><ele>241.5</ele><time>2026-04-18T07:31:47Z</time></trkpt><trkpt lat="42.05264623918893" lon="11.996214316523469"><ele>243.0</ele><time>2026-04-18T07:31:48Z</time></trkpt><trkpt lat="42.05278110968784" lon="11.996156770304594"><ele>243.75</ele><time>2026-04-18T07:31:49Z</time></trkpt><trkpt lat="42.05291368949782" lon="11.996099533893766"><ele>244.5</ele><time>2026-04-18T07:31:50Z</time></trkpt><trkpt lat="42.05304931967638" lon="11.9960409806118"><ele>245.25</ele><time>2026-04-18T07:31:51Z</time></trkpt><trkpt lat="42.05318425705879" lon="11.995982726409013"><ele>246.0</ele><time>2026-04-18T07:31:52Z</time></trkpt><trkpt lat="42.05331113336701" lon="11.995905091056551"><ele>246.75</ele><time>2026-04-18T07:31:53Z</time></trkpt><trkpt lat="42.05343927041908" lon="11.995858968816668"><ele>247.5</ele><time>2026-04-18T07:31:54Z</time></trkpt><trkpt lat="42.053563000482605" lon="11.99580479296057"><ele>248.25</ele><time>2026-04-18T07:31:55Z</time></trkpt><trkpt lat="42.053683023187254" lon="11.99574823500345"><ele>249.0</ele><time>2026-04-18T07:31:56Z</time></trkpt><trkpt lat="42.053808466741366" lon="11.995696242163529"><ele>249.75</ele><time>2026-04-18T07:31:57Z</time></trkpt><trkpt lat="42.05392530413632" lon="11.995648576015778"><ele>250.5</ele><time>2026-04-18T07:31:58Z</time></trkpt><trkpt lat="42.05404727040341" lon="11.995598335940231"><ele>251.25</ele><time>2026-04-18T07:31:59Z</time></trkpt><trkpt lat="42.05416768892408" lon="11.995541570280865"><ele>252.0</ele><time>2026-04-18T07:32:00Z</time></trkpt><trkpt lat="42.054295812822026" lon="11.995485731816302"><ele>252.0</ele><time>2026-04-18T07:32:01Z</time></trkpt><trkpt lat="42.0544201604493" lon="11.995438470879453"><ele>252.0</ele><time>2026-04-18T07:32:02Z</time></trkpt><trkpt lat="42.05454877954213" lon="11.995399823319953"><ele>252.0</ele><time>2026-04-18T07:32:03Z</time></trkpt><trkpt lat="42.05466383279464" lon="11.995350545869409"><ele>252.0</ele><time>2026-04-18T07:32:04Z</time></trkpt><trkpt lat="42.05477908132445" lon="11.995301183035414"><ele>252.0</ele><time>2026-04-18T07:32:05Z</time></trkpt><trkpt lat="42.054896702549186" lon="11.995227766414763"><ele>252.0</ele><time>2026-04-18T07:32:06Z</time></trkpt><trkpt lat="42.055020396587786" lon="11.995189857212921"><ele>252.0</ele><time>2026-04-18T07:32:07Z</time></trkpt><trkpt lat="42.05515159139961" lon="11.995137675634567"><ele>252.0</ele><time>2026-04-18T07:32:08Z</time></trkpt><trkpt lat="42.05528316848614" lon="11.995081166773133"><ele>251.75</ele><time>2026-04-18T07:32:09Z</time></trkpt><trkpt lat="42.05541294039765" lon="11.995025299574976"><ele>251.5</ele><time>2026-04-18T07:32:10Z</time></trkpt><trkpt lat="42.055541129335786" lon="11.994969424325877"><ele>251.25</ele><time>2026-04-18T07:32:11Z</time></trkpt><trkpt lat="42.05566478562821" lon="11.994917232912435"><ele>251.0</ele><time>2026-04-18T07:32:12Z</time></trkpt><trkpt lat="42.05578709711307" lon="11.994868451160574"><ele>252.25</ele><time>2026-04-18T07:32:13Z</time></trkpt><trkpt lat="42.05589815922147" lon="11.994815519455091"><ele>253.5</ele><time>2026-04-18T07:32:14Z</time></trkpt><trkpt lat="42.05601555264973" lon="11.994783454516721"><ele>254.75</ele><time>2026-04-18T07:32:15Z</time></trkpt><trkpt lat="42.056123847409594" lon="11.994738160413196"><ele>256.0</ele><time>2026-04-18T07:32:16Z</time></trkpt><trkpt lat="42.056223529823946" lon="11.994693610256373"><ele>255.99999999999997</ele><time>2026-04-18T07:32:17Z</time></trkpt><trkpt lat="42.05630793863365" lon="11.994635579935734"><ele>256.0</ele><time>2026-04-18T07:32:18Z</time></trkpt><trkpt lat="42.05639974259192" lon="11.994596971163658"><ele>256.0</ele><time>2026-04-18T07:32:19Z</time></trkpt><trkpt lat="42.0564933966886" lon="11.994559913936822"><ele>256.0</ele><time>2026-04-18T07:32:20Z</time></trkpt><trkpt lat="42.05656718579039" lon="11.994522314434201"><ele>255.99999999999997</ele><time>2026-04-18T07:32:21Z</time></trkpt><trkpt lat="42.05663554827559" lon="11.994493522277262"><ele>256.0</ele><time>2026-04-18T07:32:22Z</time></trkpt><trkpt lat="42.05674330281301" lon="11.994466376723304"><ele>256.66666666666663</ele><time>2026-04-18T07:32:24Z</time></trkpt><trkpt lat="42.056808971741475" lon="11.994440155868235"><ele>257.3333333333333</ele><time>2026-04-18T07:32:27Z</time></trkpt><trkpt lat="42.05687566746808" lon="11.994413425293807"><ele>258.0</ele><time>2026-04-18T07:32:30Z</time></trkpt><trkpt lat="42.05694119646477" lon="11.993896757162595"><ele>258.2</ele><time>2026-04-18T07:32:58Z</time></trkpt><trkpt lat="42.05697578917643" lon="11.993799777275026"><ele>258.4</ele><time>2026-04-18T07:32:59Z</time></trkpt><trkpt lat="42.0570141730273" lon="11.993696154482143"><ele>258.59999999999997</ele><time>2026-04-18T07:33:00Z</time></trkpt><trkpt lat="42.05704882348781" lon="11.993576184498"><ele>258.8</ele><time>2026-04-18T07:33:01Z</time></trkpt><trkpt lat="42.05708957504004" lon="11.993455158076193"><ele>259.0</ele><time>2026-04-18T07:33:02Z</time></trkpt><trkpt lat="42.057124725610635" lon="11.99333298697726"><ele>258.16666666666663</ele><time>2026-04-18T07:33:03Z</time></trkpt><trkpt lat="42.057158774287764" lon="11.993209328078262"><ele>257.3333333333333</ele><time>2026-04-18T07:33:04Z</time></trkpt><trkpt lat="42.05718954544281" lon="11.993087691349523"><ele>256.5</ele><time>2026-04-18T07:33:05Z</time></trkpt><trkpt lat="42.05722389809677" lon="11.992965513876428"><ele>255.66666666666669</ele><time>2026-04-18T07:33:06Z</time></trkpt><trkpt lat="42.05725439604194" lon="11.992860035676808"><ele>254.83333333333334</ele><time>2026-04-18T07:33:07Z</time></trkpt><trkpt lat="42.05729047149628" lon="11.99278236229967"><ele>254.0</ele><time>2026-04-18T07:33:08Z</time></trkpt><trkpt lat="42.05733001817796" lon="11.992710698171342"><ele>254.0</ele><time>2026-04-18T07:33:09Z</time></trkpt><trkpt lat="42.05743459945422" lon="11.992589550702679"><ele>253.99999999999997</ele><time>2026-04-18T07:33:11Z</time></trkpt><trkpt lat="42.05750616077217" lon="11.992508022908558"><ele>253.99999999999997</ele><time>2026-04-18T07:33:12Z</time></trkpt><trkpt lat="42.05757400972823" lon="11.992436155940144"><ele>254.0</ele><time>2026-04-18T07:33:13Z</time></trkpt><trkpt lat="42.05764104358304" lon="11.992355545363438"><ele>254.0</ele><time>2026-04-18T07:33:14Z</time></trkpt><trkpt lat="42.057708430651516" lon="11.992292881872483"><ele>253.33333333333334</ele><time>2026-04-18T07:33:15Z</time></trkpt><trkpt lat="42.057771400288566" lon="11.992214388796416"><ele>252.66666666666669</ele><time>2026-04-18T07:33:16Z</time></trkpt><trkpt lat="42.05783042028572" lon="11.99215457218807"><ele>252.0</ele><time>2026-04-18T07:33:17Z</time></trkpt><trkpt lat="42.057876549582495" lon="11.99209443111441"><ele>251.33333333333331</ele><time>2026-04-18T07:33:18Z</time></trkpt><trkpt lat="42.057936518679035" lon="11.991967536287133"><ele>250.66666666666666</ele><time>2026-04-18T07:33:20Z</time></trkpt><trkpt lat="42.05803576348705" lon="11.99190907683512"><ele>250.0</ele><time>2026-04-18T07:33:22Z</time></trkpt><trkpt lat="42.058104572345194" lon="11.991918059773695"><ele>250.0</ele><time>2026-04-18T07:33:23Z</time></trkpt><trkpt lat="42.05818537311075" lon="11.99191186319052"><ele>250.0</ele><time>2026-04-18T07:33:25Z</time></trkpt><trkpt lat="42.05821054881903" lon="11.991775950273714"><ele>250.0</ele><time>2026-04-18T07:33:27Z</time></trkpt><trkpt lat="42.05820957550646" lon="11.991657402704263"><ele>250.0</ele><time>2026-04-18T07:33:29Z</time></trkpt><trkpt lat="42.058195256063044" lon="11.991485073921307"><ele>250.0</ele><time>2026-04-18T07:33:31Z</time></trkpt><trkpt lat="42.058183088137056" lon="11.991393720811569"><ele>250.8</ele><time>2026-04-18T07:33:32Z</time></trkpt><trkpt lat="42.05818100944985" lon="11.991259688652917"><ele>251.6</ele><time>2026-04-18T07:33:34Z</time></trkpt><trkpt lat="42.0582515652551" lon="11.991160378300405"><ele>252.39999999999998</ele><time>2026-04-18T07:33:36Z</time></trkpt><trkpt lat="42.058367107132334" lon="11.991112041938756"><ele>253.2</ele><time>2026-04-18T07:33:38Z</time></trkpt><trkpt lat="42.05843418060612" lon="11.991108811642789"><ele>254.0</ele><time>2026-04-18T07:33:39Z</time></trkpt><trkpt lat="42.05850073187509" lon="11.991130441908702"><ele>254.0</ele><time>2026-04-18T07:33:40Z</time></trkpt><trkpt lat="42.05857870277154" lon="11.991153366477656"><ele>253.99999999999997</ele><time>2026-04-18T07:33:41Z</time></trkpt><trkpt lat="42.05864208558534" lon="11.991147045364096"><ele>253.99999999999997</ele><time>2026-04-18T07:33:42Z</time></trkpt><trkpt lat="42.05873982512665" lon="11.991137528179918"><ele>254.0</ele><time>2026-04-18T07:33:44Z</time></trkpt><trkpt lat="42.0588408618689" lon="11.991099213478071"><ele>254.0</ele><time>2026-04-18T07:33:46Z</time></trkpt><trkpt lat="42.05895573872215" lon="11.99109557012533"><ele>254.0</ele><time>2026-04-18T07:33:48Z</time></trkpt><trkpt lat="42.05905259388596" lon="11.991118310211824"><ele>253.99999999999997</ele><time>2026-04-18T07:33:50Z</time></trkpt><trkpt lat="42.05916891230802" lon="11.991145129491107"><ele>253.99999999999997</ele><time>2026-04-18T07:33:52Z</time></trkpt><trkpt lat="42.05928534174722" lon="11.99117069848577"><ele>254.0</ele><time>2026-04-18T07:33:54Z</time></trkpt><trkpt lat="42.05934888400027" lon="11.991188979543981"><ele>254.0</ele><time>2026-04-18T07:33:55Z</time></trkpt><trkpt lat="42.0594572355256" lon="11.991201958878145"><ele>256.1666666666667</ele><time>2026-04-18T07:33:57.001Z</time></trkpt><trkpt lat="42.05952402224215" lon="11.991249417427198"><ele>258.33333333333337</ele><time>2026-04-18T07:33:58Z</time></trkpt><trkpt lat="42.05959707203625" lon="11.991280328561897"><ele>260.5</ele><time>2026-04-18T07:33:59Z</time></trkpt><trkpt lat="42.0596681651184" lon="11.9912996494969"><ele>262.6666666666667</ele><time>2026-04-18T07:34:00Z</time></trkpt><trkpt lat="42.05975043996248" lon="11.99131326580301"><ele>264.8333333333333</ele><time>2026-04-18T07:34:01Z</time></trkpt><trkpt lat="42.05984068084492" lon="11.991310628531442"><ele>267.0</ele><time>2026-04-18T07:34:02Z</time></trkpt><trkpt lat="42.059948369919866" lon="11.991319494681383"><ele>268.4</ele><time>2026-04-18T07:34:03Z</time></trkpt><trkpt lat="42.06005857005615" lon="11.991345387945968"><ele>269.79999999999995</ele><time>2026-04-18T07:34:04Z</time></trkpt><trkpt lat="42.06015700914156" lon="11.991350653598776"><ele>271.2</ele><time>2026-04-18T07:34:05Z</time></trkpt><trkpt lat="42.06022709575457" lon="11.99133663035335"><ele>272.59999999999997</ele><time>2026-04-18T07:34:06Z</time></trkpt><trkpt lat="42.06029103801621" lon="11.991327394620187"><ele>274.0</ele><time>2026-04-18T07:34:07Z</time></trkpt><trkpt lat="42.06040181756227" lon="11.991351528985717"><ele>274.0</ele><time>2026-04-18T07:34:09Z</time></trkpt><trkpt lat="42.06047618108771" lon="11.99138360127946"><ele>274.0</ele><time>2026-04-18T07:34:10Z</time></trkpt><trkpt lat="42.06060217523697" lon="11.991421193818416"><ele>274.0</ele><time>2026-04-18T07:34:12Z</time></trkpt><trkpt lat="42.060703074805026" lon="11.99141821500033"><ele>274.0</ele><time>2026-04-18T07:34:13Z</time></trkpt><trkpt lat="42.06081728109967" lon="11.991424469161604"><ele>274.0</ele><time>2026-04-18T07:34:14Z</time></trkpt><trkpt lat="42.06092735045535" lon="11.991463389269072"><ele>274.0</ele><time>2026-04-18T07:34:15Z</time></trkpt><trkpt lat="42.061057260208734" lon="11.991530633968281"><ele>274.0</ele><time>2026-04-18T07:34:16Z</time></trkpt><trkpt lat="42.061178742695745" lon="11.991599775408242"><ele>274.0</ele><time>2026-04-18T07:34:17Z</time></trkpt><trkpt lat="42.06128320986326" lon="11.991652918438763"><ele>274.0</ele><time>2026-04-18T07:34:18Z</time></trkpt><trkpt lat="42.0613770597554" lon="11.99167542662437"><ele>274.0</ele><time>2026-04-18T07:34:19Z</time></trkpt><trkpt lat="42.061465443782645" lon="11.99168850810041"><ele>274.0</ele><time>2026-04-18T07:34:20Z</time></trkpt><trkpt lat="42.06155556165716" lon="11.991705735293573"><ele>274.0</ele><time>2026-04-18T07:34:21Z</time></trkpt><trkpt lat="42.061641692588665" lon="11.991719736534408"><ele>274.0</ele><time>2026-04-18T07:34:22Z</time></trkpt><trkpt lat="42.06172610750707" lon="11.991753554305426"><ele>274.0</ele><time>2026-04-18T07:34:23Z</time></trkpt><trkpt lat="42.06180957003159" lon="11.991783399904921"><ele>274.0</ele><time>2026-04-18T07:34:24Z</time></trkpt><trkpt lat="42.06190420477129" lon="11.991805217546158"><ele>275.8571428571429</ele><time>2026-04-18T07:34:25Z</time></trkpt><trkpt lat="42.061977109975075" lon="11.99182330464398"><ele>277.7142857142857</ele><time>2026-04-18T07:34:26Z</time></trkpt><trkpt lat="42.062048507337956" lon="11.991849367061231"><ele>279.57142857142856</ele><time>2026-04-18T07:34:27Z</time></trkpt><trkpt lat="42.062116624403394" lon="11.991870656791649"><ele>281.42857142857144</ele><time>2026-04-18T07:34:28Z</time></trkpt><trkpt lat="42.06218781654114" lon="11.99189045565375"><ele>283.2857142857143</ele><time>2026-04-18T07:34:29Z</time></trkpt><trkpt lat="42.06226799658084" lon="11.991898215502307"><ele>285.14285714285717</ele><time>2026-04-18T07:34:30Z</time></trkpt><trkpt lat="42.062336215970845" lon="11.99190066424994"><ele>287.0</ele><time>2026-04-18T07:34:31Z</time></trkpt><trkpt lat="42.06242650114112" lon="11.991890948107853"><ele>289.1666666666667</ele><time>2026-04-18T07:34:33Z</time></trkpt><trkpt lat="42.062523684979595" lon="11.991923661973033"><ele>291.33333333333337</ele><time>2026-04-18T07:34:35Z</time></trkpt><trkpt lat="42.06265024065179" lon="11.991972356575111"><ele>293.5</ele><time>2026-04-18T07:34:37Z</time></trkpt><trkpt lat="42.062719067765975" lon="11.991991366146793"><ele>295.6666666666667</ele><time>2026-04-18T07:34:38Z</time></trkpt><trkpt lat="42.06278037220857" lon="11.992016385227965"><ele>297.8333333333333</ele><time>2026-04-18T07:34:39Z</time></trkpt><trkpt lat="42.062847176768386" lon="11.992064257469172"><ele>300.0</ele><time>2026-04-18T07:34:40Z</time></trkpt><trkpt lat="42.06291666621171" lon="11.992119567056866"><ele>300.0</ele><time>2026-04-18T07:34:41Z</time></trkpt><trkpt lat="42.0629903127742" lon="11.992170010995054"><ele>300.0</ele><time>2026-04-18T07:34:42Z</time></trkpt><trkpt lat="42.06307406828576" lon="11.992219222416491"><ele>300.0</ele><time>2026-04-18T07:34:43Z</time></trkpt><trkpt lat="42.06316148929369" lon="11.99228495078624"><ele>300.0</ele><time>2026-04-18T07:34:44Z</time></trkpt><trkpt lat="42.06325073233777" lon="11.992348097009227"><ele>300.0</ele><time>2026-04-18T07:34:45Z</time></trkpt><trkpt lat="42.06334052580733" lon="11.992401331623629"><ele>301.1666666666667</ele><time>2026-04-18T07:34:46Z</time></trkpt><trkpt lat="42.063421345933364" lon="11.992467443270726"><ele>302.3333333333333</ele><time>2026-04-18T07:34:47Z</time></trkpt><trkpt lat="42.06348079195188" lon="11.992540397468503"><ele>303.5</ele><time>2026-04-18T07:34:48Z</time></trkpt><trkpt lat="42.06352526159521" lon="11.992608596453842"><ele>304.66666666666663</ele><time>2026-04-18T07:34:49Z</time></trkpt><trkpt lat="42.06356631309799" lon="11.992677949117702"><ele>305.8333333333333</ele><time>2026-04-18T07:34:50Z</time></trkpt><trkpt lat="42.06361390132346" lon="11.992734841824502"><ele>307.0</ele><time>2026-04-18T07:34:51Z</time></trkpt><trkpt lat="42.06371453375547" lon="11.992806614942076"><ele>307.0</ele><time>2026-04-18T07:34:53Z</time></trkpt><trkpt lat="42.063804287125706" lon="11.992886365396512"><ele>307.0</ele><time>2026-04-18T07:34:55Z</time></trkpt><trkpt lat="42.063875727835935" lon="11.992966900836716"><ele>307.0</ele><time>2026-04-18T07:34:57Z</time></trkpt><trkpt lat="42.06396091807874" lon="11.993052739251544"><ele>307.0</ele><time>2026-04-18T07:34:59Z</time></trkpt><trkpt lat="42.064034788048026" lon="11.993133313851104"><ele>307.0</ele><time>2026-04-18T07:35:01Z</time></trkpt><trkpt lat="42.06412110186853" lon="11.993107391140592"><ele>308.8333333333333</ele><time>2026-04-18T07:35:03Z</time></trkpt><trkpt lat="42.06417675302332" lon="11.993051497390152"><ele>310.66666666666663</ele><time>2026-04-18T07:35:04Z</time></trkpt><trkpt lat="42.06424254725207" lon="11.992999272336649"><ele>312.5</ele><time>2026-04-18T07:35:05Z</time></trkpt><trkpt lat="42.06432102463317" lon="11.992971449597809"><ele>314.3333333333333</ele><time>2026-04-18T07:35:06Z</time></trkpt><trkpt lat="42.06441783186293" lon="11.992955913118164"><ele>316.1666666666667</ele><time>2026-04-18T07:35:07Z</time></trkpt><trkpt lat="42.06450934785822" lon="11.992939869727355"><ele>318.0</ele><time>2026-04-18T07:35:08Z</time></trkpt><trkpt lat="42.064582374268994" lon="11.992923353916993"><ele>318.0</ele><time>2026-04-18T07:35:09Z</time></trkpt><trkpt lat="42.06464841859763" lon="11.99290586255515"><ele>318.0</ele><time>2026-04-18T07:35:10Z</time></trkpt><trkpt lat="42.06472661139187" lon="11.992885618298358"><ele>318.0</ele><time>2026-04-18T07:35:11Z</time></trkpt><trkpt lat="42.06482027573891" lon="11.992878088786867"><ele>318.0</ele><time>2026-04-18T07:35:12Z</time></trkpt><trkpt lat="42.06490988310618" lon="11.992864939798682"><ele>318.0</ele><time>2026-04-18T07:35:13Z</time></trkpt><trkpt lat="42.06500391508647" lon="11.992876427568108"><ele>318.0</ele><time>2026-04-18T07:35:14Z</time></trkpt><trkpt lat="42.06509095206477" lon="11.992889470188835"><ele>319.5</ele><time>2026-04-18T07:35:15Z</time></trkpt><trkpt lat="42.065174071779005" lon="11.992898537492735"><ele>321.0</ele><time>2026-04-18T07:35:16Z</time></trkpt><trkpt lat="42.06525004342886" lon="11.992914562824609"><ele>322.5</ele><time>2026-04-18T07:35:17Z</time></trkpt><trkpt lat="42.06534005435059" lon="11.992939863971142"><ele>324.0</ele><time>2026-04-18T07:35:18Z</time></trkpt><trkpt lat="42.06543252640969" lon="11.992949006492655"><ele>325.5</ele><time>2026-04-18T07:35:19Z</time></trkpt><trkpt lat="42.06551399632034" lon="11.992947570491987"><ele>327.0</ele><time>2026-04-18T07:35:20Z</time></trkpt><trkpt lat="42.06559022886364" lon="11.992935082911636"><ele>327.0</ele><time>2026-04-18T07:35:21Z</time></trkpt><trkpt lat="42.06567499364185" lon="11.992951747097308"><ele>327.0</ele><time>2026-04-18T07:35:22Z</time></trkpt><trkpt lat="42.06576596729924" lon="11.992979977271755"><ele>327.0</ele><time>2026-04-18T07:35:23Z</time></trkpt><trkpt lat="42.06586092183841" lon="11.993017065666391"><ele>327.0</ele><time>2026-04-18T07:35:24Z</time></trkpt><trkpt lat="42.065962613611404" lon="11.993059384878698"><ele>327.0</ele><time>2026-04-18T07:35:25Z</time></trkpt><trkpt lat="42.06605897531081" lon="11.993100999405357"><ele>328.5</ele><time>2026-04-18T07:35:26Z</time></trkpt><trkpt lat="42.066136269341214" lon="11.993147885482191"><ele>330.0</ele><time>2026-04-18T07:35:27Z</time></trkpt><trkpt lat="42.06620202823308" lon="11.993211547467949"><ele>331.5</ele><time>2026-04-18T07:35:28Z</time></trkpt><trkpt lat="42.066269263874574" lon="11.993272430621753"><ele>333.0</ele><time>2026-04-18T07:35:29Z</time></trkpt><trkpt lat="42.06632904823272" lon="11.993328434644608"><ele>334.5</ele><time>2026-04-18T07:35:30Z</time></trkpt><trkpt lat="42.06641628498427" lon="11.993383315995915"><ele>336.0</ele><time>2026-04-18T07:35:32Z</time></trkpt><trkpt lat="42.06649971133414" lon="11.993422028791787"><ele>336.0</ele><time>2026-04-18T07:35:34Z</time></trkpt><trkpt lat="42.06655520037155" lon="11.99346786764015"><ele>336.0</ele><time>2026-04-18T07:35:35Z</time></trkpt><trkpt lat="42.0666236813219" lon="11.993519611522801"><ele>336.0</ele><time>2026-04-18T07:35:36Z</time></trkpt><trkpt lat="42.06669224181136" lon="11.99355565390815"><ele>336.0</ele><time>2026-04-18T07:35:37Z</time></trkpt><trkpt lat="42.06675826959897" lon="11.993621288140767"><ele>336.0</ele><time>2026-04-18T07:35:39Z</time></trkpt><trkpt lat="42.066832033292506" lon="11.993714977589983"><ele>336.0</ele><time>2026-04-18T07:35:41Z</time></trkpt><trkpt lat="42.066872745341875" lon="11.993785196500646"><ele>339.6</ele><time>2026-04-18T07:35:42Z</time></trkpt><trkpt lat="42.06699468175051" lon="11.993879886284109"><ele>343.20000000000005</ele><time>2026-04-18T07:35:44Z</time></trkpt><trkpt lat="42.067050189760266" lon="11.993927668833313"><ele>346.79999999999995</ele><time>2026-04-18T07:35:45Z</time></trkpt><trkpt lat="42.067126865305475" lon="11.994033510558541"><ele>350.4</ele><time>2026-04-18T07:35:47Z</time></trkpt><trkpt lat="42.067212372759556" lon="11.9940533902434"><ele>354.0</ele><time>2026-04-18T07:35:50Z</time></trkpt><trkpt lat="42.067291488849364" lon="11.994026799437808"><ele>354.0</ele><time>2026-04-18T07:35:52Z</time></trkpt><trkpt lat="42.06744325116624" lon="11.994065657376108"><ele>354.0</ele><time>2026-04-18T07:35:53Z</time></trkpt><trkpt lat="42.067501674022616" lon="11.994031990591346"><ele>354.0</ele><time>2026-04-18T07:35:54Z</time></trkpt><trkpt lat="42.06762110003509" lon="11.993964236837389"><ele>354.0</ele><time>2026-04-18T07:35:56Z</time></trkpt><trkpt lat="42.0676846247506" lon="11.993957821326484"><ele>354.0</ele><time>2026-04-18T07:35:57Z</time></trkpt><trkpt lat="42.06776270056493" lon="11.993947245934345"><ele>356.8333333333333</ele><time>2026-04-18T07:35:58Z</time></trkpt><trkpt lat="42.067844670233285" lon="11.9939150788687"><ele>359.6666666666667</ele><time>2026-04-18T07:35:59Z</time></trkpt><trkpt lat="42.06791586304166" lon="11.993879082367668"><ele>362.5</ele><time>2026-04-18T07:36:00Z</time></trkpt><trkpt lat="42.06798579260281" lon="11.99382818292449"><ele>365.33333333333337</ele><time>2026-04-18T07:36:01Z</time></trkpt><trkpt lat="42.068042677835834" lon="11.99378000093813"><ele>368.1666666666667</ele><time>2026-04-18T07:36:02Z</time></trkpt><trkpt lat="42.06813811944314" lon="11.993743276419014"><ele>371.0</ele><time>2026-04-18T07:36:04Z</time></trkpt><trkpt lat="42.0682773467171" lon="11.993697897641717"><ele>371.8</ele><time>2026-04-18T07:36:06Z</time></trkpt><trkpt lat="42.06839059640743" lon="11.993682134851973"><ele>372.6</ele><time>2026-04-18T07:36:07Z</time></trkpt><trkpt lat="42.06847956254905" lon="11.993693839781661"><ele>373.4</ele><time>2026-04-18T07:36:08Z</time></trkpt><trkpt lat="42.06856445239332" lon="11.993675253362753"><ele>374.2</ele><time>2026-04-18T07:36:09Z</time></trkpt><trkpt lat="42.068667856916626" lon="11.993679851351681"><ele>375.0</ele><time>2026-04-18T07:36:10Z</time></trkpt><trkpt lat="42.0687548468221" lon="11.993679706438582"><ele>375.0</ele><time>2026-04-18T07:36:11Z</time></trkpt><trkpt lat="42.068852557554365" lon="11.993700097111574"><ele>375.0</ele><time>2026-04-18T07:36:12Z</time></trkpt><trkpt lat="42.06899858812763" lon="11.993730326691775"><ele>375.0</ele><time>2026-04-18T07:36:13Z</time></trkpt><trkpt lat="42.06915114048607" lon="11.993758940631354"><ele>375.0</ele><time>2026-04-18T07:36:14Z</time></trkpt><trkpt lat="42.069284888874186" lon="11.993785858546458"><ele>375.8</ele><time>2026-04-18T07:36:15Z</time></trkpt><trkpt lat="42.06939349079372" lon="11.993807157355054"><ele>376.6</ele><time>2026-04-18T07:36:16Z</time></trkpt><trkpt lat="42.06948619246782" lon="11.993835980477444"><ele>377.4</ele><time>2026-04-18T07:36:17Z</time></trkpt><trkpt lat="42.0695470460353" lon="11.993880770215938"><ele>378.2</ele><time>2026-04-18T07:36:18Z</time></trkpt><trkpt lat="42.06960134126171" lon="11.993928976438387"><ele>379.0</ele><time>2026-04-18T07:36:19Z</time></trkpt><trkpt lat="42.06969082903802" lon="11.99403453424162"><ele>379.0</ele><time>2026-04-18T07:36:21Z</time></trkpt><trkpt lat="42.069747440236654" lon="11.994110885857259"><ele>379.0</ele><time>2026-04-18T07:36:22Z</time></trkpt><trkpt lat="42.0697987731375" lon="11.994170888055026"><ele>379.0</ele><time>2026-04-18T07:36:23Z</time></trkpt><trkpt lat="42.069887965273075" lon="11.994263983105649"><ele>379.0</ele><time>2026-04-18T07:36:25Z</time></trkpt><trkpt lat="42.06993443464774" lon="11.994329409908612"><ele>379.0</ele><time>2026-04-18T07:36:26Z</time></trkpt><trkpt lat="42.06996083247019" lon="11.994409867626102"><ele>379.0</ele><time>2026-04-18T07:36:27Z</time></trkpt><trkpt lat="42.06999391943736" lon="11.994559188823294"><ele>379.42857142857144</ele><time>2026-04-18T07:36:29Z</time></trkpt><trkpt lat="42.07002399051454" lon="11.994638240196732"><ele>379.8571428571429</ele><time>2026-04-18T07:36:30Z</time></trkpt><trkpt lat="42.07006380018265" lon="11.9947220638007"><ele>380.28571428571433</ele><time>2026-04-18T07:36:31Z</time></trkpt><trkpt lat="42.07010850496695" lon="11.99479594628538"><ele>380.7142857142857</ele><time>2026-04-18T07:36:32Z</time></trkpt><trkpt lat="42.070156788538625" lon="11.994859578581632"><ele>381.1428571428571</ele><time>2026-04-18T07:36:33Z</time></trkpt><trkpt lat="42.07022171748959" lon="11.994925717549913"><ele>381.5714285714286</ele><time>2026-04-18T07:36:34Z</time></trkpt><trkpt lat="42.070283925235984" lon="11.994998422719338"><ele>382.0</ele><time>2026-04-18T07:36:35Z</time></trkpt><trkpt lat="42.070384627735585" lon="11.995045853269183"><ele>382.0</ele><time>2026-04-18T07:36:37Z</time></trkpt><trkpt lat="42.07044750568097" lon="11.995033982443225"><ele>382.0</ele><time>2026-04-18T07:36:39Z</time></trkpt><trkpt lat="42.070524585870345" lon="11.99502121012677"><ele>382.0</ele><time>2026-04-18T07:36:41Z</time></trkpt><trkpt lat="42.07058864538686" lon="11.995078560639461"><ele>382.0</ele><time>2026-04-18T07:36:43Z</time></trkpt><trkpt lat="42.070662687172266" lon="11.99509640834873"><ele>382.0</ele><time>2026-04-18T07:36:45Z</time></trkpt><trkpt lat="42.070723898921266" lon="11.995071500178039"><ele>382.0</ele><time>2026-04-18T07:36:47Z</time></trkpt><trkpt lat="42.07077561564151" lon="11.995008079379515"><ele>382.0</ele><time>2026-04-18T07:36:49Z</time></trkpt><trkpt lat="42.070875092054045" lon="11.99498241426565"><ele>384.5</ele><time>2026-04-18T07:36:51Z</time></trkpt><trkpt lat="42.07096236718655" lon="11.994988722866426"><ele>387.0</ele><time>2026-04-18T07:36:53Z</time></trkpt><trkpt lat="42.07102882922074" lon="11.995006323189727"><ele>389.5</ele><time>2026-04-18T07:36:55Z</time></trkpt><trkpt lat="42.07110686201701" lon="11.995021607553038"><ele>392.0</ele><time>2026-04-18T07:36:58Z</time></trkpt><trkpt lat="42.07118955403839" lon="11.994975271796129"><ele>394.50000000000006</ele><time>2026-04-18T07:39:00Z</time></trkpt><trkpt lat="42.071303312970194" lon="11.994921214816706"><ele>397.0</ele><time>2026-04-18T07:39:05Z</time></trkpt><trkpt lat="42.071402949840696" lon="11.994879948276434"><ele>398.83333333333337</ele><time>2026-04-18T07:39:07Z</time></trkpt><trkpt lat="42.07147977242466" lon="11.994848317771138"><ele>400.6666666666667</ele><time>2026-04-18T07:39:09Z</time></trkpt><trkpt lat="42.07157185593516" lon="11.994846946539052"><ele>402.5</ele><time>2026-04-18T07:39:12Z</time></trkpt><trkpt lat="42.071646431396644" lon="11.994777534427143"><ele>404.33333333333337</ele><time>2026-04-18T07:39:14Z</time></trkpt><trkpt lat="42.071658211148" lon="11.994669735058656"><ele>406.1666666666667</ele><time>2026-04-18T07:39:16Z</time></trkpt><trkpt lat="42.07165616790642" lon="11.994539357778656"><ele>408.0</ele><time>2026-04-18T07:39:18Z</time></trkpt><trkpt lat="42.07175592808552" lon="11.994498622116927"><ele>411.75</ele><time>2026-04-18T07:39:20Z</time></trkpt><trkpt lat="42.071844093662726" lon="11.994567002609903"><ele>415.5</ele><time>2026-04-18T07:39:22Z</time></trkpt><trkpt lat="42.07202099904268" lon="11.994599788218592"><ele>419.25</ele><time>2026-04-18T07:39:26Z</time></trkpt><trkpt lat="42.072118017690265" lon="11.994624245694835"><ele>423.0</ele><time>2026-04-18T07:39:28Z</time></trkpt><trkpt lat="42.0721994125223" lon="11.994648496307969"><ele>423.0</ele><time>2026-04-18T07:39:30Z</time></trkpt><trkpt lat="42.07228461276638" lon="11.994634216919646"><ele>423.0</ele><time>2026-04-18T07:39:32Z</time></trkpt><trkpt lat="42.072345063079446" lon="11.99456625507771"><ele>423.0</ele><time>2026-04-18T07:39:34Z</time></trkpt><trkpt lat="42.07240307203797" lon="11.994474489568958"><ele>423.0</ele><time>2026-04-18T07:39:36Z</time></trkpt><trkpt lat="42.07246875721182" lon="11.994456179043233"><ele>423.0</ele><time>2026-04-18T07:39:39Z</time></trkpt><trkpt lat="42.072536165290785" lon="11.994395356295458"><ele>423.0</ele><time>2026-04-18T07:39:41Z</time></trkpt><trkpt lat="42.07260644454603" lon="11.994326586352361"><ele>425.5</ele><time>2026-04-18T07:39:43Z</time></trkpt><trkpt lat="42.07263849472077" lon="11.994253360357856"><ele>428.0</ele><time>2026-04-18T07:39:44Z</time></trkpt><trkpt lat="42.072694812135694" lon="11.994150260356482"><ele>430.5</ele><time>2026-04-18T07:39:46Z</time></trkpt><trkpt lat="42.07271209356545" lon="11.994026025657773"><ele>433.0</ele><time>2026-04-18T07:39:48Z</time></trkpt><trkpt lat="42.072712189547815" lon="11.99393659877451"><ele>435.5</ele><time>2026-04-18T07:39:50Z</time></trkpt><trkpt lat="42.07271097908302" lon="11.993831075772883"><ele>438.0</ele><time>2026-04-18T07:40:14Z</time></trkpt><trkpt lat="42.072680159343626" lon="11.99375537779713"><ele>438.0</ele><time>2026-04-18T07:40:34Z</time></trkpt><trkpt lat="42.0727419266571" lon="11.993728757726673"><ele>438.0</ele><time>2026-04-18T07:42:31Z</time></trkpt><trkpt lat="42.07281078168354" lon="11.993802497189403"><ele>438.0</ele><time>2026-04-18T07:42:36Z</time></trkpt><trkpt lat="42.07281008178113" lon="11.993919889945627"><ele>438.0</ele><time>2026-04-18T07:42:40Z</time></trkpt><trkpt lat="42.072807418969866" lon="11.994005734372148"><ele>438.0</ele><time>2026-04-18T07:42:46Z</time></trkpt><trkpt lat="42.07279478425893" lon="11.994101460267927"><ele>438.0</ele><time>2026-04-18T07:42:48Z</time></trkpt><trkpt lat="42.072790322663806" lon="11.994221684027277"><ele>438.0</ele><time>2026-04-18T07:42:50Z</time></trkpt><trkpt lat="42.07278255668605" lon="11.994307293692748"><ele>438.0</ele><time>2026-04-18T07:42:52Z</time></trkpt><trkpt lat="42.07280152873614" lon="11.99439261012641"><ele>438.0</ele><time>2026-04-18T07:42:55Z</time></trkpt><trkpt lat="42.07281792297755" lon="11.994491077687163"><ele>438.0</ele><time>2026-04-18T07:42:59Z</time></trkpt><trkpt lat="42.07284942697685" lon="11.994602663615272"><ele>438.0</ele><time>2026-04-18T07:43:03Z</time></trkpt><trkpt lat="42.07286163235609" lon="11.994702534038376"><ele>438.0</ele><time>2026-04-18T07:43:05.999Z</time></trkpt><trkpt lat="42.0729108620944" lon="11.994787641110124"><ele>438.0</ele><time>2026-04-18T07:43:09.999Z</time></trkpt><trkpt lat="42.07295344947611" lon="11.994856017282423"><ele>438.0</ele><time>2026-04-18T07:43:11.999Z</time></trkpt><trkpt lat="42.07299287102976" lon="11.994926731324615"><ele>438.0</ele><time>2026-04-18T07:43:14.999Z</time></trkpt><trkpt lat="42.0730290783935" lon="11.995004937341731"><ele>438.0</ele><time>2026-04-18T07:43:17.999Z</time></trkpt><trkpt lat="42.0730591244643" lon="11.995108735987912"><ele>438.0</ele><time>2026-04-18T07:43:19.999Z</time></trkpt><trkpt lat="42.07311250509798" lon="11.995215694295489"><ele>438.0</ele><time>2026-04-18T07:43:20.999Z</time></trkpt><trkpt lat="42.0731525839604" lon="11.995286193187367"><ele>438.0</ele><time>2026-04-18T07:43:23.999Z</time></trkpt><trkpt lat="42.07322950414059" lon="11.995403001880895"><ele>435.5</ele><time>2026-04-18T07:43:26.999Z</time></trkpt><trkpt lat="42.07331179442798" lon="11.995436297184263"><ele>433.0</ele><time>2026-04-18T07:43:29.999Z</time></trkpt><trkpt lat="42.07337206572775" lon="11.995491094522011"><ele>430.5</ele><time>2026-04-18T07:43:32.999Z</time></trkpt><trkpt lat="42.07344715045776" lon="11.995532337006793"><ele>428.0</ele><time>2026-04-18T07:43:34.999Z</time></trkpt><trkpt lat="42.073525512600966" lon="11.995548802243686"><ele>425.5</ele><time>2026-04-18T07:43:38.999Z</time></trkpt><trkpt lat="42.07359693139106" lon="11.995604591829695"><ele>423.0</ele><time>2026-04-18T07:43:41.999Z</time></trkpt><trkpt lat="42.07368739631261" lon="11.995636444456014"><ele>423.0</ele><time>2026-04-18T07:43:46.999Z</time></trkpt><trkpt lat="42.07374786991382" lon="11.995665340767044"><ele>423.0</ele><time>2026-04-18T07:43:54Z</time></trkpt><trkpt lat="42.07381719255925" lon="11.995668279928632"><ele>423.0</ele><time>2026-04-18T07:44:02Z</time></trkpt><trkpt lat="42.073879638613334" lon="11.995698500002717"><ele>423.0</ele><time>2026-04-18T07:44:06Z</time></trkpt><trkpt lat="42.07393535042123" lon="11.995742258612987"><ele>423.0</ele><time>2026-04-18T07:44:11Z</time></trkpt><trkpt lat="42.0740254376871" lon="11.995807387434791"><ele>423.0</ele><time>2026-04-18T07:44:14Z</time></trkpt><trkpt lat="42.074094002957004" lon="11.995812682123363"><ele>423.0</ele><time>2026-04-18T07:44:18Z</time></trkpt><trkpt lat="42.07415937304843" lon="11.995830440220313"><ele>421.5</ele><time>2026-04-18T07:44:21Z</time></trkpt><trkpt lat="42.07426458504008" lon="11.995904094484965"><ele>420.0</ele><time>2026-04-18T07:46:48Z</time></trkpt><trkpt lat="42.07433061921716" lon="11.995914859960594"><ele>418.5</ele><time>2026-04-18T07:46:52Z</time></trkpt><trkpt lat="42.0744241145836" lon="11.995951595028018"><ele>417.0</ele><time>2026-04-18T07:46:54Z</time></trkpt><trkpt lat="42.07449070998627" lon="11.996007631008471"><ele>415.5</ele><time>2026-04-18T07:46:56Z</time></trkpt><trkpt lat="42.07454701495434" lon="11.996067687289052"><ele>414.0</ele><time>2026-04-18T07:46:58Z</time></trkpt><trkpt lat="42.07463355233867" lon="11.99605562949545"><ele>414.0</ele><time>2026-04-18T07:47:00Z</time></trkpt><trkpt lat="42.074745314892326" lon="11.996043853808645"><ele>414.0</ele><time>2026-04-18T07:47:02Z</time></trkpt><trkpt lat="42.07487415184192" lon="11.996042187311991"><ele>414.0</ele><time>2026-04-18T07:47:04Z</time></trkpt><trkpt lat="42.07494919772683" lon="11.996055900979275"><ele>414.0</ele><time>2026-04-18T07:47:06Z</time></trkpt><trkpt lat="42.075017208234634" lon="11.996082954997195"><ele>414.0</ele><time>2026-04-18T07:47:08Z</time></trkpt><trkpt lat="42.07505367880772" lon="11.996153888658116"><ele>413.3333333333333</ele><time>2026-04-18T07:47:10Z</time></trkpt><trkpt lat="42.075086709485355" lon="11.996257152791193"><ele>412.66666666666663</ele><time>2026-04-18T07:47:12Z</time></trkpt><trkpt lat="42.07512836131641" lon="11.996366043705368"><ele>412.0</ele><time>2026-04-18T07:47:14Z</time></trkpt><trkpt lat="42.075205415268954" lon="11.996398090549006"><ele>411.3333333333333</ele><time>2026-04-18T07:47:16Z</time></trkpt><trkpt lat="42.075283512959494" lon="11.996456410832868"><ele>410.66666666666663</ele><time>2026-04-18T07:47:19Z</time></trkpt><trkpt lat="42.07532985102234" lon="11.99651735356986"><ele>410.0</ele><time>2026-04-18T07:47:21Z</time></trkpt><trkpt lat="42.075362218981326" lon="11.996591086935132"><ele>409.8</ele><time>2026-04-18T07:47:22Z</time></trkpt><trkpt lat="42.075449404559" lon="11.99668357969606"><ele>409.6</ele><time>2026-04-18T07:47:24Z</time></trkpt><trkpt lat="42.075535246020756" lon="11.996753952050495"><ele>409.4</ele><time>2026-04-18T07:47:26Z</time></trkpt><trkpt lat="42.07564552340444" lon="11.996801587016414"><ele>409.2</ele><time>2026-04-18T07:47:28Z</time></trkpt><trkpt lat="42.075745845829466" lon="11.996834919989315"><ele>409.0</ele><time>2026-04-18T07:47:30Z</time></trkpt><trkpt lat="42.07583155254525" lon="11.996835447732295"><ele>408.33333333333337</ele><time>2026-04-18T07:47:32Z</time></trkpt><trkpt lat="42.07588376286897" lon="11.996887733834997"><ele>407.6666666666667</ele><time>2026-04-18T07:47:34Z</time></trkpt><trkpt lat="42.0759503427313" lon="11.996969961366199"><ele>407.0</ele><time>2026-04-18T07:47:38Z</time></trkpt><trkpt lat="42.07600533670674" lon="11.997055208282271"><ele>406.33333333333337</ele><time>2026-04-18T07:47:39Z</time></trkpt><trkpt lat="42.07605631106398" lon="11.997147455254424"><ele>405.6666666666667</ele><time>2026-04-18T07:47:41Z</time></trkpt><trkpt lat="42.076099748434885" lon="11.997224383951469"><ele>405.0</ele><time>2026-04-18T07:47:42Z</time></trkpt><trkpt lat="42.07615578467378" lon="11.997296176998546"><ele>405.0</ele><time>2026-04-18T07:47:43Z</time></trkpt><trkpt lat="42.07620577670225" lon="11.997366973447631"><ele>405.0</ele><time>2026-04-18T07:47:44Z</time></trkpt><trkpt lat="42.07625934288645" lon="11.997420083275754"><ele>405.0</ele><time>2026-04-18T07:47:45Z</time></trkpt><trkpt lat="42.076328522214475" lon="11.99751767324947"><ele>405.0</ele><time>2026-04-18T07:47:47Z</time></trkpt><trkpt lat="42.07637326526983" lon="11.997584520304287"><ele>405.0</ele><time>2026-04-18T07:47:48Z</time></trkpt><trkpt lat="42.07645496251857" lon="11.997604366144614"><ele>405.0</ele><time>2026-04-18T07:47:51Z</time></trkpt><trkpt lat="42.07654599646015" lon="11.99761972155773"><ele>405.0</ele><time>2026-04-18T07:47:53Z</time></trkpt><trkpt lat="42.07660919359064" lon="11.997620458632493"><ele>405.0</ele><time>2026-04-18T07:47:54Z</time></trkpt><trkpt lat="42.0766756530187" lon="11.997624412267893"><ele>405.0</ele><time>2026-04-18T07:47:55Z</time></trkpt><trkpt lat="42.07675720137097" lon="11.997653715147553"><ele>405.0</ele><time>2026-04-18T07:47:56Z</time></trkpt><trkpt lat="42.076854791867405" lon="11.997686735197096"><ele>405.0</ele><time>2026-04-18T07:47:57Z</time></trkpt><trkpt lat="42.076945429434296" lon="11.997713574749767"><ele>405.0</ele><time>2026-04-18T07:47:58Z</time></trkpt><trkpt lat="42.07702849234149" lon="11.997742409039345"><ele>405.0</ele><time>2026-04-18T07:47:59Z</time></trkpt><trkpt lat="42.07709827647872" lon="11.997775114364563"><ele>405.0</ele><time>2026-04-18T07:48:00Z</time></trkpt><trkpt lat="42.077194399658524" lon="11.99782057291625"><ele>405.0</ele><time>2026-04-18T07:48:02Z</time></trkpt><trkpt lat="42.07727189385048" lon="11.997848890253715"><ele>405.0</ele><time>2026-04-18T07:48:04Z</time></trkpt><trkpt lat="42.07740159743387" lon="11.997893060422898"><ele>405.0</ele><time>2026-04-18T07:48:06Z</time></trkpt><trkpt lat="42.077482940783945" lon="11.997937436983259"><ele>404.1666666666667</ele><time>2026-04-18T07:48:07Z</time></trkpt><trkpt lat="42.07754999958364" lon="11.99798230545577"><ele>403.33333333333337</ele><time>2026-04-18T07:48:08Z</time></trkpt><trkpt lat="42.077612744113665" lon="11.998046014480924"><ele>402.5</ele><time>2026-04-18T07:48:10.001Z</time></trkpt><trkpt lat="42.07766985742031" lon="11.998110112425755"><ele>401.6666666666667</ele><time>2026-04-18T07:48:12.001Z</time></trkpt><trkpt lat="42.07775710606526" lon="11.998119625854274"><ele>400.83333333333337</ele><time>2026-04-18T07:48:15.001Z</time></trkpt><trkpt lat="42.077846391778905" lon="11.998119786036606"><ele>400.0</ele><time>2026-04-18T07:48:17.001Z</time></trkpt><trkpt lat="42.07791300087444" lon="11.998164078177135"><ele>400.00000000000006</ele><time>2026-04-18T07:48:18.001Z</time></trkpt><trkpt lat="42.077977348606225" lon="11.998221909735001"><ele>400.0</ele><time>2026-04-18T07:48:20.001Z</time></trkpt><trkpt lat="42.07796920876565" lon="11.998330040165095"><ele>400.0</ele><time>2026-04-18T07:48:22.001Z</time></trkpt><trkpt lat="42.078009381670164" lon="11.998437954289594"><ele>400.0</ele><time>2026-04-18T07:48:25.001Z</time></trkpt><trkpt lat="42.07807555922736" lon="11.998545920922295"><ele>400.00000000000006</ele><time>2026-04-18T07:48:27.001Z</time></trkpt><trkpt lat="42.07811424403871" lon="11.998655853012712"><ele>400.0</ele><time>2026-04-18T07:48:29.001Z</time></trkpt><trkpt lat="42.07816572913443" lon="11.998734412176036"><ele>401.4</ele><time>2026-04-18T07:48:31.001Z</time></trkpt><trkpt lat="42.078221923191855" lon="11.998818698710146"><ele>402.8</ele><time>2026-04-18T07:48:33.001Z</time></trkpt><trkpt lat="42.078254947150334" lon="11.998937203272739"><ele>404.20000000000005</ele><time>2026-04-18T07:48:37.001Z</time></trkpt><trkpt lat="42.078312434638626" lon="11.999053448690596"><ele>405.6</ele><time>2026-04-18T07:48:40.001Z</time></trkpt><trkpt lat="42.078372128505706" lon="11.999127769823634"><ele>407.0</ele><time>2026-04-18T07:48:42.001Z</time></trkpt><trkpt lat="42.07842991949871" lon="11.999229711361295"><ele>410.0</ele><time>2026-04-18T07:48:44.001Z</time></trkpt><trkpt lat="42.07847971288203" lon="11.999286277042069"><ele>413.0</ele><time>2026-04-18T07:48:46.001Z</time></trkpt><trkpt lat="42.07854075257292" lon="11.999337736118568"><ele>416.0</ele><time>2026-04-18T07:48:50.001Z</time></trkpt><trkpt lat="42.07867337827511" lon="11.999402353884541"><ele>419.0</ele><time>2026-04-18T07:48:53.001Z</time></trkpt><trkpt lat="42.07878855918393" lon="11.99941651910955"><ele>422.0</ele><time>2026-04-18T07:48:55.001Z</time></trkpt><trkpt lat="42.07895516984878" lon="11.999479328378614"><ele>422.0</ele><time>2026-04-18T07:48:57.001Z</time></trkpt><trkpt lat="42.07907074231082" lon="11.999433272824584"><ele>422.0</ele><time>2026-04-18T07:48:59.001Z</time></trkpt><trkpt lat="42.0791632006623" lon="11.999366273028832"><ele>422.0</ele><time>2026-04-18T07:49:01.001Z</time></trkpt><trkpt lat="42.079268462520886" lon="11.999283676854343"><ele>422.0</ele><time>2026-04-18T07:49:03.001Z</time></trkpt><trkpt lat="42.07936869556434" lon="11.999266609995122"><ele>422.0</ele><time>2026-04-18T07:49:05.001Z</time></trkpt><trkpt lat="42.07954421010404" lon="11.999270338762164"><ele>423.49999999999994</ele><time>2026-04-18T07:49:07.001Z</time></trkpt><trkpt lat="42.07963800351071" lon="11.999267069816641"><ele>425.0</ele><time>2026-04-18T07:49:08.001Z</time></trkpt><trkpt lat="42.07972564881322" lon="11.999261231715321"><ele>426.5</ele><time>2026-04-18T07:49:09.001Z</time></trkpt><trkpt lat="42.07979205266216" lon="11.999259504594948"><ele>428.0</ele><time>2026-04-18T07:49:10.001Z</time></trkpt><trkpt lat="42.079864116250576" lon="11.999255315415786"><ele>429.49999999999994</ele><time>2026-04-18T07:49:12.001Z</time></trkpt><trkpt lat="42.079801783106035" lon="11.999231672121761"><ele>431.0</ele><time>2026-04-18T07:49:19.001Z</time></trkpt><trkpt lat="42.07989217898169" lon="11.999234613296059"><ele>433.8</ele><time>2026-04-18T07:50:21.001Z</time></trkpt><trkpt lat="42.079957058728795" lon="11.999289302034708"><ele>436.6</ele><time>2026-04-18T07:50:22.001Z</time></trkpt><trkpt lat="42.08002283829764" lon="11.999359437116329"><ele>439.4</ele><time>2026-04-18T07:50:23.001Z</time></trkpt><trkpt lat="42.08010987659537" lon="11.999424556494688"><ele>442.2</ele><time>2026-04-18T07:50:25.001Z</time></trkpt><trkpt lat="42.08025224484901" lon="11.99942590580464"><ele>445.0</ele><time>2026-04-18T07:50:28.001Z</time></trkpt><trkpt lat="42.080363915056516" lon="11.999474728729504"><ele>445.0</ele><time>2026-04-18T07:50:30.001Z</time></trkpt><trkpt lat="42.08044798033579" lon="11.999579767357575"><ele>445.0</ele><time>2026-04-18T07:50:32.001Z</time></trkpt><trkpt lat="42.08053801934002" lon="11.999655082761793"><ele>445.0</ele><time>2026-04-18T07:50:34.001Z</time></trkpt><trkpt lat="42.08062427514102" lon="11.999731320506683"><ele>445.0</ele><time>2026-04-18T07:50:36.001Z</time></trkpt><trkpt lat="42.08067245968486" lon="11.99981472208208"><ele>445.0</ele><time>2026-04-18T07:50:37.001Z</time></trkpt><trkpt lat="42.080736611716254" lon="11.99991133935945"><ele>447.6666666666667</ele><time>2026-04-18T07:50:38.001Z</time></trkpt><trkpt lat="42.080782660269655" lon="11.999969489242437"><ele>450.33333333333337</ele><time>2026-04-18T07:50:39.001Z</time></trkpt><trkpt lat="42.08086571028596" lon="12.000040508643957"><ele>453.0</ele><time>2026-04-18T07:50:41.001Z</time></trkpt><trkpt lat="42.08093536563193" lon="12.000163490376341"><ele>455.66666666666663</ele><time>2026-04-18T07:50:43.001Z</time></trkpt><trkpt lat="42.08095567106456" lon="12.000265105985052"><ele>458.3333333333333</ele><time>2026-04-18T07:50:47.001Z</time></trkpt><trkpt lat="42.08100198906085" lon="12.000343309329075"><ele>461.0</ele><time>2026-04-18T07:51:20.001Z</time></trkpt><trkpt lat="42.081070525063595" lon="12.00039054640482"><ele>461.0</ele><time>2026-04-18T07:51:28.001Z</time></trkpt><trkpt lat="42.081142306683525" lon="12.000380344354035"><ele>461.00000000000006</ele><time>2026-04-18T07:51:32.001Z</time></trkpt><trkpt lat="42.08120341104854" lon="12.000348501694978"><ele>461.0</ele><time>2026-04-18T07:51:35.001Z</time></trkpt><trkpt lat="42.08126628460381" lon="12.000280881206848"><ele>461.0</ele><time>2026-04-18T07:51:38.001Z</time></trkpt><trkpt lat="42.081324220114894" lon="12.00021713712422"><ele>461.00000000000006</ele><time>2026-04-18T07:51:41Z</time></trkpt><trkpt lat="42.08139158833378" lon="12.00019649302512"><ele>461.0</ele><time>2026-04-18T07:51:44Z</time></trkpt><trkpt lat="42.081437418880206" lon="12.000135029236578"><ele>461.0</ele><time>2026-04-18T07:51:47Z</time></trkpt><trkpt lat="42.08151737631987" lon="12.000114652816556"><ele>460.99999999999994</ele><time>2026-04-18T07:51:50Z</time></trkpt><trkpt lat="42.08158801064901" lon="12.000072228449692"><ele>461.0</ele><time>2026-04-18T07:51:53Z</time></trkpt><trkpt lat="42.08164347578201" lon="12.000029344669912"><ele>461.0</ele><time>2026-04-18T07:51:56Z</time></trkpt><trkpt lat="42.081706180878605" lon="11.999975471667726"><ele>461.0</ele><time>2026-04-18T07:52:00Z</time></trkpt><trkpt lat="42.0817676008337" lon="11.999929413312033"><ele>460.99999999999994</ele><time>2026-04-18T07:52:07Z</time></trkpt><trkpt lat="42.081825391236805" lon="11.999855405757375"><ele>461.0</ele><time>2026-04-18T07:52:11Z</time></trkpt><trkpt lat="42.08189685093636" lon="11.999792878530204"><ele>459.66666666666663</ele><time>2026-04-18T07:52:15.001Z</time></trkpt><trkpt lat="42.08197701308833" lon="11.99970899076625"><ele>458.3333333333333</ele><time>2026-04-18T07:52:17.001Z</time></trkpt><trkpt lat="42.08203437382349" lon="11.999660207087786"><ele>457.0</ele><time>2026-04-18T07:52:19.001Z</time></trkpt><trkpt lat="42.082094216545705" lon="11.999596728550662"><ele>455.66666666666663</ele><time>2026-04-18T07:52:20.001Z</time></trkpt><trkpt lat="42.08212493870093" lon="11.999516156959778"><ele>454.3333333333333</ele><time>2026-04-18T07:52:23.001Z</time></trkpt><trkpt lat="42.0821758728127" lon="11.999445552527247"><ele>453.0</ele><time>2026-04-18T07:52:25.001Z</time></trkpt><trkpt lat="42.08222358353516" lon="11.999381038578822"><ele>453.0</ele><time>2026-04-18T07:52:27.001Z</time></trkpt><trkpt lat="42.082308226540746" lon="11.999327143865868"><ele>453.0</ele><time>2026-04-18T07:52:30.001Z</time></trkpt><trkpt lat="42.082369404438104" lon="11.999295362542288"><ele>453.0</ele><time>2026-04-18T07:52:31.001Z</time></trkpt><trkpt lat="42.082444432908694" lon="11.99926132514831"><ele>453.0</ele><time>2026-04-18T07:52:33.001Z</time></trkpt><trkpt lat="42.082504207729684" lon="11.999213525033845"><ele>453.0</ele><time>2026-04-18T07:52:35.001Z</time></trkpt><trkpt lat="42.08257286319225" lon="11.999170826840865"><ele>453.0</ele><time>2026-04-18T07:52:59.001Z</time></trkpt><trkpt lat="42.082646002727806" lon="11.999168259890116"><ele>454.1666666666667</ele><time>2026-04-18T07:53:02.001Z</time></trkpt><trkpt lat="42.08271007529134" lon="11.999132293666095"><ele>455.33333333333337</ele><time>2026-04-18T07:53:04.001Z</time></trkpt><trkpt lat="42.08277019495722" lon="11.999092931289495"><ele>456.5</ele><time>2026-04-18T07:53:06.001Z</time></trkpt><trkpt lat="42.08285466897453" lon="11.999065740994123"><ele>457.6666666666667</ele><time>2026-04-18T07:53:09.001Z</time></trkpt><trkpt lat="42.082924929960754" lon="11.999028794660132"><ele>458.83333333333337</ele><time>2026-04-18T07:53:11.001Z</time></trkpt><trkpt lat="42.082993537338886" lon="11.99899838538033"><ele>460.0</ele><time>2026-04-18T07:53:13.001Z</time></trkpt><trkpt lat="42.08304542978448" lon="11.998889416348954"><ele>460.00000000000006</ele><time>2026-04-18T07:53:16.001Z</time></trkpt><trkpt lat="42.08309755545109" lon="11.99879605583188"><ele>460.0</ele><time>2026-04-18T07:53:19.001Z</time></trkpt><trkpt lat="42.08316086823391" lon="11.998722132365085"><ele>460.0</ele><time>2026-04-18T07:53:22.001Z</time></trkpt><trkpt lat="42.08322801824917" lon="11.998687162503005"><ele>460.0</ele><time>2026-04-18T07:53:24.001Z</time></trkpt><trkpt lat="42.08329708044918" lon="11.998614849424385"><ele>460.00000000000006</ele><time>2026-04-18T07:53:27.001Z</time></trkpt><trkpt lat="42.08339387046219" lon="11.998537483978474"><ele>460.0</ele><time>2026-04-18T07:53:30.001Z</time></trkpt><trkpt lat="42.083439881405766" lon="11.99847760921481"><ele>458.6666666666667</ele><time>2026-04-18T07:53:32.001Z</time></trkpt><trkpt lat="42.08350908737682" lon="11.998433909970261"><ele>457.33333333333337</ele><time>2026-04-18T07:53:36.001Z</time></trkpt><trkpt lat="42.083590882620165" lon="11.998396925011097"><ele>456.0</ele><time>2026-04-18T07:53:38.001Z</time></trkpt><trkpt lat="42.083661374245416" lon="11.998376468480007"><ele>454.66666666666663</ele><time>2026-04-18T07:53:40.001Z</time></trkpt><trkpt lat="42.083729789574946" lon="11.998356805762642"><ele>453.3333333333333</ele><time>2026-04-18T07:53:42.001Z</time></trkpt><trkpt lat="42.08379823525492" lon="11.998307367165006"><ele>452.0</ele><time>2026-04-18T07:53:45.001Z</time></trkpt><trkpt lat="42.08386028111063" lon="11.998272220526923"><ele>453.16666666666663</ele><time>2026-04-18T07:53:48.001Z</time></trkpt><trkpt lat="42.083928483671144" lon="11.99821538524501"><ele>454.3333333333333</ele><time>2026-04-18T07:53:50.001Z</time></trkpt><trkpt lat="42.08399305569783" lon="11.998169494978033"><ele>455.5</ele><time>2026-04-18T07:53:52.001Z</time></trkpt><trkpt lat="42.08409544876501" lon="11.998107106182355"><ele>456.66666666666663</ele><time>2026-04-18T07:53:54.001Z</time></trkpt><trkpt lat="42.084183077655915" lon="11.998078885955367"><ele>457.8333333333333</ele><time>2026-04-18T07:53:56.001Z</time></trkpt><trkpt lat="42.08422816577235" lon="11.998014177359062"><ele>459.0</ele><time>2026-04-18T07:53:58.001Z</time></trkpt><trkpt lat="42.08430955033907" lon="11.997975199943106"><ele>459.0</ele><time>2026-04-18T07:54:00Z</time></trkpt><trkpt lat="42.08437366613354" lon="11.997978973694755"><ele>459.0</ele><time>2026-04-18T07:54:02Z</time></trkpt><trkpt lat="42.0844519175211" lon="11.997895410648647"><ele>459.0</ele><time>2026-04-18T07:54:05Z</time></trkpt><trkpt lat="42.08451449233607" lon="11.99781936435054"><ele>459.0</ele><time>2026-04-18T07:54:07Z</time></trkpt><trkpt lat="42.08458703974332" lon="11.997782568499746"><ele>459.0</ele><time>2026-04-18T07:54:09Z</time></trkpt><trkpt lat="42.08465774281531" lon="11.997764468497904"><ele>459.0</ele><time>2026-04-18T07:54:13Z</time></trkpt><trkpt lat="42.084744006034846" lon="11.997687546521872"><ele>459.0</ele><time>2026-04-18T07:54:16Z</time></trkpt><trkpt lat="42.084859008541954" lon="11.997656573671112"><ele>459.0</ele><time>2026-04-18T07:54:18Z</time></trkpt><trkpt lat="42.08498164320784" lon="11.99762025969272"><ele>459.0</ele><time>2026-04-18T07:54:20Z</time></trkpt><trkpt lat="42.08509271915683" lon="11.997598429350075"><ele>459.0</ele><time>2026-04-18T07:54:22Z</time></trkpt><trkpt lat="42.085211361513366" lon="11.997577207860061"><ele>456.5</ele><time>2026-04-18T07:54:24Z</time></trkpt><trkpt lat="42.085278077075806" lon="11.997575817136182"><ele>454.0</ele><time>2026-04-18T07:54:25Z</time></trkpt><trkpt lat="42.085355703404225" lon="11.997613171806316"><ele>451.5</ele><time>2026-04-18T07:54:40.001Z</time></trkpt><trkpt lat="42.08543066605086" lon="11.997622790813299"><ele>449.0</ele><time>2026-04-18T07:54:42.001Z</time></trkpt><trkpt lat="42.08550917077452" lon="11.997657237615703"><ele>446.5</ele><time>2026-04-18T07:54:45.001Z</time></trkpt><trkpt lat="42.08556962546613" lon="11.99770240860098"><ele>444.0</ele><time>2026-04-18T07:54:47.001Z</time></trkpt><trkpt lat="42.08564507893461" lon="11.997696140844461"><ele>444.0</ele><time>2026-04-18T07:54:50.001Z</time></trkpt><trkpt lat="42.08570911136416" lon="11.99770898766315"><ele>444.0</ele><time>2026-04-18T07:54:52.001Z</time></trkpt><trkpt lat="42.08578975732087" lon="11.997702469347713"><ele>444.0</ele><time>2026-04-18T07:54:56.001Z</time></trkpt><trkpt lat="42.08587349763933" lon="11.997711498437612"><ele>444.0</ele><time>2026-04-18T07:54:58.001Z</time></trkpt><trkpt lat="42.08594755210759" lon="11.997703016934798"><ele>444.0</ele><time>2026-04-18T07:55:00.001Z</time></trkpt><trkpt lat="42.086019512549754" lon="11.99768099285769"><ele>444.0</ele><time>2026-04-18T07:55:03.001Z</time></trkpt><trkpt lat="42.08608342491382" lon="11.99766649148334"><ele>444.0</ele><time>2026-04-18T07:55:06.001Z</time></trkpt><trkpt lat="42.08616642014407" lon="11.997668736481762"><ele>442.57142857142856</ele><time>2026-04-18T07:55:09.001Z</time></trkpt><trkpt lat="42.08623914542992" lon="11.99765120042624"><ele>441.14285714285717</ele><time>2026-04-18T07:55:12.001Z</time></trkpt><trkpt lat="42.08630074433631" lon="11.997630103406907"><ele>439.7142857142857</ele><time>2026-04-18T07:55:18.001Z</time></trkpt><trkpt lat="42.08637268623607" lon="11.997630629107382"><ele>438.2857142857143</ele><time>2026-04-18T07:55:21.001Z</time></trkpt><trkpt lat="42.08644714413404" lon="11.997661838939191"><ele>436.8571428571429</ele><time>2026-04-18T07:55:24.001Z</time></trkpt><trkpt lat="42.08651548393516" lon="11.997677092032632"><ele>435.42857142857144</ele><time>2026-04-18T07:55:28.001Z</time></trkpt><trkpt lat="42.08654230130842" lon="11.99777018877592"><ele>434.0</ele><time>2026-04-18T07:55:36.001Z</time></trkpt><trkpt lat="42.086605342162905" lon="11.997736487361784"><ele>433.66666666666663</ele><time>2026-04-18T07:56:18Z</time></trkpt><trkpt lat="42.08667725515467" lon="11.997820641241491"><ele>433.3333333333333</ele><time>2026-04-18T07:56:51Z</time></trkpt><trkpt lat="42.086757275766935" lon="11.997894570475017"><ele>433.0</ele><time>2026-04-18T07:56:55Z</time></trkpt><trkpt lat="42.08683667571253" lon="11.997851658562066"><ele>432.66666666666663</ele><time>2026-04-18T07:56:59Z</time></trkpt><trkpt lat="42.0868848648328" lon="11.997786121687152"><ele>432.3333333333333</ele><time>2026-04-18T07:57:03Z</time></trkpt><trkpt lat="42.086900618075944" lon="11.997666852957332"><ele>432.0</ele><time>2026-04-18T07:57:07Z</time></trkpt><trkpt lat="42.086946690633766" lon="11.997594408252946"><ele>432.0</ele><time>2026-04-18T07:57:11Z</time></trkpt><trkpt lat="42.087013890769455" lon="11.997588047893517"><ele>432.0</ele><time>2026-04-18T07:57:14Z</time></trkpt><trkpt lat="42.087096810154584" lon="11.997570966049166"><ele>432.0</ele><time>2026-04-18T07:57:17Z</time></trkpt><trkpt lat="42.08716356124954" lon="11.997536848165279"><ele>432.0</ele><time>2026-04-18T07:57:20Z</time></trkpt><trkpt lat="42.08724207625503" lon="11.997546941467125"><ele>432.0</ele><time>2026-04-18T07:57:25Z</time></trkpt><trkpt lat="42.08729015080143" lon="11.997602244018271"><ele>432.0</ele><time>2026-04-18T07:57:28Z</time></trkpt><trkpt lat="42.08734494869876" lon="11.997677050431085"><ele>432.0</ele><time>2026-04-18T07:57:32Z</time></trkpt><trkpt lat="42.08741401045934" lon="11.997702383278346"><ele>432.1428571428571</ele><time>2026-04-18T07:58:10.999Z</time></trkpt><trkpt lat="42.08747005913382" lon="11.997769959772498"><ele>432.2857142857143</ele><time>2026-04-18T07:58:13.999Z</time></trkpt><trkpt lat="42.087536927004955" lon="11.997803846555257"><ele>432.42857142857144</ele><time>2026-04-18T07:58:15.999Z</time></trkpt><trkpt lat="42.08761570091489" lon="11.997825570778978"><ele>432.57142857142856</ele><time>2026-04-18T07:58:17.999Z</time></trkpt><trkpt lat="42.08768237653784" lon="11.99785066218845"><ele>432.7142857142857</ele><time>2026-04-18T07:58:27.999Z</time></trkpt><trkpt lat="42.087741637346994" lon="11.997895176962551"><ele>432.85714285714283</ele><time>2026-04-18T07:58:38Z</time></trkpt><trkpt lat="42.087817560242044" lon="11.997925052986403"><ele>433.0</ele><time>2026-04-18T07:58:41Z</time></trkpt><trkpt lat="42.08788859223214" lon="11.997914366198737"><ele>433.0</ele><time>2026-04-18T07:58:43Z</time></trkpt><trkpt lat="42.087969715243354" lon="11.99800142335643"><ele>432.99999999999994</ele><time>2026-04-18T07:58:45Z</time></trkpt><trkpt lat="42.08803549844571" lon="11.998048762504578"><ele>432.99999999999994</ele><time>2026-04-18T07:58:48Z</time></trkpt><trkpt lat="42.088120621753404" lon="11.998057843943574"><ele>433.0</ele><time>2026-04-18T07:58:52Z</time></trkpt><trkpt lat="42.08820854947184" lon="11.99809727165203"><ele>433.0</ele><time>2026-04-18T07:58:55Z</time></trkpt><trkpt lat="42.088303960798214" lon="11.998131889646976"><ele>433.75</ele><time>2026-04-18T07:58:58Z</time></trkpt><trkpt lat="42.08839322741934" lon="11.998169335584107"><ele>434.5</ele><time>2026-04-18T07:59:00Z</time></trkpt><trkpt lat="42.08847280987754" lon="11.99818432267011"><ele>435.25</ele><time>2026-04-18T07:59:02Z</time></trkpt><trkpt lat="42.08866093265965" lon="11.998274512512438"><ele>436.0</ele><time>2026-04-18T07:59:03Z</time></trkpt><trkpt lat="42.08875988596401" lon="11.998273345927318"><ele>436.00000000000006</ele><time>2026-04-18T07:59:05Z</time></trkpt><trkpt lat="42.08882667690276" lon="11.998219283302678"><ele>436.0</ele><time>2026-04-18T07:59:08Z</time></trkpt><trkpt lat="42.088926918264725" lon="11.998212407327884"><ele>436.0</ele><time>2026-04-18T07:59:11Z</time></trkpt><trkpt lat="42.08900730728083" lon="11.998174048316171"><ele>436.0</ele><time>2026-04-18T07:59:14Z</time></trkpt><trkpt lat="42.089072082815406" lon="11.998134234759586"><ele>436.00000000000006</ele><time>2026-04-18T07:59:16Z</time></trkpt><trkpt lat="42.0891388993709" lon="11.998136337137106"><ele>436.0</ele><time>2026-04-18T07:59:19Z</time></trkpt><trkpt lat="42.089211208764716" lon="11.998137577239305"><ele>435.20000000000005</ele><time>2026-04-18T07:59:23Z</time></trkpt><trkpt lat="42.08930664129075" lon="11.998126143694616"><ele>434.40000000000003</ele><time>2026-04-18T08:01:56.001Z</time></trkpt><trkpt lat="42.089384266381735" lon="11.99806026235698"><ele>433.6</ele><time>2026-04-18T08:01:58.001Z</time></trkpt><trkpt lat="42.08945291273082" lon="11.99802837245181"><ele>432.8</ele><time>2026-04-18T08:02:00.001Z</time></trkpt><trkpt lat="42.08952355410931" lon="11.99793729509445"><ele>432.0</ele><time>2026-04-18T08:02:02.001Z</time></trkpt><trkpt lat="42.089637170915346" lon="11.99788089652575"><ele>432.0</ele><time>2026-04-18T08:02:04.001Z</time></trkpt><trkpt lat="42.08970389224935" lon="11.997810223826075"><ele>432.0</ele><time>2026-04-18T08:02:06.001Z</time></trkpt><trkpt lat="42.08976558957621" lon="11.997740528245268"><ele>432.0</ele><time>2026-04-18T08:02:09.001Z</time></trkpt><trkpt lat="42.08983148844537" lon="11.99772848362414"><ele>432.0</ele><time>2026-04-18T08:02:13.001Z</time></trkpt><trkpt lat="42.08990713847455" lon="11.997680452062538"><ele>432.0</ele><time>2026-04-18T08:02:17.001Z</time></trkpt><trkpt lat="42.08996386525528" lon="11.997632780041616"><ele>432.0</ele><time>2026-04-18T08:02:19.001Z</time></trkpt><trkpt lat="42.09004268977657" lon="11.997638010989963"><ele>430.25</ele><time>2026-04-18T08:02:22.001Z</time></trkpt><trkpt lat="42.09011889540979" lon="11.997665524922299"><ele>428.5</ele><time>2026-04-18T08:02:25.001Z</time></trkpt><trkpt lat="42.09035969386157" lon="11.9976344297009"><ele>426.75</ele><time>2026-04-18T08:02:31.001Z</time></trkpt><trkpt lat="42.09042745200098" lon="11.997622349418135"><ele>425.0</ele><time>2026-04-18T08:02:38.001Z</time></trkpt><trkpt lat="42.09049513503837" lon="11.997603518970786"><ele>425.0</ele><time>2026-04-18T08:02:49.001Z</time></trkpt><trkpt lat="42.09059697102683" lon="11.99758833785843"><ele>425.0</ele><time>2026-04-18T08:02:51.001Z</time></trkpt><trkpt lat="42.09067655600205" lon="11.997562106418538"><ele>425.0</ele><time>2026-04-18T08:02:53.001Z</time></trkpt><trkpt lat="42.090793512207256" lon="11.997558905346699"><ele>425.0</ele><time>2026-04-18T08:02:55.001Z</time></trkpt><trkpt lat="42.09088607274302" lon="11.99749233230258"><ele>425.0</ele><time>2026-04-18T08:02:57.001Z</time></trkpt><trkpt lat="42.09099590190595" lon="11.997454885110562"><ele>423.6</ele><time>2026-04-18T08:02:59.001Z</time></trkpt><trkpt lat="42.09108651164111" lon="11.997423745412497"><ele>422.2</ele><time>2026-04-18T08:03:01.001Z</time></trkpt><trkpt lat="42.09118912673381" lon="11.997365959758005"><ele>420.79999999999995</ele><time>2026-04-18T08:03:03.001Z</time></trkpt><trkpt lat="42.09128380175014" lon="11.997346929983076"><ele>419.4</ele><time>2026-04-18T08:03:05.001Z</time></trkpt><trkpt lat="42.09134728308245" lon="11.997293715126522"><ele>418.0</ele><time>2026-04-18T08:03:07.001Z</time></trkpt><trkpt lat="42.09143119374994" lon="11.997228788940859"><ele>418.00000000000006</ele><time>2026-04-18T08:03:10.001Z</time></trkpt><trkpt lat="42.091486689022716" lon="11.997138710010377"><ele>418.0</ele><time>2026-04-18T08:03:12.001Z</time></trkpt><trkpt lat="42.09152683658943" lon="11.997070061054085"><ele>418.0</ele><time>2026-04-18T08:03:14.001Z</time></trkpt><trkpt lat="42.09157246954435" lon="11.99700580757186"><ele>418.0</ele><time>2026-04-18T08:03:16.001Z</time></trkpt><trkpt lat="42.09162828564457" lon="11.99690370458857"><ele>418.00000000000006</ele><time>2026-04-18T08:03:19.001Z</time></trkpt><trkpt lat="42.09168766354296" lon="11.996807473916801"><ele>418.0</ele><time>2026-04-18T08:03:22.001Z</time></trkpt><trkpt lat="42.09173213608975" lon="11.9967372372985"><ele>415.1428571428571</ele><time>2026-04-18T08:03:25.001Z</time></trkpt><trkpt lat="42.0917686425602" lon="11.996658785416205"><ele>412.2857142857143</ele><time>2026-04-18T08:03:29.001Z</time></trkpt><trkpt lat="42.09181508531953" lon="11.996595718754143"><ele>409.42857142857144</ele><time>2026-04-18T08:03:40.001Z</time></trkpt><trkpt lat="42.09187620813347" lon="11.996533415561968"><ele>406.57142857142856</ele><time>2026-04-18T08:03:43.001Z</time></trkpt><trkpt lat="42.091921548233415" lon="11.99644076830935"><ele>403.7142857142857</ele><time>2026-04-18T08:03:46.001Z</time></trkpt><trkpt lat="42.09198108270388" lon="11.996395808123927"><ele>400.85714285714283</ele><time>2026-04-18T08:03:48.001Z</time></trkpt><trkpt lat="42.09204332557783" lon="11.996332866761744"><ele>398.0</ele><time>2026-04-18T08:03:50.001Z</time></trkpt><trkpt lat="42.09209634064608" lon="11.996237886722627"><ele>397.99999999999994</ele><time>2026-04-18T08:03:53.001Z</time></trkpt><trkpt lat="42.092158232646526" lon="11.99620579482206"><ele>398.0</ele><time>2026-04-18T08:04:08.001Z</time></trkpt><trkpt lat="42.092154802449386" lon="11.996114524694148"><ele>398.0</ele><time>2026-04-18T08:04:14.001Z</time></trkpt><trkpt lat="42.092091800419865" lon="11.996062805175997"><ele>398.0</ele><time>2026-04-18T08:04:59.001Z</time></trkpt><trkpt lat="42.09208213373932" lon="11.995978865119195"><ele>398.0</ele><time>2026-04-18T08:05:05.001Z</time></trkpt><trkpt lat="42.09206691061801" lon="11.995895668651901"><ele>397.99999999999994</ele><time>2026-04-18T08:05:15.001Z</time></trkpt><trkpt lat="42.092086480784054" lon="11.995808796872707"><ele>398.0</ele><time>2026-04-18T08:05:17.001Z</time></trkpt><trkpt lat="42.09209337905712" lon="11.995723777263663"><ele>397.99999999999994</ele><time>2026-04-18T08:05:40.001Z</time></trkpt><trkpt lat="42.09211789622731" lon="11.995626404065085"><ele>398.0</ele><time>2026-04-18T08:05:53.001Z</time></trkpt><trkpt lat="42.092172636212396" lon="11.995574686760087"><ele>398.0</ele><time>2026-04-18T08:06:06.001Z</time></trkpt><trkpt lat="42.092327024497735" lon="11.995523283719283"><ele>398.0</ele><time>2026-04-18T08:07:16Z</time></trkpt><trkpt lat="42.092391858430226" lon="11.99549230208227"><ele>397.99999999999994</ele><time>2026-04-18T08:07:43Z</time></trkpt><trkpt lat="42.09244704753514" lon="11.99556277229304"><ele>398.0</ele><time>2026-04-18T08:07:59Z</time></trkpt><trkpt lat="42.0925123956796" lon="11.995567336356494"><ele>394.4285714285714</ele><time>2026-04-18T08:08:54Z</time></trkpt><trkpt lat="42.092528437597345" lon="11.995472481143475"><ele>390.85714285714283</ele><time>2026-04-18T08:08:57Z</time></trkpt><trkpt lat="42.09257618763156" lon="11.995407057600577"><ele>387.2857142857143</ele><time>2026-04-18T08:09:02Z</time></trkpt><trkpt lat="42.092645355177034" lon="11.995343816294474"><ele>383.71428571428567</ele><time>2026-04-18T08:09:18Z</time></trkpt><trkpt lat="42.09270997623977" lon="11.995331894899723"><ele>380.14285714285717</ele><time>2026-04-18T08:09:21Z</time></trkpt><trkpt lat="42.09278063182994" lon="11.995345512588457"><ele>376.57142857142856</ele><time>2026-04-18T08:09:27Z</time></trkpt><trkpt lat="42.09283192669617" lon="11.995399225597533"><ele>373.0</ele><time>2026-04-18T08:09:31Z</time></trkpt><trkpt lat="42.09290563975719" lon="11.995406309817735"><ele>373.0</ele><time>2026-04-18T08:09:35Z</time></trkpt><trkpt lat="42.09296854745583" lon="11.995373134564316"><ele>373.0</ele><time>2026-04-18T08:09:43Z</time></trkpt><trkpt lat="42.09304806068455" lon="11.995366772427865"><ele>373.0</ele><time>2026-04-18T08:10:33.998Z</time></trkpt><trkpt lat="42.093007915209874" lon="11.995293543625234"><ele>373.0</ele><time>2026-04-18T08:10:43.999Z</time></trkpt><trkpt lat="42.09293324242813" lon="11.995223999223413"><ele>373.0</ele><time>2026-04-18T08:12:22Z</time></trkpt><trkpt lat="42.092949869932426" lon="11.995140029700483"><ele>373.0</ele><time>2026-04-18T08:12:28Z</time></trkpt><trkpt lat="42.09299385589817" lon="11.995075753876426"><ele>373.0</ele><time>2026-04-18T08:12:31.998Z</time></trkpt><trkpt lat="42.093026285076576" lon="11.994999817074836"><ele>374.57142857142856</ele><time>2026-04-18T08:12:35.998Z</time></trkpt><trkpt lat="42.09308964298462" lon="11.994924676989934"><ele>376.14285714285717</ele><time>2026-04-18T08:12:38.998Z</time></trkpt><trkpt lat="42.09310992049704" lon="11.994843964671878"><ele>377.71428571428567</ele><time>2026-04-18T08:12:57.999Z</time></trkpt><trkpt lat="42.09308404829883" lon="11.994765765865234"><ele>379.2857142857143</ele><time>2026-04-18T08:13:49Z</time></trkpt><trkpt lat="42.09314487570106" lon="11.994713811802637"><ele>380.85714285714283</ele><time>2026-04-18T08:15:36.001Z</time></trkpt><trkpt lat="42.093126895315486" lon="11.994607179937443"><ele>382.4285714285714</ele><time>2026-04-18T08:15:41.001Z</time></trkpt><trkpt lat="42.09311739797136" lon="11.994512597256492"><ele>384.0</ele><time>2026-04-18T08:15:46.001Z</time></trkpt><trkpt lat="42.09314493241434" lon="11.994435924947648"><ele>384.0</ele><time>2026-04-18T08:15:49.001Z</time></trkpt><trkpt lat="42.09311887016983" lon="11.994345662316375"><ele>384.0</ele><time>2026-04-18T08:15:52.001Z</time></trkpt><trkpt lat="42.09318991073466" lon="11.994335626241778"><ele>384.0</ele><time>2026-04-18T08:16:02.001Z</time></trkpt><trkpt lat="42.0932245518969" lon="11.994485630065125"><ele>384.0</ele><time>2026-04-18T08:16:57Z</time></trkpt><trkpt lat="42.09310793804299" lon="11.994500031966528"><ele>384.0</ele><time>2026-04-18T08:31:53Z</time></trkpt><trkpt lat="42.093186268584496" lon="11.994485344413006"><ele>383.99999999999994</ele><time>2026-04-18T08:32:49Z</time></trkpt><trkpt lat="42.09324109398237" lon="11.994439159801104"><ele>384.0</ele><time>2026-04-18T08:33:31.999Z</time></trkpt><trkpt lat="42.093177735182074" lon="11.99438434676637"><ele>384.0</ele><time>2026-04-18T08:33:37.999Z</time></trkpt><trkpt lat="42.093215698031365" lon="11.99431077651339"><ele>384.0</ele><time>2026-04-18T08:33:43.999Z</time></trkpt><trkpt lat="42.09328693757964" lon="11.994296319206342"><ele>384.0</ele><time>2026-04-18T08:33:51.999Z</time></trkpt><trkpt lat="42.09332081148472" lon="11.994202477029786"><ele>383.99999999999994</ele><time>2026-04-18T08:33:56.999Z</time></trkpt><trkpt lat="42.09337806886709" lon="11.994109101632139"><ele>384.0</ele><time>2026-04-18T08:33:59.999Z</time></trkpt><trkpt lat="42.09344380627078" lon="11.994015501984444"><ele>382.0</ele><time>2026-04-18T08:34:03.999Z</time></trkpt><trkpt lat="42.093534234637346" lon="11.993985877233131"><ele>380.0</ele><time>2026-04-18T08:34:06.999Z</time></trkpt><trkpt lat="42.09361206726245" lon="11.993894020065628"><ele>378.0</ele><time>2026-04-18T08:34:09.999Z</time></trkpt><trkpt lat="42.09370373953465" lon="11.993901227703233"><ele>376.0</ele><time>2026-04-18T08:34:14Z</time></trkpt><trkpt lat="42.093790898610436" lon="11.993844646938342"><ele>374.0</ele><time>2026-04-18T08:34:17Z</time></trkpt><trkpt lat="42.093866073659505" lon="11.993816073601684"><ele>374.0</ele><time>2026-04-18T08:34:21Z</time></trkpt><trkpt lat="42.09395361503747" lon="11.99383855162114"><ele>374.0</ele><time>2026-04-18T08:34:25Z</time></trkpt><trkpt lat="42.09401746358749" lon="11.993857246598157"><ele>374.0</ele><time>2026-04-18T08:34:28Z</time></trkpt><trkpt lat="42.09408000967213" lon="11.993869018728656"><ele>374.0</ele><time>2026-04-18T08:34:34Z</time></trkpt><trkpt lat="42.09414738862086" lon="11.993865613274721"><ele>374.0</ele><time>2026-04-18T08:34:39Z</time></trkpt><trkpt lat="42.09421450949832" lon="11.9938602195893"><ele>374.0</ele><time>2026-04-18T08:34:46Z</time></trkpt><trkpt lat="42.09426855793825" lon="11.993922185935498"><ele>374.0</ele><time>2026-04-18T08:34:52Z</time></trkpt><trkpt lat="42.094270163061296" lon="11.994007147513434"><ele>370.83333333333337</ele><time>2026-04-18T08:34:55Z</time></trkpt><trkpt lat="42.09433139498929" lon="11.994079110364801"><ele>367.6666666666667</ele><time>2026-04-18T08:34:59Z</time></trkpt><trkpt lat="42.09441088731565" lon="11.99409331991928"><ele>364.5</ele><time>2026-04-18T08:35:03Z</time></trkpt><trkpt lat="42.094486998966225" lon="11.994040561989998"><ele>361.3333333333333</ele><time>2026-04-18T08:35:08Z</time></trkpt><trkpt lat="42.09456555249403" lon="11.994035811104682"><ele>358.16666666666663</ele><time>2026-04-18T08:35:11Z</time></trkpt><trkpt lat="42.09464062585425" lon="11.99399667981837"><ele>355.0</ele><time>2026-04-18T08:35:14Z</time></trkpt><trkpt lat="42.09473201071083" lon="11.99398134113989"><ele>355.0</ele><time>2026-04-18T08:35:17Z</time></trkpt><trkpt lat="42.09480203535039" lon="11.993990831658392"><ele>355.0</ele><time>2026-04-18T08:35:21Z</time></trkpt><trkpt lat="42.094875390482336" lon="11.994037641440023"><ele>355.0</ele><time>2026-04-18T08:35:25Z</time></trkpt><trkpt lat="42.094939400129334" lon="11.994103688984419"><ele>355.0</ele><time>2026-04-18T08:35:29Z</time></trkpt><trkpt lat="42.09498255370011" lon="11.99418086355526"><ele>355.0</ele><time>2026-04-18T08:35:32Z</time></trkpt><trkpt lat="42.09505989647103" lon="11.994225907096006"><ele>355.0</ele><time>2026-04-18T08:35:34.998Z</time></trkpt><trkpt lat="42.09512477190229" lon="11.994309315686367"><ele>351.85714285714283</ele><time>2026-04-18T08:35:38.998Z</time></trkpt><trkpt lat="42.09519136358386" lon="11.994359118691287"><ele>348.7142857142857</ele><time>2026-04-18T08:35:44.999Z</time></trkpt><trkpt lat="42.09525799276917" lon="11.994381225048178"><ele>345.57142857142856</ele><time>2026-04-18T08:35:52.999Z</time></trkpt><trkpt lat="42.09533743708365" lon="11.994368133449653"><ele>342.42857142857144</ele><time>2026-04-18T08:35:59.999Z</time></trkpt><trkpt lat="42.09540751138925" lon="11.994391591670903"><ele>339.2857142857143</ele><time>2026-04-18T08:36:06.999Z</time></trkpt><trkpt lat="42.09543348808453" lon="11.994305216570153"><ele>336.14285714285717</ele><time>2026-04-18T08:36:22Z</time></trkpt><trkpt lat="42.09547152991963" lon="11.99422393396676"><ele>333.0</ele><time>2026-04-18T08:36:33Z</time></trkpt><trkpt lat="42.09553159956254" lon="11.994162796112363"><ele>333.0</ele><time>2026-04-18T08:36:36Z</time></trkpt><trkpt lat="42.09553032044775" lon="11.994059607531742"><ele>333.0</ele><time>2026-04-18T08:37:00Z</time></trkpt><trkpt lat="42.0955309555999" lon="11.993950732630692"><ele>333.0</ele><time>2026-04-18T08:37:02Z</time></trkpt><trkpt lat="42.09555823990001" lon="11.993873831418284"><ele>333.0</ele><time>2026-04-18T08:37:04Z</time></trkpt><trkpt lat="42.09560664922243" lon="11.993796756114262"><ele>333.0</ele><time>2026-04-18T08:37:06Z</time></trkpt><trkpt lat="42.09566554208688" lon="11.993728589307402"><ele>333.0</ele><time>2026-04-18T08:37:08Z</time></trkpt><trkpt lat="42.09568327247693" lon="11.99362653818317"><ele>333.0</ele><time>2026-04-18T08:37:11Z</time></trkpt><trkpt lat="42.0957534063315" lon="11.993560280901473"><ele>333.0</ele><time>2026-04-18T08:37:14Z</time></trkpt><trkpt lat="42.095808867828616" lon="11.993513410503372"><ele>333.0</ele><time>2026-04-18T08:37:17Z</time></trkpt><trkpt lat="42.09582938489221" lon="11.993432509941629"><ele>333.0</ele><time>2026-04-18T08:37:20Z</time></trkpt><trkpt lat="42.09588485246314" lon="11.993378189193464"><ele>333.0</ele><time>2026-04-18T08:37:23Z</time></trkpt><trkpt lat="42.09590517912774" lon="11.993297856556694"><ele>333.0</ele><time>2026-04-18T08:37:26Z</time></trkpt><trkpt lat="42.09592309956005" lon="11.993204079012317"><ele>333.0</ele><time>2026-04-18T08:37:28Z</time></trkpt><trkpt lat="42.09593792811102" lon="11.993108961350364"><ele>330.0</ele><time>2026-04-18T08:37:30Z</time></trkpt><trkpt lat="42.09599930723986" lon="11.993012482863314"><ele>327.0</ele><time>2026-04-18T08:37:32Z</time></trkpt><trkpt lat="42.09604881495008" lon="11.992903838105184"><ele>324.0</ele><time>2026-04-18T08:37:34Z</time></trkpt><trkpt lat="42.096080851542105" lon="11.99279304992262"><ele>321.0</ele><time>2026-04-18T08:37:36Z</time></trkpt><trkpt lat="42.09607308479033" lon="11.992705632216985"><ele>318.0</ele><time>2026-04-18T08:37:38Z</time></trkpt><trkpt lat="42.096066630968075" lon="11.992594362672623"><ele>315.0</ele><time>2026-04-18T08:37:41Z</time></trkpt><trkpt lat="42.09606739532933" lon="11.992507638161245"><ele>314.8333333333333</ele><time>2026-04-18T08:37:43Z</time></trkpt><trkpt lat="42.09609480243852" lon="11.992398796395463"><ele>314.6666666666667</ele><time>2026-04-18T08:37:46Z</time></trkpt><trkpt lat="42.09613211887587" lon="11.992288383203068"><ele>314.5</ele><time>2026-04-18T08:37:50Z</time></trkpt><trkpt lat="42.09614554546161" lon="11.992192108059685"><ele>314.33333333333337</ele><time>2026-04-18T08:38:18Z</time></trkpt><trkpt lat="42.09619316861241" lon="11.992119957462902"><ele>314.1666666666667</ele><time>2026-04-18T08:38:22Z</time></trkpt><trkpt lat="42.09624516998714" lon="11.992011084218527"><ele>314.0</ele><time>2026-04-18T08:38:26Z</time></trkpt><trkpt lat="42.096281554418226" lon="11.991924216753823"><ele>314.0</ele><time>2026-04-18T08:38:42Z</time></trkpt><trkpt lat="42.096340794970416" lon="11.991891480450052"><ele>314.0</ele><time>2026-04-18T08:38:47.001Z</time></trkpt><trkpt lat="42.09640473450445" lon="11.99196161207296"><ele>314.0</ele><time>2026-04-18T08:38:54.001Z</time></trkpt><trkpt lat="42.09647431675882" lon="11.99202326190926"><ele>314.0</ele><time>2026-04-18T08:39:21.001Z</time></trkpt><trkpt lat="42.096472226951875" lon="11.992116755456543"><ele>314.0</ele><time>2026-04-18T08:39:29.001Z</time></trkpt><trkpt lat="42.09653799637283" lon="11.992176458571576"><ele>314.0</ele><time>2026-04-18T08:39:33.001Z</time></trkpt><trkpt lat="42.09661581349177" lon="11.992214176957102"><ele>312.0</ele><time>2026-04-18T08:39:36.001Z</time></trkpt><trkpt lat="42.096656564360586" lon="11.992288479670824"><ele>310.0</ele><time>2026-04-18T08:39:52.001Z</time></trkpt><trkpt lat="42.096608673403686" lon="11.99249060254995"><ele>308.0</ele><time>2026-04-18T08:42:29Z</time></trkpt><trkpt lat="42.09662953909271" lon="11.99260943847776"><ele>306.0</ele><time>2026-04-18T08:42:31Z</time></trkpt><trkpt lat="42.09661750165111" lon="11.992722300348346"><ele>304.0</ele><time>2026-04-18T08:42:33Z</time></trkpt><trkpt lat="42.09661822891126" lon="11.992827777478528"><ele>304.0</ele><time>2026-04-18T08:42:35Z</time></trkpt><trkpt lat="42.09660207939679" lon="11.993008157613815"><ele>304.0</ele><time>2026-04-18T08:42:37Z</time></trkpt><trkpt lat="42.09659810528138" lon="11.993097366664474"><ele>304.0</ele><time>2026-04-18T08:42:38Z</time></trkpt><trkpt lat="42.09654659396166" lon="11.993234718091282"><ele>304.0</ele><time>2026-04-18T08:42:40Z</time></trkpt><trkpt lat="42.096456066202094" lon="11.993334174605009"><ele>304.0</ele><time>2026-04-18T08:42:42Z</time></trkpt><trkpt lat="42.09638740193095" lon="11.993414903688532"><ele>306.66666666666663</ele><time>2026-04-18T08:42:44Z</time></trkpt><trkpt lat="42.096327128881796" lon="11.993550803120952"><ele>309.3333333333333</ele><time>2026-04-18T08:42:46Z</time></trkpt><trkpt lat="42.09630136474416" lon="11.993653650114648"><ele>312.0</ele><time>2026-04-18T08:42:47Z</time></trkpt><trkpt lat="42.096279527828955" lon="11.99375854077535"><ele>314.6666666666667</ele><time>2026-04-18T08:42:48Z</time></trkpt><trkpt lat="42.09626573083905" lon="11.993848402714104"><ele>317.33333333333337</ele><time>2026-04-18T08:42:50Z</time></trkpt><trkpt lat="42.09623107059156" lon="11.993931391834169"><ele>320.0</ele><time>2026-04-18T08:42:51Z</time></trkpt><trkpt lat="42.096169997604825" lon="11.994040924632591"><ele>320.0</ele><time>2026-04-18T08:42:53Z</time></trkpt><trkpt lat="42.096185638096735" lon="11.994135246976969"><ele>320.0</ele><time>2026-04-18T08:42:55Z</time></trkpt><trkpt lat="42.09625042301137" lon="11.994211277077502"><ele>320.0</ele><time>2026-04-18T08:42:57.001Z</time></trkpt><trkpt lat="42.09632591791938" lon="11.994201966487168"><ele>320.0</ele><time>2026-04-18T08:42:59.001Z</time></trkpt><trkpt lat="42.096389884270806" lon="11.994218841251499"><ele>320.0</ele><time>2026-04-18T08:43:00.001Z</time></trkpt><trkpt lat="42.09644744401129" lon="11.994277968355993"><ele>320.0</ele><time>2026-04-18T08:43:01.001Z</time></trkpt><trkpt lat="42.096506495343434" lon="11.994329871383691"><ele>320.0</ele><time>2026-04-18T08:43:02.001Z</time></trkpt><trkpt lat="42.09655025424327" lon="11.994414323048925"><ele>322.0</ele><time>2026-04-18T08:43:03.001Z</time></trkpt><trkpt lat="42.096588418421604" lon="11.994543160507645"><ele>324.0</ele><time>2026-04-18T08:43:05.001Z</time></trkpt><trkpt lat="42.096626150272385" lon="11.994656250378224"><ele>326.0</ele><time>2026-04-18T08:43:07.001Z</time></trkpt><trkpt lat="42.096643834692074" lon="11.994769625561382"><ele>328.0</ele><time>2026-04-18T08:43:11.001Z</time></trkpt><trkpt lat="42.09666151277848" lon="11.994935726912212"><ele>330.0</ele><time>2026-04-18T08:43:13.001Z</time></trkpt><trkpt lat="42.096665839125144" lon="11.995033298622648"><ele>331.3333333333333</ele><time>2026-04-18T08:43:15.001Z</time></trkpt><trkpt lat="42.096651686121355" lon="11.995145592750406"><ele>332.6666666666667</ele><time>2026-04-18T08:43:18.001Z</time></trkpt><trkpt lat="42.096685672591974" lon="11.995219684171353"><ele>334.0</ele><time>2026-04-18T08:43:35.001Z</time></trkpt><trkpt lat="42.096697588755475" lon="11.995335371767476"><ele>335.33333333333337</ele><time>2026-04-18T08:43:44.001Z</time></trkpt><trkpt lat="42.09670926179033" lon="11.99541904599197"><ele>336.6666666666667</ele><time>2026-04-18T08:43:45.001Z</time></trkpt><trkpt lat="42.09681144592845" lon="11.99547638264936"><ele>338.0</ele><time>2026-04-18T08:43:47.001Z</time></trkpt><trkpt lat="42.096911768911895" lon="11.995555444705474"><ele>338.0</ele><time>2026-04-18T08:43:49.001Z</time></trkpt><trkpt lat="42.096979180430225" lon="11.995707346640005"><ele>338.0</ele><time>2026-04-18T08:43:51.001Z</time></trkpt><trkpt lat="42.0970114530964" lon="11.995806142306765"><ele>338.0</ele><time>2026-04-18T08:43:52.001Z</time></trkpt><trkpt lat="42.09706901295181" lon="11.995927091864424"><ele>338.0</ele><time>2026-04-18T08:43:54.001Z</time></trkpt><trkpt lat="42.09708963050066" lon="11.99602476186152"><ele>338.0</ele><time>2026-04-18T08:43:55.001Z</time></trkpt><trkpt lat="42.09716831865761" lon="11.996135729204026"><ele>339.79999999999995</ele><time>2026-04-18T08:43:57.001Z</time></trkpt><trkpt lat="42.09724346044776" lon="11.996188618871642"><ele>341.6</ele><time>2026-04-18T08:43:59Z</time></trkpt><trkpt lat="42.09728242145636" lon="11.996328673012115"><ele>343.4</ele><time>2026-04-18T08:44:01Z</time></trkpt><trkpt lat="42.097303907221644" lon="11.996482969220361"><ele>345.20000000000005</ele><time>2026-04-18T08:44:03Z</time></trkpt><trkpt lat="42.0973442257002" lon="11.996606935973372"><ele>347.0</ele><time>2026-04-18T08:44:05Z</time></trkpt><trkpt lat="42.09738073689699" lon="11.996761512973134"><ele>348.40000000000003</ele><time>2026-04-18T08:44:07Z</time></trkpt><trkpt lat="42.09740847388726" lon="11.996842124263994"><ele>349.8</ele><time>2026-04-18T08:44:08Z</time></trkpt><trkpt lat="42.09746711359285" lon="11.99695400469155"><ele>351.2</ele><time>2026-04-18T08:44:10Z</time></trkpt><trkpt lat="42.097561307024606" lon="11.997016146530724"><ele>352.6</ele><time>2026-04-18T08:44:12Z</time></trkpt><trkpt lat="42.09764098418549" lon="11.997066768307874"><ele>354.0</ele><time>2026-04-18T08:44:14Z</time></trkpt><trkpt lat="42.09772409641731" lon="11.997132883537303"><ele>354.25</ele><time>2026-04-18T08:44:16Z</time></trkpt><trkpt lat="42.0978007407558" lon="11.997231652561265"><ele>354.5</ele><time>2026-04-18T08:44:18Z</time></trkpt><trkpt lat="42.09785584254241" lon="11.997358768636474"><ele>354.75</ele><time>2026-04-18T08:44:20Z</time></trkpt><trkpt lat="42.09791680562584" lon="11.997508779476489"><ele>355.0</ele><time>2026-04-18T08:44:22Z</time></trkpt><trkpt lat="42.09798442061717" lon="11.997646630634922"><ele>356.16666666666663</ele><time>2026-04-18T08:44:24Z</time></trkpt><trkpt lat="42.09804214371586" lon="11.997792089603852"><ele>357.3333333333333</ele><time>2026-04-18T08:44:26Z</time></trkpt><trkpt lat="42.0980847660729" lon="11.997896616370362"><ele>358.5</ele><time>2026-04-18T08:44:28Z</time></trkpt><trkpt lat="42.09815044414971" lon="11.997838121948138"><ele>359.6666666666667</ele><time>2026-04-18T08:44:32Z</time></trkpt><trkpt lat="42.098188837363" lon="11.997768230913774"><ele>360.83333333333337</ele><time>2026-04-18T08:44:35Z</time></trkpt><trkpt lat="42.09822063315445" lon="11.997686944566357"><ele>362.0</ele><time>2026-04-18T08:44:38Z</time></trkpt><trkpt lat="42.09815343875077" lon="11.997701295312972"><ele>362.0</ele><time>2026-04-18T08:44:41Z</time></trkpt><trkpt lat="42.098134952753206" lon="11.99780928938368"><ele>362.0</ele><time>2026-04-18T08:44:43Z</time></trkpt><trkpt lat="42.09811336839038" lon="11.997930578033166"><ele>362.0</ele><time>2026-04-18T08:44:45Z</time></trkpt><trkpt lat="42.09801602567393" lon="11.998004996675077"><ele>362.0</ele><time>2026-04-18T08:44:47Z</time></trkpt><trkpt lat="42.097926092011434" lon="11.998045786463482"><ele>362.0</ele><time>2026-04-18T08:44:48Z</time></trkpt><trkpt lat="42.0978473615588" lon="11.998094048728776"><ele>362.0</ele><time>2026-04-18T08:44:49Z</time></trkpt><trkpt lat="42.09778259674787" lon="11.998155172519064"><ele>362.0</ele><time>2026-04-18T08:44:50Z</time></trkpt><trkpt lat="42.09771503123808" lon="11.998221822000826"><ele>362.0</ele><time>2026-04-18T08:44:51Z</time></trkpt><trkpt lat="42.09763059391207" lon="11.998284532061513"><ele>362.0</ele><time>2026-04-18T08:44:52Z</time></trkpt><trkpt lat="42.09752997263548" lon="11.99835370839273"><ele>362.0</ele><time>2026-04-18T08:44:53Z</time></trkpt><trkpt lat="42.09744867841562" lon="11.99843052593887"><ele>362.6666666666667</ele><time>2026-04-18T08:44:54Z</time></trkpt><trkpt lat="42.09739860721261" lon="11.99853654078265"><ele>363.33333333333337</ele><time>2026-04-18T08:44:56Z</time></trkpt><trkpt lat="42.09735797135069" lon="11.998605728285847"><ele>364.0</ele><time>2026-04-18T08:44:59Z</time></trkpt><trkpt lat="42.09731287579033" lon="11.998696591872115"><ele>364.6666666666667</ele><time>2026-04-18T08:45:01Z</time></trkpt><trkpt lat="42.097279470589626" lon="11.99877894423936"><ele>365.3333333333333</ele><time>2026-04-18T08:45:03Z</time></trkpt><trkpt lat="42.09723198512437" lon="11.998854196771614"><ele>366.0</ele><time>2026-04-18T08:45:05Z</time></trkpt><trkpt lat="42.09717021105174" lon="11.998911508758832"><ele>366.0</ele><time>2026-04-18T08:45:07Z</time></trkpt><trkpt lat="42.097110928393015" lon="11.998966123772261"><ele>366.0</ele><time>2026-04-18T08:45:09Z</time></trkpt><trkpt lat="42.09705426748453" lon="11.99900940895411"><ele>366.0</ele><time>2026-04-18T08:47:32Z</time></trkpt><trkpt lat="42.09710556326602" lon="11.998910942944018"><ele>366.0</ele><time>2026-04-18T08:47:35Z</time></trkpt><trkpt lat="42.09720897270984" lon="11.998831102623399"><ele>366.0</ele><time>2026-04-18T08:47:37Z</time></trkpt><trkpt lat="42.09725504721262" lon="11.998771757373536"><ele>366.0</ele><time>2026-04-18T08:47:38.001Z</time></trkpt><trkpt lat="42.09731116435387" lon="11.998706309514048"><ele>366.0</ele><time>2026-04-18T08:47:39.001Z</time></trkpt><trkpt lat="42.09736828116179" lon="11.998632736985165"><ele>366.0</ele><time>2026-04-18T08:47:40.001Z</time></trkpt><trkpt lat="42.09741767986651" lon="11.998564045929562"><ele>366.0</ele><time>2026-04-18T08:47:41.001Z</time></trkpt><trkpt lat="42.09745984805752" lon="11.99849343453489"><ele>366.0</ele><time>2026-04-18T08:47:42.001Z</time></trkpt><trkpt lat="42.09750541626187" lon="11.998415523105427"><ele>366.0</ele><time>2026-04-18T08:47:43.001Z</time></trkpt><trkpt lat="42.09755692540681" lon="11.998344781196298"><ele>366.0</ele><time>2026-04-18T08:47:44.001Z</time></trkpt><trkpt lat="42.097632142455325" lon="11.998288494540922"><ele>365.3333333333333</ele><time>2026-04-18T08:47:45.001Z</time></trkpt><trkpt lat="42.09771519091938" lon="11.998245275962622"><ele>364.6666666666667</ele><time>2026-04-18T08:47:46.001Z</time></trkpt><trkpt lat="42.097793517067544" lon="11.99819834674572"><ele>364.0</ele><time>2026-04-18T08:47:47.001Z</time></trkpt><trkpt lat="42.09786103501934" lon="11.998145147886518"><ele>363.33333333333337</ele><time>2026-04-18T08:47:48.001Z</time></trkpt><trkpt lat="42.09791786283565" lon="11.99808514908261"><ele>362.6666666666667</ele><time>2026-04-18T08:47:49.001Z</time></trkpt><trkpt lat="42.09796935001299" lon="11.998023827546957"><ele>362.0</ele><time>2026-04-18T08:47:50.001Z</time></trkpt><trkpt lat="42.09802059740734" lon="11.997953625483955"><ele>362.0</ele><time>2026-04-18T08:47:51.001Z</time></trkpt><trkpt lat="42.09806766886443" lon="11.997819365909619"><ele>362.0</ele><time>2026-04-18T08:47:53.001Z</time></trkpt><trkpt lat="42.098018357428174" lon="11.997649093195346"><ele>362.0</ele><time>2026-04-18T08:47:55.001Z</time></trkpt><trkpt lat="42.09796940142335" lon="11.997570099401212"><ele>362.0</ele><time>2026-04-18T08:47:56.001Z</time></trkpt><trkpt lat="42.097927223506595" lon="11.99748907535745"><ele>362.0</ele><time>2026-04-18T08:47:57.001Z</time></trkpt><trkpt lat="42.09788854726753" lon="11.997403901289495"><ele>360.83333333333337</ele><time>2026-04-18T08:47:58.001Z</time></trkpt><trkpt lat="42.097852072630154" lon="11.997318679814022"><ele>359.6666666666667</ele><time>2026-04-18T08:47:59.001Z</time></trkpt><trkpt lat="42.09782411988905" lon="11.997231244654477"><ele>358.5</ele><time>2026-04-18T08:48:00.001Z</time></trkpt><trkpt lat="42.0977923087412" lon="11.997153621462738"><ele>357.3333333333333</ele><time>2026-04-18T08:48:01.001Z</time></trkpt><trkpt lat="42.097732744392474" lon="11.997035677171514"><ele>356.16666666666663</ele><time>2026-04-18T08:48:03.001Z</time></trkpt><trkpt lat="42.097677713492196" lon="11.996934315434105"><ele>355.0</ele><time>2026-04-18T08:48:05.001Z</time></trkpt><trkpt lat="42.0976178581776" lon="11.996823757307915"><ele>355.0</ele><time>2026-04-18T08:48:07.001Z</time></trkpt><trkpt lat="42.097555433227846" lon="11.996714788311522"><ele>355.0</ele><time>2026-04-18T08:48:09.001Z</time></trkpt><trkpt lat="42.09751161544834" lon="11.99656034668404"><ele>355.0</ele><time>2026-04-18T08:48:11Z</time></trkpt><trkpt lat="42.09745043801876" lon="11.996444096254866"><ele>355.0</ele><time>2026-04-18T08:48:13Z</time></trkpt><trkpt lat="42.09738137977946" lon="11.996355840813985"><ele>355.0</ele><time>2026-04-18T08:48:15Z</time></trkpt><trkpt lat="42.097323909741135" lon="11.996271708659926"><ele>353.4</ele><time>2026-04-18T08:48:17Z</time></trkpt><trkpt lat="42.097239195807624" lon="11.996163155018422"><ele>351.8</ele><time>2026-04-18T08:48:19Z</time></trkpt><trkpt lat="42.09718602780422" lon="11.996101035476217"><ele>350.20000000000005</ele><time>2026-04-18T08:48:20Z</time></trkpt><trkpt lat="42.09713172860907" lon="11.9960388450966"><ele>348.6</ele><time>2026-04-18T08:48:21Z</time></trkpt><trkpt lat="42.09706005016437" lon="11.995932527091261"><ele>347.0</ele><time>2026-04-18T08:48:23Z</time></trkpt><trkpt lat="42.09699937695588" lon="11.99579780055433"><ele>345.20000000000005</ele><time>2026-04-18T08:48:25Z</time></trkpt><trkpt lat="42.09694235533781" lon="11.99565048931855"><ele>343.4</ele><time>2026-04-18T08:48:27Z</time></trkpt><trkpt lat="42.09690343976741" lon="11.995576266378249"><ele>341.6</ele><time>2026-04-18T08:48:28Z</time></trkpt><trkpt lat="42.09682534219816" lon="11.995498386745199"><ele>339.79999999999995</ele><time>2026-04-18T08:48:30Z</time></trkpt><trkpt lat="42.096737346924165" lon="11.995434223864844"><ele>338.0</ele><time>2026-04-18T08:48:32Z</time></trkpt><trkpt lat="42.096715187407106" lon="11.995318017884847"><ele>338.0</ele><time>2026-04-18T08:48:34Z</time></trkpt><trkpt lat="42.0967169116466" lon="11.995205908959749"><ele>338.0</ele><time>2026-04-18T08:48:37Z</time></trkpt><trkpt lat="42.09667497206611" lon="11.99514223770518"><ele>338.0</ele><time>2026-04-18T08:48:39Z</time></trkpt><trkpt lat="42.09666199540982" lon="11.995023646471159"><ele>338.0</ele><time>2026-04-18T08:48:42Z</time></trkpt><trkpt lat="42.096643959677436" lon="11.994939456744772"><ele>338.0</ele><time>2026-04-18T08:48:44Z</time></trkpt><trkpt lat="42.0966180439721" lon="11.994815701950204"><ele>338.0</ele><time>2026-04-18T08:48:46Z</time></trkpt><trkpt lat="42.09661460627772" lon="11.994692826285506"><ele>336.4</ele><time>2026-04-18T08:48:48Z</time></trkpt><trkpt lat="42.09660001534814" lon="11.994560579364432"><ele>334.79999999999995</ele><time>2026-04-18T08:48:50Z</time></trkpt><trkpt lat="42.09654224554858" lon="11.994473048756564"><ele>333.2</ele><time>2026-04-18T08:48:53Z</time></trkpt><trkpt lat="42.09646301509495" lon="11.9943056167091"><ele>331.6</ele><time>2026-04-18T08:48:55Z</time></trkpt><trkpt lat="42.09636405337046" lon="11.994299627035183"><ele>330.0</ele><time>2026-04-18T08:48:57Z</time></trkpt><trkpt lat="42.09629058689958" lon="11.994257326413667"><ele>329.6666666666667</ele><time>2026-04-18T08:48:59Z</time></trkpt><trkpt lat="42.09622095442099" lon="11.994237712723224"><ele>329.3333333333333</ele><time>2026-04-18T08:49:01Z</time></trkpt><trkpt lat="42.09615855744775" lon="11.994216877904286"><ele>329.0</ele><time>2026-04-18T08:49:03Z</time></trkpt><trkpt lat="42.096115700314186" lon="11.994139251009367"><ele>328.66666666666663</ele><time>2026-04-18T08:49:05Z</time></trkpt><trkpt lat="42.0961490344731" lon="11.99402475437772"><ele>328.3333333333333</ele><time>2026-04-18T08:49:07Z</time></trkpt><trkpt lat="42.09624254096185" lon="11.993908883203998"><ele>328.0</ele><time>2026-04-18T08:49:09Z</time></trkpt><trkpt lat="42.0963179765238" lon="11.993786446827695"><ele>326.66666666666663</ele><time>2026-04-18T08:49:11Z</time></trkpt><trkpt lat="42.09635247463606" lon="11.993712248296756"><ele>325.3333333333333</ele><time>2026-04-18T08:49:12Z</time></trkpt><trkpt lat="42.09638277373191" lon="11.99362668110392"><ele>324.0</ele><time>2026-04-18T08:49:13Z</time></trkpt><trkpt lat="42.09640021247216" lon="11.993473778504498"><ele>322.6666666666667</ele><time>2026-04-18T08:49:15Z</time></trkpt><trkpt lat="42.0964563043955" lon="11.9933850308471"><ele>321.33333333333337</ele><time>2026-04-18T08:49:17Z</time></trkpt><trkpt lat="42.0965212686175" lon="11.993301389425794"><ele>320.0</ele><time>2026-04-18T08:49:19Z</time></trkpt><trkpt lat="42.09658464296056" lon="11.99321185284816"><ele>317.33333333333337</ele><time>2026-04-18T08:49:21Z</time></trkpt><trkpt lat="42.09661228413001" lon="11.9931040078538"><ele>314.6666666666667</ele><time>2026-04-18T08:49:23Z</time></trkpt><trkpt lat="42.09661065248434" lon="11.993001792171977"><ele>312.0</ele><time>2026-04-18T08:49:25Z</time></trkpt><trkpt lat="42.09661831500817" lon="11.992887684600833"><ele>309.3333333333333</ele><time>2026-04-18T08:49:27Z</time></trkpt><trkpt lat="42.09662181854114" lon="11.992773136188031"><ele>306.66666666666663</ele><time>2026-04-18T08:49:29Z</time></trkpt><trkpt lat="42.09662000510725" lon="11.99263899632435"><ele>304.0</ele><time>2026-04-18T08:49:31Z</time></trkpt><trkpt lat="42.096617725207494" lon="11.992530213096876"><ele>302.85714285714283</ele><time>2026-04-18T08:49:33Z</time></trkpt><trkpt lat="42.096599633550355" lon="11.992431910426387"><ele>301.7142857142857</ele><time>2026-04-18T08:49:35Z</time></trkpt><trkpt lat="42.096597413448805" lon="11.992335003119125"><ele>300.57142857142856</ele><time>2026-04-18T08:49:37Z</time></trkpt><trkpt lat="42.096562310147355" lon="11.992259353300657"><ele>299.42857142857144</ele><time>2026-04-18T08:49:40Z</time></trkpt><trkpt lat="42.096490598297216" lon="11.992198598351983"><ele>298.2857142857143</ele><time>2026-04-18T08:49:45Z</time></trkpt><trkpt lat="42.09649093727158" lon="11.992108865420544"><ele>297.14285714285717</ele><time>2026-04-18T08:49:49Z</time></trkpt><trkpt lat="42.096540105997285" lon="11.992023113482889"><ele>296.0</ele><time>2026-04-18T08:49:51Z</time></trkpt><trkpt lat="42.096573221860986" lon="11.991903117459938"><ele>299.40000000000003</ele><time>2026-04-18T08:49:53.001Z</time></trkpt><trkpt lat="42.09652064287307" lon="11.991779655565733"><ele>302.8</ele><time>2026-04-18T08:49:55.001Z</time></trkpt><trkpt lat="42.096469178534036" lon="11.991657387876312"><ele>306.20000000000005</ele><time>2026-04-18T08:49:57.001Z</time></trkpt><trkpt lat="42.09638908647733" lon="11.991516045960052"><ele>309.6</ele><time>2026-04-18T08:49:59.001Z</time></trkpt><trkpt lat="42.09637821765376" lon="11.991405643696666"><ele>313.0</ele><time>2026-04-18T08:50:01.001Z</time></trkpt><trkpt lat="42.09635431488992" lon="11.99127271177706"><ele>313.0</ele><time>2026-04-18T08:50:03.001Z</time></trkpt><trkpt lat="42.09635136095803" lon="11.991152857325313"><ele>313.0</ele><time>2026-04-18T08:50:05.001Z</time></trkpt><trkpt lat="42.09633487456899" lon="11.991025155347996"><ele>313.0</ele><time>2026-04-18T08:50:07.001Z</time></trkpt><trkpt lat="42.09630350040693" lon="11.990896821474793"><ele>313.0</ele><time>2026-04-18T08:50:09.001Z</time></trkpt><trkpt lat="42.09630710742428" lon="11.990803441358503"><ele>313.0</ele><time>2026-04-18T08:50:11.001Z</time></trkpt><trkpt lat="42.09630035777431" lon="11.990702901176107"><ele>313.0</ele><time>2026-04-18T08:50:13.001Z</time></trkpt><trkpt lat="42.09631649456343" lon="11.990602828166004"><ele>312.16666666666663</ele><time>2026-04-18T08:50:15.001Z</time></trkpt><trkpt lat="42.09632106019595" lon="11.990499407803963"><ele>311.3333333333333</ele><time>2026-04-18T08:50:17Z</time></trkpt><trkpt lat="42.0963422968338" lon="11.990383601823266"><ele>310.5</ele><time>2026-04-18T08:50:19Z</time></trkpt><trkpt lat="42.096342090722565" lon="11.990281055140569"><ele>309.6666666666667</ele><time>2026-04-18T08:50:20Z</time></trkpt><trkpt lat="42.09635313637107" lon="11.990182646887549"><ele>308.83333333333337</ele><time>2026-04-18T08:50:21Z</time></trkpt><trkpt lat="42.09636524377171" lon="11.990024666612076"><ele>308.0</ele><time>2026-04-18T08:50:23Z</time></trkpt><trkpt lat="42.09634845998431" lon="11.98988155515178"><ele>305.75</ele><time>2026-04-18T08:50:25Z</time></trkpt><trkpt lat="42.09631309520587" lon="11.98972786573149"><ele>303.5</ele><time>2026-04-18T08:50:27Z</time></trkpt><trkpt lat="42.0962662945109" lon="11.989591041168524"><ele>301.25</ele><time>2026-04-18T08:50:29Z</time></trkpt><trkpt lat="42.09624335835027" lon="11.989468737142518"><ele>299.0</ele><time>2026-04-18T08:50:31Z</time></trkpt><trkpt lat="42.09622372549781" lon="11.989298428241352"><ele>297.8</ele><time>2026-04-18T08:50:33Z</time></trkpt><trkpt lat="42.09617898323468" lon="11.989174391525008"><ele>296.59999999999997</ele><time>2026-04-18T08:50:35Z</time></trkpt><trkpt lat="42.096166673979376" lon="11.98904461078922"><ele>295.4</ele><time>2026-04-18T08:50:37Z</time></trkpt><trkpt lat="42.09615211970656" lon="11.988918933493075"><ele>294.2</ele><time>2026-04-18T08:50:39Z</time></trkpt><trkpt lat="42.096140473589685" lon="11.9887965193165"><ele>293.0</ele><time>2026-04-18T08:50:41Z</time></trkpt><trkpt lat="42.09614465444761" lon="11.988647707507642"><ele>293.0</ele><time>2026-04-18T08:50:43Z</time></trkpt><trkpt lat="42.096123896155575" lon="11.988556168062575"><ele>293.0</ele><time>2026-04-18T08:50:45Z</time></trkpt><trkpt lat="42.09616679707967" lon="11.988493980087599"><ele>293.0</ele><time>2026-04-18T08:50:46Z</time></trkpt><trkpt lat="42.096203355841304" lon="11.988360859553216"><ele>293.0</ele><time>2026-04-18T08:50:47Z</time></trkpt><trkpt lat="42.09622317753412" lon="11.988229914719783"><ele>293.0</ele><time>2026-04-18T08:50:49Z</time></trkpt><trkpt lat="42.096225669338" lon="11.98812417710688"><ele>293.0</ele><time>2026-04-18T08:50:51Z</time></trkpt><trkpt lat="42.096215796837654" lon="11.988005151648265"><ele>292.83333333333337</ele><time>2026-04-18T08:50:53Z</time></trkpt><trkpt lat="42.096202791875804" lon="11.987871176376483"><ele>292.6666666666667</ele><time>2026-04-18T08:50:55Z</time></trkpt><trkpt lat="42.096196917759464" lon="11.987756392092807"><ele>292.5</ele><time>2026-04-18T08:50:56Z</time></trkpt><trkpt lat="42.096191146634105" lon="11.987652495560514"><ele>292.3333333333333</ele><time>2026-04-18T08:50:57Z</time></trkpt><trkpt lat="42.096177914073124" lon="11.987566679819821"><ele>292.16666666666663</ele><time>2026-04-18T08:50:58Z</time></trkpt><trkpt lat="42.09613297879946" lon="11.987415476764085"><ele>292.0</ele><time>2026-04-18T08:51:00Z</time></trkpt><trkpt lat="42.09608565714446" lon="11.98728066520025"><ele>290.6</ele><time>2026-04-18T08:51:02Z</time></trkpt><trkpt lat="42.09602909524847" lon="11.987153389296685"><ele>289.2</ele><time>2026-04-18T08:51:04Z</time></trkpt><trkpt lat="42.09601171397512" lon="11.987034279486236"><ele>287.8</ele><time>2026-04-18T08:51:06Z</time></trkpt><trkpt lat="42.096015390486755" lon="11.986906289526818"><ele>286.4</ele><time>2026-04-18T08:51:08Z</time></trkpt><trkpt lat="42.095983911607256" lon="11.986755026268375"><ele>285.0</ele><time>2026-04-18T08:51:10Z</time></trkpt><trkpt lat="42.09592097088319" lon="11.986613745681675"><ele>282.5</ele><time>2026-04-18T08:51:12Z</time></trkpt><trkpt lat="42.09588646837217" lon="11.98653657929626"><ele>280.0</ele><time>2026-04-18T08:51:13Z</time></trkpt><trkpt lat="42.0958081072207" lon="11.986457900572193"><ele>277.5</ele><time>2026-04-18T08:51:14Z</time></trkpt><trkpt lat="42.095786410003925" lon="11.986314886706598"><ele>275.0</ele><time>2026-04-18T08:51:16Z</time></trkpt><trkpt lat="42.09573143561464" lon="11.986215983763136"><ele>272.5</ele><time>2026-04-18T08:51:17Z</time></trkpt><trkpt lat="42.09578305365245" lon="11.98613406720736"><ele>270.0</ele><time>2026-04-18T08:51:18Z</time></trkpt><trkpt lat="42.09579222081053" lon="11.985956023731198"><ele>270.0</ele><time>2026-04-18T08:51:20Z</time></trkpt><trkpt lat="42.09582171277605" lon="11.985876604985034"><ele>270.0</ele><time>2026-04-18T08:51:21Z</time></trkpt><trkpt lat="42.09577177821026" lon="11.98572250146815"><ele>270.0</ele><time>2026-04-18T08:51:23Z</time></trkpt><trkpt lat="42.0957601085961" lon="11.98558760041098"><ele>270.0</ele><time>2026-04-18T08:51:24Z</time></trkpt><trkpt lat="42.09580524383191" lon="11.985498483336157"><ele>270.0</ele><time>2026-04-18T08:51:26Z</time></trkpt><trkpt lat="42.095827388597755" lon="11.98533988208691"><ele>268.8333333333333</ele><time>2026-04-18T08:51:28Z</time></trkpt><trkpt lat="42.09579728209668" lon="11.98526495067235"><ele>267.6666666666667</ele><time>2026-04-18T08:51:29Z</time></trkpt><trkpt lat="42.09578253082945" lon="11.985176205726157"><ele>266.5</ele><time>2026-04-18T08:51:30Z</time></trkpt><trkpt lat="42.09573244295658" lon="11.985116652283658"><ele>265.33333333333337</ele><time>2026-04-18T08:51:31Z</time></trkpt><trkpt lat="42.09571823353591" lon="11.984991589634994"><ele>264.1666666666667</ele><time>2026-04-18T08:51:32Z</time></trkpt><trkpt lat="42.095692389368516" lon="11.984867302126256"><ele>263.0</ele><time>2026-04-18T08:51:33Z</time></trkpt><trkpt lat="42.09567675182197" lon="11.984753081666586"><ele>265.83333333333337</ele><time>2026-04-18T08:51:34Z</time></trkpt><trkpt lat="42.095665879467525" lon="11.984651890164384"><ele>268.6666666666667</ele><time>2026-04-18T08:51:35Z</time></trkpt><trkpt lat="42.0956404587728" lon="11.984563619166916"><ele>271.5</ele><time>2026-04-18T08:51:36Z</time></trkpt><trkpt lat="42.09555283980629" lon="11.98445951262645"><ele>274.3333333333333</ele><time>2026-04-18T08:51:38Z</time></trkpt><trkpt lat="42.09549273973903" lon="11.984416941463216"><ele>277.16666666666663</ele><time>2026-04-18T08:51:39Z</time></trkpt><trkpt lat="42.09540279863688" lon="11.9843711247211"><ele>280.0</ele><time>2026-04-18T08:51:40Z</time></trkpt><trkpt lat="42.0953430007658" lon="11.984340970873633"><ele>280.0</ele><time>2026-04-18T08:51:41Z</time></trkpt><trkpt lat="42.095230347571714" lon="11.98426388030955"><ele>280.0</ele><time>2026-04-18T08:51:43Z</time></trkpt><trkpt lat="42.095157127935856" lon="11.9842174902996"><ele>280.0</ele><time>2026-04-18T08:51:44Z</time></trkpt><trkpt lat="42.095078993349546" lon="11.984162966225144"><ele>280.0</ele><time>2026-04-18T08:51:45Z</time></trkpt><trkpt lat="42.09499288419058" lon="11.984109336773649"><ele>280.0</ele><time>2026-04-18T08:51:46Z</time></trkpt><trkpt lat="42.09491342933797" lon="11.98406026848998"><ele>279.16666666666663</ele><time>2026-04-18T08:51:47Z</time></trkpt><trkpt lat="42.094836705161484" lon="11.98401889875911"><ele>278.3333333333333</ele><time>2026-04-18T08:51:48Z</time></trkpt><trkpt lat="42.094746255279176" lon="11.983988904456675"><ele>277.5</ele><time>2026-04-18T08:51:49Z</time></trkpt><trkpt lat="42.09466669516933" lon="11.983968779889357"><ele>276.6666666666667</ele><time>2026-04-18T08:51:50Z</time></trkpt><trkpt lat="42.09458295919797" lon="11.983958389592908"><ele>275.83333333333337</ele><time>2026-04-18T08:51:51Z</time></trkpt><trkpt lat="42.09451224630816" lon="11.983966730079013"><ele>275.0</ele><time>2026-04-18T08:51:52Z</time></trkpt><trkpt lat="42.094448002219714" lon="11.984004968637459"><ele>275.0</ele><time>2026-04-18T08:51:53Z</time></trkpt><trkpt lat="42.094360344005544" lon="11.983975987390059"><ele>275.0</ele><time>2026-04-18T08:51:55Z</time></trkpt><trkpt lat="42.0942871390777" lon="11.983961619991502"><ele>275.0</ele><time>2026-04-18T08:51:56Z</time></trkpt><trkpt lat="42.09420523946627" lon="11.983959555557757"><ele>275.0</ele><time>2026-04-18T08:51:57Z</time></trkpt><trkpt lat="42.094128513943616" lon="11.983961404611371"><ele>275.0</ele><time>2026-04-18T08:51:58Z</time></trkpt><trkpt lat="42.09406734790967" lon="11.983931859990136"><ele>275.0</ele><time>2026-04-18T08:51:59Z</time></trkpt><trkpt lat="42.093977078960734" lon="11.983883219548504"><ele>276.83333333333337</ele><time>2026-04-18T08:52:00Z</time></trkpt><trkpt lat="42.09387597653597" lon="11.983838957727494"><ele>278.6666666666667</ele><time>2026-04-18T08:52:01Z</time></trkpt><trkpt lat="42.09381298200952" lon="11.983794953136211"><ele>280.5</ele><time>2026-04-18T08:52:02Z</time></trkpt><trkpt lat="42.0937903437985" lon="11.983687402561072"><ele>282.3333333333333</ele><time>2026-04-18T08:52:04Z</time></trkpt><trkpt lat="42.093737625221365" lon="11.983590186471409"><ele>284.16666666666663</ele><time>2026-04-18T08:52:08Z</time></trkpt><trkpt lat="42.093676960277826" lon="11.983518780264575"><ele>286.0</ele><time>2026-04-18T08:53:05Z</time></trkpt><trkpt lat="42.09370713844801" lon="11.983386802179611"><ele>282.2</ele><time>2026-04-18T08:53:07Z</time></trkpt><trkpt lat="42.09375635292959" lon="11.98323856103647"><ele>278.40000000000003</ele><time>2026-04-18T08:53:09Z</time></trkpt><trkpt lat="42.0938377625131" lon="11.983168441895925"><ele>274.6</ele><time>2026-04-18T08:53:11Z</time></trkpt><trkpt lat="42.09395188485043" lon="11.983183216368165"><ele>270.8</ele><time>2026-04-18T08:53:13Z</time></trkpt><trkpt lat="42.09404057404195" lon="11.983154011806"><ele>267.0</ele><time>2026-04-18T08:53:15Z</time></trkpt><trkpt lat="42.09409697828632" lon="11.983096145064627"><ele>265.6666666666667</ele><time>2026-04-18T08:53:20Z</time></trkpt><trkpt lat="42.09417339672805" lon="11.983117221737384"><ele>264.3333333333333</ele><time>2026-04-18T08:53:24Z</time></trkpt><trkpt lat="42.09425478768731" lon="11.983111516420571"><ele>263.0</ele><time>2026-04-18T08:53:32Z</time></trkpt><trkpt lat="42.09431422519353" lon="11.98301693743611"><ele>261.66666666666663</ele><time>2026-04-18T08:53:34Z</time></trkpt><trkpt lat="42.09436597784549" lon="11.982948993577793"><ele>260.3333333333333</ele><time>2026-04-18T08:53:37Z</time></trkpt><trkpt lat="42.09441637798281" lon="11.982896680928656"><ele>259.0</ele><time>2026-04-18T08:53:41Z</time></trkpt><trkpt lat="42.094494100486585" lon="11.982945147668135"><ele>259.0</ele><time>2026-04-18T08:53:44Z</time></trkpt><trkpt lat="42.09464128076115" lon="11.982983419131152"><ele>259.0</ele><time>2026-04-18T08:53:47Z</time></trkpt><trkpt lat="42.09473012901823" lon="11.98294596482681"><ele>259.0</ele><time>2026-04-18T08:53:49Z</time></trkpt><trkpt lat="42.094812274038844" lon="11.982900049864325"><ele>259.0</ele><time>2026-04-18T08:53:51Z</time></trkpt><trkpt lat="42.094858270054374" lon="11.982834442916053"><ele>259.0</ele><time>2026-04-18T08:53:55Z</time></trkpt><trkpt lat="42.094872767774774" lon="11.982719732373134"><ele>259.0</ele><time>2026-04-18T08:53:58Z</time></trkpt><trkpt lat="42.09487004482891" lon="11.982616825214336"><ele>259.0</ele><time>2026-04-18T08:54:07Z</time></trkpt><trkpt lat="42.09483367588397" lon="11.982507223285655"><ele>259.0</ele><time>2026-04-18T08:54:10Z</time></trkpt><trkpt lat="42.09481335081537" lon="11.982393018671404"><ele>259.0</ele><time>2026-04-18T08:54:12Z</time></trkpt><trkpt lat="42.09486068914899" lon="11.982310443078468"><ele>259.0</ele><time>2026-04-18T08:54:17Z</time></trkpt><trkpt lat="42.09492979924501" lon="11.98225650696371"><ele>259.0</ele><time>2026-04-18T08:54:21Z</time></trkpt><trkpt lat="42.094993989701514" lon="11.982166278104543"><ele>255.57142857142856</ele><time>2026-04-18T08:54:25Z</time></trkpt><trkpt lat="42.09504922495529" lon="11.982111313230279"><ele>252.14285714285714</ele><time>2026-04-18T08:54:28.001Z</time></trkpt><trkpt lat="42.09508634768103" lon="11.982041454436262"><ele>248.71428571428572</ele><time>2026-04-18T08:54:31Z</time></trkpt><trkpt lat="42.09513615994009" lon="11.981980231128004"><ele>245.28571428571428</ele><time>2026-04-18T08:54:34Z</time></trkpt><trkpt lat="42.09519279420958" lon="11.981906044472636"><ele>241.85714285714283</ele><time>2026-04-18T08:54:36Z</time></trkpt><trkpt lat="42.0952405344348" lon="11.98182867350625"><ele>238.42857142857142</ele><time>2026-04-18T08:54:38Z</time></trkpt><trkpt lat="42.09524667250787" lon="11.981735277560327"><ele>235.0</ele><time>2026-04-18T08:54:43Z</time></trkpt><trkpt lat="42.09531569735687" lon="11.98171055552492"><ele>233.16666666666666</ele><time>2026-04-18T08:54:46Z</time></trkpt><trkpt lat="42.09539212274177" lon="11.981675307253647"><ele>231.33333333333331</ele><time>2026-04-18T08:54:49Z</time></trkpt><trkpt lat="42.09547107245586" lon="11.981632655261912"><ele>229.5</ele><time>2026-04-18T08:54:52Z</time></trkpt><trkpt lat="42.095529054681634" lon="11.981593316697259"><ele>227.66666666666669</ele><time>2026-04-18T08:54:55Z</time></trkpt><trkpt lat="42.09560243648603" lon="11.981561267491976"><ele>225.83333333333334</ele><time>2026-04-18T08:54:58Z</time></trkpt><trkpt lat="42.09567009680798" lon="11.981534327933788"><ele>224.0</ele><time>2026-04-18T08:55:01Z</time></trkpt><trkpt lat="42.095750120093584" lon="11.981549655067823"><ele>224.00000000000003</ele><time>2026-04-18T08:55:05Z</time></trkpt><trkpt lat="42.095819196707765" lon="11.981571262930899"><ele>224.0</ele><time>2026-04-18T08:55:08Z</time></trkpt><trkpt lat="42.095864287741676" lon="11.981643115311197"><ele>224.0</ele><time>2026-04-18T08:55:11Z</time></trkpt><trkpt lat="42.09591886108107" lon="11.981691582152129"><ele>224.0</ele><time>2026-04-18T08:55:19Z</time></trkpt><trkpt lat="42.09597227008927" lon="11.98174786843978"><ele>224.00000000000003</ele><time>2026-04-18T08:55:24Z</time></trkpt><trkpt lat="42.096055368146466" lon="11.981805794962472"><ele>224.0</ele><time>2026-04-18T08:55:28Z</time></trkpt><trkpt lat="42.09614152365703" lon="11.981869347783718"><ele>224.00000000000003</ele><time>2026-04-18T08:56:50Z</time></trkpt><trkpt lat="42.096101304013175" lon="11.981970166918234"><ele>224.0</ele><time>2026-04-18T08:56:54Z</time></trkpt><trkpt lat="42.09610006269418" lon="11.982077459205172"><ele>224.0</ele><time>2026-04-18T08:56:58Z</time></trkpt><trkpt lat="42.09611781373359" lon="11.98218266806971"><ele>224.0</ele><time>2026-04-18T08:57:01Z</time></trkpt><trkpt lat="42.096170361769246" lon="11.98222954584078"><ele>224.00000000000003</ele><time>2026-04-18T08:57:03Z</time></trkpt><trkpt lat="42.09618185127427" lon="11.982323856541363"><ele>224.0</ele><time>2026-04-18T08:57:06Z</time></trkpt><trkpt lat="42.09623942457844" lon="11.982428308966984"><ele>224.00000000000003</ele><time>2026-04-18T08:57:09Z</time></trkpt><trkpt lat="42.09631825149622" lon="11.982460254198763"><ele>224.0</ele><time>2026-04-18T08:57:11Z</time></trkpt><trkpt lat="42.09642131601586" lon="11.982492683835797"><ele>224.0</ele><time>2026-04-18T08:57:13Z</time></trkpt><trkpt lat="42.09653704416484" lon="11.982497284477006"><ele>224.0</ele><time>2026-04-18T08:57:15Z</time></trkpt><trkpt lat="42.09660876917577" lon="11.982502814457588"><ele>224.00000000000003</ele><time>2026-04-18T08:57:22Z</time></trkpt><trkpt lat="42.096667316338056" lon="11.982542567887055"><ele>224.0</ele><time>2026-04-18T08:58:19Z</time></trkpt><trkpt lat="42.096720295046985" lon="11.982611251864364"><ele>224.39999999999998</ele><time>2026-04-18T08:58:23Z</time></trkpt><trkpt lat="42.09676615221357" lon="11.982686816503916"><ele>224.79999999999998</ele><time>2026-04-18T08:59:34Z</time></trkpt><trkpt lat="42.09686075843517" lon="11.982759417252169"><ele>225.20000000000002</ele><time>2026-04-18T08:59:36Z</time></trkpt><trkpt lat="42.09692342240357" lon="11.982792617273727"><ele>225.60000000000002</ele><time>2026-04-18T08:59:37Z</time></trkpt><trkpt lat="42.09702736138639" lon="11.982830655637647"><ele>226.0</ele><time>2026-04-18T08:59:39Z</time></trkpt><trkpt lat="42.097121862628" lon="11.982870385091214"><ele>226.0</ele><time>2026-04-18T08:59:42Z</time></trkpt><trkpt lat="42.09719569912745" lon="11.982845752510498"><ele>226.00000000000003</ele><time>2026-04-18T08:59:44Z</time></trkpt><trkpt lat="42.09730091749534" lon="11.982727567338925"><ele>226.00000000000003</ele><time>2026-04-18T08:59:46Z</time></trkpt><trkpt lat="42.09740202562302" lon="11.982630276866573"><ele>226.0</ele><time>2026-04-18T08:59:48Z</time></trkpt><trkpt lat="42.09746360282416" lon="11.982592888385296"><ele>226.0</ele><time>2026-04-18T08:59:49Z</time></trkpt><trkpt lat="42.09756886502091" lon="11.982560294352512"><ele>229.16666666666666</ele><time>2026-04-18T08:59:51Z</time></trkpt><trkpt lat="42.09765681969477" lon="11.982441153353536"><ele>232.33333333333331</ele><time>2026-04-18T08:59:53Z</time></trkpt><trkpt lat="42.097716111950206" lon="11.98239476342137"><ele>235.5</ele><time>2026-04-18T08:59:54Z</time></trkpt><trkpt lat="42.09778077481502" lon="11.982368385226943"><ele>238.66666666666669</ele><time>2026-04-18T08:59:55Z</time></trkpt><trkpt lat="42.09784019433559" lon="11.982327835248606"><ele>241.83333333333334</ele><time>2026-04-18T08:59:56Z</time></trkpt><trkpt lat="42.097916255854955" lon="11.982249709665204"><ele>245.0</ele><time>2026-04-18T08:59:58Z</time></trkpt><trkpt lat="42.09798027437002" lon="11.982194506373098"><ele>245.00000000000003</ele><time>2026-04-18T09:00:00Z</time></trkpt><trkpt lat="42.09805015260287" lon="11.982152835959312"><ele>245.0</ele><time>2026-04-18T09:00:02Z</time></trkpt><trkpt lat="42.098113707351374" lon="11.98209436685285"><ele>245.0</ele><time>2026-04-18T09:00:04Z</time></trkpt><trkpt lat="42.09816452100249" lon="11.981998456240468"><ele>245.0</ele><time>2026-04-18T09:00:06Z</time></trkpt><trkpt lat="42.09818134825538" lon="11.981883800723738"><ele>245.00000000000003</ele><time>2026-04-18T09:00:08Z</time></trkpt><trkpt lat="42.09816668183317" lon="11.981780028706808"><ele>245.0</ele><time>2026-04-18T09:00:10Z</time></trkpt><trkpt lat="42.09822242413902" lon="11.981668595229719"><ele>250.2</ele><time>2026-04-18T09:00:12Z</time></trkpt><trkpt lat="42.09831908823965" lon="11.981599068714065"><ele>255.4</ele><time>2026-04-18T09:00:14Z</time></trkpt><trkpt lat="42.09838860555903" lon="11.98152895726246"><ele>260.6</ele><time>2026-04-18T09:00:16Z</time></trkpt><trkpt lat="42.09843342862408" lon="11.981447014325276"><ele>265.8</ele><time>2026-04-18T09:00:18Z</time></trkpt><trkpt lat="42.098463719621336" lon="11.981352750947634"><ele>271.0</ele><time>2026-04-18T09:00:20Z</time></trkpt><trkpt lat="42.098530070457265" lon="11.981248978225912"><ele>271.0</ele><time>2026-04-18T09:00:23Z</time></trkpt><trkpt lat="42.09859878232005" lon="11.981180507085439"><ele>271.0</ele><time>2026-04-18T09:00:25Z</time></trkpt><trkpt lat="42.09866304696126" lon="11.981103148627689"><ele>271.0</ele><time>2026-04-18T09:00:27Z</time></trkpt><trkpt lat="42.098710856329944" lon="11.981028187709157"><ele>271.0</ele><time>2026-04-18T09:00:29Z</time></trkpt><trkpt lat="42.09873882171885" lon="11.980945487658744"><ele>271.0</ele><time>2026-04-18T09:00:31Z</time></trkpt><trkpt lat="42.09876823626063" lon="11.980864436028469"><ele>271.0</ele><time>2026-04-18T09:00:33Z</time></trkpt><trkpt lat="42.09880669462545" lon="11.980778883273004"><ele>271.0</ele><time>2026-04-18T09:00:35Z</time></trkpt><trkpt lat="42.09883126943148" lon="11.980693847987132"><ele>271.0</ele><time>2026-04-18T09:00:37Z</time></trkpt><trkpt lat="42.09886582012703" lon="11.980621909559515"><ele>271.0</ele><time>2026-04-18T09:00:39Z</time></trkpt><trkpt lat="42.098889984076756" lon="11.98052660410232"><ele>271.0</ele><time>2026-04-18T09:00:42Z</time></trkpt><trkpt lat="42.098905300532635" lon="11.980401674617141"><ele>271.0</ele><time>2026-04-18T09:00:45Z</time></trkpt><trkpt lat="42.09891405131964" lon="11.980316643654419"><ele>271.0</ele><time>2026-04-18T09:00:47Z</time></trkpt><trkpt lat="42.09890798526232" lon="11.980188733270973"><ele>271.0</ele><time>2026-04-18T09:00:50Z</time></trkpt><trkpt lat="42.098888572547516" lon="11.980072683492516"><ele>271.0</ele><time>2026-04-18T09:00:52Z</time></trkpt><trkpt lat="42.0988669847849" lon="11.97997715015043"><ele>271.0</ele><time>2026-04-18T09:00:54Z</time></trkpt><trkpt lat="42.09885705058242" lon="11.979866429033311"><ele>271.0</ele><time>2026-04-18T09:00:56Z</time></trkpt><trkpt lat="42.09884735131766" lon="11.979709650782235"><ele>271.0</ele><time>2026-04-18T09:00:58Z</time></trkpt><trkpt lat="42.098837879506505" lon="11.979551561012094"><ele>270.5</ele><time>2026-04-18T09:01:00Z</time></trkpt><trkpt lat="42.09883603389154" lon="11.979457283324939"><ele>270.0</ele><time>2026-04-18T09:01:01Z</time></trkpt><trkpt lat="42.09883711724713" lon="11.979302013232752"><ele>269.5</ele><time>2026-04-18T09:01:03Z</time></trkpt><trkpt lat="42.09882624681974" lon="11.979185239600403"><ele>269.0</ele><time>2026-04-18T09:01:05Z</time></trkpt><trkpt lat="42.098808769123" lon="11.979065367825088"><ele>268.5</ele><time>2026-04-18T09:01:08Z</time></trkpt><trkpt lat="42.09878287094991" lon="11.97896780329914"><ele>268.0</ele><time>2026-04-18T09:01:10Z</time></trkpt><trkpt lat="42.09875609152267" lon="11.978879838049586"><ele>267.8571428571429</ele><time>2026-04-18T09:01:12Z</time></trkpt><trkpt lat="42.09871692993224" lon="11.978804639505988"><ele>267.7142857142857</ele><time>2026-04-18T09:01:15Z</time></trkpt><trkpt lat="42.09867684006296" lon="11.978715210225477"><ele>267.57142857142856</ele><time>2026-04-18T09:01:19Z</time></trkpt><trkpt lat="42.09863819702907" lon="11.97863487077235"><ele>267.42857142857144</ele><time>2026-04-18T09:01:23Z</time></trkpt><trkpt lat="42.09857752697673" lon="11.97861193354591"><ele>267.2857142857143</ele><time>2026-04-18T09:01:27Z</time></trkpt><trkpt lat="42.09849980687625" lon="11.978585875482034"><ele>267.14285714285717</ele><time>2026-04-18T09:01:30Z</time></trkpt><trkpt lat="42.098421960446636" lon="11.978561506899371"><ele>267.0</ele><time>2026-04-18T09:01:32Z</time></trkpt><trkpt lat="42.09834882857441" lon="11.978517305381072"><ele>267.0</ele><time>2026-04-18T09:01:35Z</time></trkpt><trkpt lat="42.098274275221556" lon="11.97846095206085"><ele>267.0</ele><time>2026-04-18T09:01:36Z</time></trkpt><trkpt lat="42.098194903895006" lon="11.978426165445223"><ele>267.0</ele><time>2026-04-18T09:01:38Z</time></trkpt><trkpt lat="42.098159373033596" lon="11.978342952335836"><ele>267.0</ele><time>2026-04-18T09:01:42Z</time></trkpt><trkpt lat="42.09809005718521" lon="11.978268403014816"><ele>267.0</ele><time>2026-04-18T09:02:11Z</time></trkpt><trkpt lat="42.098027162312555" lon="11.978239354071977"><ele>267.0</ele><time>2026-04-18T09:02:14Z</time></trkpt><trkpt lat="42.09793955081176" lon="11.978213234749674"><ele>266.8333333333333</ele><time>2026-04-18T09:02:17Z</time></trkpt><trkpt lat="42.09786368262833" lon="11.978230922754832"><ele>266.6666666666667</ele><time>2026-04-18T09:02:19Z</time></trkpt><trkpt lat="42.09777982128019" lon="11.97826306457227"><ele>266.5</ele><time>2026-04-18T09:02:22Z</time></trkpt><trkpt lat="42.09771598930357" lon="11.978308064787283"><ele>266.33333333333337</ele><time>2026-04-18T09:02:24Z</time></trkpt><trkpt lat="42.09764802086074" lon="11.978326669376624"><ele>266.1666666666667</ele><time>2026-04-18T09:02:26Z</time></trkpt><trkpt lat="42.09756716955432" lon="11.978360525472997"><ele>266.0</ele><time>2026-04-18T09:02:28Z</time></trkpt><trkpt lat="42.09751180976637" lon="11.978410024798453"><ele>264.83333333333337</ele><time>2026-04-18T09:02:30Z</time></trkpt><trkpt lat="42.09746279877917" lon="11.978467854637207"><ele>263.6666666666667</ele><time>2026-04-18T09:02:33Z</time></trkpt><trkpt lat="42.09738070980263" lon="11.978457946634565"><ele>262.5</ele><time>2026-04-18T09:02:35Z</time></trkpt><trkpt lat="42.09728314091959" lon="11.978469161656978"><ele>261.3333333333333</ele><time>2026-04-18T09:02:38Z</time></trkpt><trkpt lat="42.09724609999041" lon="11.978579694090431"><ele>260.16666666666663</ele><time>2026-04-18T09:02:41Z</time></trkpt><trkpt lat="42.0972145218174" lon="11.97866057425005"><ele>259.0</ele><time>2026-04-18T09:02:50Z</time></trkpt><trkpt lat="42.09720801819575" lon="11.978783411731046"><ele>257.85714285714283</ele><time>2026-04-18T09:02:53Z</time></trkpt><trkpt lat="42.0971634008827" lon="11.978854653713936"><ele>256.7142857142857</ele><time>2026-04-18T09:02:59Z</time></trkpt><trkpt lat="42.09715985648875" lon="11.978955137489132"><ele>255.57142857142856</ele><time>2026-04-18T09:03:02Z</time></trkpt><trkpt lat="42.09715006816082" lon="11.979062295385894"><ele>254.42857142857142</ele><time>2026-04-18T09:03:05Z</time></trkpt><trkpt lat="42.09716444884068" lon="11.979146343718076"><ele>253.28571428571428</ele><time>2026-04-18T09:03:09Z</time></trkpt><trkpt lat="42.09720072823886" lon="11.979227274380351"><ele>252.1428571428571</ele><time>2026-04-18T09:03:11Z</time></trkpt><trkpt lat="42.097265329509874" lon="11.97926312559263"><ele>250.99999999999997</ele><time>2026-04-18T09:03:13Z</time></trkpt><trkpt lat="42.09731138782452" lon="11.979344956280402"><ele>251.0</ele><time>2026-04-18T09:03:46Z</time></trkpt><trkpt lat="42.09735636036365" lon="11.979453418267314"><ele>251.00000000000003</ele><time>2026-04-18T09:03:48Z</time></trkpt><trkpt lat="42.09745589116635" lon="11.979511900511596"><ele>251.00000000000003</ele><time>2026-04-18T09:03:51Z</time></trkpt><trkpt lat="42.0975684472034" lon="11.979541763363864"><ele>251.0</ele><time>2026-04-18T09:03:53Z</time></trkpt><trkpt lat="42.09766608119147" lon="11.979600054562935"><ele>251.0</ele><time>2026-04-18T09:03:55Z</time></trkpt><trkpt lat="42.09776383483607" lon="11.979680910310071"><ele>252.60000000000002</ele><time>2026-04-18T09:03:57Z</time></trkpt><trkpt lat="42.09783206110923" lon="11.979741834263388"><ele>254.20000000000002</ele><time>2026-04-18T09:03:59Z</time></trkpt><trkpt lat="42.09792231534515" lon="11.979752509558075"><ele>255.79999999999998</ele><time>2026-04-18T09:04:01Z</time></trkpt><trkpt lat="42.098003203621126" lon="11.979817894481664"><ele>257.4</ele><time>2026-04-18T09:04:03Z</time></trkpt><trkpt lat="42.09807690928826" lon="11.979913778167635"><ele>259.0</ele><time>2026-04-18T09:04:05Z</time></trkpt><trkpt lat="42.09816180687451" lon="11.980045073517024"><ele>259.8</ele><time>2026-04-18T09:04:07Z</time></trkpt><trkpt lat="42.098194281391436" lon="11.98017617437662"><ele>260.59999999999997</ele><time>2026-04-18T09:04:09Z</time></trkpt><trkpt lat="42.09820323033072" lon="11.98029660915422"><ele>261.4</ele><time>2026-04-18T09:04:11Z</time></trkpt><trkpt lat="42.09817047994285" lon="11.980431424136507"><ele>262.2</ele><time>2026-04-18T09:04:13Z</time></trkpt><trkpt lat="42.09817185007003" lon="11.980544899745555"><ele>263.0</ele><time>2026-04-18T09:04:15Z</time></trkpt><trkpt lat="42.09819973277182" lon="11.980647681387364"><ele>264.6</ele><time>2026-04-18T09:04:17Z</time></trkpt><trkpt lat="42.098255880828226" lon="11.980718037023474"><ele>266.20000000000005</ele><time>2026-04-18T09:04:19Z</time></trkpt><trkpt lat="42.09838869059612" lon="11.980702258917027"><ele>267.8</ele><time>2026-04-18T09:04:21Z</time></trkpt><trkpt lat="42.09848893504121" lon="11.980754051141409"><ele>269.40000000000003</ele><time>2026-04-18T09:04:23Z</time></trkpt><trkpt lat="42.09860883861432" lon="11.980728118264263"><ele>271.0</ele><time>2026-04-18T09:04:25Z</time></trkpt><trkpt lat="42.09873685840339" lon="11.980718770072572"><ele>271.0</ele><time>2026-04-18T09:04:27Z</time></trkpt><trkpt lat="42.09881986823931" lon="11.980718583044192"><ele>271.0</ele><time>2026-04-18T09:04:28Z</time></trkpt><trkpt lat="42.09891335037034" lon="11.98071958518472"><ele>271.0</ele><time>2026-04-18T09:04:29Z</time></trkpt><trkpt lat="42.099009769467216" lon="11.980721689500236"><ele>271.0</ele><time>2026-04-18T09:04:30Z</time></trkpt><trkpt lat="42.09912008728532" lon="11.980716464046344"><ele>271.0</ele><time>2026-04-18T09:04:31Z</time></trkpt><trkpt lat="42.099236157620496" lon="11.980700509073511"><ele>272.8</ele><time>2026-04-18T09:04:32Z</time></trkpt><trkpt lat="42.099337847650375" lon="11.980688110538786"><ele>274.6</ele><time>2026-04-18T09:04:33Z</time></trkpt><trkpt lat="42.099433906007555" lon="11.980697523369129"><ele>276.4</ele><time>2026-04-18T09:04:34Z</time></trkpt><trkpt lat="42.09952839401793" lon="11.980719154918848"><ele>278.2</ele><time>2026-04-18T09:04:35Z</time></trkpt><trkpt lat="42.099631788136044" lon="11.980726135744034"><ele>280.0</ele><time>2026-04-18T09:04:36Z</time></trkpt><trkpt lat="42.099725056803024" lon="11.98071101749775"><ele>280.0</ele><time>2026-04-18T09:04:37Z</time></trkpt><trkpt lat="42.0998130862846" lon="11.980692081960578"><ele>280.0</ele><time>2026-04-18T09:04:38Z</time></trkpt><trkpt lat="42.099892810824954" lon="11.980667655673711"><ele>280.0</ele><time>2026-04-18T09:04:39Z</time></trkpt><trkpt lat="42.09996484973325" lon="11.980641073452292"><ele>280.0</ele><time>2026-04-18T09:04:40Z</time></trkpt><trkpt lat="42.100041488006084" lon="11.980611594086172"><ele>280.0</ele><time>2026-04-18T09:04:41Z</time></trkpt><trkpt lat="42.100119397554735" lon="11.980586055113259"><ele>280.0</ele><time>2026-04-18T09:04:42Z</time></trkpt><trkpt lat="42.10019130920303" lon="11.980560428568184"><ele>280.66666666666663</ele><time>2026-04-18T09:04:43Z</time></trkpt><trkpt lat="42.100259900739296" lon="11.980544835346258"><ele>281.3333333333333</ele><time>2026-04-18T09:04:44Z</time></trkpt><trkpt lat="42.10032816443944" lon="11.980541151411233"><ele>282.0</ele><time>2026-04-18T09:04:45Z</time></trkpt><trkpt lat="42.100392755154125" lon="11.980547819779561"><ele>282.6666666666667</ele><time>2026-04-18T09:04:46Z</time></trkpt><trkpt lat="42.10045371626328" lon="11.980570196144088"><ele>283.33333333333337</ele><time>2026-04-18T09:04:47Z</time></trkpt><trkpt lat="42.1005113530562" lon="11.980612718935971"><ele>284.0</ele><time>2026-04-18T09:04:48Z</time></trkpt><trkpt lat="42.10058549627543" lon="11.980749555652437"><ele>284.0</ele><time>2026-04-18T09:04:50Z</time></trkpt><trkpt lat="42.10061196521196" lon="11.980828156659053"><ele>284.0</ele><time>2026-04-18T09:04:51Z</time></trkpt><trkpt lat="42.100640571809876" lon="11.980906371551178"><ele>284.0</ele><time>2026-04-18T09:04:52Z</time></trkpt><trkpt lat="42.100698578629604" lon="11.980992922077087"><ele>284.0</ele><time>2026-04-18T09:04:54Z</time></trkpt><trkpt lat="42.10078512822191" lon="11.981030911806847"><ele>284.0</ele><time>2026-04-18T09:04:56Z</time></trkpt><trkpt lat="42.10090910268737" lon="11.981017093266432"><ele>284.0</ele><time>2026-04-18T09:04:58Z</time></trkpt><trkpt lat="42.10099544756305" lon="11.981151639184834"><ele>283.5</ele><time>2026-04-18T09:05:00Z</time></trkpt><trkpt lat="42.10104417146256" lon="11.98122879495303"><ele>283.0</ele><time>2026-04-18T09:05:01Z</time></trkpt><trkpt lat="42.10106944703588" lon="11.981308527281321"><ele>282.5</ele><time>2026-04-18T09:05:02Z</time></trkpt><trkpt lat="42.10112241566845" lon="11.981407366013832"><ele>282.0</ele><time>2026-04-18T09:05:03Z</time></trkpt><trkpt lat="42.101186958018616" lon="11.981504940870503"><ele>281.5</ele><time>2026-04-18T09:05:04Z</time></trkpt><trkpt lat="42.10125429768397" lon="11.98158856635504"><ele>281.0</ele><time>2026-04-18T09:05:05Z</time></trkpt><trkpt lat="42.10130687662251" lon="11.981643482840893"><ele>280.40000000000003</ele><time>2026-04-18T09:05:06Z</time></trkpt><trkpt lat="42.10140276733335" lon="11.981734078826312"><ele>279.8</ele><time>2026-04-18T09:05:08Z</time></trkpt><trkpt lat="42.101465158039815" lon="11.981839773877542"><ele>279.20000000000005</ele><time>2026-04-18T09:05:10Z</time></trkpt><trkpt lat="42.10155378113258" lon="11.981911204184003"><ele>278.6</ele><time>2026-04-18T09:05:12Z</time></trkpt><trkpt lat="42.10160909032407" lon="11.981954321657469"><ele>278.0</ele><time>2026-04-18T09:05:13Z</time></trkpt><trkpt lat="42.101661745475006" lon="11.982016972387328"><ele>278.0</ele><time>2026-04-18T09:05:14Z</time></trkpt><trkpt lat="42.101716943969144" lon="11.982076819423115"><ele>278.0</ele><time>2026-04-18T09:05:15Z</time></trkpt><trkpt lat="42.10181684379953" lon="11.982172128576199"><ele>278.0</ele><time>2026-04-18T09:05:17Z</time></trkpt><trkpt lat="42.101903957101456" lon="11.982266016208436"><ele>278.0</ele><time>2026-04-18T09:05:19Z</time></trkpt><trkpt lat="42.10197417100377" lon="11.982394311644633"><ele>278.0</ele><time>2026-04-18T09:05:21Z</time></trkpt><trkpt lat="42.10208495219211" lon="11.982469876792809"><ele>278.4</ele><time>2026-04-18T09:05:23Z</time></trkpt><trkpt lat="42.10217715996945" lon="11.982547305990137"><ele>278.8</ele><time>2026-04-18T09:05:25Z</time></trkpt><trkpt lat="42.10224718315663" lon="11.982635483697292"><ele>279.2</ele><time>2026-04-18T09:05:27Z</time></trkpt><trkpt lat="42.10232756534739" lon="11.982734420075786"><ele>279.6</ele><time>2026-04-18T09:05:29Z</time></trkpt><trkpt lat="42.102380338488416" lon="11.982842231614374"><ele>280.0</ele><time>2026-04-18T09:05:31Z</time></trkpt><trkpt lat="42.10243299607684" lon="11.982945188090211"><ele>280.0</ele><time>2026-04-18T09:05:33Z</time></trkpt><trkpt lat="42.102523097931495" lon="11.98306143810449"><ele>280.0</ele><time>2026-04-18T09:05:35Z</time></trkpt><trkpt lat="42.1025716062329" lon="11.983117444965774"><ele>280.0</ele><time>2026-04-18T09:05:36Z</time></trkpt><trkpt lat="42.102625182321496" lon="11.983172367240885"><ele>280.0</ele><time>2026-04-18T09:05:37Z</time></trkpt><trkpt lat="42.10267431319817" lon="11.983227609857884"><ele>280.0</ele><time>2026-04-18T09:05:38Z</time></trkpt><trkpt lat="42.10275363787114" lon="11.98333459563106"><ele>280.0</ele><time>2026-04-18T09:05:40Z</time></trkpt><trkpt lat="42.102835595426804" lon="11.983462582793587"><ele>279.66666666666663</ele><time>2026-04-18T09:05:42Z</time></trkpt><trkpt lat="42.10288920169729" lon="11.983509418793112"><ele>279.3333333333333</ele><time>2026-04-18T09:05:43Z</time></trkpt><trkpt lat="42.10294982820223" lon="11.98355499166301"><ele>279.0</ele><time>2026-04-18T09:05:44Z</time></trkpt><trkpt lat="42.103019386789434" lon="11.98359709654605"><ele>278.6666666666667</ele><time>2026-04-18T09:05:45Z</time></trkpt><trkpt lat="42.10308326830424" lon="11.983637790064524"><ele>278.33333333333337</ele><time>2026-04-18T09:05:46Z</time></trkpt><trkpt lat="42.10317286683502" lon="11.983737599132903"><ele>278.0</ele><time>2026-04-18T09:05:48Z</time></trkpt><trkpt lat="42.10325063047195" lon="11.98383187073578"><ele>278.0</ele><time>2026-04-18T09:05:50Z</time></trkpt><trkpt lat="42.10332486612138" lon="11.983889747392023"><ele>278.0</ele><time>2026-04-18T09:05:52Z</time></trkpt><trkpt lat="42.10336824470493" lon="11.984004093537875"><ele>278.0</ele><time>2026-04-18T09:05:54Z</time></trkpt><trkpt lat="42.10337676776058" lon="11.984093854802884"><ele>278.0</ele><time>2026-04-18T09:05:55Z</time></trkpt><trkpt lat="42.10344698606246" lon="11.984197544211586"><ele>278.0</ele><time>2026-04-18T09:05:57Z</time></trkpt><trkpt lat="42.103507519071144" lon="11.984241426299274"><ele>278.0</ele><time>2026-04-18T09:05:58Z</time></trkpt><trkpt lat="42.10358042010798" lon="11.984277269061186"><ele>277.2</ele><time>2026-04-18T09:05:59Z</time></trkpt><trkpt lat="42.10367392503107" lon="11.984393005586131"><ele>276.4</ele><time>2026-04-18T09:06:01Z</time></trkpt><trkpt lat="42.103742495206895" lon="11.984536351975622"><ele>275.59999999999997</ele><time>2026-04-18T09:06:03Z</time></trkpt><trkpt lat="42.10379720754322" lon="11.984603826579509"><ele>274.8</ele><time>2026-04-18T09:06:04Z</time></trkpt><trkpt lat="42.10385424284099" lon="11.984654598124676"><ele>274.0</ele><time>2026-04-18T09:06:05Z</time></trkpt><trkpt lat="42.10395497019119" lon="11.984692573283546"><ele>274.0</ele><time>2026-04-18T09:06:07Z</time></trkpt><trkpt lat="42.10402176463364" lon="11.984794225638922"><ele>274.0</ele><time>2026-04-18T09:06:09Z</time></trkpt><trkpt lat="42.1041004055469" lon="11.984924518058255"><ele>274.0</ele><time>2026-04-18T09:06:11Z</time></trkpt><trkpt lat="42.10416596710331" lon="11.984967570894506"><ele>274.0</ele><time>2026-04-18T09:06:12Z</time></trkpt><trkpt lat="42.104234632774954" lon="11.985012208982258"><ele>274.0</ele><time>2026-04-18T09:06:13Z</time></trkpt><trkpt lat="42.10429967703651" lon="11.98506492793843"><ele>274.28571428571433</ele><time>2026-04-18T09:06:14Z</time></trkpt><trkpt lat="42.10434901280716" lon="11.985121673627944"><ele>274.57142857142856</ele><time>2026-04-18T09:06:15Z</time></trkpt><trkpt lat="42.104403503179164" lon="11.985178635003965"><ele>274.8571428571429</ele><time>2026-04-18T09:06:16Z</time></trkpt><trkpt lat="42.104453274092684" lon="11.985244264911975"><ele>275.14285714285717</ele><time>2026-04-18T09:06:17Z</time></trkpt><trkpt lat="42.10450957946645" lon="11.98532106361367"><ele>275.42857142857144</ele><time>2026-04-18T09:06:18Z</time></trkpt><trkpt lat="42.10456682372957" lon="11.985385714455202"><ele>275.7142857142857</ele><time>2026-04-18T09:06:19Z</time></trkpt><trkpt lat="42.1046075024394" lon="11.985453230992688"><ele>276.0</ele><time>2026-04-18T09:06:20Z</time></trkpt><trkpt lat="42.10469520126842" lon="11.98558346150865"><ele>276.0</ele><time>2026-04-18T09:06:22Z</time></trkpt><trkpt lat="42.10478271644733" lon="11.985687848689192"><ele>276.0</ele><time>2026-04-18T09:06:24Z</time></trkpt><trkpt lat="42.10484977779377" lon="11.985837030286401"><ele>276.0</ele><time>2026-04-18T09:06:26Z</time></trkpt><trkpt lat="42.10495926636714" lon="11.985938302777761"><ele>276.0</ele><time>2026-04-18T09:06:28Z</time></trkpt><trkpt lat="42.10501265584032" lon="11.985995727949135"><ele>276.0</ele><time>2026-04-18T09:06:29Z</time></trkpt><trkpt lat="42.10511147204418" lon="11.986060257265489"><ele>277.2</ele><time>2026-04-18T09:06:31Z</time></trkpt><trkpt lat="42.10518618815242" lon="11.9860983068105"><ele>278.40000000000003</ele><time>2026-04-18T09:06:33Z</time></trkpt><trkpt lat="42.10524522348122" lon="11.986193661023595"><ele>279.6</ele><time>2026-04-18T09:06:35Z</time></trkpt><trkpt lat="42.105296767349316" lon="11.986306529590088"><ele>280.8</ele><time>2026-04-18T09:06:37Z</time></trkpt><trkpt lat="42.10535839173514" lon="11.98645507654346"><ele>282.0</ele><time>2026-04-18T09:06:39Z</time></trkpt><trkpt lat="42.105401006719234" lon="11.986554558343443"><ele>282.0</ele><time>2026-04-18T09:06:40Z</time></trkpt><trkpt lat="42.105432759593356" lon="11.986642589371181"><ele>282.0</ele><time>2026-04-18T09:06:41Z</time></trkpt><trkpt lat="42.105475478425525" lon="11.986728439382084"><ele>282.0</ele><time>2026-04-18T09:06:42Z</time></trkpt><trkpt lat="42.105528779624436" lon="11.986812698884508"><ele>282.0</ele><time>2026-04-18T09:06:43Z</time></trkpt><trkpt lat="42.105582290906746" lon="11.9869075151205"><ele>282.0</ele><time>2026-04-18T09:06:44Z</time></trkpt><trkpt lat="42.10563922179491" lon="11.987011230131175"><ele>282.0</ele><time>2026-04-18T09:06:45Z</time></trkpt><trkpt lat="42.10569465105304" lon="11.987087006765133"><ele>281.8</ele><time>2026-04-18T09:06:46Z</time></trkpt><trkpt lat="42.10579811115651" lon="11.98718287263955"><ele>281.6</ele><time>2026-04-18T09:06:48Z</time></trkpt><trkpt lat="42.1058673045488" lon="11.987243402012973"><ele>281.40000000000003</ele><time>2026-04-18T09:06:49Z</time></trkpt><trkpt lat="42.10594656900579" lon="11.987300858634196"><ele>281.2</ele><time>2026-04-18T09:06:50Z</time></trkpt><trkpt lat="42.10602394705314" lon="11.98736659336078"><ele>281.0</ele><time>2026-04-18T09:06:51Z</time></trkpt><trkpt lat="42.10608603675583" lon="11.987445078185837"><ele>279.7142857142857</ele><time>2026-04-18T09:06:52Z</time></trkpt><trkpt lat="42.10612835153882" lon="11.987525448462831"><ele>278.42857142857144</ele><time>2026-04-18T09:06:53Z</time></trkpt><trkpt lat="42.10617777820143" lon="11.987604238211013"><ele>277.1428571428571</ele><time>2026-04-18T09:06:54Z</time></trkpt><trkpt lat="42.10623097722187" lon="11.987685558721362"><ele>275.8571428571429</ele><time>2026-04-18T09:06:55Z</time></trkpt><trkpt lat="42.10627422181578" lon="11.987769307676784"><ele>274.57142857142856</ele><time>2026-04-18T09:06:56Z</time></trkpt><trkpt lat="42.10631056380789" lon="11.987852620834648"><ele>273.2857142857143</ele><time>2026-04-18T09:06:57Z</time></trkpt><trkpt lat="42.10635255083339" lon="11.98792094869406"><ele>272.0</ele><time>2026-04-18T09:06:58Z</time></trkpt><trkpt lat="42.106386822701474" lon="11.987992971931302"><ele>271.99999999999994</ele><time>2026-04-18T09:06:59Z</time></trkpt><trkpt lat="42.106415472612035" lon="11.98807315011102"><ele>272.0</ele><time>2026-04-18T09:07:00Z</time></trkpt><trkpt lat="42.10644059523621" lon="11.988160862926385"><ele>272.0</ele><time>2026-04-18T09:07:01Z</time></trkpt><trkpt lat="42.10645613971065" lon="11.98825100509412"><ele>272.0</ele><time>2026-04-18T09:07:02Z</time></trkpt><trkpt lat="42.106457605512375" lon="11.988346322239597"><ele>272.0</ele><time>2026-04-18T09:07:03Z</time></trkpt><trkpt lat="42.106453434780526" lon="11.988440616370278"><ele>271.99999999999994</ele><time>2026-04-18T09:07:04Z</time></trkpt><trkpt lat="42.10645407706029" lon="11.988526278779112"><ele>272.0</ele><time>2026-04-18T09:07:05Z</time></trkpt><trkpt lat="42.10646101565998" lon="11.988611122065386"><ele>271.71428571428567</ele><time>2026-04-18T09:07:06Z</time></trkpt><trkpt lat="42.10648850175788" lon="11.9886917810581"><ele>271.42857142857144</ele><time>2026-04-18T09:07:07Z</time></trkpt><trkpt lat="42.10653729380979" lon="11.988768645905267"><ele>271.1428571428571</ele><time>2026-04-18T09:07:08Z</time></trkpt><trkpt lat="42.106585256713764" lon="11.988838736187398"><ele>270.85714285714283</ele><time>2026-04-18T09:07:09Z</time></trkpt><trkpt lat="42.10663353749289" lon="11.988899438804598"><ele>270.57142857142856</ele><time>2026-04-18T09:07:10Z</time></trkpt><trkpt lat="42.1066882835015" lon="11.988947254300296"><ele>270.2857142857143</ele><time>2026-04-18T09:07:11Z</time></trkpt><trkpt lat="42.10675635062017" lon="11.98899943409428"><ele>270.0</ele><time>2026-04-18T09:07:12Z</time></trkpt><trkpt lat="42.106821813544784" lon="11.98906542471101"><ele>270.0</ele><time>2026-04-18T09:07:13Z</time></trkpt><trkpt lat="42.10686749779667" lon="11.989128873062679"><ele>270.0</ele><time>2026-04-18T09:07:14Z</time></trkpt><trkpt lat="42.10690745315536" lon="11.989241537283343"><ele>270.0</ele><time>2026-04-18T09:07:16Z</time></trkpt><trkpt lat="42.10693346849633" lon="11.989371908095741"><ele>270.0</ele><time>2026-04-18T09:07:18Z</time></trkpt><trkpt lat="42.10699614504808" lon="11.989440539628985"><ele>270.0</ele><time>2026-04-18T09:07:20Z</time></trkpt><trkpt lat="42.10707568063133" lon="11.989423966534675"><ele>270.0</ele><time>2026-04-18T09:07:21Z</time></trkpt><trkpt lat="42.107141269017085" lon="11.989415392067999"><ele>270.4</ele><time>2026-04-18T09:07:22Z</time></trkpt><trkpt lat="42.10720000706256" lon="11.989460388338083"><ele>270.8</ele><time>2026-04-18T09:07:23Z</time></trkpt><trkpt lat="42.10723767264756" lon="11.989547159267728"><ele>271.2</ele><time>2026-04-18T09:07:24Z</time></trkpt><trkpt lat="42.107261845232465" lon="11.989685451274905"><ele>271.6</ele><time>2026-04-18T09:07:25Z</time></trkpt><trkpt lat="42.10729382208454" lon="11.989838856324319"><ele>272.0</ele><time>2026-04-18T09:07:26Z</time></trkpt><trkpt lat="42.1073191648624" lon="11.989978773223921"><ele>273.4</ele><time>2026-04-18T09:07:27Z</time></trkpt><trkpt lat="42.10733760351548" lon="11.990098053276414"><ele>274.79999999999995</ele><time>2026-04-18T09:07:28Z</time></trkpt><trkpt lat="42.1073689363704" lon="11.99021017511659"><ele>276.2</ele><time>2026-04-18T09:07:29Z</time></trkpt><trkpt lat="42.107398054150075" lon="11.990345186885362"><ele>277.59999999999997</ele><time>2026-04-18T09:07:30Z</time></trkpt><trkpt lat="42.10743077230147" lon="11.990467689634485"><ele>279.0</ele><time>2026-04-18T09:07:31Z</time></trkpt><trkpt lat="42.10746524588816" lon="11.99057564840466"><ele>279.6666666666667</ele><time>2026-04-18T09:07:32Z</time></trkpt><trkpt lat="42.10749918927524" lon="11.990664810437798"><ele>280.3333333333333</ele><time>2026-04-18T09:07:33Z</time></trkpt><trkpt lat="42.10755080343098" lon="11.99074322163187"><ele>281.0</ele><time>2026-04-18T09:07:34Z</time></trkpt><trkpt lat="42.10760560323583" lon="11.99083979538533"><ele>281.66666666666663</ele><time>2026-04-18T09:07:35Z</time></trkpt><trkpt lat="42.107650198489125" lon="11.990929645325277"><ele>282.3333333333333</ele><time>2026-04-18T09:07:36Z</time></trkpt><trkpt lat="42.10770149942903" lon="11.990986919817898"><ele>283.0</ele><time>2026-04-18T09:07:37Z</time></trkpt><trkpt lat="42.10778081161199" lon="11.991034000983337"><ele>285.0</ele><time>2026-04-18T09:07:39Z</time></trkpt><trkpt lat="42.10778418908674" lon="11.991149994091064"><ele>287.0</ele><time>2026-04-18T09:07:43Z</time></trkpt><trkpt lat="42.10771829407411" lon="11.991297038136645"><ele>289.0</ele><time>2026-04-18T09:07:45Z</time></trkpt><trkpt lat="42.1076532243445" lon="11.991402974668727"><ele>291.0</ele><time>2026-04-18T09:07:46Z</time></trkpt><trkpt lat="42.107614697401864" lon="11.991569110635323"><ele>293.0</ele><time>2026-04-18T09:07:47Z</time></trkpt><trkpt lat="42.107608241388995" lon="11.991694666467016"><ele>295.0</ele><time>2026-04-18T09:07:48Z</time></trkpt><trkpt lat="42.10761220652501" lon="11.991823250884755"><ele>297.0</ele><time>2026-04-18T09:07:49Z</time></trkpt><trkpt lat="42.1076074823254" lon="11.991962877035142"><ele>299.0</ele><time>2026-04-18T09:07:50Z</time></trkpt><trkpt lat="42.10760171960714" lon="11.992113232522733"><ele>301.0</ele><time>2026-04-18T09:07:51Z</time></trkpt><trkpt lat="42.107603016319" lon="11.992288615584558"><ele>303.0</ele><time>2026-04-18T09:07:52Z</time></trkpt><trkpt lat="42.10760185374868" lon="11.992451072671448"><ele>303.8</ele><time>2026-04-18T09:07:53Z</time></trkpt><trkpt lat="42.10760337583032" lon="11.992589157960913"><ele>304.6</ele><time>2026-04-18T09:07:54Z</time></trkpt><trkpt lat="42.107617418303214" lon="11.992714032144786"><ele>305.4</ele><time>2026-04-18T09:07:55Z</time></trkpt><trkpt lat="42.10768356359842" lon="11.99283305855771"><ele>306.2</ele><time>2026-04-18T09:07:57Z</time></trkpt><trkpt lat="42.107764438302105" lon="11.992945259178358"><ele>307.0</ele><time>2026-04-18T09:07:59Z</time></trkpt><trkpt lat="42.10781235954689" lon="11.99300481205066"><ele>307.0</ele><time>2026-04-18T09:08:00Z</time></trkpt><trkpt lat="42.10785318449048" lon="11.99308463188514"><ele>307.0</ele><time>2026-04-18T09:08:01Z</time></trkpt><trkpt lat="42.107906469874266" lon="11.993173483662426"><ele>307.0</ele><time>2026-04-18T09:08:02Z</time></trkpt><trkpt lat="42.10795486635215" lon="11.99325319353037"><ele>307.0</ele><time>2026-04-18T09:08:03Z</time></trkpt><trkpt lat="42.10797822556368" lon="11.993362630334802"><ele>307.0</ele><time>2026-04-18T09:08:04Z</time></trkpt><trkpt lat="42.108039230209876" lon="11.993432650195038"><ele>307.0</ele><time>2026-04-18T09:08:05Z</time></trkpt><trkpt lat="42.10818651915574" lon="11.993497280353335"><ele>309.0</ele><time>2026-04-18T09:08:07Z</time></trkpt><trkpt lat="42.1082864794581" lon="11.993528445478017"><ele>311.0</ele><time>2026-04-18T09:08:08Z</time></trkpt><trkpt lat="42.108407382963975" lon="11.99356807041782"><ele>313.0</ele><time>2026-04-18T09:08:09Z</time></trkpt><trkpt lat="42.10851800206516" lon="11.993595869739497"><ele>315.0</ele><time>2026-04-18T09:08:10Z</time></trkpt><trkpt lat="42.1085970578061" lon="11.993623195252383"><ele>317.0</ele><time>2026-04-18T09:08:11Z</time></trkpt><trkpt lat="42.108668171088695" lon="11.993654257526089"><ele>317.0</ele><time>2026-04-18T09:08:12Z</time></trkpt><trkpt lat="42.10873645782887" lon="11.993700157039264"><ele>317.0</ele><time>2026-04-18T09:08:13Z</time></trkpt><trkpt lat="42.10881164039981" lon="11.993775728193214"><ele>317.0</ele><time>2026-04-18T09:08:14Z</time></trkpt><trkpt lat="42.10887459000772" lon="11.993838471543373"><ele>317.0</ele><time>2026-04-18T09:08:15Z</time></trkpt><trkpt lat="42.108946947730956" lon="11.993902282903242"><ele>317.0</ele><time>2026-04-18T09:08:17Z</time></trkpt><trkpt lat="42.10898791486764" lon="11.993970828586429"><ele>317.0</ele><time>2026-04-18T09:09:04Z</time></trkpt><trkpt lat="42.10908459183396" lon="11.993939503305098"><ele>317.7142857142857</ele><time>2026-04-18T09:09:07Z</time></trkpt><trkpt lat="42.10916704230437" lon="11.993935177620685"><ele>318.42857142857144</ele><time>2026-04-18T09:09:14Z</time></trkpt><trkpt lat="42.10913449680657" lon="11.9940184067702"><ele>319.1428571428571</ele><time>2026-04-18T09:09:21Z</time></trkpt><trkpt lat="42.10908752429774" lon="11.994120101880899"><ele>319.8571428571429</ele><time>2026-04-18T09:09:34Z</time></trkpt><trkpt lat="42.109050822010495" lon="11.99419703106835"><ele>320.57142857142856</ele><time>2026-04-18T09:09:35Z</time></trkpt><trkpt lat="42.10901653511067" lon="11.994272066846928"><ele>321.2857142857143</ele><time>2026-04-18T09:09:36Z</time></trkpt><trkpt lat="42.108978046703484" lon="11.99435415786319"><ele>322.0</ele><time>2026-04-18T09:09:37Z</time></trkpt><trkpt lat="42.108935743227406" lon="11.9944620465391"><ele>322.0</ele><time>2026-04-18T09:09:38Z</time></trkpt><trkpt lat="42.10888289624779" lon="11.994575397549832"><ele>322.0</ele><time>2026-04-18T09:09:39Z</time></trkpt><trkpt lat="42.1088263871251" lon="11.994680496164738"><ele>322.0</ele><time>2026-04-18T09:09:40Z</time></trkpt><trkpt lat="42.108778425791336" lon="11.994786057587426"><ele>322.0</ele><time>2026-04-18T09:09:41Z</time></trkpt><trkpt lat="42.10872791313105" lon="11.994897069203265"><ele>322.0</ele><time>2026-04-18T09:09:42Z</time></trkpt><trkpt lat="42.10867557888765" lon="11.99501133910318"><ele>322.16666666666663</ele><time>2026-04-18T09:09:43Z</time></trkpt><trkpt lat="42.1086255781966" lon="11.995122010955685"><ele>322.3333333333333</ele><time>2026-04-18T09:09:44Z</time></trkpt><trkpt lat="42.10857719847939" lon="11.995224895851104"><ele>322.5</ele><time>2026-04-18T09:09:45Z</time></trkpt><trkpt lat="42.10853619707452" lon="11.995320962378992"><ele>322.6666666666667</ele><time>2026-04-18T09:09:46Z</time></trkpt><trkpt lat="42.10849754152097" lon="11.995405859298769"><ele>322.83333333333337</ele><time>2026-04-18T09:09:47Z</time></trkpt><trkpt lat="42.10846181063629" lon="11.995478639869615"><ele>323.0</ele><time>2026-04-18T09:09:48Z</time></trkpt><trkpt lat="42.1084071007814" lon="11.995611093653011"><ele>323.0</ele><time>2026-04-18T09:09:50Z</time></trkpt><trkpt lat="42.108404585862424" lon="11.995771310572911"><ele>323.0</ele><time>2026-04-18T09:09:52Z</time></trkpt><trkpt lat="42.108394591466244" lon="11.99592274125537"><ele>323.0</ele><time>2026-04-18T09:09:54Z</time></trkpt><trkpt lat="42.108368893031184" lon="11.996018309528301"><ele>323.0</ele><time>2026-04-18T09:09:56Z</time></trkpt><trkpt lat="42.108341469777486" lon="11.996095635494559"><ele>323.0</ele><time>2026-04-18T09:09:58Z</time></trkpt><trkpt lat="42.10831913334477" lon="11.996180282687828"><ele>323.0</ele><time>2026-04-18T09:10:00Z</time></trkpt><trkpt lat="42.10835399777511" lon="11.996266871640811"><ele>322.2</ele><time>2026-04-18T09:10:02Z</time></trkpt><trkpt lat="42.1084403597308" lon="11.99631616860372"><ele>321.4</ele><time>2026-04-18T09:10:34Z</time></trkpt><trkpt lat="42.10855003526363" lon="11.99632861921994"><ele>320.59999999999997</ele><time>2026-04-18T09:10:36Z</time></trkpt><trkpt lat="42.10865931836544" lon="11.996384015391273"><ele>319.79999999999995</ele><time>2026-04-18T09:10:38Z</time></trkpt><trkpt lat="42.108721295725005" lon="11.996454985127999"><ele>319.0</ele><time>2026-04-18T09:10:39Z</time></trkpt><trkpt lat="42.10876770728226" lon="11.99655139318731"><ele>319.0</ele><time>2026-04-18T09:10:40Z</time></trkpt><trkpt lat="42.10878988842529" lon="11.99666216350733"><ele>319.0</ele><time>2026-04-18T09:10:41Z</time></trkpt><trkpt lat="42.10879715810688" lon="11.996768599356459"><ele>319.0</ele><time>2026-04-18T09:10:42Z</time></trkpt><trkpt lat="42.10881989002505" lon="11.996876221208172"><ele>319.0</ele><time>2026-04-18T09:10:43Z</time></trkpt><trkpt lat="42.10886049306196" lon="11.996998842810022"><ele>319.0</ele><time>2026-04-18T09:10:44Z</time></trkpt><trkpt lat="42.108899668167915" lon="11.997114960158106"><ele>319.0</ele><time>2026-04-18T09:10:45Z</time></trkpt><trkpt lat="42.10892535203758" lon="11.99723141501417"><ele>317.8333333333333</ele><time>2026-04-18T09:10:46Z</time></trkpt><trkpt lat="42.108953987291706" lon="11.997338072335202"><ele>316.66666666666663</ele><time>2026-04-18T09:10:47Z</time></trkpt><trkpt lat="42.10899086253806" lon="11.99743503726408"><ele>315.5</ele><time>2026-04-18T09:10:48Z</time></trkpt><trkpt lat="42.109031587305765" lon="11.99753613560825"><ele>314.3333333333333</ele><time>2026-04-18T09:10:49Z</time></trkpt><trkpt lat="42.109077409281205" lon="11.99762567944579"><ele>313.1666666666667</ele><time>2026-04-18T09:10:50Z</time></trkpt><trkpt lat="42.10912791785817" lon="11.997685176565213"><ele>312.0</ele><time>2026-04-18T09:10:51Z</time></trkpt><trkpt lat="42.10922530703318" lon="11.997749414053603"><ele>312.0</ele><time>2026-04-18T09:10:53Z</time></trkpt><trkpt lat="42.109320386933256" lon="11.997714780701859"><ele>312.0</ele><time>2026-04-18T09:10:55Z</time></trkpt><trkpt lat="42.10935894936005" lon="11.997609941025267"><ele>312.0</ele><time>2026-04-18T09:10:57Z</time></trkpt><trkpt lat="42.109416011862805" lon="11.997563731541156"><ele>312.0</ele><time>2026-04-18T09:11:00Z</time></trkpt><trkpt lat="42.109514565579275" lon="11.997586939775571"><ele>312.0</ele><time>2026-04-18T09:11:14Z</time></trkpt><trkpt lat="42.109598984439096" lon="11.997569080329356"><ele>312.0</ele><time>2026-04-18T09:11:16Z</time></trkpt><trkpt lat="42.109685236829584" lon="11.997527227118876"><ele>312.0</ele><time>2026-04-18T09:11:18Z</time></trkpt><trkpt lat="42.10976411984079" lon="11.997500869794276"><ele>312.0</ele><time>2026-04-18T09:11:20Z</time></trkpt><trkpt lat="42.10983575253393" lon="11.997532164747057"><ele>312.0</ele><time>2026-04-18T09:11:23Z</time></trkpt><trkpt lat="42.109934380888355" lon="11.997536423872234"><ele>312.0</ele><time>2026-04-18T09:11:26Z</time></trkpt><trkpt lat="42.110023217932046" lon="11.997482830831236"><ele>312.0</ele><time>2026-04-18T09:11:28Z</time></trkpt><trkpt lat="42.11012039842089" lon="11.997439047794295"><ele>312.6666666666667</ele><time>2026-04-18T09:11:30Z</time></trkpt><trkpt lat="42.1102399605084" lon="11.997381027620866"><ele>313.3333333333333</ele><time>2026-04-18T09:11:32Z</time></trkpt><trkpt lat="42.11033380321381" lon="11.997351816688981"><ele>314.0</ele><time>2026-04-18T09:11:34Z</time></trkpt><trkpt lat="42.11041530015108" lon="11.997346392044427"><ele>314.66666666666663</ele><time>2026-04-18T09:12:15Z</time></trkpt><trkpt lat="42.11048166983176" lon="11.997324556686994"><ele>315.3333333333333</ele><time>2026-04-18T09:12:22Z</time></trkpt><trkpt lat="42.11054468865014" lon="11.997313961792637"><ele>316.0</ele><time>2026-04-18T09:12:28Z</time></trkpt><trkpt lat="42.11060790092005" lon="11.997307954020883"><ele>316.00000000000006</ele><time>2026-04-18T09:12:32Z</time></trkpt><trkpt lat="42.110676529314624" lon="11.997307487505514"><ele>316.0</ele><time>2026-04-18T09:12:34Z</time></trkpt><trkpt lat="42.11073102653881" lon="11.997263836281743"><ele>316.0</ele><time>2026-04-18T09:12:36Z</time></trkpt><trkpt lat="42.11079879694861" lon="11.997264634879196"><ele>316.0</ele><time>2026-04-18T09:13:18Z</time></trkpt><trkpt lat="42.1108835722076" lon="11.997285077898557"><ele>316.0</ele><time>2026-04-18T09:13:22Z</time></trkpt><trkpt lat="42.1109387563843" lon="11.997331138364341"><ele>316.00000000000006</ele><time>2026-04-18T09:13:32Z</time></trkpt><trkpt lat="42.1109873408955" lon="11.997397659360457"><ele>316.0</ele><time>2026-04-18T09:13:40Z</time></trkpt><trkpt lat="42.1110575160923" lon="11.997458672894984"><ele>315.66666666666663</ele><time>2026-04-18T09:13:48Z</time></trkpt><trkpt lat="42.11109864796061" lon="11.99754307939357"><ele>315.3333333333333</ele><time>2026-04-18T09:13:51Z</time></trkpt><trkpt lat="42.11116166452266" lon="11.99759700015105"><ele>315.0</ele><time>2026-04-18T09:13:53Z</time></trkpt><trkpt lat="42.111271551479184" lon="11.997616680386555"><ele>314.6666666666667</ele><time>2026-04-18T09:13:55Z</time></trkpt><trkpt lat="42.11133653643696" lon="11.997624038463654"><ele>314.33333333333337</ele><time>2026-04-18T09:13:56Z</time></trkpt><trkpt lat="42.111371630337736" lon="11.997552468976888"><ele>314.0</ele><time>2026-04-18T09:13:59Z</time></trkpt><trkpt lat="42.111350176191934" lon="11.997469008133596"><ele>314.0</ele><time>2026-04-18T09:14:01Z</time></trkpt><trkpt lat="42.11134510454451" lon="11.997357065063692"><ele>314.0</ele><time>2026-04-18T09:14:03Z</time></trkpt><trkpt lat="42.11131434545652" lon="11.997236674742798"><ele>314.0</ele><time>2026-04-18T09:14:05Z</time></trkpt><trkpt lat="42.11123198979419" lon="11.997218956659312"><ele>314.0</ele><time>2026-04-18T09:14:08Z</time></trkpt><trkpt lat="42.11117206178649" lon="11.997249856836602"><ele>314.0</ele><time>2026-04-18T09:14:12Z</time></trkpt><trkpt lat="42.11121038987798" lon="11.997353223869768"><ele>314.0</ele><time>2026-04-18T09:15:59Z</time></trkpt><trkpt lat="42.111276152839885" lon="11.997395086701957"><ele>314.0</ele><time>2026-04-18T09:16:01Z</time></trkpt><trkpt lat="42.11138476759971" lon="11.997425294810046"><ele>314.0</ele><time>2026-04-18T09:16:03Z</time></trkpt><trkpt lat="42.11146551866455" lon="11.997356148686494"><ele>314.0</ele><time>2026-04-18T09:16:06Z</time></trkpt><trkpt lat="42.11155099784301" lon="11.997341763345831"><ele>314.0</ele><time>2026-04-18T09:16:08Z</time></trkpt><trkpt lat="42.11168960680733" lon="11.997334295268553"><ele>314.0</ele><time>2026-04-18T09:16:10Z</time></trkpt><trkpt lat="42.111709951326176" lon="11.99725017597396"><ele>314.0</ele><time>2026-04-18T09:16:13Z</time></trkpt><trkpt lat="42.11162193950908" lon="11.997282086318522"><ele>314.0</ele><time>2026-04-18T09:16:15Z</time></trkpt><trkpt lat="42.111517352083084" lon="11.997366319823861"><ele>314.0</ele><time>2026-04-18T09:16:17Z</time></trkpt><trkpt lat="42.1114316115295" lon="11.997416862032788"><ele>314.0</ele><time>2026-04-18T09:16:19Z</time></trkpt><trkpt lat="42.11142611870161" lon="11.997298342945198"><ele>314.0</ele><time>2026-04-18T09:25:58.999Z</time></trkpt><trkpt lat="42.11152941401909" lon="11.997241552383212"><ele>314.6666666666667</ele><time>2026-04-18T09:26:00.999Z</time></trkpt><trkpt lat="42.111594267637535" lon="11.99725787514251"><ele>315.33333333333337</ele><time>2026-04-18T09:26:01.999Z</time></trkpt><trkpt lat="42.11169826116725" lon="11.997291643871208"><ele>316.0</ele><time>2026-04-18T09:26:03.999Z</time></trkpt><trkpt lat="42.11178600980463" lon="11.997306182154695"><ele>316.6666666666667</ele><time>2026-04-18T09:26:05.999Z</time></trkpt><trkpt lat="42.11187492640782" lon="11.997359176961465"><ele>317.3333333333333</ele><time>2026-04-18T09:26:07.999Z</time></trkpt><trkpt lat="42.111937009144526" lon="11.99738771196088"><ele>318.0</ele><time>2026-04-18T09:26:08.999Z</time></trkpt><trkpt lat="42.11204553777934" lon="11.997422159705136"><ele>316.6</ele><time>2026-04-18T09:26:10.999Z</time></trkpt><trkpt lat="42.11210310530304" lon="11.997522814263158"><ele>315.20000000000005</ele><time>2026-04-18T09:26:12.999Z</time></trkpt><trkpt lat="42.11215080078194" lon="11.997642768520837"><ele>313.8</ele><time>2026-04-18T09:26:27Z</time></trkpt><trkpt lat="42.1122116741935" lon="11.997787230260782"><ele>312.40000000000003</ele><time>2026-04-18T09:26:29Z</time></trkpt><trkpt lat="42.11226406221411" lon="11.997876938423937"><ele>311.0</ele><time>2026-04-18T09:26:30Z</time></trkpt><trkpt lat="42.11232341284969" lon="11.997984532174712"><ele>311.0</ele><time>2026-04-18T09:26:31Z</time></trkpt><trkpt lat="42.11235220913339" lon="11.998067296232026"><ele>311.0</ele><time>2026-04-18T09:26:32Z</time></trkpt><trkpt lat="42.11235874900547" lon="11.998153801574448"><ele>311.0</ele><time>2026-04-18T09:26:33Z</time></trkpt><trkpt lat="42.11234369924111" lon="11.998257514553819"><ele>311.0</ele><time>2026-04-18T09:26:34Z</time></trkpt><trkpt lat="42.11233713062781" lon="11.998381908545"><ele>311.0</ele><time>2026-04-18T09:26:35Z</time></trkpt><trkpt lat="42.112332492813174" lon="11.998508439437629"><ele>311.0</ele><time>2026-04-18T09:26:36Z</time></trkpt><trkpt lat="42.11232470039554" lon="11.998634002606368"><ele>311.4285714285714</ele><time>2026-04-18T09:26:37Z</time></trkpt><trkpt lat="42.112327596486644" lon="11.998733906344672"><ele>311.8571428571429</ele><time>2026-04-18T09:26:38Z</time></trkpt><trkpt lat="42.11233453995633" lon="11.998836091656724"><ele>312.2857142857143</ele><time>2026-04-18T09:26:39Z</time></trkpt><trkpt lat="42.11234610671242" lon="11.99893883632935"><ele>312.71428571428567</ele><time>2026-04-18T09:26:40Z</time></trkpt><trkpt lat="42.11236133413294" lon="11.999042864692399"><ele>313.1428571428571</ele><time>2026-04-18T09:26:41Z</time></trkpt><trkpt lat="42.11237947466767" lon="11.999137540937921"><ele>313.57142857142856</ele><time>2026-04-18T09:26:42Z</time></trkpt><trkpt lat="42.11239268108061" lon="11.999224584457643"><ele>314.0</ele><time>2026-04-18T09:26:43Z</time></trkpt><trkpt lat="42.112419045571556" lon="11.999306088739099"><ele>314.0</ele><time>2026-04-18T09:26:44Z</time></trkpt><trkpt lat="42.11243698535101" lon="11.9993929101094"><ele>314.0</ele><time>2026-04-18T09:26:45Z</time></trkpt><trkpt lat="42.112440432251525" lon="11.99951538813706"><ele>314.0</ele><time>2026-04-18T09:26:47Z</time></trkpt><trkpt lat="42.11244491343462" lon="11.999604720848252"><ele>314.0</ele><time>2026-04-18T09:27:30Z</time></trkpt><trkpt lat="42.11241413729711" lon="11.999766656615149"><ele>314.0</ele><time>2026-04-18T09:27:32Z</time></trkpt><trkpt lat="42.112384491806935" lon="11.999862279389799"><ele>314.0</ele><time>2026-04-18T09:27:33Z</time></trkpt><trkpt lat="42.11234880994556" lon="11.999952067463083"><ele>311.0</ele><time>2026-04-18T09:27:34Z</time></trkpt><trkpt lat="42.112318308610824" lon="12.00003847314114"><ele>308.0</ele><time>2026-04-18T09:27:35Z</time></trkpt><trkpt lat="42.11230398214288" lon="12.000147492522693"><ele>305.0</ele><time>2026-04-18T09:27:36Z</time></trkpt><trkpt lat="42.1122924622009" lon="12.000239910116749"><ele>302.0</ele><time>2026-04-18T09:27:37Z</time></trkpt><trkpt lat="42.11227821794626" lon="12.000350449779779"><ele>299.0</ele><time>2026-04-18T09:27:38Z</time></trkpt><trkpt lat="42.112265435773054" lon="12.000453372679022"><ele>296.0</ele><time>2026-04-18T09:27:39Z</time></trkpt><trkpt lat="42.112243960796086" lon="12.000558683101875"><ele>296.0</ele><time>2026-04-18T09:27:40Z</time></trkpt><trkpt lat="42.11221432592036" lon="12.000655057078896"><ele>296.0</ele><time>2026-04-18T09:27:41Z</time></trkpt><trkpt lat="42.11218483261678" lon="12.000752459054835"><ele>296.0</ele><time>2026-04-18T09:27:42Z</time></trkpt><trkpt lat="42.112162637320466" lon="12.000838381214212"><ele>296.0</ele><time>2026-04-18T09:27:43Z</time></trkpt><trkpt lat="42.11216698204768" lon="12.000968291927611"><ele>296.0</ele><time>2026-04-18T09:27:45Z</time></trkpt><trkpt lat="42.112204742899216" lon="12.001067753123378"><ele>296.0</ele><time>2026-04-18T09:27:47.001Z</time></trkpt><trkpt lat="42.1121967413279" lon="12.001155603470645"><ele>295.83333333333337</ele><time>2026-04-18T09:27:48.001Z</time></trkpt><trkpt lat="42.112176381282794" lon="12.001243687422232"><ele>295.6666666666667</ele><time>2026-04-18T09:27:49.001Z</time></trkpt><trkpt lat="42.11215051092653" lon="12.001372504724033"><ele>295.5</ele><time>2026-04-18T09:27:50.001Z</time></trkpt><trkpt lat="42.112149203552526" lon="12.001506415085576"><ele>295.3333333333333</ele><time>2026-04-18T09:27:51.001Z</time></trkpt><trkpt lat="42.11214995451583" lon="12.001635596735133"><ele>295.16666666666663</ele><time>2026-04-18T09:27:52.001Z</time></trkpt><trkpt lat="42.11215220384108" lon="12.001730629058297"><ele>295.0</ele><time>2026-04-18T09:27:53.001Z</time></trkpt><trkpt lat="42.112132360939064" lon="12.001827229344174"><ele>295.0</ele><time>2026-04-18T09:27:55.001Z</time></trkpt><trkpt lat="42.11206778526549" lon="12.001878183230113"><ele>295.0</ele><time>2026-04-18T09:27:57.001Z</time></trkpt><trkpt lat="42.11202366229706" lon="12.001970837162373"><ele>295.0</ele><time>2026-04-18T09:27:59.001Z</time></trkpt><trkpt lat="42.11196434820228" lon="12.002050064968595"><ele>295.0</ele><time>2026-04-18T09:28:01.001Z</time></trkpt><trkpt lat="42.111895907091125" lon="12.002147543579243"><ele>295.0</ele><time>2026-04-18T09:28:03.001Z</time></trkpt><trkpt lat="42.1118392807394" lon="12.002282911209003"><ele>295.00000000000006</ele><time>2026-04-18T09:28:05Z</time></trkpt><trkpt lat="42.11181265851066" lon="12.002363819561742"><ele>295.0</ele><time>2026-04-18T09:28:06Z</time></trkpt><trkpt lat="42.11178319768087" lon="12.002445535149082"><ele>295.0</ele><time>2026-04-18T09:28:07Z</time></trkpt><trkpt lat="42.11176648755466" lon="12.002536974587812"><ele>295.0</ele><time>2026-04-18T09:28:08Z</time></trkpt><trkpt lat="42.111761428162986" lon="12.00264500929927"><ele>295.0</ele><time>2026-04-18T09:28:09Z</time></trkpt><trkpt lat="42.11175801397285" lon="12.002748581269453"><ele>295.00000000000006</ele><time>2026-04-18T09:28:10Z</time></trkpt><trkpt lat="42.11174170588171" lon="12.002836039510633"><ele>295.0</ele><time>2026-04-18T09:28:11Z</time></trkpt><trkpt lat="42.1117025031707" lon="12.002949046840296"><ele>294.6</ele><time>2026-04-18T09:28:13Z</time></trkpt><trkpt lat="42.11165089021714" lon="12.003038288088385"><ele>294.2</ele><time>2026-04-18T09:28:17Z</time></trkpt><trkpt lat="42.1115460056566" lon="12.003108156869365"><ele>293.8</ele><time>2026-04-18T09:28:20Z</time></trkpt><trkpt lat="42.11147803209693" lon="12.003133141996967"><ele>293.4</ele><time>2026-04-18T09:28:21Z</time></trkpt><trkpt lat="42.11137531842636" lon="12.003159145383046"><ele>293.0</ele><time>2026-04-18T09:28:23Z</time></trkpt><trkpt lat="42.11126464442561" lon="12.003168458076987"><ele>289.5</ele><time>2026-04-18T09:28:25Z</time></trkpt><trkpt lat="42.11114930526557" lon="12.003138619226492"><ele>286.0</ele><time>2026-04-18T09:28:27Z</time></trkpt><trkpt lat="42.11104187495196" lon="12.003139220642158"><ele>282.5</ele><time>2026-04-18T09:28:29Z</time></trkpt><trkpt lat="42.11096351360694" lon="12.003166158691853"><ele>279.0</ele><time>2026-04-18T09:28:31Z</time></trkpt><trkpt lat="42.11091802858635" lon="12.003234273406239"><ele>275.5</ele><time>2026-04-18T09:28:33Z</time></trkpt><trkpt lat="42.110897778497566" lon="12.00331878217258"><ele>272.0</ele><time>2026-04-18T09:28:35Z</time></trkpt><trkpt lat="42.11089810779118" lon="12.00345328753934"><ele>271.6</ele><time>2026-04-18T09:28:37Z</time></trkpt><trkpt lat="42.11088525640742" lon="12.003631886327083"><ele>271.2</ele><time>2026-04-18T09:28:39Z</time></trkpt><trkpt lat="42.110869523550164" lon="12.003727087613056"><ele>270.8</ele><time>2026-04-18T09:28:40Z</time></trkpt><trkpt lat="42.11084824618215" lon="12.003868020772195"><ele>270.4</ele><time>2026-04-18T09:28:42Z</time></trkpt><trkpt lat="42.110810432133405" lon="12.004004883444841"><ele>270.0</ele><time>2026-04-18T09:28:44Z</time></trkpt><trkpt lat="42.110759739082255" lon="12.004056949898544"><ele>266.6666666666667</ele><time>2026-04-18T09:28:45Z</time></trkpt><trkpt lat="42.11069957812525" lon="12.004101161516829"><ele>263.3333333333333</ele><time>2026-04-18T09:28:46Z</time></trkpt><trkpt lat="42.11064262873816" lon="12.004202670343874"><ele>260.0</ele><time>2026-04-18T09:28:48Z</time></trkpt><trkpt lat="42.11062746219217" lon="12.00434407134101"><ele>256.66666666666663</ele><time>2026-04-18T09:28:50Z</time></trkpt><trkpt lat="42.11061966143272" lon="12.00444407422185"><ele>253.33333333333331</ele><time>2026-04-18T09:28:52Z</time></trkpt><trkpt lat="42.11058127732927" lon="12.004533642674417"><ele>250.0</ele><time>2026-04-18T09:28:54Z</time></trkpt><trkpt lat="42.11050537242487" lon="12.004648171510947"><ele>249.99999999999997</ele><time>2026-04-18T09:28:56Z</time></trkpt><trkpt lat="42.110489532249446" lon="12.00474953953489"><ele>250.0</ele><time>2026-04-18T09:28:58Z</time></trkpt><trkpt lat="42.110517600632484" lon="12.004830954550782"><ele>250.0</ele><time>2026-04-18T09:29:00Z</time></trkpt><trkpt lat="42.110543631266594" lon="12.004936548722071"><ele>250.0</ele><time>2026-04-18T09:29:34.001Z</time></trkpt><trkpt lat="42.11051211885601" lon="12.00504958153262"><ele>249.99999999999997</ele><time>2026-04-18T09:29:36.001Z</time></trkpt><trkpt lat="42.11043888769295" lon="12.005137369220968"><ele>250.0</ele><time>2026-04-18T09:29:38.001Z</time></trkpt><trkpt lat="42.110384512977355" lon="12.005216972640715"><ele>250.49999999999997</ele><time>2026-04-18T09:29:40.001Z</time></trkpt><trkpt lat="42.11037965372171" lon="12.005340622041293"><ele>251.0</ele><time>2026-04-18T09:29:42.001Z</time></trkpt><trkpt lat="42.11031884923778" lon="12.005415119369138"><ele>251.5</ele><time>2026-04-18T09:29:44.001Z</time></trkpt><trkpt lat="42.1102452777886" lon="12.005493172151917"><ele>252.0</ele><time>2026-04-18T09:29:46.001Z</time></trkpt><trkpt lat="42.11018972209917" lon="12.005597079749444"><ele>252.49999999999997</ele><time>2026-04-18T09:29:49.001Z</time></trkpt><trkpt lat="42.11019924640951" lon="12.005685307246736"><ele>253.0</ele><time>2026-04-18T09:29:51.001Z</time></trkpt><trkpt lat="42.11021520255804" lon="12.005800475593569"><ele>252.66666666666666</ele><time>2026-04-18T09:29:54.001Z</time></trkpt><trkpt lat="42.11018575547939" lon="12.005900563042749"><ele>252.33333333333331</ele><time>2026-04-18T09:29:56.001Z</time></trkpt><trkpt lat="42.110157178357056" lon="12.005978657496163"><ele>252.0</ele><time>2026-04-18T09:29:58.001Z</time></trkpt><trkpt lat="42.11017119087633" lon="12.00608616906279"><ele>251.66666666666669</ele><time>2026-04-18T09:30:00.001Z</time></trkpt><trkpt lat="42.110173935702804" lon="12.006173269463853"><ele>251.33333333333334</ele><time>2026-04-18T09:30:03.001Z</time></trkpt><trkpt lat="42.11015955122979" lon="12.0062881306518"><ele>251.0</ele><time>2026-04-18T09:30:05.001Z</time></trkpt><trkpt lat="42.11015906051373" lon="12.006401903975155"><ele>251.00000000000003</ele><time>2026-04-18T09:30:08.001Z</time></trkpt><trkpt lat="42.11015190909701" lon="12.006495440950099"><ele>251.0</ele><time>2026-04-18T09:30:10.001Z</time></trkpt><trkpt lat="42.11017582383015" lon="12.006595643008069"><ele>251.0</ele><time>2026-04-18T09:30:13Z</time></trkpt><trkpt lat="42.110245258838575" lon="12.006676657659172"><ele>251.0</ele><time>2026-04-18T09:30:20Z</time></trkpt><trkpt lat="42.11029659292301" lon="12.00674738672371"><ele>251.00000000000003</ele><time>2026-04-18T09:30:23Z</time></trkpt><trkpt lat="42.11035670523371" lon="12.00682322140847"><ele>251.0</ele><time>2026-04-18T09:30:27Z</time></trkpt><trkpt lat="42.110411601716066" lon="12.006932155680916"><ele>249.1428571428571</ele><time>2026-04-18T09:30:30Z</time></trkpt><trkpt lat="42.110466191308454" lon="12.00699414402299"><ele>247.28571428571428</ele><time>2026-04-18T09:30:32Z</time></trkpt><trkpt lat="42.11049582454207" lon="12.007071475930719"><ele>245.42857142857142</ele><time>2026-04-18T09:30:35Z</time></trkpt><trkpt lat="42.11053784182963" lon="12.007146281389089"><ele>243.57142857142856</ele><time>2026-04-18T09:30:41Z</time></trkpt><trkpt lat="42.11053195955713" lon="12.007243889283703"><ele>241.71428571428572</ele><time>2026-04-18T09:30:43Z</time></trkpt><trkpt lat="42.110470131926604" lon="12.007312626991999"><ele>239.85714285714286</ele><time>2026-04-18T09:30:46Z</time></trkpt><trkpt lat="42.1104448697274" lon="12.007413617311661"><ele>238.0</ele><time>2026-04-18T09:30:48Z</time></trkpt><trkpt lat="42.11037820435886" lon="12.00742673149075"><ele>225.0</ele><time>2026-04-18T09:30:50Z</time></trkpt><trkpt lat="42.10997010016488" lon="12.007741188891334"><ele>225.16666666666666</ele><time>2026-04-18T09:30:51Z</time></trkpt><trkpt lat="42.10990131164455" lon="12.007801272378952"><ele>225.33333333333331</ele><time>2026-04-18T09:30:52Z</time></trkpt><trkpt lat="42.109855290184" lon="12.007864756406201"><ele>225.5</ele><time>2026-04-18T09:30:53Z</time></trkpt><trkpt lat="42.10984121422445" lon="12.007989520716718"><ele>225.66666666666666</ele><time>2026-04-18T09:30:55Z</time></trkpt><trkpt lat="42.10982020256404" lon="12.008080591325305"><ele>225.83333333333331</ele><time>2026-04-18T09:30:57Z</time></trkpt><trkpt lat="42.10980061979718" lon="12.008205193053557"><ele>226.0</ele><time>2026-04-18T09:30:59Z</time></trkpt><trkpt lat="42.10980989304307" lon="12.008328400056365"><ele>226.4</ele><time>2026-04-18T09:31:01Z</time></trkpt><trkpt lat="42.10987356814119" lon="12.008431723088602"><ele>226.8</ele><time>2026-04-18T09:31:03.001Z</time></trkpt><trkpt lat="42.109928386088754" lon="12.008473600103803"><ele>227.20000000000002</ele><time>2026-04-18T09:31:04.001Z</time></trkpt><trkpt lat="42.11003667370998" lon="12.008559407287686"><ele>227.60000000000002</ele><time>2026-04-18T09:31:06.001Z</time></trkpt><trkpt lat="42.11011511351134" lon="12.0086621534531"><ele>228.0</ele><time>2026-04-18T09:31:08.001Z</time></trkpt><trkpt lat="42.110144159791766" lon="12.008776873478894"><ele>226.83333333333334</ele><time>2026-04-18T09:31:10.001Z</time></trkpt><trkpt lat="42.1101234938278" lon="12.008868654817316"><ele>225.66666666666669</ele><time>2026-04-18T09:31:14.001Z</time></trkpt><trkpt lat="42.11016372280577" lon="12.008965764554558"><ele>224.5</ele><time>2026-04-18T09:31:18.001Z</time></trkpt><trkpt lat="42.110215777067936" lon="12.009032678807973"><ele>223.33333333333334</ele><time>2026-04-18T09:31:21.001Z</time></trkpt><trkpt lat="42.11026969516522" lon="12.009109556277284"><ele>222.16666666666669</ele><time>2026-04-18T09:31:25.001Z</time></trkpt><trkpt lat="42.110353811270485" lon="12.009151172195198"><ele>221.0</ele><time>2026-04-18T09:31:29.001Z</time></trkpt><trkpt lat="42.1104339928348" lon="12.009187064295734"><ele>220.50000000000003</ele><time>2026-04-18T09:31:32.001Z</time></trkpt><trkpt lat="42.110504082382825" lon="12.009259645658435"><ele>220.0</ele><time>2026-04-18T09:31:35.001Z</time></trkpt><trkpt lat="42.1105367516677" lon="12.00933833190787"><ele>219.5</ele><time>2026-04-18T09:31:36.001Z</time></trkpt><trkpt lat="42.1105603317939" lon="12.009456626081915"><ele>219.0</ele><time>2026-04-18T09:31:38.001Z</time></trkpt><trkpt lat="42.11063208262933" lon="12.009511645235499"><ele>218.50000000000003</ele><time>2026-04-18T09:31:41.001Z</time></trkpt><trkpt lat="42.11069827415264" lon="12.009499484440422"><ele>218.0</ele><time>2026-04-18T09:31:43.001Z</time></trkpt><trkpt lat="42.11081963074072" lon="12.009517009362966"><ele>221.0</ele><time>2026-04-18T09:32:21.001Z</time></trkpt><trkpt lat="42.11098106955598" lon="12.009513144549182"><ele>224.0</ele><time>2026-04-18T09:32:31Z</time></trkpt><trkpt lat="42.111078785240416" lon="12.009539938670217"><ele>227.0</ele><time>2026-04-18T09:32:33Z</time></trkpt><trkpt lat="42.11119445889139" lon="12.009556970602974"><ele>230.0</ele><time>2026-04-18T09:32:35Z</time></trkpt><trkpt lat="42.111265864403336" lon="12.009564123932037"><ele>233.0</ele><time>2026-04-18T09:32:37Z</time></trkpt><trkpt lat="42.111351552517135" lon="12.009571533825126"><ele>233.00000000000003</ele><time>2026-04-18T09:32:39Z</time></trkpt><trkpt lat="42.11141764352666" lon="12.009579611998754"><ele>233.0</ele><time>2026-04-18T09:32:41Z</time></trkpt><trkpt lat="42.1114852585755" lon="12.009550952609443"><ele>233.0</ele><time>2026-04-18T09:33:25.001Z</time></trkpt><trkpt lat="42.111580706627954" lon="12.009528041167743"><ele>233.0</ele><time>2026-04-18T09:33:27.001Z</time></trkpt><trkpt lat="42.11164585053172" lon="12.009508255590255"><ele>233.00000000000003</ele><time>2026-04-18T09:33:28.001Z</time></trkpt><trkpt lat="42.11174033220733" lon="12.009476300252464"><ele>233.0</ele><time>2026-04-18T09:33:30.001Z</time></trkpt><trkpt lat="42.111816591921425" lon="12.00941768415566"><ele>238.0</ele><time>2026-04-18T09:33:32.001Z</time></trkpt><trkpt lat="42.11192827787887" lon="12.009354646704958"><ele>243.0</ele><time>2026-04-18T09:33:34.001Z</time></trkpt><trkpt lat="42.11202478376478" lon="12.009328866468811"><ele>248.0</ele><time>2026-04-18T09:33:36.001Z</time></trkpt><trkpt lat="42.11210497899488" lon="12.009286485163557"><ele>253.0</ele><time>2026-04-18T09:33:38.001Z</time></trkpt><trkpt lat="42.11216817028614" lon="12.009336375308589"><ele>258.0</ele><time>2026-04-18T09:33:40.001Z</time></trkpt><trkpt lat="42.11223725056218" lon="12.009398459134765"><ele>258.0</ele><time>2026-04-18T09:33:42.001Z</time></trkpt><trkpt lat="42.11232335952803" lon="12.009331605420165"><ele>258.0</ele><time>2026-04-18T09:33:44.001Z</time></trkpt><trkpt lat="42.11238291529969" lon="12.00929976896549"><ele>258.0</ele><time>2026-04-18T09:33:45.001Z</time></trkpt><trkpt lat="42.11247458929037" lon="12.009248084429908"><ele>258.0</ele><time>2026-04-18T09:33:47.001Z</time></trkpt><trkpt lat="42.11253599375339" lon="12.009217329844267"><ele>258.0</ele><time>2026-04-18T09:33:50.001Z</time></trkpt><trkpt lat="42.11268327781763" lon="12.00930930520409"><ele>260.6666666666667</ele><time>2026-04-18T09:33:53.001Z</time></trkpt><trkpt lat="42.11275902732682" lon="12.009299172692844"><ele>263.3333333333333</ele><time>2026-04-18T09:33:55.001Z</time></trkpt><trkpt lat="42.11283673285632" lon="12.009357971912165"><ele>266.0</ele><time>2026-04-18T09:33:58.001Z</time></trkpt><trkpt lat="42.112894626925645" lon="12.009399541882473"><ele>268.66666666666663</ele><time>2026-04-18T09:34:02.001Z</time></trkpt><trkpt lat="42.11297379903687" lon="12.009431567518646"><ele>271.3333333333333</ele><time>2026-04-18T09:34:05.001Z</time></trkpt><trkpt lat="42.113052356689" lon="12.009418909764708"><ele>274.0</ele><time>2026-04-18T09:34:07.001Z</time></trkpt><trkpt lat="42.11311791092354" lon="12.009402032166783"><ele>274.0</ele><time>2026-04-18T09:34:08.001Z</time></trkpt><trkpt lat="42.11322419557414" lon="12.009386241730489"><ele>274.0</ele><time>2026-04-18T09:34:09.001Z</time></trkpt><trkpt lat="42.11329498074871" lon="12.009375093788188"><ele>274.0</ele><time>2026-04-18T09:34:10.001Z</time></trkpt><trkpt lat="42.11340310275472" lon="12.009411093143893"><ele>274.0</ele><time>2026-04-18T09:34:13.001Z</time></trkpt><trkpt lat="42.11347769683115" lon="12.009409925025308"><ele>274.0</ele><time>2026-04-18T09:34:14.001Z</time></trkpt><trkpt lat="42.11358367806152" lon="12.009402636450456"><ele>275.66666666666663</ele><time>2026-04-18T09:34:16.001Z</time></trkpt><trkpt lat="42.11368710046996" lon="12.009398385384785"><ele>277.3333333333333</ele><time>2026-04-18T09:34:18.001Z</time></trkpt><trkpt lat="42.113747730863416" lon="12.009453350107153"><ele>279.0</ele><time>2026-04-18T09:34:20.001Z</time></trkpt><trkpt lat="42.11382293229091" lon="12.009487820170234"><ele>280.6666666666667</ele><time>2026-04-18T09:34:22.001Z</time></trkpt><trkpt lat="42.11393770843123" lon="12.009541087091995"><ele>282.33333333333337</ele><time>2026-04-18T09:34:24Z</time></trkpt><trkpt lat="42.11400549479222" lon="12.00954603437161"><ele>284.0</ele><time>2026-04-18T09:34:25Z</time></trkpt><trkpt lat="42.114089002032244" lon="12.009525139798235"><ele>285.83333333333337</ele><time>2026-04-18T09:34:26Z</time></trkpt><trkpt lat="42.11417143910114" lon="12.009510345742685"><ele>287.6666666666667</ele><time>2026-04-18T09:34:27Z</time></trkpt><trkpt lat="42.114281974653316" lon="12.009470370115896"><ele>289.5</ele><time>2026-04-18T09:34:29Z</time></trkpt><trkpt lat="42.114333566668556" lon="12.009398610497676"><ele>291.3333333333333</ele><time>2026-04-18T09:34:31Z</time></trkpt><trkpt lat="42.11439817373747" lon="12.009390075041305"><ele>293.16666666666663</ele><time>2026-04-18T09:34:32Z</time></trkpt><trkpt lat="42.114470072415656" lon="12.009391504469459"><ele>295.0</ele><time>2026-04-18T09:34:33Z</time></trkpt><trkpt lat="42.11453973989461" lon="12.009397861852168"><ele>295.0</ele><time>2026-04-18T09:34:34Z</time></trkpt><trkpt lat="42.114626410477285" lon="12.009404554166563"><ele>295.0</ele><time>2026-04-18T09:34:36Z</time></trkpt><trkpt lat="42.1147113402427" lon="12.00939165922231"><ele>295.0</ele><time>2026-04-18T09:34:40Z</time></trkpt><trkpt lat="42.1147970556067" lon="12.009427015959556"><ele>295.0</ele><time>2026-04-18T09:34:43Z</time></trkpt><trkpt lat="42.11485494612219" lon="12.009475686224496"><ele>295.0</ele><time>2026-04-18T09:34:46Z</time></trkpt><trkpt lat="42.11492978251151" lon="12.009527721115225"><ele>295.0</ele><time>2026-04-18T09:34:47Z</time></trkpt><trkpt lat="42.115022052406225" lon="12.009592720323976"><ele>296.0</ele><time>2026-04-18T09:34:49Z</time></trkpt><trkpt lat="42.11512781367205" lon="12.009596321308127"><ele>297.0</ele><time>2026-04-18T09:34:51Z</time></trkpt><trkpt lat="42.11520518923731" lon="12.009598061205695"><ele>298.0</ele><time>2026-04-18T09:34:52Z</time></trkpt><trkpt lat="42.115313440325984" lon="12.00959069026718"><ele>299.0</ele><time>2026-04-18T09:34:54Z</time></trkpt><trkpt lat="42.11540133734488" lon="12.009562141336529"><ele>300.0</ele><time>2026-04-18T09:34:56Z</time></trkpt><trkpt lat="42.11546793926895" lon="12.00958989194118"><ele>300.0</ele><time>2026-04-18T09:35:06Z</time></trkpt><trkpt lat="42.11552668456286" lon="12.009645774379845"><ele>300.0</ele><time>2026-04-18T09:35:09Z</time></trkpt><trkpt lat="42.11559634290097" lon="12.00972225662118"><ele>300.0</ele><time>2026-04-18T09:35:11Z</time></trkpt><trkpt lat="42.11566275965602" lon="12.009762326551519"><ele>300.0</ele><time>2026-04-18T09:35:13Z</time></trkpt><trkpt lat="42.115753092852216" lon="12.009812714792202"><ele>300.0</ele><time>2026-04-18T09:35:15Z</time></trkpt><trkpt lat="42.11583817859521" lon="12.009841606369212"><ele>300.0</ele><time>2026-04-18T09:35:17Z</time></trkpt><trkpt lat="42.1159005948648" lon="12.009871437101209"><ele>300.2</ele><time>2026-04-18T09:35:18Z</time></trkpt><trkpt lat="42.11606221768038" lon="12.009879989636621"><ele>300.4</ele><time>2026-04-18T09:35:21Z</time></trkpt><trkpt lat="42.116136869745986" lon="12.009860270229709"><ele>300.6</ele><time>2026-04-18T09:35:22Z</time></trkpt><trkpt lat="42.11619928975065" lon="12.009836184150434"><ele>300.8</ele><time>2026-04-18T09:35:23Z</time></trkpt><trkpt lat="42.11632326829705" lon="12.009799628267336"><ele>301.0</ele><time>2026-04-18T09:35:25Z</time></trkpt><trkpt lat="42.1164233104648" lon="12.009754172005637"><ele>301.0</ele><time>2026-04-18T09:35:27Z</time></trkpt><trkpt lat="42.11654903106488" lon="12.009719145033229"><ele>301.0</ele><time>2026-04-18T09:35:29Z</time></trkpt><trkpt lat="42.11662233771544" lon="12.009691301025336"><ele>301.0</ele><time>2026-04-18T09:35:31.001Z</time></trkpt><trkpt lat="42.11673806219971" lon="12.009633475322238"><ele>301.0</ele><time>2026-04-18T09:35:34.001Z</time></trkpt><trkpt lat="42.116780499162736" lon="12.009533167389625"><ele>301.0</ele><time>2026-04-18T09:35:35.001Z</time></trkpt><trkpt lat="42.11681602685541" lon="12.009437290683968"><ele>301.40000000000003</ele><time>2026-04-18T09:35:36.001Z</time></trkpt><trkpt lat="42.11686182744572" lon="12.009342412213384"><ele>301.8</ele><time>2026-04-18T09:35:37.001Z</time></trkpt><trkpt lat="42.11694391930575" lon="12.009228175095803"><ele>302.20000000000005</ele><time>2026-04-18T09:35:38.001Z</time></trkpt><trkpt lat="42.11699696001519" lon="12.009104457667389"><ele>302.6</ele><time>2026-04-18T09:35:39.001Z</time></trkpt><trkpt lat="42.11703598427747" lon="12.008969343688664"><ele>303.0</ele><time>2026-04-18T09:35:40.001Z</time></trkpt><trkpt lat="42.117058278583144" lon="12.008856321178996"><ele>303.0</ele><time>2026-04-18T09:35:41.001Z</time></trkpt><trkpt lat="42.11707262024351" lon="12.008763755787827"><ele>303.0</ele><time>2026-04-18T09:35:42.001Z</time></trkpt><trkpt lat="42.117102340743116" lon="12.008683431733159"><ele>303.0</ele><time>2026-04-18T09:35:43.001Z</time></trkpt><trkpt lat="42.11714905823908" lon="12.008602995621668"><ele>303.0</ele><time>2026-04-18T09:35:44.001Z</time></trkpt><trkpt lat="42.11720486635296" lon="12.008501074372514"><ele>303.0</ele><time>2026-04-18T09:35:45.001Z</time></trkpt><trkpt lat="42.11725627191159" lon="12.008400172639224"><ele>303.0</ele><time>2026-04-18T09:35:46.001Z</time></trkpt><trkpt lat="42.11730667767937" lon="12.008321357348274"><ele>303.0</ele><time>2026-04-18T09:35:47.001Z</time></trkpt><trkpt lat="42.11739614803701" lon="12.008191804050075"><ele>303.0</ele><time>2026-04-18T09:35:49.001Z</time></trkpt><trkpt lat="42.11744192490198" lon="12.008090579209282"><ele>303.0</ele><time>2026-04-18T09:35:50.001Z</time></trkpt><trkpt lat="42.11745725331663" lon="12.007979271288653"><ele>303.0</ele><time>2026-04-18T09:35:51.001Z</time></trkpt><trkpt lat="42.11746202090231" lon="12.007850709222286"><ele>303.0</ele><time>2026-04-18T09:35:52.001Z</time></trkpt><trkpt lat="42.1174793030557" lon="12.007754696835143"><ele>304.2</ele><time>2026-04-18T09:35:53.001Z</time></trkpt><trkpt lat="42.11749356979509" lon="12.007590641857552"><ele>305.4</ele><time>2026-04-18T09:35:55.001Z</time></trkpt><trkpt lat="42.11754437844611" lon="12.007473575246788"><ele>306.59999999999997</ele><time>2026-04-18T09:35:57.001Z</time></trkpt><trkpt lat="42.11758792667672" lon="12.00740741258122"><ele>307.8</ele><time>2026-04-18T09:36:00.001Z</time></trkpt><trkpt lat="42.11773165447957" lon="12.007392001225885"><ele>309.0</ele><time>2026-04-18T09:36:47Z</time></trkpt><trkpt lat="42.11782952551086" lon="12.007370005629861"><ele>309.0</ele><time>2026-04-18T09:36:49Z</time></trkpt><trkpt lat="42.11794369992938" lon="12.007308174870557"><ele>309.0</ele><time>2026-04-18T09:36:51Z</time></trkpt><trkpt lat="42.11806006822721" lon="12.00724445845037"><ele>309.0</ele><time>2026-04-18T09:36:53Z</time></trkpt><trkpt lat="42.118123462065384" lon="12.007183290141342"><ele>309.0</ele><time>2026-04-18T09:36:54Z</time></trkpt><trkpt lat="42.11821458081287" lon="12.007126558590945"><ele>309.0</ele><time>2026-04-18T09:36:56Z</time></trkpt><trkpt lat="42.11833016624248" lon="12.007066107422602"><ele>308.0</ele><time>2026-04-18T09:36:58Z</time></trkpt><trkpt lat="42.118408888190004" lon="12.007035087599133"><ele>307.0</ele><time>2026-04-18T09:36:59Z</time></trkpt><trkpt lat="42.11848008453955" lon="12.00698811173107"><ele>306.0</ele><time>2026-04-18T09:37:00Z</time></trkpt><trkpt lat="42.118547539476324" lon="12.00696084563886"><ele>305.0</ele><time>2026-04-18T09:37:01Z</time></trkpt><trkpt lat="42.11860879275151" lon="12.006928819845369"><ele>304.0</ele><time>2026-04-18T09:37:02Z</time></trkpt><trkpt lat="42.11868764498081" lon="12.006873400841426"><ele>303.0</ele><time>2026-04-18T09:37:03Z</time></trkpt><trkpt lat="42.11876124492492" lon="12.006826018057717"><ele>303.0</ele><time>2026-04-18T09:37:04Z</time></trkpt><trkpt lat="42.1188325084629" lon="12.006789654830044"><ele>303.0</ele><time>2026-04-18T09:37:05Z</time></trkpt><trkpt lat="42.118974640198964" lon="12.006728907313894"><ele>303.0</ele><time>2026-04-18T09:37:07Z</time></trkpt><trkpt lat="42.119085293548046" lon="12.006675263093433"><ele>303.0</ele><time>2026-04-18T09:37:08Z</time></trkpt><trkpt lat="42.11918843011742" lon="12.006604365906517"><ele>302.6</ele><time>2026-04-18T09:37:09Z</time></trkpt><trkpt lat="42.11929339484369" lon="12.006528411364364"><ele>302.20000000000005</ele><time>2026-04-18T09:37:10Z</time></trkpt><trkpt lat="42.119366978528596" lon="12.006456706776326"><ele>301.8</ele><time>2026-04-18T09:37:11Z</time></trkpt><trkpt lat="42.11946211157452" lon="12.006398425640848"><ele>301.40000000000003</ele><time>2026-04-18T09:37:12Z</time></trkpt><trkpt lat="42.1195398089675" lon="12.00632798961512"><ele>301.0</ele><time>2026-04-18T09:37:13Z</time></trkpt><trkpt lat="42.119628298052085" lon="12.006230020466127"><ele>301.0</ele><time>2026-04-18T09:37:14Z</time></trkpt><trkpt lat="42.11974970952321" lon="12.00612815570773"><ele>301.0</ele><time>2026-04-18T09:37:15Z</time></trkpt><trkpt lat="42.119883211327505" lon="12.006047160725748"><ele>301.0</ele><time>2026-04-18T09:37:16Z</time></trkpt><trkpt lat="42.120014296913226" lon="12.005989326240568"><ele>301.0</ele><time>2026-04-18T09:37:17Z</time></trkpt><trkpt lat="42.1201148721551" lon="12.005944266569816"><ele>301.0</ele><time>2026-04-18T09:37:18Z</time></trkpt><trkpt lat="42.120200839866946" lon="12.005885539584943"><ele>301.0</ele><time>2026-04-18T09:37:19Z</time></trkpt><trkpt lat="42.12027819745832" lon="12.00581560950927"><ele>301.0</ele><time>2026-04-18T09:37:20Z</time></trkpt><trkpt lat="42.12034441483911" lon="12.005781866502245"><ele>301.0</ele><time>2026-04-18T09:37:21Z</time></trkpt><trkpt lat="42.120461580718725" lon="12.005733228313028"><ele>301.0</ele><time>2026-04-18T09:37:23Z</time></trkpt><trkpt lat="42.12053667877956" lon="12.005703023336602"><ele>301.0</ele><time>2026-04-18T09:37:24Z</time></trkpt><trkpt lat="42.120621237512786" lon="12.005680715290376"><ele>301.0</ele><time>2026-04-18T09:37:25Z</time></trkpt><trkpt lat="42.12071863350687" lon="12.00565900018657"><ele>301.0</ele><time>2026-04-18T09:37:26Z</time></trkpt><trkpt lat="42.12079523158307" lon="12.00562874064943"><ele>301.0</ele><time>2026-04-18T09:37:27Z</time></trkpt><trkpt lat="42.120910984767136" lon="12.005568339775225"><ele>301.0</ele><time>2026-04-18T09:37:29Z</time></trkpt><trkpt lat="42.12098091935536" lon="12.005553926717077"><ele>301.8333333333333</ele><time>2026-04-18T09:37:30Z</time></trkpt><trkpt lat="42.12104705781362" lon="12.005522061099665"><ele>302.66666666666663</ele><time>2026-04-18T09:37:31Z</time></trkpt><trkpt lat="42.12111224889148" lon="12.005457897191006"><ele>303.5</ele><time>2026-04-18T09:37:32Z</time></trkpt><trkpt lat="42.1211822076748" lon="12.005390561015698"><ele>304.3333333333333</ele><time>2026-04-18T09:37:33Z</time></trkpt><trkpt lat="42.12124936892668" lon="12.005311232388522"><ele>305.1666666666667</ele><time>2026-04-18T09:37:34Z</time></trkpt><trkpt lat="42.12132544447852" lon="12.00522252116786"><ele>306.0</ele><time>2026-04-18T09:37:35Z</time></trkpt><trkpt lat="42.12142374168787" lon="12.00513552379845"><ele>306.0</ele><time>2026-04-18T09:37:36Z</time></trkpt><trkpt lat="42.12150232631229" lon="12.005063047422638"><ele>306.0</ele><time>2026-04-18T09:37:37Z</time></trkpt><trkpt lat="42.12156474688982" lon="12.005005227938533"><ele>306.0</ele><time>2026-04-18T09:37:38Z</time></trkpt><trkpt lat="42.121622890328716" lon="12.00494721745716"><ele>306.0</ele><time>2026-04-18T09:37:39Z</time></trkpt><trkpt lat="42.121688780604636" lon="12.004901996142026"><ele>306.0</ele><time>2026-04-18T09:37:40Z</time></trkpt><trkpt lat="42.12174602608252" lon="12.004854440703266"><ele>306.0</ele><time>2026-04-18T09:37:41Z</time></trkpt><trkpt lat="42.12177441610398" lon="12.004766820884429"><ele>304.5</ele><time>2026-04-18T09:37:42Z</time></trkpt><trkpt lat="42.12179200628491" lon="12.004634510759582"><ele>303.0</ele><time>2026-04-18T09:37:44Z</time></trkpt><trkpt lat="42.12175926853788" lon="12.004531693124756"><ele>301.5</ele><time>2026-04-18T09:37:47Z</time></trkpt><trkpt lat="42.12170539365755" lon="12.004478666773423"><ele>300.0</ele><time>2026-04-18T09:37:49Z</time></trkpt><trkpt lat="42.121641439545336" lon="12.004451900679769"><ele>298.5</ele><time>2026-04-18T09:37:53Z</time></trkpt><trkpt lat="42.121579609962644" lon="12.004410810195939"><ele>297.0</ele><time>2026-04-18T09:37:55.001Z</time></trkpt><trkpt lat="42.12147678192817" lon="12.004406267044196"><ele>295.5</ele><time>2026-04-18T09:37:58.001Z</time></trkpt><trkpt lat="42.12141830281645" lon="12.00437460968158"><ele>294.0</ele><time>2026-04-18T09:38:00.001Z</time></trkpt><trkpt lat="42.12121008308072" lon="12.004123002358506"><ele>292.5</ele><time>2026-04-18T09:38:03.001Z</time></trkpt><trkpt lat="42.12115139487421" lon="12.004055516550238"><ele>291.0</ele><time>2026-04-18T09:38:04.001Z</time></trkpt><trkpt lat="42.121099594681745" lon="12.003972200447755"><ele>289.8333333333333</ele><time>2026-04-18T09:38:05.001Z</time></trkpt><trkpt lat="42.121055124645466" lon="12.003903975777657"><ele>288.6666666666667</ele><time>2026-04-18T09:38:06.001Z</time></trkpt><trkpt lat="42.12097533558261" lon="12.003784713894797"><ele>287.5</ele><time>2026-04-18T09:38:08.001Z</time></trkpt><trkpt lat="42.12094158910597" lon="12.003705127829795"><ele>286.33333333333337</ele><time>2026-04-18T09:38:09.001Z</time></trkpt><trkpt lat="42.12089062396209" lon="12.00360981081661"><ele>285.1666666666667</ele><time>2026-04-18T09:38:10.001Z</time></trkpt><trkpt lat="42.12081998606585" lon="12.003524270062702"><ele>284.0</ele><time>2026-04-18T09:38:11.001Z</time></trkpt><trkpt lat="42.120765949485225" lon="12.00345100565262"><ele>283.1428571428571</ele><time>2026-04-18T09:38:12.001Z</time></trkpt><trkpt lat="42.12072224916519" lon="12.003381913257714"><ele>282.2857142857143</ele><time>2026-04-18T09:38:13.001Z</time></trkpt><trkpt lat="42.12065841577672" lon="12.003315387299065"><ele>281.42857142857144</ele><time>2026-04-18T09:38:14.001Z</time></trkpt><trkpt lat="42.120615957824924" lon="12.003236007314218"><ele>280.57142857142856</ele><time>2026-04-18T09:38:15.001Z</time></trkpt><trkpt lat="42.12057577383404" lon="12.003154257802848"><ele>279.7142857142857</ele><time>2026-04-18T09:38:16.001Z</time></trkpt><trkpt lat="42.12052298673283" lon="12.003088500264912"><ele>278.85714285714283</ele><time>2026-04-18T09:38:17.001Z</time></trkpt><trkpt lat="42.12047369960852" lon="12.00302801987717"><ele>278.0</ele><time>2026-04-18T09:38:18.001Z</time></trkpt><trkpt lat="42.12042850381037" lon="12.002964000472247"><ele>276.6666666666667</ele><time>2026-04-18T09:38:19.001Z</time></trkpt><trkpt lat="42.12038127092341" lon="12.002905914625615"><ele>275.33333333333337</ele><time>2026-04-18T09:38:20.001Z</time></trkpt><trkpt lat="42.12026905314967" lon="12.00284274990008"><ele>274.0</ele><time>2026-04-18T09:38:22.001Z</time></trkpt><trkpt lat="42.12020770609845" lon="12.002817562905452"><ele>272.6666666666667</ele><time>2026-04-18T09:38:23.001Z</time></trkpt><trkpt lat="42.12014160613079" lon="12.00279071825388"><ele>271.3333333333333</ele><time>2026-04-18T09:38:24.001Z</time></trkpt><trkpt lat="42.12007860398463" lon="12.002769746002468"><ele>270.0</ele><time>2026-04-18T09:38:25.001Z</time></trkpt><trkpt lat="42.119985923626174" lon="12.00265792274111"><ele>270.0</ele><time>2026-04-18T09:38:27.001Z</time></trkpt><trkpt lat="42.11995250963524" lon="12.002582834527557"><ele>270.0</ele><time>2026-04-18T09:38:28.001Z</time></trkpt><trkpt lat="42.11988558802692" lon="12.00244031081977"><ele>270.0</ele><time>2026-04-18T09:38:30.001Z</time></trkpt><trkpt lat="42.11979490200927" lon="12.002324720770511"><ele>270.0</ele><time>2026-04-18T09:38:32.001Z</time></trkpt><trkpt lat="42.11972009289898" lon="12.002283727319666"><ele>270.0</ele><time>2026-04-18T09:38:33.001Z</time></trkpt><trkpt lat="42.11965084250433" lon="12.002235168587356"><ele>267.0</ele><time>2026-04-18T09:38:34.001Z</time></trkpt><trkpt lat="42.11959359668659" lon="12.002188700347473"><ele>264.0</ele><time>2026-04-18T09:38:35Z</time></trkpt><trkpt lat="42.11946818463782" lon="12.002114316234614"><ele>261.0</ele><time>2026-04-18T09:38:37Z</time></trkpt><trkpt lat="42.119384995837805" lon="12.002090615712353"><ele>258.0</ele><time>2026-04-18T09:38:38Z</time></trkpt><trkpt lat="42.11930368581262" lon="12.00207855710417"><ele>255.0</ele><time>2026-04-18T09:38:39Z</time></trkpt><trkpt lat="42.11922047606355" lon="12.002075080811705"><ele>255.0</ele><time>2026-04-18T09:38:40Z</time></trkpt><trkpt lat="42.11913546281834" lon="12.002072334846371"><ele>255.0</ele><time>2026-04-18T09:38:41Z</time></trkpt><trkpt lat="42.119068012759705" lon="12.002061280283492"><ele>255.0</ele><time>2026-04-18T09:38:42Z</time></trkpt><trkpt lat="42.118993530476054" lon="12.002034444065453"><ele>255.0</ele><time>2026-04-18T09:38:43Z</time></trkpt><trkpt lat="42.11891442678513" lon="12.001998022596023"><ele>255.0</ele><time>2026-04-18T09:38:44Z</time></trkpt><trkpt lat="42.118829324858915" lon="12.002002381922601"><ele>255.0</ele><time>2026-04-18T09:38:45Z</time></trkpt><trkpt lat="42.11874175959403" lon="12.001997658456812"><ele>253.5</ele><time>2026-04-18T09:38:46Z</time></trkpt><trkpt lat="42.11865488540988" lon="12.002007891042311"><ele>252.0</ele><time>2026-04-18T09:38:47Z</time></trkpt><trkpt lat="42.11857433691204" lon="12.002026901935105"><ele>250.5</ele><time>2026-04-18T09:38:48Z</time></trkpt><trkpt lat="42.11849158561164" lon="12.002048760312153"><ele>249.0</ele><time>2026-04-18T09:38:49Z</time></trkpt><trkpt lat="42.11840854781388" lon="12.002053340825647"><ele>247.5</ele><time>2026-04-18T09:38:50Z</time></trkpt><trkpt lat="42.11832529162403" lon="12.002055705618861"><ele>246.0</ele><time>2026-04-18T09:38:51Z</time></trkpt><trkpt lat="42.118247016338316" lon="12.002051814565975"><ele>246.5</ele><time>2026-04-18T09:38:52Z</time></trkpt><trkpt lat="42.11817284095017" lon="12.002058372792089"><ele>247.0</ele><time>2026-04-18T09:38:53Z</time></trkpt><trkpt lat="42.118099546364974" lon="12.002080318260427"><ele>247.5</ele><time>2026-04-18T09:38:54Z</time></trkpt><trkpt lat="42.118033381089134" lon="12.002111596235826"><ele>248.0</ele><time>2026-04-18T09:38:55Z</time></trkpt><trkpt lat="42.11797223434472" lon="12.002141521448415"><ele>248.5</ele><time>2026-04-18T09:38:56Z</time></trkpt><trkpt lat="42.1178669690498" lon="12.002164722507041"><ele>249.0</ele><time>2026-04-18T09:38:58Z</time></trkpt><trkpt lat="42.117769661858276" lon="12.002196208944506"><ele>249.0</ele><time>2026-04-18T09:39:00Z</time></trkpt><trkpt lat="42.11770585181281" lon="12.002239737284306"><ele>249.0</ele><time>2026-04-18T09:39:02Z</time></trkpt><trkpt lat="42.117622466433254" lon="12.002215046051475"><ele>249.0</ele><time>2026-04-18T09:39:05Z</time></trkpt><trkpt lat="42.117620361061505" lon="12.002127051300649"><ele>249.0</ele><time>2026-04-18T09:39:07Z</time></trkpt><trkpt lat="42.11765095714728" lon="12.002040123430774"><ele>249.0</ele><time>2026-04-18T09:39:09Z</time></trkpt><trkpt lat="42.11769592103092" lon="12.001966068758463"><ele>249.0</ele><time>2026-04-18T09:39:11Z</time></trkpt><trkpt lat="42.117768292193375" lon="12.001856556886947"><ele>249.0</ele><time>2026-04-18T09:39:13Z</time></trkpt><trkpt lat="42.117828577040065" lon="12.001765504824387"><ele>249.0</ele><time>2026-04-18T09:39:15Z</time></trkpt><trkpt lat="42.11790257169369" lon="12.001677369951148"><ele>249.0</ele><time>2026-04-18T09:39:17Z</time></trkpt><trkpt lat="42.11796205856785" lon="12.001559240446626"><ele>249.0</ele><time>2026-04-18T09:39:19Z</time></trkpt><trkpt lat="42.11799701342558" lon="12.001455332273276"><ele>249.0</ele><time>2026-04-18T09:39:21Z</time></trkpt><trkpt lat="42.1180112775909" lon="12.00137230675466"><ele>249.0</ele><time>2026-04-18T09:39:25Z</time></trkpt><trkpt lat="42.118012611774134" lon="12.001257488240789"><ele>250.16666666666666</ele><time>2026-04-18T09:39:47Z</time></trkpt><trkpt lat="42.11799019265779" lon="12.001124907103717"><ele>251.33333333333331</ele><time>2026-04-18T09:39:49Z</time></trkpt><trkpt lat="42.11796809362248" lon="12.00104110817821"><ele>252.5</ele><time>2026-04-18T09:39:50Z</time></trkpt><trkpt lat="42.117930598601205" lon="12.00095459877713"><ele>253.66666666666666</ele><time>2026-04-18T09:39:51Z</time></trkpt><trkpt lat="42.11787970722641" lon="12.000851580357374"><ele>254.83333333333331</ele><time>2026-04-18T09:39:52Z</time></trkpt><trkpt lat="42.11783919029992" lon="12.000723214087829"><ele>256.0</ele><time>2026-04-18T09:39:53Z</time></trkpt><trkpt lat="42.11779677196327" lon="12.0006118963407"><ele>256.8</ele><time>2026-04-18T09:39:54Z</time></trkpt><trkpt lat="42.117751949002205" lon="12.000516645911869"><ele>257.6</ele><time>2026-04-18T09:39:55Z</time></trkpt><trkpt lat="42.117719473909844" lon="12.000433729774642"><ele>258.4</ele><time>2026-04-18T09:39:56Z</time></trkpt><trkpt lat="42.117672053375" lon="12.000303033242407"><ele>259.2</ele><time>2026-04-18T09:39:58Z</time></trkpt><trkpt lat="42.117606046276784" lon="12.000194980470626"><ele>260.0</ele><time>2026-04-18T09:40:01.001Z</time></trkpt><trkpt lat="42.117548613593236" lon="12.000108704879016"><ele>260.0</ele><time>2026-04-18T09:40:03.001Z</time></trkpt><trkpt lat="42.11750421461925" lon="11.999994467741981"><ele>260.0</ele><time>2026-04-18T09:40:05.001Z</time></trkpt><trkpt lat="42.117460577792386" lon="11.99988602022992"><ele>260.0</ele><time>2026-04-18T09:40:07.001Z</time></trkpt><trkpt lat="42.11744203489315" lon="11.99979796569308"><ele>260.0</ele><time>2026-04-18T09:40:09.001Z</time></trkpt><trkpt lat="42.117414339711345" lon="11.999718719321839"><ele>260.0</ele><time>2026-04-18T09:40:17.001Z</time></trkpt><trkpt lat="42.11737214657401" lon="11.999645076933191"><ele>260.0</ele><time>2026-04-18T09:40:21.001Z</time></trkpt><trkpt lat="42.11732425956396" lon="11.99951480081425"><ele>263.5</ele><time>2026-04-18T09:41:14Z</time></trkpt><trkpt lat="42.11726829450519" lon="11.99946294515617"><ele>267.0</ele><time>2026-04-18T09:41:19Z</time></trkpt><trkpt lat="42.117220884357934" lon="11.999360775159733"><ele>270.5</ele><time>2026-04-18T09:41:21Z</time></trkpt><trkpt lat="42.1171864035452" lon="11.999280741614944"><ele>274.0</ele><time>2026-04-18T09:41:25Z</time></trkpt><trkpt lat="42.11714650949099" lon="11.999213194424954"><ele>277.5</ele><time>2026-04-18T09:41:58Z</time></trkpt><trkpt lat="42.11708773251762" lon="11.999164798632053"><ele>281.0</ele><time>2026-04-18T09:42:02Z</time></trkpt><trkpt lat="42.11702414177359" lon="11.998987306851564"><ele>281.33333333333337</ele><time>2026-04-18T09:43:10Z</time></trkpt><trkpt lat="42.11700143628842" lon="11.998895811806616"><ele>281.6666666666667</ele><time>2026-04-18T09:43:53Z</time></trkpt><trkpt lat="42.11697388291091" lon="11.998817192345582"><ele>282.0</ele><time>2026-04-18T09:43:58Z</time></trkpt><trkpt lat="42.11696478289093" lon="11.998713931628458"><ele>282.3333333333333</ele><time>2026-04-18T09:44:01Z</time></trkpt><trkpt lat="42.11693515647388" lon="11.998638539273825"><ele>282.66666666666663</ele><time>2026-04-18T09:44:04Z</time></trkpt><trkpt lat="42.116825327190654" lon="11.99845954957892"><ele>283.0</ele><time>2026-04-18T09:44:05Z</time></trkpt><trkpt lat="42.11678253061789" lon="11.998336275357381"><ele>283.0</ele><time>2026-04-18T09:44:07Z</time></trkpt><trkpt lat="42.116749019384244" lon="11.998232081996441"><ele>283.0</ele><time>2026-04-18T09:44:09Z</time></trkpt><trkpt lat="42.11681987515054" lon="11.9981472762925"><ele>283.0</ele><time>2026-04-18T09:44:12Z</time></trkpt><trkpt lat="42.11683446813662" lon="11.998238992097619"><ele>283.0</ele><time>2026-04-18T09:44:16Z</time></trkpt><trkpt lat="42.116816113597736" lon="11.998324617905197"><ele>283.0</ele><time>2026-04-18T09:44:21Z</time></trkpt><trkpt lat="42.11679771912649" lon="11.998409013184862"><ele>283.0</ele><time>2026-04-18T09:44:37.001Z</time></trkpt><trkpt lat="42.1167749490996" lon="11.998298271984618"><ele>283.16666666666663</ele><time>2026-04-18T09:53:35Z</time></trkpt><trkpt lat="42.11677474817718" lon="11.998201150380249"><ele>283.3333333333333</ele><time>2026-04-18T09:53:37Z</time></trkpt><trkpt lat="42.11676488669181" lon="11.99808805094322"><ele>283.5</ele><time>2026-04-18T09:53:39Z</time></trkpt><trkpt lat="42.116731064604124" lon="11.998001674800893"><ele>283.6666666666667</ele><time>2026-04-18T09:53:41Z</time></trkpt><trkpt lat="42.11665564026064" lon="11.997958640649205"><ele>283.83333333333337</ele><time>2026-04-18T09:53:44Z</time></trkpt><trkpt lat="42.11657202502702" lon="11.99797333088477"><ele>284.0</ele><time>2026-04-18T09:53:47Z</time></trkpt><trkpt lat="42.11649946547815" lon="11.997994307870176"><ele>286.8</ele><time>2026-04-18T09:53:50Z</time></trkpt><trkpt lat="42.11641475478123" lon="11.998043279977542"><ele>289.59999999999997</ele><time>2026-04-18T09:53:52Z</time></trkpt><trkpt lat="42.1163306502345" lon="11.99811724621248"><ele>292.4</ele><time>2026-04-18T09:53:54Z</time></trkpt><trkpt lat="42.11626059759864" lon="11.998194453033953"><ele>295.2</ele><time>2026-04-18T09:53:56Z</time></trkpt><trkpt lat="42.11617817284052" lon="11.998257286687021"><ele>298.0</ele><time>2026-04-18T09:53:58Z</time></trkpt><trkpt lat="42.11614097342658" lon="11.998356605840069"><ele>299.3333333333333</ele><time>2026-04-18T09:54:01Z</time></trkpt><trkpt lat="42.11614778183824" lon="11.998451419103464"><ele>300.66666666666663</ele><time>2026-04-18T09:54:04Z</time></trkpt><trkpt lat="42.11612951799045" lon="11.99858503218454"><ele>302.0</ele><time>2026-04-18T09:54:07Z</time></trkpt><trkpt lat="42.11612294727213" lon="11.998671383302991"><ele>303.3333333333333</ele><time>2026-04-18T09:54:10Z</time></trkpt><trkpt lat="42.11607504852218" lon="11.998748881223575"><ele>304.6666666666667</ele><time>2026-04-18T09:54:15Z</time></trkpt><trkpt lat="42.11599353652031" lon="11.998806718904847"><ele>306.0</ele><time>2026-04-18T09:54:19Z</time></trkpt><trkpt lat="42.11589964062144" lon="11.99891950328282"><ele>306.0</ele><time>2026-04-18T09:54:22Z</time></trkpt><trkpt lat="42.11584796783628" lon="11.998978243597252"><ele>306.0</ele><time>2026-04-18T09:54:24Z</time></trkpt><trkpt lat="42.11578051076601" lon="11.999084398834217"><ele>306.0</ele><time>2026-04-18T09:54:26Z</time></trkpt><trkpt lat="42.11572223443541" lon="11.999147885716221"><ele>306.0</ele><time>2026-04-18T09:54:30Z</time></trkpt><trkpt lat="42.11566458203201" lon="11.999186631638233"><ele>306.0</ele><time>2026-04-18T09:54:33.001Z</time></trkpt><trkpt lat="42.11560000238652" lon="11.999242728917624"><ele>306.0</ele><time>2026-04-18T09:54:41.001Z</time></trkpt><trkpt lat="42.11547953813989" lon="11.99923575048401"><ele>306.8333333333333</ele><time>2026-04-18T09:54:45.001Z</time></trkpt><trkpt lat="42.1153908840719" lon="11.99930054704124"><ele>307.6666666666667</ele><time>2026-04-18T09:54:47.001Z</time></trkpt><trkpt lat="42.115310644945495" lon="11.999340046490248"><ele>308.5</ele><time>2026-04-18T09:54:49.001Z</time></trkpt><trkpt lat="42.115244571647345" lon="11.999374174695715"><ele>309.33333333333337</ele><time>2026-04-18T09:54:51.001Z</time></trkpt><trkpt lat="42.1151751813402" lon="11.999359354387028"><ele>310.1666666666667</ele><time>2026-04-18T09:54:55.001Z</time></trkpt><trkpt lat="42.11513114541581" lon="11.999275412758099"><ele>311.0</ele><time>2026-04-18T09:54:58.001Z</time></trkpt><trkpt lat="42.11505792038648" lon="11.999251567224109"><ele>311.0</ele><time>2026-04-18T09:55:08.001Z</time></trkpt><trkpt lat="42.1149618815682" lon="11.999245314875076"><ele>311.0</ele><time>2026-04-18T09:55:38Z</time></trkpt><trkpt lat="42.11487043645285" lon="11.999181013550253"><ele>311.0</ele><time>2026-04-18T09:55:40Z</time></trkpt><trkpt lat="42.11480594606583" lon="11.999079624645468"><ele>311.0</ele><time>2026-04-18T09:55:42Z</time></trkpt><trkpt lat="42.114739157107735" lon="11.998967835429719"><ele>311.0</ele><time>2026-04-18T09:55:44Z</time></trkpt><trkpt lat="42.1146398606416" lon="11.998878757297161"><ele>313.8</ele><time>2026-04-18T09:55:46Z</time></trkpt><trkpt lat="42.11455717304847" lon="11.998833759025088"><ele>316.6</ele><time>2026-04-18T09:55:48Z</time></trkpt><trkpt lat="42.11450332294638" lon="11.998780447833777"><ele>319.4</ele><time>2026-04-18T09:55:50Z</time></trkpt><trkpt lat="42.11446679037375" lon="11.998659275077149"><ele>322.2</ele><time>2026-04-18T09:55:52Z</time></trkpt><trkpt lat="42.11438515923003" lon="11.998617794482007"><ele>325.0</ele><time>2026-04-18T09:55:54Z</time></trkpt><trkpt lat="42.11427450915609" lon="11.998548639541902"><ele>325.0</ele><time>2026-04-18T09:55:56Z</time></trkpt><trkpt lat="42.11422284871224" lon="11.998499601888955"><ele>325.0</ele><time>2026-04-18T09:55:57Z</time></trkpt><trkpt lat="42.11415138449974" lon="11.998421730451954"><ele>325.0</ele><time>2026-04-18T09:55:59Z</time></trkpt><trkpt lat="42.11414691415294" lon="11.998304636830417"><ele>325.0</ele><time>2026-04-18T09:56:02Z</time></trkpt><trkpt lat="42.11409153348749" lon="11.998219467303919"><ele>325.0</ele><time>2026-04-18T09:56:04Z</time></trkpt><trkpt lat="42.11401773372027" lon="11.998133379574641"><ele>325.0</ele><time>2026-04-18T09:56:05Z</time></trkpt><trkpt lat="42.11395034514315" lon="11.99805666642521"><ele>327.8333333333333</ele><time>2026-04-18T09:56:06Z</time></trkpt><trkpt lat="42.11388136408094" lon="11.997999094778644"><ele>330.66666666666663</ele><time>2026-04-18T09:56:07Z</time></trkpt><trkpt lat="42.11380143008819" lon="11.997969848695837"><ele>333.5</ele><time>2026-04-18T09:56:08Z</time></trkpt><trkpt lat="42.11371812838223" lon="11.997952406303792"><ele>336.3333333333333</ele><time>2026-04-18T09:56:09Z</time></trkpt><trkpt lat="42.11364581496521" lon="11.997950723609822"><ele>339.1666666666667</ele><time>2026-04-18T09:56:10Z</time></trkpt><trkpt lat="42.113579785644895" lon="11.997947022154786"><ele>342.0</ele><time>2026-04-18T09:56:11Z</time></trkpt><trkpt lat="42.1135171735798" lon="11.997928522470863"><ele>342.0</ele><time>2026-04-18T09:56:12Z</time></trkpt><trkpt lat="42.113458562147514" lon="11.997893079630144"><ele>342.0</ele><time>2026-04-18T09:56:13Z</time></trkpt><trkpt lat="42.113376971250574" lon="11.997833442291428"><ele>342.0</ele><time>2026-04-18T09:56:15Z</time></trkpt><trkpt lat="42.113315226690496" lon="11.997788733040636"><ele>342.0</ele><time>2026-04-18T09:56:17Z</time></trkpt><trkpt lat="42.11325858428575" lon="11.997856020553892"><ele>342.0</ele><time>2026-04-18T09:56:20Z</time></trkpt><trkpt lat="42.11324860043644" lon="11.997957476238696"><ele>342.0</ele><time>2026-04-18T09:56:22Z</time></trkpt><trkpt lat="42.113202615500064" lon="11.998067328766489"><ele>339.6</ele><time>2026-04-18T09:56:24Z</time></trkpt><trkpt lat="42.1131632738546" lon="11.998188471437315"><ele>337.20000000000005</ele><time>2026-04-18T09:56:26Z</time></trkpt><trkpt lat="42.113126911811484" lon="11.998334546542631"><ele>334.8</ele><time>2026-04-18T09:56:28Z</time></trkpt><trkpt lat="42.11307161034246" lon="11.99847749523124"><ele>332.4</ele><time>2026-04-18T09:56:30Z</time></trkpt><trkpt lat="42.11299067247257" lon="11.99857846900208"><ele>330.0</ele><time>2026-04-18T09:56:32Z</time></trkpt><trkpt lat="42.112927987160624" lon="11.998648425650288"><ele>328.8333333333333</ele><time>2026-04-18T09:56:34Z</time></trkpt><trkpt lat="42.112860620179426" lon="11.998642764911338"><ele>327.6666666666667</ele><time>2026-04-18T09:56:36Z</time></trkpt><trkpt lat="42.112783180281916" lon="11.99861877659119"><ele>326.5</ele><time>2026-04-18T09:56:38Z</time></trkpt><trkpt lat="42.11268455975082" lon="11.998567214025988"><ele>325.33333333333337</ele><time>2026-04-18T09:56:40Z</time></trkpt><trkpt lat="42.11257253899306" lon="11.998489331876614"><ele>324.1666666666667</ele><time>2026-04-18T09:56:42Z</time></trkpt><trkpt lat="42.11251236707848" lon="11.998456418061732"><ele>323.0</ele><time>2026-04-18T09:56:43Z</time></trkpt><trkpt lat="42.112422235984155" lon="11.998424072417645"><ele>321.0</ele><time>2026-04-18T09:56:45Z</time></trkpt><trkpt lat="42.112361825130236" lon="11.99838365241898"><ele>319.0</ele><time>2026-04-18T09:56:50Z</time></trkpt><trkpt lat="42.11235974116364" lon="11.998255960982855"><ele>317.0</ele><time>2026-04-18T09:56:53Z</time></trkpt><trkpt lat="42.1123510680916" lon="11.998078450888833"><ele>315.0</ele><time>2026-04-18T09:56:55Z</time></trkpt><trkpt lat="42.112346283151695" lon="11.99799048094456"><ele>313.0</ele><time>2026-04-18T09:56:56Z</time></trkpt><trkpt lat="42.11231450324995" lon="11.99791344249306"><ele>311.0</ele><time>2026-04-18T09:56:57.001Z</time></trkpt><trkpt lat="42.11226282305782" lon="11.997835593368256"><ele>311.0</ele><time>2026-04-18T09:56:58.001Z</time></trkpt><trkpt lat="42.11220659696102" lon="11.997751854734116"><ele>311.0</ele><time>2026-04-18T09:56:59.001Z</time></trkpt><trkpt lat="42.11216395056027" lon="11.997670633473678"><ele>311.0</ele><time>2026-04-18T09:57:00.001Z</time></trkpt><trkpt lat="42.112114336060685" lon="11.99755141426167"><ele>311.0</ele><time>2026-04-18T09:57:02.001Z</time></trkpt><trkpt lat="42.11206024786392" lon="11.997439012425053"><ele>311.0</ele><time>2026-04-18T09:57:04.001Z</time></trkpt><trkpt lat="42.11198513730369" lon="11.997352156915522"><ele>311.6</ele><time>2026-04-18T09:57:06.001Z</time></trkpt><trkpt lat="42.11189286574557" lon="11.997327298933007"><ele>312.20000000000005</ele><time>2026-04-18T09:57:08.001Z</time></trkpt><trkpt lat="42.111778474842396" lon="11.997346677875145"><ele>312.79999999999995</ele><time>2026-04-18T09:57:10.001Z</time></trkpt><trkpt lat="42.11168950099657" lon="11.997352477338703"><ele>313.4</ele><time>2026-04-18T09:57:12.001Z</time></trkpt><trkpt lat="42.11161834670755" lon="11.997341261246035"><ele>314.0</ele><time>2026-04-18T09:57:14.001Z</time></trkpt><trkpt lat="42.111536991009544" lon="11.997316010220864"><ele>314.0</ele><time>2026-04-18T09:57:18.001Z</time></trkpt><trkpt lat="42.11153405474773" lon="11.99721340631924"><ele>314.0</ele><time>2026-04-18T09:57:20.001Z</time></trkpt><trkpt lat="42.111617827309885" lon="11.99716762564716"><ele>314.0</ele><time>2026-04-18T09:57:22.001Z</time></trkpt><trkpt lat="42.11170737393365" lon="11.997224758103968"><ele>314.0</ele><time>2026-04-18T09:57:24.001Z</time></trkpt><trkpt lat="42.11180034551543" lon="11.997328163058018"><ele>314.0</ele><time>2026-04-18T09:57:26.001Z</time></trkpt><trkpt lat="42.11190268411039" lon="11.997382305401734"><ele>313.4</ele><time>2026-04-18T09:57:28.001Z</time></trkpt><trkpt lat="42.11202075849302" lon="11.99741013087177"><ele>312.79999999999995</ele><time>2026-04-18T09:57:30Z</time></trkpt><trkpt lat="42.11209374786926" lon="11.997517467699657"><ele>312.20000000000005</ele><time>2026-04-18T09:57:32Z</time></trkpt><trkpt lat="42.11213635198318" lon="11.997649632311134"><ele>311.6</ele><time>2026-04-18T09:57:34Z</time></trkpt><trkpt lat="42.1122020803017" lon="11.997763503414815"><ele>311.0</ele><time>2026-04-18T09:57:36Z</time></trkpt><trkpt lat="42.11227653655193" lon="11.997865156076035"><ele>311.0</ele><time>2026-04-18T09:57:38Z</time></trkpt><trkpt lat="42.11231348848923" lon="11.997955811542864"><ele>311.0</ele><time>2026-04-18T09:57:40Z</time></trkpt><trkpt lat="42.11234854317164" lon="11.998082401636003"><ele>311.0</ele><time>2026-04-18T09:57:42Z</time></trkpt><trkpt lat="42.11233872096934" lon="11.998260740217829"><ele>311.0</ele><time>2026-04-18T09:57:44Z</time></trkpt><trkpt lat="42.1123351434936" lon="11.998366023887286"><ele>311.0</ele><time>2026-04-18T09:57:45Z</time></trkpt><trkpt lat="42.112330963504235" lon="11.99849099778789"><ele>309.6666666666667</ele><time>2026-04-18T09:57:46Z</time></trkpt><trkpt lat="42.112326336037604" lon="11.998610590189804"><ele>308.33333333333337</ele><time>2026-04-18T09:57:47Z</time></trkpt><trkpt lat="42.11232372146306" lon="11.998715892550882"><ele>307.0</ele><time>2026-04-18T09:57:48Z</time></trkpt><trkpt lat="42.11232890221126" lon="11.998816591286193"><ele>305.6666666666667</ele><time>2026-04-18T09:57:49Z</time></trkpt><trkpt lat="42.11233833352888" lon="11.998914351280494"><ele>304.3333333333333</ele><time>2026-04-18T09:57:50Z</time></trkpt><trkpt lat="42.11235079725493" lon="11.999002842181826"><ele>303.0</ele><time>2026-04-18T09:57:51Z</time></trkpt><trkpt lat="42.11237854966846" lon="11.9991560403826"><ele>304.8333333333333</ele><time>2026-04-18T09:57:53Z</time></trkpt><trkpt lat="42.11241106292822" lon="11.999301073109587"><ele>306.6666666666667</ele><time>2026-04-18T09:57:55Z</time></trkpt><trkpt lat="42.112432075053384" lon="11.999392649115185"><ele>308.5</ele><time>2026-04-18T09:57:56Z</time></trkpt><trkpt lat="42.1124437312635" lon="11.999492002317908"><ele>310.33333333333337</ele><time>2026-04-18T09:57:57Z</time></trkpt><trkpt lat="42.11243986909122" lon="11.999586839607257"><ele>312.1666666666667</ele><time>2026-04-18T09:57:58Z</time></trkpt><trkpt lat="42.11242956309362" lon="11.999684059911614"><ele>314.0</ele><time>2026-04-18T09:57:59Z</time></trkpt><trkpt lat="42.11241079109904" lon="11.999774749154659"><ele>311.0</ele><time>2026-04-18T09:58:00Z</time></trkpt><trkpt lat="42.11238253096644" lon="11.999870479683606"><ele>308.0</ele><time>2026-04-18T09:58:01Z</time></trkpt><trkpt lat="42.11234034139028" lon="11.999954817427307"><ele>305.0</ele><time>2026-04-18T09:58:02Z</time></trkpt><trkpt lat="42.11230662508669" lon="12.000038146422467"><ele>302.0</ele><time>2026-04-18T09:58:03Z</time></trkpt><trkpt lat="42.1122853847422" lon="12.000182145880826"><ele>299.0</ele><time>2026-04-18T09:58:05Z</time></trkpt><trkpt lat="42.11227547068389" lon="12.00026956415233"><ele>296.0</ele><time>2026-04-18T09:58:06Z</time></trkpt><trkpt lat="42.11226049702966" lon="12.000365424371106"><ele>296.0</ele><time>2026-04-18T09:58:07Z</time></trkpt><trkpt lat="42.11224276633054" lon="12.000456147917486"><ele>296.0</ele><time>2026-04-18T09:58:08Z</time></trkpt><trkpt lat="42.11221476500729" lon="12.000571070660198"><ele>296.0</ele><time>2026-04-18T09:58:09Z</time></trkpt><trkpt lat="42.11218385834494" lon="12.000687093744862"><ele>296.0</ele><time>2026-04-18T09:58:10Z</time></trkpt><trkpt lat="42.11216527320086" lon="12.0007960629527"><ele>296.0</ele><time>2026-04-18T09:58:11Z</time></trkpt><trkpt lat="42.11215210558478" lon="12.000928926445834"><ele>296.0</ele><time>2026-04-18T09:58:13Z</time></trkpt><trkpt lat="42.11218340931343" lon="12.001025392815498"><ele>295.83333333333337</ele><time>2026-04-18T09:58:15Z</time></trkpt><trkpt lat="42.112180378181684" lon="12.001158324340146"><ele>295.6666666666667</ele><time>2026-04-18T09:58:17Z</time></trkpt><trkpt lat="42.11215991994201" lon="12.001241559507669"><ele>295.5</ele><time>2026-04-18T09:58:18Z</time></trkpt><trkpt lat="42.11214831230227" lon="12.001339529466296"><ele>295.3333333333333</ele><time>2026-04-18T09:58:19Z</time></trkpt><trkpt lat="42.112147512621824" lon="12.001462683966192"><ele>295.16666666666663</ele><time>2026-04-18T09:58:20Z</time></trkpt><trkpt lat="42.11214811500477" lon="12.001560337261242"><ele>295.0</ele><time>2026-04-18T09:58:21Z</time></trkpt><trkpt lat="42.112149107398906" lon="12.00170524027306"><ele>295.0</ele><time>2026-04-18T09:58:23Z</time></trkpt><trkpt lat="42.11213412518069" lon="12.001801203420225"><ele>295.0</ele><time>2026-04-18T09:58:25Z</time></trkpt><trkpt lat="42.11205187449936" lon="12.001884041236183"><ele>295.0</ele><time>2026-04-18T09:58:28Z</time></trkpt><trkpt lat="42.112008865937064" lon="12.002027676317017"><ele>295.0</ele><time>2026-04-18T09:58:30Z</time></trkpt><trkpt lat="42.11194295455517" lon="12.002141957365858"><ele>295.0</ele><time>2026-04-18T09:58:32Z</time></trkpt><trkpt lat="42.11185616071553" lon="12.002225573653316"><ele>295.0</ele><time>2026-04-18T09:58:34.001Z</time></trkpt><trkpt lat="42.111803862810305" lon="12.002392223640244"><ele>295.0</ele><time>2026-04-18T09:58:36.001Z</time></trkpt><trkpt lat="42.11177939897399" lon="12.002506422068706"><ele>295.0</ele><time>2026-04-18T09:58:37.001Z</time></trkpt><trkpt lat="42.111761289518256" lon="12.002616510903218"><ele>295.0</ele><time>2026-04-18T09:58:38.001Z</time></trkpt><trkpt lat="42.11175349485848" lon="12.002735741998917"><ele>295.0</ele><time>2026-04-18T09:58:39.001Z</time></trkpt><trkpt lat="42.11173433894666" lon="12.002841450702059"><ele>294.66666666666663</ele><time>2026-04-18T09:58:40.001Z</time></trkpt><trkpt lat="42.11171079279327" lon="12.002920766036725"><ele>294.3333333333333</ele><time>2026-04-18T09:58:41.001Z</time></trkpt><trkpt lat="42.11167076495293" lon="12.003018678103945"><ele>294.0</ele><time>2026-04-18T09:58:43.001Z</time></trkpt><trkpt lat="42.111580500600304" lon="12.003079239526459"><ele>293.6666666666667</ele><time>2026-04-18T09:58:45.001Z</time></trkpt><trkpt lat="42.11148070726899" lon="12.003124446136388"><ele>293.33333333333337</ele><time>2026-04-18T09:58:47.001Z</time></trkpt><trkpt lat="42.11141529488988" lon="12.003132334749752"><ele>293.0</ele><time>2026-04-18T09:58:48.001Z</time></trkpt><trkpt lat="42.111351850699535" lon="12.003147519502061"><ele>289.5</ele><time>2026-04-18T09:58:49.001Z</time></trkpt><trkpt lat="42.1112876461609" lon="12.003155925935388"><ele>286.0</ele><time>2026-04-18T09:58:50.001Z</time></trkpt><trkpt lat="42.111218984607476" lon="12.003151572090745"><ele>282.5</ele><time>2026-04-18T09:58:51.001Z</time></trkpt><trkpt lat="42.111152963423805" lon="12.00313863118806"><ele>279.0</ele><time>2026-04-18T09:58:52.001Z</time></trkpt><trkpt lat="42.111037240048546" lon="12.003142339469274"><ele>275.5</ele><time>2026-04-18T09:58:54.001Z</time></trkpt><trkpt lat="42.11095794940056" lon="12.003179700962585"><ele>272.0</ele><time>2026-04-18T09:58:56.001Z</time></trkpt><trkpt lat="42.11090749141754" lon="12.00326646729909"><ele>271.6666666666667</ele><time>2026-04-18T09:58:58.001Z</time></trkpt><trkpt lat="42.11090127148245" lon="12.003394303294456"><ele>271.33333333333337</ele><time>2026-04-18T09:59:01.001Z</time></trkpt><trkpt lat="42.11089689126688" lon="12.003517351948501"><ele>271.0</ele><time>2026-04-18T09:59:03.001Z</time></trkpt><trkpt lat="42.110884286964975" lon="12.003608569581822"><ele>270.6666666666667</ele><time>2026-04-18T09:59:04.001Z</time></trkpt><trkpt lat="42.11086530290742" lon="12.003710983508057"><ele>270.3333333333333</ele><time>2026-04-18T09:59:05.001Z</time></trkpt><trkpt lat="42.110855806995495" lon="12.003808702496595"><ele>270.0</ele><time>2026-04-18T09:59:06.001Z</time></trkpt><trkpt lat="42.11083098498248" lon="12.003941798884744"><ele>270.0</ele><time>2026-04-18T09:59:08.001Z</time></trkpt><trkpt lat="42.11075956887141" lon="12.00404153267307"><ele>270.0</ele><time>2026-04-18T09:59:10.001Z</time></trkpt><trkpt lat="42.11069118593342" lon="12.004114867330522"><ele>270.0</ele><time>2026-04-18T09:59:12.001Z</time></trkpt><trkpt lat="42.11063288782056" lon="12.004233902515468"><ele>270.0</ele><time>2026-04-18T09:59:14.001Z</time></trkpt><trkpt lat="42.11061532069277" lon="12.004361374220027"><ele>270.0</ele><time>2026-04-18T09:59:16.001Z</time></trkpt><trkpt lat="42.110592930044504" lon="12.004479205160532"><ele>266.6</ele><time>2026-04-18T09:59:18.001Z</time></trkpt><trkpt lat="42.11050269681123" lon="12.004625196246113"><ele>263.2</ele><time>2026-04-18T09:59:20.001Z</time></trkpt><trkpt lat="42.11045473833928" lon="12.004745505761589"><ele>259.8</ele><time>2026-04-18T09:59:21.001Z</time></trkpt><trkpt lat="42.11040372464993" lon="12.004864710401447"><ele>256.4</ele><time>2026-04-18T09:59:22.001Z</time></trkpt><trkpt lat="42.11035672059344" lon="12.004958645753927"><ele>253.0</ele><time>2026-04-18T09:59:23.001Z</time></trkpt><trkpt lat="42.110279302069905" lon="12.005052006156026"><ele>253.0</ele><time>2026-04-18T09:59:25.001Z</time></trkpt><trkpt lat="42.11016992472995" lon="12.005139168063831"><ele>253.0</ele><time>2026-04-18T09:59:27.001Z</time></trkpt><trkpt lat="42.1100652115429" lon="12.005208654131929"><ele>253.0</ele><time>2026-04-18T09:59:29.001Z</time></trkpt><trkpt lat="42.10997200833146" lon="12.005211473422701"><ele>253.0</ele><time>2026-04-18T09:59:31.001Z</time></trkpt><trkpt lat="42.10986465449442" lon="12.00519361514289"><ele>253.0</ele><time>2026-04-18T09:59:33.001Z</time></trkpt><trkpt lat="42.10977177471896" lon="12.00516725158194"><ele>250.83333333333331</ele><time>2026-04-18T09:59:35Z</time></trkpt><trkpt lat="42.109708848904" lon="12.005141637720355"><ele>248.66666666666666</ele><time>2026-04-18T09:59:37Z</time></trkpt><trkpt lat="42.10964312657742" lon="12.005098478028103"><ele>246.5</ele><time>2026-04-18T09:59:39Z</time></trkpt><trkpt lat="42.109557174438535" lon="12.005035722283166"><ele>244.33333333333331</ele><time>2026-04-18T09:59:43Z</time></trkpt><trkpt lat="42.10950019470224" lon="12.0049730959073"><ele>242.16666666666666</ele><time>2026-04-18T09:59:45Z</time></trkpt><trkpt lat="42.109490545332235" lon="12.004814792094457"><ele>240.0</ele><time>2026-04-18T09:59:47Z</time></trkpt><trkpt lat="42.10945700576863" lon="12.004648149864591"><ele>240.0</ele><time>2026-04-18T09:59:49Z</time></trkpt><trkpt lat="42.109433225249276" lon="12.004514789938545"><ele>240.0</ele><time>2026-04-18T09:59:51Z</time></trkpt><trkpt lat="42.10931646498376" lon="12.004514325277324"><ele>240.0</ele><time>2026-04-18T09:59:53Z</time></trkpt><trkpt lat="42.10924871404548" lon="12.004549220091555"><ele>240.0</ele><time>2026-04-18T09:59:54Z</time></trkpt><trkpt lat="42.10916379283526" lon="12.00461935571811"><ele>240.0</ele><time>2026-04-18T09:59:55Z</time></trkpt><trkpt lat="42.10908592396824" lon="12.004670180261156"><ele>239.4</ele><time>2026-04-18T09:59:56Z</time></trkpt><trkpt lat="42.109024645486215" lon="12.004700260293184"><ele>238.8</ele><time>2026-04-18T09:59:57Z</time></trkpt><trkpt lat="42.10895190740374" lon="12.00475019894584"><ele>238.2</ele><time>2026-04-18T09:59:58Z</time></trkpt><trkpt lat="42.10889742254735" lon="12.004802904920068"><ele>237.6</ele><time>2026-04-18T09:59:59Z</time></trkpt><trkpt lat="42.108803518534266" lon="12.004830110375266"><ele>237.0</ele><time>2026-04-18T10:00:01Z</time></trkpt><trkpt lat="42.10852740106898" lon="12.004843947386167"><ele>237.0</ele><time>2026-04-18T10:00:05Z</time></trkpt><trkpt lat="42.10844326693135" lon="12.004737107612819"><ele>237.0</ele><time>2026-04-18T10:00:07Z</time></trkpt><trkpt lat="42.108374995505955" lon="12.004649246398541"><ele>237.0</ele><time>2026-04-18T10:00:08Z</time></trkpt><trkpt lat="42.1083019628939" lon="12.004578156352135"><ele>237.0</ele><time>2026-04-18T10:00:09Z</time></trkpt><trkpt lat="42.1082196529276" lon="12.004462569396967"><ele>237.0</ele><time>2026-04-18T10:00:10Z</time></trkpt><trkpt lat="42.108131443852905" lon="12.004321295935945"><ele>236.8</ele><time>2026-04-18T10:00:11Z</time></trkpt><trkpt lat="42.108046314578864" lon="12.004231692955935"><ele>236.6</ele><time>2026-04-18T10:00:12Z</time></trkpt><trkpt lat="42.107976576472105" lon="12.004144841205157"><ele>236.40000000000003</ele><time>2026-04-18T10:00:13Z</time></trkpt><trkpt lat="42.107899696988426" lon="12.004026478119645"><ele>236.20000000000002</ele><time>2026-04-18T10:00:15Z</time></trkpt><trkpt lat="42.107902486313876" lon="12.003937510291742"><ele>236.0</ele><time>2026-04-18T10:00:16Z</time></trkpt><trkpt lat="42.10789811558981" lon="12.003814742817415"><ele>236.33333333333334</ele><time>2026-04-18T10:00:18Z</time></trkpt><trkpt lat="42.10788299138984" lon="12.003726815753032"><ele>236.66666666666669</ele><time>2026-04-18T10:00:21Z</time></trkpt><trkpt lat="42.107814992586725" lon="12.003708965157593"><ele>237.0</ele><time>2026-04-18T10:00:24Z</time></trkpt><trkpt lat="42.107753644375805" lon="12.003781115943129"><ele>237.33333333333331</ele><time>2026-04-18T10:00:33.001Z</time></trkpt><trkpt lat="42.10766192498763" lon="12.003821742792544"><ele>237.66666666666666</ele><time>2026-04-18T10:00:36.001Z</time></trkpt><trkpt lat="42.10757799888468" lon="12.003931798913671"><ele>238.0</ele><time>2026-04-18T10:00:38.001Z</time></trkpt><trkpt lat="42.10752022447489" lon="12.00402743039517"><ele>237.99999999999997</ele><time>2026-04-18T10:00:39.001Z</time></trkpt><trkpt lat="42.10746614888221" lon="12.00410261646032"><ele>238.0</ele><time>2026-04-18T10:00:40.001Z</time></trkpt><trkpt lat="42.107361872300956" lon="12.004181696116044"><ele>238.0</ele><time>2026-04-18T10:00:42.001Z</time></trkpt><trkpt lat="42.10730530711433" lon="12.004229061251879"><ele>238.0</ele><time>2026-04-18T10:00:43.001Z</time></trkpt><trkpt lat="42.107213228663475" lon="12.00431013259222"><ele>237.99999999999997</ele><time>2026-04-18T10:00:45.001Z</time></trkpt><trkpt lat="42.10714899335243" lon="12.004273820880904"><ele>238.0</ele><time>2026-04-18T10:00:48.001Z</time></trkpt><trkpt lat="42.10706176922534" lon="12.004306985592462"><ele>238.33333333333331</ele><time>2026-04-18T10:00:51.001Z</time></trkpt><trkpt lat="42.10700491865395" lon="12.004352992435342"><ele>238.66666666666666</ele><time>2026-04-18T10:00:53.001Z</time></trkpt><trkpt lat="42.10690862332763" lon="12.00443637246611"><ele>239.0</ele><time>2026-04-18T10:00:56.001Z</time></trkpt><trkpt lat="42.10683816558041" lon="12.004432216025732"><ele>239.33333333333331</ele><time>2026-04-18T10:00:57.001Z</time></trkpt><trkpt lat="42.10678156013366" lon="12.004369658884746"><ele>239.66666666666666</ele><time>2026-04-18T10:00:59.001Z</time></trkpt><trkpt lat="42.106810998893515" lon="12.004445702631854"><ele>240.0</ele><time>2026-04-18T10:01:20.001Z</time></trkpt><trkpt lat="42.106881390423474" lon="12.004514658468114"><ele>240.0</ele><time>2026-04-18T10:01:22.001Z</time></trkpt><trkpt lat="42.106927875956295" lon="12.00463374400337"><ele>240.0</ele><time>2026-04-18T10:01:24.001Z</time></trkpt><trkpt lat="42.10693554695089" lon="12.00477346411375"><ele>240.0</ele><time>2026-04-18T10:01:26.001Z</time></trkpt><trkpt lat="42.10692805638632" lon="12.004870765717708"><ele>240.0</ele><time>2026-04-18T10:01:28.001Z</time></trkpt><trkpt lat="42.10693993922603" lon="12.004972476227984"><ele>240.0</ele><time>2026-04-18T10:01:30.001Z</time></trkpt><trkpt lat="42.106968687162" lon="12.005098408915021"><ele>241.83333333333334</ele><time>2026-04-18T10:01:32.001Z</time></trkpt><trkpt lat="42.10700233293915" lon="12.00517947260467"><ele>243.66666666666669</ele><time>2026-04-18T10:01:34.001Z</time></trkpt><trkpt lat="42.10702072605817" lon="12.005315368876094"><ele>245.5</ele><time>2026-04-18T10:01:37.001Z</time></trkpt><trkpt lat="42.107014494191816" lon="12.005444349085465"><ele>247.33333333333334</ele><time>2026-04-18T10:01:39.001Z</time></trkpt><trkpt lat="42.10697591591526" lon="12.005564412691374"><ele>249.16666666666669</ele><time>2026-04-18T10:01:41Z</time></trkpt><trkpt lat="42.10690000459378" lon="12.005596043858146"><ele>251.0</ele><time>2026-04-18T10:01:43Z</time></trkpt><trkpt lat="42.106802337951244" lon="12.005615529202846"><ele>251.00000000000003</ele><time>2026-04-18T10:01:45Z</time></trkpt><trkpt lat="42.10674513380182" lon="12.00555971823751"><ele>251.0</ele><time>2026-04-18T10:01:49Z</time></trkpt><trkpt lat="42.10667447281728" lon="12.005593606481897"><ele>251.0</ele><time>2026-04-18T10:01:54Z</time></trkpt><trkpt lat="42.10660767252498" lon="12.00559203834559"><ele>251.0</ele><time>2026-04-18T10:01:57Z</time></trkpt><trkpt lat="42.10654891696418" lon="12.005668302651433"><ele>251.00000000000003</ele><time>2026-04-18T10:02:00Z</time></trkpt><trkpt lat="42.10649323505366" lon="12.005746717594143"><ele>251.0</ele><time>2026-04-18T10:02:02Z</time></trkpt><trkpt lat="42.106447360542134" lon="12.005845832379396"><ele>255.33333333333334</ele><time>2026-04-18T10:02:05Z</time></trkpt><trkpt lat="42.106411200491635" lon="12.005954437886185"><ele>259.6666666666667</ele><time>2026-04-18T10:02:08Z</time></trkpt><trkpt lat="42.106392393730495" lon="12.006067519919924"><ele>264.0</ele><time>2026-04-18T10:02:11Z</time></trkpt><trkpt lat="42.10637075574461" lon="12.006170830910937"><ele>268.3333333333333</ele><time>2026-04-18T10:02:14Z</time></trkpt><trkpt lat="42.10629828421984" lon="12.0062386457598"><ele>272.66666666666663</ele><time>2026-04-18T10:02:17Z</time></trkpt><trkpt lat="42.10622918671282" lon="12.006239778447762"><ele>277.0</ele><time>2026-04-18T10:02:20Z</time></trkpt><trkpt lat="42.106168952138475" lon="12.006296657532213"><ele>277.0</ele><time>2026-04-18T10:02:22Z</time></trkpt><trkpt lat="42.1061053080426" lon="12.00633240926758"><ele>277.0</ele><time>2026-04-18T10:02:23Z</time></trkpt><trkpt lat="42.10605144130778" lon="12.006383572962182"><ele>277.0</ele><time>2026-04-18T10:02:24Z</time></trkpt><trkpt lat="42.10599975862258" lon="12.006455954071306"><ele>277.0</ele><time>2026-04-18T10:02:27Z</time></trkpt><trkpt lat="42.10593250092266" lon="12.006485109259184"><ele>277.0</ele><time>2026-04-18T10:02:30Z</time></trkpt><trkpt lat="42.10583000631847" lon="12.006546724980256"><ele>277.0</ele><time>2026-04-18T10:03:16.001Z</time></trkpt><trkpt lat="42.10575011895964" lon="12.006573158020618"><ele>278.0</ele><time>2026-04-18T10:03:20.001Z</time></trkpt><trkpt lat="42.10567928329261" lon="12.006637929616913"><ele>279.0</ele><time>2026-04-18T10:03:24.001Z</time></trkpt><trkpt lat="42.10561548969965" lon="12.006681563177482"><ele>280.0</ele><time>2026-04-18T10:03:27.001Z</time></trkpt><trkpt lat="42.10553979110247" lon="12.006618603575646"><ele>281.0</ele><time>2026-04-18T10:03:29.001Z</time></trkpt><trkpt lat="42.10546262042434" lon="12.006655519310575"><ele>282.0</ele><time>2026-04-18T10:03:38.001Z</time></trkpt><trkpt lat="42.10537437535064" lon="12.006689296791777"><ele>283.0</ele><time>2026-04-18T10:03:42.001Z</time></trkpt><trkpt lat="42.105318441936625" lon="12.006745050808119"><ele>285.5</ele><time>2026-04-18T10:03:46.001Z</time></trkpt><trkpt lat="42.105233384692006" lon="12.006838643249118"><ele>288.0</ele><time>2026-04-18T10:03:47.999Z</time></trkpt><trkpt lat="42.105163916149905" lon="12.006860161624592"><ele>290.5</ele><time>2026-04-18T10:03:50.999Z</time></trkpt><trkpt lat="42.10510821543255" lon="12.006908530338258"><ele>293.0</ele><time>2026-04-18T10:03:53.999Z</time></trkpt><trkpt lat="42.10504435412683" lon="12.006937013665297"><ele>295.5</ele><time>2026-04-18T10:03:54.999Z</time></trkpt><trkpt lat="42.104956326339924" lon="12.006974172555529"><ele>298.0</ele><time>2026-04-18T10:03:56.999Z</time></trkpt><trkpt lat="42.10485741879859" lon="12.007008238419886"><ele>298.2</ele><time>2026-04-18T10:03:58.999Z</time></trkpt><trkpt lat="42.10478798328481" lon="12.007085860650296"><ele>298.4</ele><time>2026-04-18T10:04:00.999Z</time></trkpt><trkpt lat="42.104726204839146" lon="12.007204835949176"><ele>298.59999999999997</ele><time>2026-04-18T10:04:02.999Z</time></trkpt><trkpt lat="42.104677225629864" lon="12.0073256139429"><ele>298.8</ele><time>2026-04-18T10:04:04.999Z</time></trkpt><trkpt lat="42.10461905608909" lon="12.00737166423498"><ele>299.0</ele><time>2026-04-18T10:04:07.999Z</time></trkpt><trkpt lat="42.10453339451924" lon="12.007407537843063"><ele>299.0</ele><time>2026-04-18T10:04:11Z</time></trkpt><trkpt lat="42.10444377687953" lon="12.007387505317746"><ele>299.0</ele><time>2026-04-18T10:04:14Z</time></trkpt><trkpt lat="42.10436360617525" lon="12.007384798391422"><ele>299.0</ele><time>2026-04-18T10:04:15Z</time></trkpt><trkpt lat="42.10426242531544" lon="12.00741502558829"><ele>299.0</ele><time>2026-04-18T10:04:17Z</time></trkpt><trkpt lat="42.10415488056631" lon="12.007462920807113"><ele>299.0</ele><time>2026-04-18T10:04:19Z</time></trkpt><trkpt lat="42.104066077241846" lon="12.00748384179711"><ele>303.4</ele><time>2026-04-18T10:04:21Z</time></trkpt><trkpt lat="42.10400069235905" lon="12.007509826662986"><ele>307.79999999999995</ele><time>2026-04-18T10:04:22Z</time></trkpt><trkpt lat="42.103875948900715" lon="12.007627432101838"><ele>312.20000000000005</ele><time>2026-04-18T10:04:24Z</time></trkpt><trkpt lat="42.10377780924854" lon="12.007718842038974"><ele>316.6</ele><time>2026-04-18T10:04:25Z</time></trkpt><trkpt lat="42.10369509520958" lon="12.007796618568268"><ele>321.0</ele><time>2026-04-18T10:04:26Z</time></trkpt><trkpt lat="42.103634218452534" lon="12.007835599137577"><ele>321.0</ele><time>2026-04-18T10:04:27Z</time></trkpt><trkpt lat="42.1035613430503" lon="12.007841573627303"><ele>321.0</ele><time>2026-04-18T10:04:28Z</time></trkpt><trkpt lat="42.103473639301356" lon="12.007815795863776"><ele>321.0</ele><time>2026-04-18T10:04:29Z</time></trkpt><trkpt lat="42.10340219178413" lon="12.007788712266057"><ele>321.0</ele><time>2026-04-18T10:04:30Z</time></trkpt><trkpt lat="42.10334105862758" lon="12.007767728012235"><ele>321.0</ele><time>2026-04-18T10:04:31Z</time></trkpt><trkpt lat="42.10322512040989" lon="12.007784815752474"><ele>321.0</ele><time>2026-04-18T10:04:33Z</time></trkpt><trkpt lat="42.103126600631924" lon="12.007805088068451"><ele>321.1666666666667</ele><time>2026-04-18T10:04:35Z</time></trkpt><trkpt lat="42.10306929306452" lon="12.007840892158157"><ele>321.3333333333333</ele><time>2026-04-18T10:04:37Z</time></trkpt><trkpt lat="42.103007278133866" lon="12.007885911682465"><ele>321.5</ele><time>2026-04-18T10:04:41Z</time></trkpt><trkpt lat="42.102913244021885" lon="12.007913652995471"><ele>321.66666666666663</ele><time>2026-04-18T10:04:44Z</time></trkpt><trkpt lat="42.102843471308866" lon="12.007919351493294"><ele>321.8333333333333</ele><time>2026-04-18T10:04:45Z</time></trkpt><trkpt lat="42.10272883420996" lon="12.007940374459265"><ele>322.0</ele><time>2026-04-18T10:04:47Z</time></trkpt><trkpt lat="42.10263556084383" lon="12.00800005155663"><ele>322.0</ele><time>2026-04-18T10:04:48Z</time></trkpt><trkpt lat="42.10255028318858" lon="12.008081153798956"><ele>322.0</ele><time>2026-04-18T10:04:50Z</time></trkpt><trkpt lat="42.10247723629681" lon="12.00813542240049"><ele>322.0</ele><time>2026-04-18T10:04:52Z</time></trkpt><trkpt lat="42.10231735670188" lon="12.008082752379842"><ele>322.0</ele><time>2026-04-18T10:04:54Z</time></trkpt><trkpt lat="42.10221733691957" lon="12.008083446278796"><ele>322.5</ele><time>2026-04-18T10:04:55Z</time></trkpt><trkpt lat="42.10214131136739" lon="12.008109983426753"><ele>323.0</ele><time>2026-04-18T10:04:56Z</time></trkpt><trkpt lat="42.10206930407262" lon="12.0081617780397"><ele>323.5</ele><time>2026-04-18T10:04:57Z</time></trkpt><trkpt lat="42.1019969243464" lon="12.00822385172954"><ele>324.0</ele><time>2026-04-18T10:04:58Z</time></trkpt><trkpt lat="42.101926771224406" lon="12.00830147791132"><ele>324.5</ele><time>2026-04-18T10:04:59Z</time></trkpt><trkpt lat="42.101874906763335" lon="12.008382990145034"><ele>325.0</ele><time>2026-04-18T10:05:00Z</time></trkpt><trkpt lat="42.101818938144405" lon="12.008466477683093"><ele>327.5</ele><time>2026-04-18T10:05:01Z</time></trkpt><trkpt lat="42.10174860040753" lon="12.008529072058504"><ele>330.0</ele><time>2026-04-18T10:05:02Z</time></trkpt><trkpt lat="42.101674202040996" lon="12.008579020275155"><ele>332.5</ele><time>2026-04-18T10:05:03Z</time></trkpt><trkpt lat="42.10159733778659" lon="12.008616233652997"><ele>335.0</ele><time>2026-04-18T10:05:04Z</time></trkpt><trkpt lat="42.1015216559929" lon="12.008738992413116"><ele>337.5</ele><time>2026-04-18T10:05:06Z</time></trkpt><trkpt lat="42.101500211762364" lon="12.008831796887316"><ele>340.0</ele><time>2026-04-18T10:05:07Z</time></trkpt><trkpt lat="42.10146390314614" lon="12.008922766523566"><ele>341.25</ele><time>2026-04-18T10:05:09Z</time></trkpt><trkpt lat="42.10131923142441" lon="12.009012975263595"><ele>342.5</ele><time>2026-04-18T10:05:11Z</time></trkpt><trkpt lat="42.10123615655762" lon="12.009148471526292"><ele>343.75</ele><time>2026-04-18T10:05:12.001Z</time></trkpt><trkpt lat="42.101163899378484" lon="12.009231711687143"><ele>345.0</ele><time>2026-04-18T10:05:13.001Z</time></trkpt><trkpt lat="42.10109643229598" lon="12.00928309050311"><ele>347.0</ele><time>2026-04-18T10:05:14.001Z</time></trkpt><trkpt lat="42.10102516435345" lon="12.009302687185919"><ele>349.0</ele><time>2026-04-18T10:05:15.001Z</time></trkpt><trkpt lat="42.100965424976145" lon="12.009336052643027"><ele>351.0</ele><time>2026-04-18T10:05:16.001Z</time></trkpt><trkpt lat="42.10090332334456" lon="12.009386597105014"><ele>353.0</ele><time>2026-04-18T10:05:17.001Z</time></trkpt><trkpt lat="42.100840460654034" lon="12.009406862366147"><ele>355.0</ele><time>2026-04-18T10:05:18.001Z</time></trkpt><trkpt lat="42.10071770083422" lon="12.009470339583766"><ele>357.0</ele><time>2026-04-18T10:05:20.001Z</time></trkpt><trkpt lat="42.10057119671445" lon="12.009523681460884"><ele>359.1666666666667</ele><time>2026-04-18T10:05:22.001Z</time></trkpt><trkpt lat="42.10047198939955" lon="12.009579042040931"><ele>361.3333333333333</ele><time>2026-04-18T10:05:23.001Z</time></trkpt><trkpt lat="42.10038572979349" lon="12.009623581308432"><ele>363.5</ele><time>2026-04-18T10:05:24.001Z</time></trkpt><trkpt lat="42.10032055159306" lon="12.009667401048844"><ele>365.66666666666663</ele><time>2026-04-18T10:05:25.001Z</time></trkpt><trkpt lat="42.100268349315286" lon="12.009720489415233"><ele>367.8333333333333</ele><time>2026-04-18T10:05:26.001Z</time></trkpt><trkpt lat="42.10019751712528" lon="12.009797056798588"><ele>370.0</ele><time>2026-04-18T10:05:27.001Z</time></trkpt><trkpt lat="42.10011481542089" lon="12.00988415130455"><ele>370.0</ele><time>2026-04-18T10:05:28.001Z</time></trkpt><trkpt lat="42.10004611178311" lon="12.009954661312488"><ele>370.0</ele><time>2026-04-18T10:05:29.001Z</time></trkpt><trkpt lat="42.09998312275683" lon="12.010019706828935"><ele>370.0</ele><time>2026-04-18T10:05:30.001Z</time></trkpt><trkpt lat="42.09989974304804" lon="12.010073508309885"><ele>370.0</ele><time>2026-04-18T10:05:32.001Z</time></trkpt><trkpt lat="42.09980276100578" lon="12.010183785443813"><ele>370.0</ele><time>2026-04-18T10:05:34.001Z</time></trkpt><trkpt lat="42.099748888352785" lon="12.010251574142423"><ele>372.16666666666663</ele><time>2026-04-18T10:05:35.001Z</time></trkpt><trkpt lat="42.099650451222224" lon="12.010328162771684"><ele>374.3333333333333</ele><time>2026-04-18T10:05:37.001Z</time></trkpt><trkpt lat="42.09958311563401" lon="12.010341202983495"><ele>376.5</ele><time>2026-04-18T10:05:39.001Z</time></trkpt><trkpt lat="42.09950383833207" lon="12.010305862535358"><ele>378.6666666666667</ele><time>2026-04-18T10:07:30.001Z</time></trkpt><trkpt lat="42.099447340305964" lon="12.010186308303462"><ele>380.83333333333337</ele><time>2026-04-18T10:07:32.001Z</time></trkpt><trkpt lat="42.09941444385251" lon="12.010107850598525"><ele>383.0</ele><time>2026-04-18T10:07:34.001Z</time></trkpt><trkpt lat="42.09935791022316" lon="12.009999770119736"><ele>383.33333333333337</ele><time>2026-04-18T10:07:45.001Z</time></trkpt><trkpt lat="42.09930844532545" lon="12.009858848775421"><ele>383.6666666666667</ele><time>2026-04-18T10:07:47.001Z</time></trkpt><trkpt lat="42.09927941448675" lon="12.009774201727806"><ele>384.0</ele><time>2026-04-18T10:07:48.001Z</time></trkpt><trkpt lat="42.099244794807476" lon="12.00969751687176"><ele>384.33333333333337</ele><time>2026-04-18T10:07:49.001Z</time></trkpt><trkpt lat="42.09915417260126" lon="12.009576986472762"><ele>384.6666666666667</ele><time>2026-04-18T10:07:51.001Z</time></trkpt><trkpt lat="42.099099919611184" lon="12.009519961597062"><ele>385.0</ele><time>2026-04-18T10:07:52.001Z</time></trkpt><trkpt lat="42.09905864025841" lon="12.009452536039767"><ele>385.6</ele><time>2026-04-18T10:07:53.001Z</time></trkpt><trkpt lat="42.09899040705546" lon="12.009299663274401"><ele>386.2</ele><time>2026-04-18T10:07:55.001Z</time></trkpt><trkpt lat="42.09895850167605" lon="12.00921596637985"><ele>386.79999999999995</ele><time>2026-04-18T10:07:56.001Z</time></trkpt><trkpt lat="42.09887845913388" lon="12.009095512608857"><ele>387.4</ele><time>2026-04-18T10:07:58.001Z</time></trkpt><trkpt lat="42.09883651540287" lon="12.009028757847414"><ele>388.0</ele><time>2026-04-18T10:07:59Z</time></trkpt><trkpt lat="42.09881823951237" lon="12.008890352946098"><ele>389.83333333333337</ele><time>2026-04-18T10:08:01Z</time></trkpt><trkpt lat="42.098762491662605" lon="12.008824130316388"><ele>391.6666666666667</ele><time>2026-04-18T10:08:03Z</time></trkpt><trkpt lat="42.09869671576212" lon="12.008739448621162"><ele>393.5</ele><time>2026-04-18T10:08:05Z</time></trkpt><trkpt lat="42.098614763324306" lon="12.00865555049039"><ele>395.33333333333337</ele><time>2026-04-18T10:08:07Z</time></trkpt><trkpt lat="42.098564675795146" lon="12.008581935496876"><ele>397.1666666666667</ele><time>2026-04-18T10:08:08Z</time></trkpt><trkpt lat="42.098501845034804" lon="12.00851056447304"><ele>399.0</ele><time>2026-04-18T10:08:09Z</time></trkpt><trkpt lat="42.098419837904764" lon="12.008452012976386"><ele>399.0</ele><time>2026-04-18T10:08:10Z</time></trkpt><trkpt lat="42.09833931617304" lon="12.00838689643824"><ele>399.0</ele><time>2026-04-18T10:08:11Z</time></trkpt><trkpt lat="42.098277522525294" lon="12.008340750180324"><ele>399.0</ele><time>2026-04-18T10:08:12Z</time></trkpt><trkpt lat="42.09821120231647" lon="12.008296105652338"><ele>399.0</ele><time>2026-04-18T10:08:13Z</time></trkpt><trkpt lat="42.098166011935255" lon="12.008234375081194"><ele>399.0</ele><time>2026-04-18T10:08:14Z</time></trkpt><trkpt lat="42.098112709271355" lon="12.008164116597701"><ele>399.0</ele><time>2026-04-18T10:08:16Z</time></trkpt><trkpt lat="42.09805934478874" lon="12.008054366835019"><ele>397.4</ele><time>2026-04-18T10:08:18Z</time></trkpt><trkpt lat="42.098014691940946" lon="12.007905224311507"><ele>395.79999999999995</ele><time>2026-04-18T10:08:20Z</time></trkpt><trkpt lat="42.097992269534124" lon="12.007823426292376"><ele>394.20000000000005</ele><time>2026-04-18T10:08:21Z</time></trkpt><trkpt lat="42.09795645136408" lon="12.007745680316459"><ele>392.6</ele><time>2026-04-18T10:08:22Z</time></trkpt><trkpt lat="42.097903190249355" lon="12.007616690047518"><ele>391.0</ele><time>2026-04-18T10:08:24Z</time></trkpt><trkpt lat="42.097854741307295" lon="12.007512119793638"><ele>390.20000000000005</ele><time>2026-04-18T10:08:26Z</time></trkpt><trkpt lat="42.097786097433215" lon="12.00738607199334"><ele>389.40000000000003</ele><time>2026-04-18T10:08:28Z</time></trkpt><trkpt lat="42.09776554472612" lon="12.0072547600101"><ele>388.6</ele><time>2026-04-18T10:08:30Z</time></trkpt><trkpt lat="42.09772220388712" lon="12.007132918942778"><ele>387.8</ele><time>2026-04-18T10:08:32Z</time></trkpt><trkpt lat="42.0976649954735" lon="12.00705937052945"><ele>387.0</ele><time>2026-04-18T10:08:34.001Z</time></trkpt><trkpt lat="42.09763564512269" lon="12.006984001569506"><ele>387.0</ele><time>2026-04-18T10:08:36.001Z</time></trkpt><trkpt lat="42.0976346610153" lon="12.006862873025144"><ele>387.0</ele><time>2026-04-18T10:08:40.001Z</time></trkpt><trkpt lat="42.09762733803639" lon="12.006716591273964"><ele>387.0</ele><time>2026-04-18T10:08:43.001Z</time></trkpt><trkpt lat="42.09757449877396" lon="12.00663926182119"><ele>387.0</ele><time>2026-04-18T10:08:44.001Z</time></trkpt><trkpt lat="42.09753324018685" lon="12.006565227516074"><ele>387.0</ele><time>2026-04-18T10:08:45.001Z</time></trkpt><trkpt lat="42.09749360737229" lon="12.006493034492635"><ele>387.0</ele><time>2026-04-18T10:08:46.001Z</time></trkpt><trkpt lat="42.097447170081416" lon="12.006402909753685"><ele>386.8</ele><time>2026-04-18T10:08:47.001Z</time></trkpt><trkpt lat="42.09741066229644" lon="12.00631042109808"><ele>386.6</ele><time>2026-04-18T10:08:48.001Z</time></trkpt><trkpt lat="42.09735890200085" lon="12.006219091964024"><ele>386.40000000000003</ele><time>2026-04-18T10:08:50.001Z</time></trkpt><trkpt lat="42.097264803257055" lon="12.006225582767621"><ele>386.20000000000005</ele><time>2026-04-18T10:08:53.001Z</time></trkpt><trkpt lat="42.09719223342912" lon="12.006188713964237"><ele>386.0</ele><time>2026-04-18T10:08:55.001Z</time></trkpt><trkpt lat="42.09713901273595" lon="12.006012493599046"><ele>386.0</ele><time>2026-04-18T10:08:57.001Z</time></trkpt><trkpt lat="42.09710045750867" lon="12.005908464335086"><ele>386.0</ele><time>2026-04-18T10:08:58.001Z</time></trkpt><trkpt lat="42.0970484614642" lon="12.005798029376853"><ele>386.0</ele><time>2026-04-18T10:08:59.001Z</time></trkpt><trkpt lat="42.09699136190894" lon="12.005674616705756"><ele>386.0</ele><time>2026-04-18T10:09:00.001Z</time></trkpt><trkpt lat="42.09692288150312" lon="12.005573405392969"><ele>386.0</ele><time>2026-04-18T10:09:01.001Z</time></trkpt><trkpt lat="42.09686110533956" lon="12.005522990015324"><ele>387.8333333333333</ele><time>2026-04-18T10:09:02.001Z</time></trkpt><trkpt lat="42.09679789762824" lon="12.005522292240679"><ele>389.66666666666663</ele><time>2026-04-18T10:09:03.001Z</time></trkpt><trkpt lat="42.09673193327871" lon="12.005518461184082"><ele>391.5</ele><time>2026-04-18T10:09:04.001Z</time></trkpt><trkpt lat="42.09664159554089" lon="12.005503544103085"><ele>393.33333333333337</ele><time>2026-04-18T10:09:05.001Z</time></trkpt><trkpt lat="42.09654214114552" lon="12.00546713291315"><ele>395.1666666666667</ele><time>2026-04-18T10:09:06.001Z</time></trkpt><trkpt lat="42.096435189155095" lon="12.005436804421326"><ele>397.0</ele><time>2026-04-18T10:09:07.001Z</time></trkpt><trkpt lat="42.09634188726218" lon="12.005433650629616"><ele>397.00000000000006</ele><time>2026-04-18T10:09:08.001Z</time></trkpt><trkpt lat="42.09624672191969" lon="12.005456056378623"><ele>397.0</ele><time>2026-04-18T10:09:09.001Z</time></trkpt><trkpt lat="42.096157263728514" lon="12.005466908423148"><ele>397.0</ele><time>2026-04-18T10:09:10.001Z</time></trkpt><trkpt lat="42.09607909811677" lon="12.005450450341057"><ele>397.0</ele><time>2026-04-18T10:09:11.001Z</time></trkpt><trkpt lat="42.09601105969476" lon="12.005413403399956"><ele>397.00000000000006</ele><time>2026-04-18T10:09:12.001Z</time></trkpt><trkpt lat="42.0959455276714" lon="12.005338115204061"><ele>397.0</ele><time>2026-04-18T10:09:13.001Z</time></trkpt><trkpt lat="42.09588729610968" lon="12.005245136021992"><ele>397.0</ele><time>2026-04-18T10:09:14.001Z</time></trkpt><trkpt lat="42.09583666344922" lon="12.005141991181196"><ele>397.0</ele><time>2026-04-18T10:09:15.001Z</time></trkpt><trkpt lat="42.09579561208154" lon="12.005006445222849"><ele>397.0</ele><time>2026-04-18T10:09:16.001Z</time></trkpt><trkpt lat="42.09575397800735" lon="12.004849430034787"><ele>397.0</ele><time>2026-04-18T10:09:17.001Z</time></trkpt><trkpt lat="42.095701530472645" lon="12.004673495500583"><ele>397.0</ele><time>2026-04-18T10:09:18.001Z</time></trkpt><trkpt lat="42.09563965521488" lon="12.00450739745407"><ele>397.0</ele><time>2026-04-18T10:09:19.001Z</time></trkpt><trkpt lat="42.09556356533612" lon="12.004363342065718"><ele>397.0</ele><time>2026-04-18T10:09:20.001Z</time></trkpt><trkpt lat="42.0954745576715" lon="12.004238833322976"><ele>397.0</ele><time>2026-04-18T10:09:21.001Z</time></trkpt><trkpt lat="42.095385556064514" lon="12.004113304496983"><ele>397.0</ele><time>2026-04-18T10:09:22.001Z</time></trkpt><trkpt lat="42.095312294636656" lon="12.003986200605661"><ele>397.0</ele><time>2026-04-18T10:09:23.001Z</time></trkpt><trkpt lat="42.095248751890345" lon="12.003866276787084"><ele>397.0</ele><time>2026-04-18T10:09:24.001Z</time></trkpt><trkpt lat="42.09517575619693" lon="12.003747807862945"><ele>397.0</ele><time>2026-04-18T10:09:25.001Z</time></trkpt><trkpt lat="42.09511119551616" lon="12.003614364704424"><ele>397.0</ele><time>2026-04-18T10:09:26.001Z</time></trkpt><trkpt lat="42.09504926396484" lon="12.003490583157658"><ele>397.0</ele><time>2026-04-18T10:09:27.001Z</time></trkpt><trkpt lat="42.094991804928576" lon="12.003361167081136"><ele>397.0</ele><time>2026-04-18T10:09:28.001Z</time></trkpt><trkpt lat="42.09496439537866" lon="12.003269751664574"><ele>397.0</ele><time>2026-04-18T10:09:29.001Z</time></trkpt><trkpt lat="42.094935710313266" lon="12.003139219457074"><ele>397.0</ele><time>2026-04-18T10:09:31.001Z</time></trkpt><trkpt lat="42.09492370412261" lon="12.00304441310385"><ele>395.0</ele><time>2026-04-18T10:09:34.001Z</time></trkpt><trkpt lat="42.09479997017814" lon="12.003065962562111"><ele>393.0</ele><time>2026-04-18T10:09:45.001Z</time></trkpt><trkpt lat="42.09473153991522" lon="12.003125160752031"><ele>391.0</ele><time>2026-04-18T10:09:48.001Z</time></trkpt><trkpt lat="42.09464000853823" lon="12.003181056652549"><ele>389.0</ele><time>2026-04-18T10:09:51.001Z</time></trkpt><trkpt lat="42.09460526112926" lon="12.003288786488628"><ele>387.0</ele><time>2026-04-18T10:09:53.001Z</time></trkpt><trkpt lat="42.09459565676556" lon="12.003413214429711"><ele>387.0</ele><time>2026-04-18T10:09:55.001Z</time></trkpt><trkpt lat="42.094599621770996" lon="12.003537925318955"><ele>387.0</ele><time>2026-04-18T10:09:57.001Z</time></trkpt><trkpt lat="42.09458780775034" lon="12.003672511433631"><ele>387.0</ele><time>2026-04-18T10:09:59.001Z</time></trkpt><trkpt lat="42.09453858823626" lon="12.003805781609948"><ele>387.0</ele><time>2026-04-18T10:10:01.002Z</time></trkpt><trkpt lat="42.09450116992931" lon="12.003881925006471"><ele>387.0</ele><time>2026-04-18T10:10:02.002Z</time></trkpt><trkpt lat="42.09445746147403" lon="12.003961600720386"><ele>387.0</ele><time>2026-04-18T10:10:03.002Z</time></trkpt><trkpt lat="42.09442246031198" lon="12.004039048930796"><ele>387.0</ele><time>2026-04-18T10:10:04.002Z</time></trkpt><trkpt lat="42.09438950663999" lon="12.00411350015733"><ele>387.0</ele><time>2026-04-18T10:10:05.001Z</time></trkpt><trkpt lat="42.09435336691299" lon="12.004253972072132"><ele>387.0</ele><time>2026-04-18T10:10:07.001Z</time></trkpt><trkpt lat="42.09433113239539" lon="12.004366253868914"><ele>387.0</ele><time>2026-04-18T10:10:09Z</time></trkpt><trkpt lat="42.0943777254433" lon="12.00449744896768"><ele>387.0</ele><time>2026-04-18T10:10:11Z</time></trkpt><trkpt lat="42.09436490471488" lon="12.004628469281961"><ele>385.20000000000005</ele><time>2026-04-18T10:10:14Z</time></trkpt><trkpt lat="42.09437639113716" lon="12.004768882374247"><ele>383.4</ele><time>2026-04-18T10:10:16Z</time></trkpt><trkpt lat="42.09442418004279" lon="12.004872999932843"><ele>381.6</ele><time>2026-04-18T10:10:18Z</time></trkpt><trkpt lat="42.09446596106383" lon="12.004989286120763"><ele>379.79999999999995</ele><time>2026-04-18T10:10:21Z</time></trkpt><trkpt lat="42.09448739395897" lon="12.005107495133336"><ele>378.0</ele><time>2026-04-18T10:10:23Z</time></trkpt><trkpt lat="42.09449823960485" lon="12.00522173118441"><ele>376.2857142857143</ele><time>2026-04-18T10:10:25Z</time></trkpt><trkpt lat="42.09451759530657" lon="12.005302860478924"><ele>374.57142857142856</ele><time>2026-04-18T10:10:31Z</time></trkpt><trkpt lat="42.09454568595365" lon="12.005398533124145"><ele>372.8571428571429</ele><time>2026-04-18T10:10:34Z</time></trkpt><trkpt lat="42.09458406316772" lon="12.00548292505437"><ele>371.1428571428571</ele><time>2026-04-18T10:10:55.001Z</time></trkpt><trkpt lat="42.09458231585848" lon="12.00558709494409"><ele>369.42857142857144</ele><time>2026-04-18T10:10:57.001Z</time></trkpt><trkpt lat="42.09460039415831" lon="12.005700965134452"><ele>367.7142857142857</ele><time>2026-04-18T10:10:59.001Z</time></trkpt><trkpt lat="42.09461756834721" lon="12.00579001209802"><ele>366.0</ele><time>2026-04-18T10:11:02.001Z</time></trkpt><trkpt lat="42.094638373080244" lon="12.005919007126641"><ele>364.0</ele><time>2026-04-18T10:11:06.001Z</time></trkpt><trkpt lat="42.09467331322504" lon="12.006022700448776"><ele>362.0</ele><time>2026-04-18T10:11:09.001Z</time></trkpt><trkpt lat="42.094696671094226" lon="12.006120277346582"><ele>360.0</ele><time>2026-04-18T10:11:12.001Z</time></trkpt><trkpt lat="42.0947266746261" lon="12.00620078910438"><ele>358.0</ele><time>2026-04-18T10:11:14.001Z</time></trkpt><trkpt lat="42.0947444966634" lon="12.006316402506814"><ele>356.0</ele><time>2026-04-18T10:11:17.001Z</time></trkpt><trkpt lat="42.09473911268117" lon="12.006413191451479"><ele>354.0</ele><time>2026-04-18T10:11:19.001Z</time></trkpt><trkpt lat="42.094727500002044" lon="12.00650980973763"><ele>354.0</ele><time>2026-04-18T10:11:22.001Z</time></trkpt><trkpt lat="42.094685232118174" lon="12.006610706089601"><ele>354.0</ele><time>2026-04-18T10:11:25.001Z</time></trkpt><trkpt lat="42.09465196108017" lon="12.006693801940072"><ele>354.0</ele><time>2026-04-18T10:11:32.001Z</time></trkpt><trkpt lat="42.094690160746126" lon="12.006775774442522"><ele>354.0</ele><time>2026-04-18T10:11:36.001Z</time></trkpt><trkpt lat="42.09471684550017" lon="12.006882991961103"><ele>354.0</ele><time>2026-04-18T10:11:40.001Z</time></trkpt><trkpt lat="42.09471775598831" lon="12.006975727680853"><ele>354.0</ele><time>2026-04-18T10:11:42.001Z</time></trkpt><trkpt lat="42.0946919523794" lon="12.007074705013679"><ele>350.4</ele><time>2026-04-18T10:11:45.001Z</time></trkpt><trkpt lat="42.09464125749002" lon="12.007149193465967"><ele>346.79999999999995</ele><time>2026-04-18T10:11:48.001Z</time></trkpt><trkpt lat="42.09458663431902" lon="12.007243983840521"><ele>343.20000000000005</ele><time>2026-04-18T10:11:51.001Z</time></trkpt><trkpt lat="42.09449309305526" lon="12.00742034817701"><ele>339.6</ele><time>2026-04-18T10:11:52.001Z</time></trkpt><trkpt lat="42.094448290838294" lon="12.007528792036489"><ele>336.0</ele><time>2026-04-18T10:11:54.001Z</time></trkpt><trkpt lat="42.09437973917895" lon="12.007590999971752"><ele>334.0</ele><time>2026-04-18T10:11:56.001Z</time></trkpt><trkpt lat="42.09431043474926" lon="12.007658509263461"><ele>332.0</ele><time>2026-04-18T10:11:58.001Z</time></trkpt><trkpt lat="42.09425853411273" lon="12.00771748686979"><ele>330.0</ele><time>2026-04-18T10:12:00.001Z</time></trkpt><trkpt lat="42.09422664247081" lon="12.00780063778198"><ele>328.0</ele><time>2026-04-18T10:12:02.001Z</time></trkpt><trkpt lat="42.09415138259767" lon="12.007818885374112"><ele>326.0</ele><time>2026-04-18T10:12:05.001Z</time></trkpt><trkpt lat="42.09410032073088" lon="12.007912476218083"><ele>324.0</ele><time>2026-04-18T10:12:08.001Z</time></trkpt><trkpt lat="42.09406256652808" lon="12.007982585503383"><ele>323.6666666666667</ele><time>2026-04-18T10:12:11Z</time></trkpt><trkpt lat="42.09399877782369" lon="12.008048293092772"><ele>323.3333333333333</ele><time>2026-04-18T10:12:13Z</time></trkpt><trkpt lat="42.09391853282974" lon="12.008085623971521"><ele>323.0</ele><time>2026-04-18T10:12:15Z</time></trkpt><trkpt lat="42.093852361945906" lon="12.00811903354154"><ele>322.66666666666663</ele><time>2026-04-18T10:12:18Z</time></trkpt><trkpt lat="42.09379555352559" lon="12.008202169643262"><ele>322.3333333333333</ele><time>2026-04-18T10:12:20Z</time></trkpt><trkpt lat="42.093749224502226" lon="12.00828733451331"><ele>322.0</ele><time>2026-04-18T10:12:22Z</time></trkpt><trkpt lat="42.0937102196176" lon="12.008389034286857"><ele>319.5</ele><time>2026-04-18T10:12:25Z</time></trkpt><trkpt lat="42.09366691856145" lon="12.008466621648761"><ele>317.0</ele><time>2026-04-18T10:12:28Z</time></trkpt><trkpt lat="42.09362042774582" lon="12.008574538480142"><ele>314.5</ele><time>2026-04-18T10:12:30Z</time></trkpt><trkpt lat="42.09358983004778" lon="12.008688814401987"><ele>312.0</ele><time>2026-04-18T10:12:32Z</time></trkpt><trkpt lat="42.09353812329096" lon="12.008802542833504"><ele>309.5</ele><time>2026-04-18T10:12:34Z</time></trkpt><trkpt lat="42.09348337352056" lon="12.008864469524738"><ele>307.0</ele><time>2026-04-18T10:12:38Z</time></trkpt><trkpt lat="42.09343604223412" lon="12.008968871996254"><ele>306.99999999999994</ele><time>2026-04-18T10:12:41Z</time></trkpt><trkpt lat="42.09340817026819" lon="12.00907669792367"><ele>307.0</ele><time>2026-04-18T10:12:43Z</time></trkpt><trkpt lat="42.093441567801435" lon="12.009156488198443"><ele>307.0</ele><time>2026-04-18T10:12:46Z</time></trkpt><trkpt lat="42.093406423049935" lon="12.009242019382203"><ele>307.0</ele><time>2026-04-18T10:12:49Z</time></trkpt><trkpt lat="42.09333112315368" lon="12.009259521892472"><ele>307.0</ele><time>2026-04-18T10:12:54Z</time></trkpt><trkpt lat="42.09331476626142" lon="12.009347757401638"><ele>306.99999999999994</ele><time>2026-04-18T10:14:00.001Z</time></trkpt><trkpt lat="42.0933013322813" lon="12.00943271523717"><ele>307.0</ele><time>2026-04-18T10:14:09.001Z</time></trkpt><trkpt lat="42.09331348039684" lon="12.009527512030806"><ele>305.16666666666663</ele><time>2026-04-18T10:14:14.001Z</time></trkpt><trkpt lat="42.093298354185265" lon="12.009623698958105"><ele>303.3333333333333</ele><time>2026-04-18T10:14:21Z</time></trkpt><trkpt lat="42.093310663057125" lon="12.009720350554467"><ele>301.5</ele><time>2026-04-18T10:14:26Z</time></trkpt><trkpt lat="42.0932852512715" lon="12.009808830645682"><ele>299.6666666666667</ele><time>2026-04-18T10:14:29Z</time></trkpt><trkpt lat="42.09327647246751" lon="12.00990800333639"><ele>297.83333333333337</ele><time>2026-04-18T10:14:32Z</time></trkpt><trkpt lat="42.09329248072619" lon="12.01003047250131"><ele>296.0</ele><time>2026-04-18T10:14:36Z</time></trkpt><trkpt lat="42.09326783201395" lon="12.010133199608674"><ele>294.1666666666667</ele><time>2026-04-18T10:14:40Z</time></trkpt><trkpt lat="42.09320842927343" lon="12.010182277470927"><ele>292.33333333333337</ele><time>2026-04-18T10:14:45Z</time></trkpt><trkpt lat="42.09314419744579" lon="12.01022191528957"><ele>290.5</ele><time>2026-04-18T10:14:49Z</time></trkpt><trkpt lat="42.09306851221816" lon="12.01024655589079"><ele>288.6666666666667</ele><time>2026-04-18T10:15:32Z</time></trkpt><trkpt lat="42.09310196208687" lon="12.010327078629583"><ele>286.8333333333333</ele><time>2026-04-18T10:15:40.001Z</time></trkpt><trkpt lat="42.09314928181125" lon="12.010435239749416"><ele>285.0</ele><time>2026-04-18T10:15:44.001Z</time></trkpt><trkpt lat="42.093110495211064" lon="12.01053346762671"><ele>285.0</ele><time>2026-04-18T10:15:47.001Z</time></trkpt><trkpt lat="42.09304752497993" lon="12.01055666371724"><ele>285.0</ele><time>2026-04-18T10:15:50.001Z</time></trkpt><trkpt lat="42.092979195323316" lon="12.010603063290686"><ele>285.0</ele><time>2026-04-18T10:15:55.001Z</time></trkpt><trkpt lat="42.09290507030507" lon="12.01065805189736"><ele>285.0</ele><time>2026-04-18T10:15:59.001Z</time></trkpt><trkpt lat="42.0928574958533" lon="12.010724731806626"><ele>285.0</ele><time>2026-04-18T10:16:03.001Z</time></trkpt><trkpt lat="42.09279525856527" lon="12.010777945792368"><ele>285.0</ele><time>2026-04-18T10:16:06.001Z</time></trkpt><trkpt lat="42.0927335945932" lon="12.010830394095121"><ele>285.0</ele><time>2026-04-18T10:16:09.001Z</time></trkpt><trkpt lat="42.09267772555682" lon="12.010869788486405"><ele>283.1666666666667</ele><time>2026-04-18T10:16:12.001Z</time></trkpt><trkpt lat="42.09264684915934" lon="12.010976901626446"><ele>281.3333333333333</ele><time>2026-04-18T10:16:16.001Z</time></trkpt><trkpt lat="42.092616461949845" lon="12.011094257440597"><ele>279.5</ele><time>2026-04-18T10:16:19.001Z</time></trkpt><trkpt lat="42.09258140996939" lon="12.01119247652393"><ele>277.66666666666663</ele><time>2026-04-18T10:16:22.001Z</time></trkpt><trkpt lat="42.092512967479664" lon="12.011270236851182"><ele>275.8333333333333</ele><time>2026-04-18T10:16:26Z</time></trkpt><trkpt lat="42.092483961057745" lon="12.011353607071225"><ele>274.0</ele><time>2026-04-18T10:16:29Z</time></trkpt><trkpt lat="42.09244598932289" lon="12.011463450188598"><ele>274.0</ele><time>2026-04-18T10:16:32Z</time></trkpt><trkpt lat="42.092445352042404" lon="12.011560128469423"><ele>274.0</ele><time>2026-04-18T10:16:35Z</time></trkpt><trkpt lat="42.09240895906203" lon="12.011668360809566"><ele>274.0</ele><time>2026-04-18T10:16:37Z</time></trkpt><trkpt lat="42.09236642183602" lon="12.011860245176575"><ele>274.0</ele><time>2026-04-18T10:16:40Z</time></trkpt><trkpt lat="42.092338820993305" lon="12.011951653845445"><ele>274.0</ele><time>2026-04-18T10:16:42Z</time></trkpt><trkpt lat="42.09227086464412" lon="12.012154922353856"><ele>274.5</ele><time>2026-04-18T10:16:44Z</time></trkpt><trkpt lat="42.092219227847295" lon="12.01229000271889"><ele>275.0</ele><time>2026-04-18T10:16:46Z</time></trkpt><trkpt lat="42.09217377485842" lon="12.012391966199003"><ele>275.5</ele><time>2026-04-18T10:16:48Z</time></trkpt><trkpt lat="42.09211922461723" lon="12.012440004139703"><ele>276.0</ele><time>2026-04-18T10:16:51Z</time></trkpt><trkpt lat="42.09204955416842" lon="12.012485797234927"><ele>276.5</ele><time>2026-04-18T10:16:54Z</time></trkpt><trkpt lat="42.092012014973655" lon="12.012577365727362"><ele>277.0</ele><time>2026-04-18T10:16:56Z</time></trkpt><trkpt lat="42.09200464837331" lon="12.012687870694869"><ele>274.8333333333333</ele><time>2026-04-18T10:16:58Z</time></trkpt><trkpt lat="42.092005542157885" lon="12.012797295530973"><ele>272.66666666666663</ele><time>2026-04-18T10:17:00Z</time></trkpt><trkpt lat="42.0919685445091" lon="12.012875607873246"><ele>270.5</ele><time>2026-04-18T10:17:03Z</time></trkpt><trkpt lat="42.091922187130486" lon="12.012959276711497"><ele>268.3333333333333</ele><time>2026-04-18T10:17:06Z</time></trkpt><trkpt lat="42.09188133816035" lon="12.01305419061309"><ele>266.1666666666667</ele><time>2026-04-18T10:17:10Z</time></trkpt><trkpt lat="42.091864852867175" lon="12.01313677311972"><ele>264.0</ele><time>2026-04-18T10:17:12Z</time></trkpt><trkpt lat="42.091876357404686" lon="12.013245249750259"><ele>263.0</ele><time>2026-04-18T10:17:14Z</time></trkpt><trkpt lat="42.09187654157521" lon="12.01334060508723"><ele>262.0</ele><time>2026-04-18T10:17:17Z</time></trkpt><trkpt lat="42.09189308727086" lon="12.013452529505443"><ele>261.0</ele><time>2026-04-18T10:17:20Z</time></trkpt><trkpt lat="42.09191004153659" lon="12.01355127833982"><ele>260.0</ele><time>2026-04-18T10:17:23Z</time></trkpt><trkpt lat="42.091936978181685" lon="12.013648200678238"><ele>259.0</ele><time>2026-04-18T10:17:26Z</time></trkpt><trkpt lat="42.091945523838206" lon="12.013786678975757"><ele>258.0</ele><time>2026-04-18T10:17:29Z</time></trkpt><trkpt lat="42.091936599548035" lon="12.013933715621372"><ele>258.0</ele><time>2026-04-18T10:17:32Z</time></trkpt><trkpt lat="42.09196547221903" lon="12.014058593451796"><ele>258.0</ele><time>2026-04-18T10:17:35.001Z</time></trkpt><trkpt lat="42.091983185070006" lon="12.014176162752097"><ele>258.0</ele><time>2026-04-18T10:17:38.001Z</time></trkpt><trkpt lat="42.09199202762109" lon="12.014262228829958"><ele>258.0</ele><time>2026-04-18T10:17:41.001Z</time></trkpt><trkpt lat="42.09195727328482" lon="12.014376030393734"><ele>258.0</ele><time>2026-04-18T10:17:43.001Z</time></trkpt><trkpt lat="42.09193589542345" lon="12.014498719458214"><ele>258.0</ele><time>2026-04-18T10:17:45.001Z</time></trkpt><trkpt lat="42.09188927943821" lon="12.01455956406825"><ele>258.0</ele><time>2026-04-18T10:17:48.001Z</time></trkpt><trkpt lat="42.091874757994646" lon="12.014649709103638"><ele>258.0</ele><time>2026-04-18T10:17:49.001Z</time></trkpt><trkpt lat="42.091862137853916" lon="12.014739189755177"><ele>258.0</ele><time>2026-04-18T10:17:51.001Z</time></trkpt><trkpt lat="42.09183318061576" lon="12.014868812262671"><ele>258.0</ele><time>2026-04-18T10:17:53.001Z</time></trkpt><trkpt lat="42.091799738242806" lon="12.01494710557569"><ele>258.0</ele><time>2026-04-18T10:17:55.001Z</time></trkpt><trkpt lat="42.09176173790954" lon="12.015027013934851"><ele>258.0</ele><time>2026-04-18T10:17:57.001Z</time></trkpt><trkpt lat="42.09170345075792" lon="12.015151590933609"><ele>257.5</ele><time>2026-04-18T10:17:59.001Z</time></trkpt><trkpt lat="42.09169191549391" lon="12.015252975022388"><ele>257.0</ele><time>2026-04-18T10:18:03.001Z</time></trkpt><trkpt lat="42.091666514877275" lon="12.015366173748417"><ele>256.5</ele><time>2026-04-18T10:18:06.001Z</time></trkpt><trkpt lat="42.0916064931071" lon="12.01541993939083"><ele>256.0</ele><time>2026-04-18T10:18:09.001Z</time></trkpt><trkpt lat="42.091538236167885" lon="12.01539742846101"><ele>255.5</ele><time>2026-04-18T10:18:12.001Z</time></trkpt><trkpt lat="42.09150925587294" lon="12.015497140812894"><ele>255.0</ele><time>2026-04-18T10:18:30Z</time></trkpt><trkpt lat="42.09152734588452" lon="12.01538358880157"><ele>258.8571428571429</ele><time>2026-04-18T10:19:44.001Z</time></trkpt><trkpt lat="42.0914480547632" lon="12.015407371738865"><ele>262.7142857142857</ele><time>2026-04-18T10:19:50.001Z</time></trkpt><trkpt lat="42.09138428117807" lon="12.015438392867207"><ele>266.57142857142856</ele><time>2026-04-18T10:19:56.001Z</time></trkpt><trkpt lat="42.09131787936241" lon="12.015491698739568"><ele>270.42857142857144</ele><time>2026-04-18T10:19:59.001Z</time></trkpt><trkpt lat="42.09127230256118" lon="12.015551353557443"><ele>274.2857142857143</ele><time>2026-04-18T10:20:04.001Z</time></trkpt><trkpt lat="42.091206106588345" lon="12.015573411307093"><ele>278.14285714285717</ele><time>2026-04-18T10:20:53Z</time></trkpt><trkpt lat="42.09124060031551" lon="12.015654723108998"><ele>282.0</ele><time>2026-04-18T10:20:58Z</time></trkpt><trkpt lat="42.09127364419799" lon="12.015759735292026"><ele>282.1666666666667</ele><time>2026-04-18T10:21:03Z</time></trkpt><trkpt lat="42.09133218562938" lon="12.015842439792388"><ele>282.3333333333333</ele><time>2026-04-18T10:21:06Z</time></trkpt><trkpt lat="42.09139453438091" lon="12.015893361043485"><ele>282.5</ele><time>2026-04-18T10:21:13Z</time></trkpt><trkpt lat="42.09141398943879" lon="12.015977114819904"><ele>282.66666666666663</ele><time>2026-04-18T10:21:19Z</time></trkpt><trkpt lat="42.09142928027052" lon="12.016073188166144"><ele>282.8333333333333</ele><time>2026-04-18T10:21:26Z</time></trkpt><trkpt lat="42.09154651746206" lon="12.016176797091656"><ele>283.0</ele><time>2026-04-18T10:21:57.001Z</time></trkpt><trkpt lat="42.09161865922418" lon="12.016210528149742"><ele>278.66666666666663</ele><time>2026-04-18T10:21:59.001Z</time></trkpt><trkpt lat="42.09170614180682" lon="12.01622446398038"><ele>274.3333333333333</ele><time>2026-04-18T10:22:06.001Z</time></trkpt><trkpt lat="42.09178083804581" lon="12.016243336144063"><ele>270.0</ele><time>2026-04-18T10:22:08.001Z</time></trkpt><trkpt lat="42.09183703759951" lon="12.016295265445404"><ele>265.6666666666667</ele><time>2026-04-18T10:22:10.001Z</time></trkpt><trkpt lat="42.09186844238155" lon="12.016377595114328"><ele>261.33333333333337</ele><time>2026-04-18T10:22:16.001Z</time></trkpt><trkpt lat="42.0918806830997" lon="12.01648373288889"><ele>257.0</ele><time>2026-04-18T10:22:21.001Z</time></trkpt><trkpt lat="42.091881667275814" lon="12.016581883867742"><ele>257.1428571428571</ele><time>2026-04-18T10:22:25.001Z</time></trkpt><trkpt lat="42.09187988148001" lon="12.016677812800486"><ele>257.2857142857143</ele><time>2026-04-18T10:22:59Z</time></trkpt><trkpt lat="42.09191873907283" lon="12.016749064922752"><ele>257.42857142857144</ele><time>2026-04-18T10:23:05Z</time></trkpt><trkpt lat="42.09192845319738" lon="12.016839521737124"><ele>257.57142857142856</ele><time>2026-04-18T10:23:13Z</time></trkpt><trkpt lat="42.09193396994049" lon="12.01694537680505"><ele>257.7142857142857</ele><time>2026-04-18T10:23:26Z</time></trkpt><trkpt lat="42.09193365741049" lon="12.01704589313501"><ele>257.85714285714283</ele><time>2026-04-18T10:23:31Z</time></trkpt><trkpt lat="42.09190548009697" lon="12.017143178667762"><ele>258.0</ele><time>2026-04-18T10:24:03.001Z</time></trkpt><trkpt lat="42.0918937175208" lon="12.017237932676665"><ele>257.99999999999994</ele><time>2026-04-18T10:24:11.001Z</time></trkpt><trkpt lat="42.09186888099977" lon="12.017328985854702"><ele>258.0</ele><time>2026-04-18T10:29:24Z</time></trkpt><trkpt lat="42.09184850278285" lon="12.017412059132377"><ele>258.0</ele><time>2026-04-18T10:29:50.001Z</time></trkpt><trkpt lat="42.091906269520386" lon="12.01749893390255"><ele>258.0</ele><time>2026-04-18T10:38:24Z</time></trkpt><trkpt lat="42.091916240644714" lon="12.017588027934485"><ele>258.0</ele><time>2026-04-18T10:38:28Z</time></trkpt><trkpt lat="42.091943304430934" lon="12.017682477803602"><ele>257.99999999999994</ele><time>2026-04-18T10:38:31Z</time></trkpt><trkpt lat="42.09195378917559" lon="12.017793886310143"><ele>258.0</ele><time>2026-04-18T10:38:34.001Z</time></trkpt><trkpt lat="42.091989764509506" lon="12.017865627172341"><ele>258.2857142857143</ele><time>2026-04-18T10:38:37.001Z</time></trkpt><trkpt lat="42.092027393152534" lon="12.017947407181838"><ele>258.57142857142856</ele><time>2026-04-18T10:38:41.001Z</time></trkpt><trkpt lat="42.09206165767902" lon="12.018020055318724"><ele>258.8571428571429</ele><time>2026-04-18T10:38:46.001Z</time></trkpt><trkpt lat="42.09208641973821" lon="12.018115583392598"><ele>259.1428571428571</ele><time>2026-04-18T10:39:00.001Z</time></trkpt><trkpt lat="42.09211690992498" lon="12.018205877952001"><ele>259.42857142857144</ele><time>2026-04-18T10:39:05.001Z</time></trkpt><trkpt lat="42.09216376153547" lon="12.018266062659032"><ele>259.7142857142857</ele><time>2026-04-18T10:39:09.001Z</time></trkpt><trkpt lat="42.092202568202154" lon="12.01834932234447"><ele>260.0</ele><time>2026-04-18T10:39:13.001Z</time></trkpt><trkpt lat="42.09223933334853" lon="12.018446563425668"><ele>259.42857142857144</ele><time>2026-04-18T10:39:17.001Z</time></trkpt><trkpt lat="42.09225476276152" lon="12.018532271008544"><ele>258.8571428571429</ele><time>2026-04-18T10:39:20.001Z</time></trkpt><trkpt lat="42.092291066979065" lon="12.01861460360117"><ele>258.2857142857143</ele><time>2026-04-18T10:39:22.001Z</time></trkpt><trkpt lat="42.092316787608105" lon="12.018699068659824"><ele>257.7142857142857</ele><time>2026-04-18T10:39:25.001Z</time></trkpt><trkpt lat="42.09233970216444" lon="12.0188222665035"><ele>257.1428571428571</ele><time>2026-04-18T10:39:28.001Z</time></trkpt><trkpt lat="42.09237206163221" lon="12.018895652392779"><ele>256.57142857142856</ele><time>2026-04-18T10:39:31Z</time></trkpt><trkpt lat="42.09239917259129" lon="12.018972410052218"><ele>256.0</ele><time>2026-04-18T10:39:34Z</time></trkpt><trkpt lat="42.09243012889618" lon="12.019077580267634"><ele>254.33333333333331</ele><time>2026-04-18T10:39:37Z</time></trkpt><trkpt lat="42.09244926905599" lon="12.019179109517102"><ele>252.66666666666666</ele><time>2026-04-18T10:39:40Z</time></trkpt><trkpt lat="42.09246264505115" lon="12.019268954751217"><ele>251.0</ele><time>2026-04-18T10:39:42Z</time></trkpt><trkpt lat="42.09247561571195" lon="12.019393620616107"><ele>249.33333333333331</ele><time>2026-04-18T10:39:44Z</time></trkpt><trkpt lat="42.092490031331394" lon="12.019495634295604"><ele>247.66666666666666</ele><time>2026-04-18T10:39:47Z</time></trkpt><trkpt lat="42.09248850989012" lon="12.01959206200876"><ele>246.0</ele><time>2026-04-18T10:39:49Z</time></trkpt><trkpt lat="42.09251860879865" lon="12.01970302592605"><ele>246.0</ele><time>2026-04-18T10:39:50Z</time></trkpt><trkpt lat="42.09252755133076" lon="12.019802569952397"><ele>246.0</ele><time>2026-04-18T10:39:52Z</time></trkpt><trkpt lat="42.092532463385766" lon="12.019917357434423"><ele>246.0</ele><time>2026-04-18T10:39:54Z</time></trkpt><trkpt lat="42.092536248258654" lon="12.02003564012188"><ele>246.0</ele><time>2026-04-18T10:39:56Z</time></trkpt><trkpt lat="42.09254352108409" lon="12.020156316559557"><ele>246.0</ele><time>2026-04-18T10:39:59Z</time></trkpt><trkpt lat="42.092552778310896" lon="12.020265609878681"><ele>246.0</ele><time>2026-04-18T10:40:01Z</time></trkpt><trkpt lat="42.092536564053766" lon="12.020368671787843"><ele>246.0</ele><time>2026-04-18T10:40:04Z</time></trkpt><trkpt lat="42.092599169363716" lon="12.020773278346203"><ele>246.0</ele><time>2026-04-18T10:40:07Z</time></trkpt><trkpt lat="42.09259444659267" lon="12.020858917355563"><ele>246.0</ele><time>2026-04-18T10:40:08Z</time></trkpt><trkpt lat="42.092577839615515" lon="12.020961331990666"><ele>246.0</ele><time>2026-04-18T10:40:09Z</time></trkpt><trkpt lat="42.09255005890914" lon="12.021074079613049"><ele>245.66666666666666</ele><time>2026-04-18T10:40:10Z</time></trkpt><trkpt lat="42.09251994532609" lon="12.02116400063443"><ele>245.33333333333331</ele><time>2026-04-18T10:40:11Z</time></trkpt><trkpt lat="42.09247557528569" lon="12.02128706696001"><ele>245.0</ele><time>2026-04-18T10:40:13Z</time></trkpt><trkpt lat="42.09244825673071" lon="12.021414775103695"><ele>244.66666666666666</ele><time>2026-04-18T10:40:15Z</time></trkpt><trkpt lat="42.09244677353361" lon="12.021511990880015"><ele>244.33333333333331</ele><time>2026-04-18T10:40:16Z</time></trkpt><trkpt lat="42.09244630558044" lon="12.021640002140877"><ele>244.0</ele><time>2026-04-18T10:40:17Z</time></trkpt><trkpt lat="42.09244581829034" lon="12.021758689131548"><ele>243.6</ele><time>2026-04-18T10:40:18Z</time></trkpt><trkpt lat="42.09245229354221" lon="12.021935943089343"><ele>243.2</ele><time>2026-04-18T10:40:19Z</time></trkpt><trkpt lat="42.092447581280254" lon="12.022064984919565"><ele>242.79999999999998</ele><time>2026-04-18T10:40:20Z</time></trkpt><trkpt lat="42.09241812880448" lon="12.022193235451924"><ele>242.39999999999998</ele><time>2026-04-18T10:40:21Z</time></trkpt><trkpt lat="42.092406137661634" lon="12.02233160610817"><ele>242.0</ele><time>2026-04-18T10:40:22Z</time></trkpt><trkpt lat="42.092395996776624" lon="12.022432810261723"><ele>243.39999999999998</ele><time>2026-04-18T10:40:23Z</time></trkpt><trkpt lat="42.09237953302822" lon="12.022541051268268"><ele>244.79999999999998</ele><time>2026-04-18T10:40:25Z</time></trkpt><trkpt lat="42.09232883219635" lon="12.022641628698576"><ele>246.2</ele><time>2026-04-18T10:40:28Z</time></trkpt><trkpt lat="42.09223941746104" lon="12.022673772667956"><ele>247.6</ele><time>2026-04-18T10:40:30Z</time></trkpt><trkpt lat="42.092113942955166" lon="12.022725263609885"><ele>249.0</ele><time>2026-04-18T10:40:34Z</time></trkpt><trkpt lat="42.09201946527081" lon="12.022731580231998"><ele>249.0</ele><time>2026-04-18T10:41:54Z</time></trkpt><trkpt lat="42.09199554890024" lon="12.022812708973467"><ele>249.0</ele><time>2026-04-18T10:42:12Z</time></trkpt><trkpt lat="42.0919497026305" lon="12.022881311807277"><ele>249.0</ele><time>2026-04-18T10:42:14Z</time></trkpt><trkpt lat="42.09193310131606" lon="12.023019359410615"><ele>249.0</ele><time>2026-04-18T10:42:17Z</time></trkpt><trkpt lat="42.091958048852064" lon="12.023126654293945"><ele>249.0</ele><time>2026-04-18T10:42:20Z</time></trkpt><trkpt lat="42.092018847455385" lon="12.023229867253951"><ele>249.0</ele><time>2026-04-18T10:42:22Z</time></trkpt><trkpt lat="42.09206506006933" lon="12.02336436554073"><ele>248.2</ele><time>2026-04-18T10:42:24Z</time></trkpt><trkpt lat="42.09213204045025" lon="12.023447347341193"><ele>247.39999999999998</ele><time>2026-04-18T10:42:26Z</time></trkpt><trkpt lat="42.092203881980836" lon="12.023522239254685"><ele>246.6</ele><time>2026-04-18T10:42:28Z</time></trkpt><trkpt lat="42.09228814782729" lon="12.023567847437064"><ele>245.8</ele><time>2026-04-18T10:42:30Z</time></trkpt><trkpt lat="42.092375270512164" lon="12.023655771607185"><ele>245.0</ele><time>2026-04-18T10:42:32Z</time></trkpt><trkpt lat="42.09241378923649" lon="12.02381245879268"><ele>245.0</ele><time>2026-04-18T10:42:34Z</time></trkpt><trkpt lat="42.092418131253766" lon="12.02397125223395"><ele>245.0</ele><time>2026-04-18T10:42:36Z</time></trkpt><trkpt lat="42.09241418157692" lon="12.024117432149998"><ele>245.0</ele><time>2026-04-18T10:42:38Z</time></trkpt><trkpt lat="42.092410995031194" lon="12.024265644239547"><ele>245.0</ele><time>2026-04-18T10:42:40Z</time></trkpt><trkpt lat="42.09238723274953" lon="12.024404037608571"><ele>245.0</ele><time>2026-04-18T10:42:42Z</time></trkpt><trkpt lat="42.09235048532198" lon="12.024563935593283"><ele>245.33333333333334</ele><time>2026-04-18T10:42:44.001Z</time></trkpt><trkpt lat="42.092338972937036" lon="12.024648729047195"><ele>245.66666666666669</ele><time>2026-04-18T10:42:45.001Z</time></trkpt><trkpt lat="42.09233391051494" lon="12.024793571186324"><ele>246.0</ele><time>2026-04-18T10:42:47.001Z</time></trkpt><trkpt lat="42.09233045575475" lon="12.024886179798559"><ele>246.33333333333331</ele><time>2026-04-18T10:42:49.001Z</time></trkpt><trkpt lat="42.092341703407435" lon="12.024971061870808"><ele>246.66666666666666</ele><time>2026-04-18T10:42:51.001Z</time></trkpt><trkpt lat="42.092433018554594" lon="12.025082755372884"><ele>247.0</ele><time>2026-04-18T10:42:54.001Z</time></trkpt><trkpt lat="42.09254126497693" lon="12.025164310118535"><ele>244.66666666666666</ele><time>2026-04-18T10:42:56.001Z</time></trkpt><trkpt lat="42.092581993825924" lon="12.025251218204021"><ele>242.33333333333331</ele><time>2026-04-18T10:42:57.001Z</time></trkpt><trkpt lat="42.09261860994517" lon="12.025335874390809"><ele>240.0</ele><time>2026-04-18T10:42:58.001Z</time></trkpt><trkpt lat="42.092671556770284" lon="12.025439905681562"><ele>237.66666666666669</ele><time>2026-04-18T10:43:00.001Z</time></trkpt><trkpt lat="42.092771589970994" lon="12.025551778955306"><ele>235.33333333333334</ele><time>2026-04-18T10:43:02.001Z</time></trkpt><trkpt lat="42.09282510756663" lon="12.025605050093043"><ele>233.0</ele><time>2026-04-18T10:43:03.001Z</time></trkpt><trkpt lat="42.092918120613746" lon="12.025687154845917"><ele>233.00000000000003</ele><time>2026-04-18T10:43:05.001Z</time></trkpt><trkpt lat="42.09298948583579" lon="12.02574999558972"><ele>233.0</ele><time>2026-04-18T10:43:07.001Z</time></trkpt><trkpt lat="42.09304605280654" lon="12.025841773032818"><ele>233.0</ele><time>2026-04-18T10:43:10.001Z</time></trkpt><trkpt lat="42.09309287755063" lon="12.025929294724573"><ele>233.0</ele><time>2026-04-18T10:43:15.001Z</time></trkpt><trkpt lat="42.09313501843375" lon="12.025999099001014"><ele>233.00000000000003</ele><time>2026-04-18T10:43:18.001Z</time></trkpt><trkpt lat="42.093202325111065" lon="12.025998960850806"><ele>233.0</ele><time>2026-04-18T10:43:21.001Z</time></trkpt><trkpt lat="42.0932344058583" lon="12.025906371506439"><ele>234.2</ele><time>2026-04-18T10:43:25.001Z</time></trkpt><trkpt lat="42.093297446346654" lon="12.02588302575197"><ele>235.4</ele><time>2026-04-18T10:43:29.001Z</time></trkpt><trkpt lat="42.09342954683473" lon="12.025915429361861"><ele>236.59999999999997</ele><time>2026-04-18T10:43:32.001Z</time></trkpt><trkpt lat="42.09351827194952" lon="12.025957228080774"><ele>237.79999999999998</ele><time>2026-04-18T10:43:34.001Z</time></trkpt><trkpt lat="42.093639995525415" lon="12.025974811442655"><ele>239.0</ele><time>2026-04-18T10:43:36.001Z</time></trkpt><trkpt lat="42.093708128326746" lon="12.02599026699345"><ele>239.00000000000003</ele><time>2026-04-18T10:43:37.001Z</time></trkpt><trkpt lat="42.09382716645242" lon="12.02603206881196"><ele>239.0</ele><time>2026-04-18T10:43:39.001Z</time></trkpt><trkpt lat="42.09388900761527" lon="12.02605006878805"><ele>239.0</ele><time>2026-04-18T10:43:40.001Z</time></trkpt><trkpt lat="42.093955416759385" lon="12.026056332647626"><ele>239.0</ele><time>2026-04-18T10:43:41Z</time></trkpt><trkpt lat="42.094018618432585" lon="12.026050164570078"><ele>239.00000000000003</ele><time>2026-04-18T10:43:42Z</time></trkpt><trkpt lat="42.09412707388143" lon="12.026026236046464"><ele>239.0</ele><time>2026-04-18T10:43:44Z</time></trkpt><trkpt lat="42.09422495880255" lon="12.026009041157584"><ele>241.0</ele><time>2026-04-18T10:43:46Z</time></trkpt><trkpt lat="42.09431569669" lon="12.025941458771559"><ele>242.99999999999997</ele><time>2026-04-18T10:43:48Z</time></trkpt><trkpt lat="42.09443046940189" lon="12.025835487426823"><ele>244.99999999999997</ele><time>2026-04-18T10:43:50Z</time></trkpt><trkpt lat="42.09452150418897" lon="12.025778925905195"><ele>247.0</ele><time>2026-04-18T10:43:52Z</time></trkpt><trkpt lat="42.09459863145828" lon="12.025777372602404"><ele>249.0</ele><time>2026-04-18T10:43:54Z</time></trkpt><trkpt lat="42.094684175152516" lon="12.02576789663791"><ele>249.0</ele><time>2026-04-18T10:43:57Z</time></trkpt><trkpt lat="42.09476926802115" lon="12.025793472921558"><ele>249.0</ele><time>2026-04-18T10:43:59Z</time></trkpt><trkpt lat="42.09485039307565" lon="12.025838580799379"><ele>249.0</ele><time>2026-04-18T10:44:01Z</time></trkpt><trkpt lat="42.09491655590776" lon="12.025846659987852"><ele>249.0</ele><time>2026-04-18T10:44:03Z</time></trkpt><trkpt lat="42.094979328182944" lon="12.025803854748341"><ele>249.0</ele><time>2026-04-18T10:44:05Z</time></trkpt><trkpt lat="42.09505277630712" lon="12.025769679124846"><ele>249.0</ele><time>2026-04-18T10:44:07Z</time></trkpt><trkpt lat="42.09514793258807" lon="12.02581614497964"><ele>249.79999999999998</ele><time>2026-04-18T10:44:09Z</time></trkpt><trkpt lat="42.09522866343028" lon="12.025884941386687"><ele>250.59999999999997</ele><time>2026-04-18T10:44:11Z</time></trkpt><trkpt lat="42.095306391197546" lon="12.025898961508249"><ele>251.4</ele><time>2026-04-18T10:44:13Z</time></trkpt><trkpt lat="42.09535706789028" lon="12.025993193199756"><ele>252.2</ele><time>2026-04-18T10:44:17Z</time></trkpt><trkpt lat="42.09534311724879" lon="12.026104161773558"><ele>253.0</ele><time>2026-04-18T10:44:20Z</time></trkpt><trkpt lat="42.095386043917145" lon="12.026324275693677"><ele>252.99999999999997</ele><time>2026-04-18T10:44:22Z</time></trkpt><trkpt lat="42.0953995072264" lon="12.026456168596347"><ele>253.0</ele><time>2026-04-18T10:44:24Z</time></trkpt><trkpt lat="42.095418695364586" lon="12.026571751779654"><ele>253.0</ele><time>2026-04-18T10:44:26Z</time></trkpt><trkpt lat="42.09542770301268" lon="12.02668300460032"><ele>253.0</ele><time>2026-04-18T10:44:28Z</time></trkpt><trkpt lat="42.09547479588119" lon="12.026756148982177"><ele>252.99999999999997</ele><time>2026-04-18T10:44:32Z</time></trkpt><trkpt lat="42.095540237704654" lon="12.026821029778366"><ele>253.0</ele><time>2026-04-18T10:44:36Z</time></trkpt><trkpt lat="42.09561163719253" lon="12.026843779501629"><ele>253.8</ele><time>2026-04-18T10:44:38Z</time></trkpt><trkpt lat="42.09568488859209" lon="12.026832354220721"><ele>254.60000000000002</ele><time>2026-04-18T10:44:40Z</time></trkpt><trkpt lat="42.09576948853999" lon="12.026847451074504"><ele>255.39999999999998</ele><time>2026-04-18T10:44:44.001Z</time></trkpt><trkpt lat="42.09580999891701" lon="12.026924814800193"><ele>256.2</ele><time>2026-04-18T10:44:47.001Z</time></trkpt><trkpt lat="42.09589546868153" lon="12.026933383019783"><ele>257.0</ele><time>2026-04-18T10:44:49.001Z</time></trkpt><trkpt lat="42.09606101827608" lon="12.027060966978096"><ele>257.6666666666667</ele><time>2026-04-18T10:44:53.001Z</time></trkpt><trkpt lat="42.0961053614662" lon="12.027142901820728"><ele>258.33333333333337</ele><time>2026-04-18T10:44:54.001Z</time></trkpt><trkpt lat="42.096175556433934" lon="12.027158692790657"><ele>259.0</ele><time>2026-04-18T10:44:57.001Z</time></trkpt><trkpt lat="42.09626801037103" lon="12.027120790460812"><ele>259.6666666666667</ele><time>2026-04-18T10:44:59.001Z</time></trkpt><trkpt lat="42.096331277100354" lon="12.027102996403174"><ele>260.3333333333333</ele><time>2026-04-18T10:45:01.001Z</time></trkpt><trkpt lat="42.09639963519237" lon="12.027081501260241"><ele>261.0</ele><time>2026-04-18T10:45:07.001Z</time></trkpt><trkpt lat="42.096478214389556" lon="12.027157217965724"><ele>261.0</ele><time>2026-04-18T10:45:10.001Z</time></trkpt><trkpt lat="42.096512835125075" lon="12.02726250564105"><ele>261.0</ele><time>2026-04-18T10:45:21.001Z</time></trkpt><trkpt lat="42.09657332018772" lon="12.027294561206391"><ele>261.0</ele><time>2026-04-18T10:45:24.001Z</time></trkpt><trkpt lat="42.09663526944147" lon="12.027319245817491"><ele>261.0</ele><time>2026-04-18T10:45:26.001Z</time></trkpt><trkpt lat="42.09669759226397" lon="12.02734721422456"><ele>261.0</ele><time>2026-04-18T10:45:28.001Z</time></trkpt><trkpt lat="42.096763613872895" lon="12.02739418883628"><ele>261.0</ele><time>2026-04-18T10:45:31.001Z</time></trkpt><trkpt lat="42.09681331556696" lon="12.027461078902817"><ele>261.0</ele><time>2026-04-18T10:45:35.001Z</time></trkpt><trkpt lat="42.096871864371465" lon="12.027555630642745"><ele>262.8333333333333</ele><time>2026-04-18T10:45:39.001Z</time></trkpt><trkpt lat="42.09695672333132" lon="12.027544448811543"><ele>264.6666666666667</ele><time>2026-04-18T10:45:42.001Z</time></trkpt><trkpt lat="42.09701667280433" lon="12.027509935714415"><ele>266.5</ele><time>2026-04-18T10:45:45.001Z</time></trkpt><trkpt lat="42.09708727415762" lon="12.027459887977836"><ele>268.33333333333337</ele><time>2026-04-18T10:45:49Z</time></trkpt><trkpt lat="42.09716262166623" lon="12.027425406652869"><ele>270.1666666666667</ele><time>2026-04-18T10:45:54Z</time></trkpt><trkpt lat="42.09724949500328" lon="12.027405120738564"><ele>272.0</ele><time>2026-04-18T10:45:58Z</time></trkpt><trkpt lat="42.09731445322081" lon="12.027419634672746"><ele>272.0</ele><time>2026-04-18T10:45:59Z</time></trkpt><trkpt lat="42.09738093473674" lon="12.02742275133845"><ele>272.0</ele><time>2026-04-18T10:46:00Z</time></trkpt><trkpt lat="42.097458220803105" lon="12.02741769963653"><ele>272.0</ele><time>2026-04-18T10:46:02Z</time></trkpt><trkpt lat="42.097547149690186" lon="12.027330961092874"><ele>272.0</ele><time>2026-04-18T10:46:04Z</time></trkpt><trkpt lat="42.09761541640141" lon="12.027292730904248"><ele>272.0</ele><time>2026-04-18T10:46:05Z</time></trkpt><trkpt lat="42.09771976287444" lon="12.027227456704969"><ele>272.0</ele><time>2026-04-18T10:46:07Z</time></trkpt><trkpt lat="42.097812159312255" lon="12.027214850338725"><ele>273.85714285714283</ele><time>2026-04-18T10:46:09Z</time></trkpt><trkpt lat="42.09789068066797" lon="12.027219253195204"><ele>275.7142857142857</ele><time>2026-04-18T10:46:12Z</time></trkpt><trkpt lat="42.09796852024867" lon="12.027209002410256"><ele>277.57142857142856</ele><time>2026-04-18T10:46:15Z</time></trkpt><trkpt lat="42.09803515313202" lon="12.02718998854417"><ele>279.42857142857144</ele><time>2026-04-18T10:46:17Z</time></trkpt><trkpt lat="42.09810780707284" lon="12.027190328639472"><ele>281.2857142857143</ele><time>2026-04-18T10:46:20Z</time></trkpt><trkpt lat="42.098176791302706" lon="12.027187278749592"><ele>283.1428571428571</ele><time>2026-04-18T10:46:22Z</time></trkpt><trkpt lat="42.09825618914019" lon="12.027170090345733"><ele>285.0</ele><time>2026-04-18T10:46:26Z</time></trkpt><trkpt lat="42.098324282334346" lon="12.027150487192129"><ele>288.3333333333333</ele><time>2026-04-18T10:46:29Z</time></trkpt><trkpt lat="42.09839703103554" lon="12.027125514050722"><ele>291.6666666666667</ele><time>2026-04-18T10:46:31Z</time></trkpt><trkpt lat="42.09849024963364" lon="12.027122062103956"><ele>295.0</ele><time>2026-04-18T10:46:34Z</time></trkpt><trkpt lat="42.098581965271165" lon="12.027048360792334"><ele>298.33333333333337</ele><time>2026-04-18T10:46:36Z</time></trkpt><trkpt lat="42.098671270210865" lon="12.027001570235285"><ele>301.6666666666667</ele><time>2026-04-18T10:47:09.001Z</time></trkpt><trkpt lat="42.09870692730847" lon="12.02707688103413"><ele>305.0</ele><time>2026-04-18T10:47:14.001Z</time></trkpt><trkpt lat="42.09878501243437" lon="12.027065399276829"><ele>305.0</ele><time>2026-04-18T10:47:17.001Z</time></trkpt><trkpt lat="42.09887299851751" lon="12.027029360173096"><ele>305.0</ele><time>2026-04-18T10:47:20.001Z</time></trkpt><trkpt lat="42.09892799466508" lon="12.026974344494446"><ele>305.0</ele><time>2026-04-18T10:47:23.001Z</time></trkpt><trkpt lat="42.09898748782098" lon="12.026925815455808"><ele>305.0</ele><time>2026-04-18T10:47:25.001Z</time></trkpt><trkpt lat="42.09905511842424" lon="12.026928937111393"><ele>305.0</ele><time>2026-04-18T10:47:28.001Z</time></trkpt><trkpt lat="42.099114127133944" lon="12.026994378452985"><ele>305.0</ele><time>2026-04-18T10:47:32.001Z</time></trkpt><trkpt lat="42.09921139387966" lon="12.027003295070156"><ele>308.1666666666667</ele><time>2026-04-18T10:47:35.001Z</time></trkpt><trkpt lat="42.09927650236487" lon="12.027006395292874"><ele>311.33333333333337</ele><time>2026-04-18T10:47:37.001Z</time></trkpt><trkpt lat="42.099356825600445" lon="12.02696573641572"><ele>314.5</ele><time>2026-04-18T10:47:41.001Z</time></trkpt><trkpt lat="42.09944590840033" lon="12.026985036726005"><ele>317.6666666666667</ele><time>2026-04-18T10:47:44.001Z</time></trkpt><trkpt lat="42.099512772282836" lon="12.0269786261369"><ele>320.8333333333333</ele><time>2026-04-18T10:47:46.001Z</time></trkpt><trkpt lat="42.09957822078946" lon="12.026944457121646"><ele>324.0</ele><time>2026-04-18T10:47:48.001Z</time></trkpt><trkpt lat="42.099654535609815" lon="12.026914840731353"><ele>324.0</ele><time>2026-04-18T10:47:51.001Z</time></trkpt><trkpt lat="42.099718169791835" lon="12.026910152799989"><ele>324.0</ele><time>2026-04-18T10:47:52.999Z</time></trkpt><trkpt lat="42.09979388061342" lon="12.026941649582314"><ele>324.0</ele><time>2026-04-18T10:47:54.999Z</time></trkpt><trkpt lat="42.09985369436843" lon="12.026978187051277"><ele>324.0</ele><time>2026-04-18T10:47:57.999Z</time></trkpt><trkpt lat="42.09991262398259" lon="12.027008801789108"><ele>324.0</ele><time>2026-04-18T10:48:00.999Z</time></trkpt><trkpt lat="42.10000655952023" lon="12.027007238378978"><ele>324.0</ele><time>2026-04-18T10:48:02.999Z</time></trkpt><trkpt lat="42.10002529431239" lon="12.02690419609033"><ele>324.0</ele><time>2026-04-18T10:48:06.999Z</time></trkpt><trkpt lat="42.10000421085882" lon="12.02679968395207"><ele>325.8333333333333</ele><time>2026-04-18T10:48:09.999Z</time></trkpt><trkpt lat="42.09998686411554" lon="12.026711511277322"><ele>327.6666666666667</ele><time>2026-04-18T10:48:13Z</time></trkpt><trkpt lat="42.099952418747655" lon="12.026568476217323"><ele>329.5</ele><time>2026-04-18T10:48:15Z</time></trkpt><trkpt lat="42.10000157521794" lon="12.026656189812897"><ele>331.33333333333337</ele><time>2026-04-18T10:48:21Z</time></trkpt><trkpt lat="42.100042914911576" lon="12.026764916603438"><ele>333.1666666666667</ele><time>2026-04-18T10:48:23Z</time></trkpt><trkpt lat="42.100062246096826" lon="12.026861404427283"><ele>335.0</ele><time>2026-04-18T10:49:38.001Z</time></trkpt><trkpt lat="42.10007282577831" lon="12.0269516215688"><ele>335.8</ele><time>2026-04-18T10:49:39.001Z</time></trkpt><trkpt lat="42.10007796340266" lon="12.02705599217994"><ele>336.6</ele><time>2026-04-18T10:49:40.001Z</time></trkpt><trkpt lat="42.10004794223735" lon="12.027174305895073"><ele>337.4</ele><time>2026-04-18T10:49:41.001Z</time></trkpt><trkpt lat="42.10004780425427" lon="12.027313400607948"><ele>338.2</ele><time>2026-04-18T10:49:42.001Z</time></trkpt><trkpt lat="42.10005591379066" lon="12.02746243123672"><ele>339.0</ele><time>2026-04-18T10:49:43.001Z</time></trkpt><trkpt lat="42.10003309235524" lon="12.027599699230498"><ele>339.6666666666667</ele><time>2026-04-18T10:49:44.001Z</time></trkpt><trkpt lat="42.100004307544665" lon="12.027699850028684"><ele>340.3333333333333</ele><time>2026-04-18T10:49:45.001Z</time></trkpt><trkpt lat="42.09998529810435" lon="12.027824083940844"><ele>341.0</ele><time>2026-04-18T10:49:46.001Z</time></trkpt><trkpt lat="42.09994695479705" lon="12.027917917537"><ele>341.66666666666663</ele><time>2026-04-18T10:49:47.001Z</time></trkpt><trkpt lat="42.09990889398343" lon="12.028025775136634"><ele>342.3333333333333</ele><time>2026-04-18T10:49:48.001Z</time></trkpt><trkpt lat="42.09988360985886" lon="12.028147083949074"><ele>343.0</ele><time>2026-04-18T10:49:49.001Z</time></trkpt><trkpt lat="42.099836826744294" lon="12.028253582425071"><ele>341.3333333333333</ele><time>2026-04-18T10:49:50.001Z</time></trkpt><trkpt lat="42.09983063543833" lon="12.028364512979946"><ele>339.66666666666663</ele><time>2026-04-18T10:49:51.001Z</time></trkpt><trkpt lat="42.09983621286108" lon="12.028464930947269"><ele>338.0</ele><time>2026-04-18T10:49:52.001Z</time></trkpt><trkpt lat="42.099843392232785" lon="12.028578713044437"><ele>336.3333333333333</ele><time>2026-04-18T10:49:53.001Z</time></trkpt><trkpt lat="42.099847576618046" lon="12.02869396611059"><ele>334.6666666666667</ele><time>2026-04-18T10:49:54.001Z</time></trkpt><trkpt lat="42.0998403594477" lon="12.028834565065274"><ele>333.0</ele><time>2026-04-18T10:49:55.001Z</time></trkpt><trkpt lat="42.09983106745381" lon="12.0289496429017"><ele>333.0</ele><time>2026-04-18T10:49:56.001Z</time></trkpt><trkpt lat="42.09982214780575" lon="12.029068364098771"><ele>333.0</ele><time>2026-04-18T10:49:57.001Z</time></trkpt><trkpt lat="42.09983210382565" lon="12.02919921343162"><ele>333.0</ele><time>2026-04-18T10:49:58.001Z</time></trkpt><trkpt lat="42.09982812435629" lon="12.029315496190494"><ele>333.0</ele><time>2026-04-18T10:49:58.999Z</time></trkpt><trkpt lat="42.099859157690396" lon="12.029425620558749"><ele>333.0</ele><time>2026-04-18T10:49:59.999Z</time></trkpt><trkpt lat="42.09988435874088" lon="12.029551362082104"><ele>334.0</ele><time>2026-04-18T10:50:00.999Z</time></trkpt><trkpt lat="42.09992895327545" lon="12.02965786834973"><ele>335.0</ele><time>2026-04-18T10:50:01.999Z</time></trkpt><trkpt lat="42.09993776657337" lon="12.029756000638079"><ele>336.0</ele><time>2026-04-18T10:50:03.999Z</time></trkpt><trkpt lat="42.099854624061024" lon="12.029955070840733"><ele>337.0</ele><time>2026-04-18T10:50:05.999Z</time></trkpt><trkpt lat="42.09981169775875" lon="12.03007676827241"><ele>338.0</ele><time>2026-04-18T10:50:06.999Z</time></trkpt><trkpt lat="42.09979353770553" lon="12.030232072326928"><ele>341.5</ele><time>2026-04-18T10:50:07.999Z</time></trkpt><trkpt lat="42.099795593025995" lon="12.030428782805082"><ele>345.0</ele><time>2026-04-18T10:50:08.999Z</time></trkpt><trkpt lat="42.09981027422826" lon="12.030601143946432"><ele>348.5</ele><time>2026-04-18T10:50:09.999Z</time></trkpt><trkpt lat="42.099812392078604" lon="12.030768344770186"><ele>352.0</ele><time>2026-04-18T10:50:10.999Z</time></trkpt><trkpt lat="42.099818177323975" lon="12.03093479843536"><ele>353.8</ele><time>2026-04-18T10:50:11.999Z</time></trkpt><trkpt lat="42.09987049206951" lon="12.031073133218452"><ele>355.6</ele><time>2026-04-18T10:50:12.999Z</time></trkpt><trkpt lat="42.099881309093426" lon="12.031206586563139"><ele>357.40000000000003</ele><time>2026-04-18T10:50:13.999Z</time></trkpt><trkpt lat="42.09988364555237" lon="12.031382768549097"><ele>359.20000000000005</ele><time>2026-04-18T10:50:16Z</time></trkpt><trkpt lat="42.099881088417675" lon="12.031478752911944"><ele>361.0</ele><time>2026-04-18T10:50:17Z</time></trkpt><trkpt lat="42.09982334391377" lon="12.031566441441097"><ele>361.0</ele><time>2026-04-18T10:50:18Z</time></trkpt><trkpt lat="42.09975217805551" lon="12.03165274928626"><ele>361.0</ele><time>2026-04-18T10:50:19Z</time></trkpt><trkpt lat="42.09968680497932" lon="12.031740215932672"><ele>361.0</ele><time>2026-04-18T10:50:20Z</time></trkpt><trkpt lat="42.09964760747426" lon="12.031814399737371"><ele>361.0</ele><time>2026-04-18T10:50:21Z</time></trkpt><trkpt lat="42.09959589182447" lon="12.031888997735972"><ele>361.0</ele><time>2026-04-18T10:50:22Z</time></trkpt><trkpt lat="42.09954292625916" lon="12.031976992020798"><ele>361.0</ele><time>2026-04-18T10:50:23Z</time></trkpt><trkpt lat="42.099489170851896" lon="12.0320665765171"><ele>361.0</ele><time>2026-04-18T10:50:24Z</time></trkpt><trkpt lat="42.099440596336805" lon="12.032147795827788"><ele>361.0</ele><time>2026-04-18T10:50:25Z</time></trkpt><trkpt lat="42.099391302542365" lon="12.032235815484063"><ele>361.0</ele><time>2026-04-18T10:50:26Z</time></trkpt><trkpt lat="42.09935602286663" lon="12.032327589284748"><ele>361.0</ele><time>2026-04-18T10:50:27Z</time></trkpt><trkpt lat="42.099303419187976" lon="12.032413666217806"><ele>361.0</ele><time>2026-04-18T10:50:28Z</time></trkpt><trkpt lat="42.09924405705317" lon="12.032485725564328"><ele>361.0</ele><time>2026-04-18T10:50:29Z</time></trkpt><trkpt lat="42.099190646703704" lon="12.03257098439328"><ele>361.5</ele><time>2026-04-18T10:50:31Z</time></trkpt><trkpt lat="42.0991191526364" lon="12.032640366958153"><ele>362.0</ele><time>2026-04-18T10:50:32Z</time></trkpt><trkpt lat="42.0990562317256" lon="12.032783053148245"><ele>362.5</ele><time>2026-04-18T10:50:34Z</time></trkpt><trkpt lat="42.0990229535173" lon="12.032856348942136"><ele>363.0</ele><time>2026-04-18T10:50:35Z</time></trkpt><trkpt lat="42.09900076662243" lon="12.032968321633131"><ele>363.5</ele><time>2026-04-18T10:50:36Z</time></trkpt><trkpt lat="42.09898531405341" lon="12.03307555854447"><ele>364.0</ele><time>2026-04-18T10:50:37Z</time></trkpt><trkpt lat="42.09896118975926" lon="12.033189110380237"><ele>364.0</ele><time>2026-04-18T10:50:38Z</time></trkpt><trkpt lat="42.098941895258235" lon="12.033286115690492"><ele>364.0</ele><time>2026-04-18T10:50:39Z</time></trkpt><trkpt lat="42.09892362370887" lon="12.033383315824862"><ele>364.0</ele><time>2026-04-18T10:50:40Z</time></trkpt><trkpt lat="42.09890498425972" lon="12.03348387352627"><ele>364.0</ele><time>2026-04-18T10:50:41Z</time></trkpt><trkpt lat="42.098888829157744" lon="12.033576166250324"><ele>364.0</ele><time>2026-04-18T10:50:42Z</time></trkpt><trkpt lat="42.09889370629889" lon="12.033672210473396"><ele>364.0</ele><time>2026-04-18T10:50:43Z</time></trkpt><trkpt lat="42.09887767447418" lon="12.033786849266614"><ele>363.4</ele><time>2026-04-18T10:50:45Z</time></trkpt><trkpt lat="42.09888372723833" lon="12.033886258400019"><ele>362.79999999999995</ele><time>2026-04-18T10:50:46Z</time></trkpt><trkpt lat="42.09889861453898" lon="12.033989815075996"><ele>362.20000000000005</ele><time>2026-04-18T10:50:47Z</time></trkpt><trkpt lat="42.09892428912705" lon="12.034089077321426"><ele>361.6</ele><time>2026-04-18T10:50:48Z</time></trkpt><trkpt lat="42.098937722799874" lon="12.034172096750234"><ele>361.0</ele><time>2026-04-18T10:50:49Z</time></trkpt><trkpt lat="42.09901215239708" lon="12.034378099102103"><ele>360.5</ele><time>2026-04-18T10:50:51Z</time></trkpt><trkpt lat="42.09904006696066" lon="12.03448489742428"><ele>360.0</ele><time>2026-04-18T10:50:52Z</time></trkpt><trkpt lat="42.09907013619986" lon="12.034575139562035"><ele>359.5</ele><time>2026-04-18T10:50:53Z</time></trkpt><trkpt lat="42.09910725716152" lon="12.034679277258116"><ele>359.0</ele><time>2026-04-18T10:50:54Z</time></trkpt><trkpt lat="42.0991441966778" lon="12.034782425370903"><ele>358.5</ele><time>2026-04-18T10:50:55Z</time></trkpt><trkpt lat="42.09919808042435" lon="12.034882192088546"><ele>358.0</ele><time>2026-04-18T10:50:56Z</time></trkpt><trkpt lat="42.09923532009773" lon="12.034961679835249"><ele>353.3333333333333</ele><time>2026-04-18T10:50:57Z</time></trkpt><trkpt lat="42.099253844150425" lon="12.035106709749156"><ele>348.66666666666663</ele><time>2026-04-18T10:50:59Z</time></trkpt><trkpt lat="42.09922176929779" lon="12.035190499462141"><ele>344.0</ele><time>2026-04-18T10:51:00Z</time></trkpt><trkpt lat="42.09919646954868" lon="12.035298300722992"><ele>339.3333333333333</ele><time>2026-04-18T10:51:01Z</time></trkpt><trkpt lat="42.099180180407636" lon="12.035413404807269"><ele>334.6666666666667</ele><time>2026-04-18T10:51:02Z</time></trkpt><trkpt lat="42.099155600698474" lon="12.03552153798087"><ele>330.0</ele><time>2026-04-18T10:51:03Z</time></trkpt><trkpt lat="42.0991211754642" lon="12.03560042114421"><ele>328.6</ele><time>2026-04-18T10:51:04Z</time></trkpt><trkpt lat="42.099083298985626" lon="12.03576902420661"><ele>327.2</ele><time>2026-04-18T10:51:06.001Z</time></trkpt><trkpt lat="42.09911750309328" lon="12.035927224641876"><ele>325.79999999999995</ele><time>2026-04-18T10:51:08.001Z</time></trkpt><trkpt lat="42.09912643222278" lon="12.036026821378783"><ele>324.4</ele><time>2026-04-18T10:51:09.001Z</time></trkpt><trkpt lat="42.099150286766786" lon="12.036131519557713"><ele>323.0</ele><time>2026-04-18T10:51:10.001Z</time></trkpt><trkpt lat="42.09916691923337" lon="12.0362685462482"><ele>323.0</ele><time>2026-04-18T10:51:12.001Z</time></trkpt><trkpt lat="42.09915829049223" lon="12.03636936498123"><ele>323.0</ele><time>2026-04-18T10:51:14.001Z</time></trkpt><trkpt lat="42.09922287337001" lon="12.036442292851884"><ele>323.0</ele><time>2026-04-18T10:51:16.001Z</time></trkpt><trkpt lat="42.09928742053603" lon="12.036427542866102"><ele>323.0</ele><time>2026-04-18T10:51:17.001Z</time></trkpt><trkpt lat="42.099325598608175" lon="12.036290580600143"><ele>323.0</ele><time>2026-04-18T10:51:19.001Z</time></trkpt><trkpt lat="42.0993168919981" lon="12.036150181148022"><ele>323.0</ele><time>2026-04-18T10:51:21.001Z</time></trkpt><trkpt lat="42.09932123083349" lon="12.036042290419278"><ele>323.0</ele><time>2026-04-18T10:51:24.001Z</time></trkpt><trkpt lat="42.099317192351826" lon="12.036129991899125"><ele>323.0</ele><time>2026-04-18T10:51:27.001Z</time></trkpt><trkpt lat="42.0993410537997" lon="12.036256060166245"><ele>323.0</ele><time>2026-04-18T10:51:31.001Z</time></trkpt><trkpt lat="42.09932235551516" lon="12.036363419160534"><ele>323.0</ele><time>2026-04-18T10:51:33.001Z</time></trkpt><trkpt lat="42.09932028942415" lon="12.036554349422307"><ele>323.0</ele><time>2026-04-18T10:51:35.001Z</time></trkpt><trkpt lat="42.09936282028681" lon="12.036728404932232"><ele>321.59999999999997</ele><time>2026-04-18T10:51:36.001Z</time></trkpt><trkpt lat="42.09937373110218" lon="12.036833873860509"><ele>320.2</ele><time>2026-04-18T10:51:37.001Z</time></trkpt><trkpt lat="42.09936595066457" lon="12.036988939469012"><ele>318.8</ele><time>2026-04-18T10:51:39.001Z</time></trkpt><trkpt lat="42.09937590167751" lon="12.037105703831696"><ele>317.4</ele><time>2026-04-18T10:51:40.001Z</time></trkpt><trkpt lat="42.09939248947751" lon="12.037233219855452"><ele>316.0</ele><time>2026-04-18T10:51:41.001Z</time></trkpt><trkpt lat="42.09939583437967" lon="12.03734542767964"><ele>316.00000000000006</ele><time>2026-04-18T10:51:42.001Z</time></trkpt><trkpt lat="42.0993855615549" lon="12.037459339589883"><ele>316.0</ele><time>2026-04-18T10:51:43.001Z</time></trkpt><trkpt lat="42.09937174473638" lon="12.037557687766807"><ele>316.0</ele><time>2026-04-18T10:51:44.001Z</time></trkpt><trkpt lat="42.09935947939" lon="12.037645000200863"><ele>316.0</ele><time>2026-04-18T10:51:45.001Z</time></trkpt><trkpt lat="42.099351569640056" lon="12.037741154635663"><ele>316.0</ele><time>2026-04-18T10:51:46.001Z</time></trkpt><trkpt lat="42.099339824872665" lon="12.037836229449146"><ele>316.00000000000006</ele><time>2026-04-18T10:51:47.001Z</time></trkpt><trkpt lat="42.0993332421292" lon="12.03792811409037"><ele>316.0</ele><time>2026-04-18T10:51:48.001Z</time></trkpt><trkpt lat="42.09932086498665" lon="12.038027396728646"><ele>314.66666666666663</ele><time>2026-04-18T10:51:49.001Z</time></trkpt><trkpt lat="42.099316267636375" lon="12.038130379753696"><ele>313.3333333333333</ele><time>2026-04-18T10:51:50.001Z</time></trkpt><trkpt lat="42.099320474791824" lon="12.038248142671147"><ele>312.0</ele><time>2026-04-18T10:51:51.001Z</time></trkpt><trkpt lat="42.099331144297814" lon="12.038351646221484"><ele>310.6666666666667</ele><time>2026-04-18T10:51:52.001Z</time></trkpt><trkpt lat="42.09934798626269" lon="12.03843620044253"><ele>309.33333333333337</ele><time>2026-04-18T10:51:53.001Z</time></trkpt><trkpt lat="42.09938288901906" lon="12.038597714091688"><ele>308.0</ele><time>2026-04-18T10:51:55.001Z</time></trkpt><trkpt lat="42.09943683629758" lon="12.03876330113275"><ele>305.83333333333337</ele><time>2026-04-18T10:51:57.001Z</time></trkpt><trkpt lat="42.09947509935643" lon="12.038856707224305"><ele>303.6666666666667</ele><time>2026-04-18T10:51:58.001Z</time></trkpt><trkpt lat="42.09950766936422" lon="12.038958865523474"><ele>301.5</ele><time>2026-04-18T10:51:59.001Z</time></trkpt><trkpt lat="42.09955448551867" lon="12.039028082257223"><ele>299.3333333333333</ele><time>2026-04-18T10:52:00.001Z</time></trkpt><trkpt lat="42.099621346658054" lon="12.039130512163622"><ele>297.16666666666663</ele><time>2026-04-18T10:52:01.001Z</time></trkpt><trkpt lat="42.09968313026947" lon="12.039229631599573"><ele>295.0</ele><time>2026-04-18T10:52:02.001Z</time></trkpt><trkpt lat="42.09978593099235" lon="12.03934117291039"><ele>292.3333333333333</ele><time>2026-04-18T10:52:03.001Z</time></trkpt><trkpt lat="42.0998710690048" lon="12.03942330875168"><ele>289.66666666666663</ele><time>2026-04-18T10:52:04.001Z</time></trkpt><trkpt lat="42.09994343374415" lon="12.039494802411607"><ele>287.0</ele><time>2026-04-18T10:52:05Z</time></trkpt><trkpt lat="42.09999998273403" lon="12.039566601629188"><ele>284.3333333333333</ele><time>2026-04-18T10:52:06Z</time></trkpt><trkpt lat="42.100029814353015" lon="12.039644620613236"><ele>281.6666666666667</ele><time>2026-04-18T10:52:07Z</time></trkpt><trkpt lat="42.10005777866911" lon="12.039735823895159"><ele>279.0</ele><time>2026-04-18T10:52:08Z</time></trkpt><trkpt lat="42.100096949456685" lon="12.039827788077803"><ele>277.99999999999994</ele><time>2026-04-18T10:52:09Z</time></trkpt><trkpt lat="42.10013430416859" lon="12.039920727986468"><ele>277.0</ele><time>2026-04-18T10:52:10Z</time></trkpt><trkpt lat="42.10016991689665" lon="12.040008255973254"><ele>276.0</ele><time>2026-04-18T10:52:11Z</time></trkpt><trkpt lat="42.10020781010335" lon="12.040087588650618"><ele>275.0</ele><time>2026-04-18T10:52:12Z</time></trkpt><trkpt lat="42.10025808585199" lon="12.04015839107228"><ele>274.0</ele><time>2026-04-18T10:52:13Z</time></trkpt><trkpt lat="42.10031205805943" lon="12.040217814644052"><ele>272.99999999999994</ele><time>2026-04-18T10:52:14Z</time></trkpt><trkpt lat="42.10035851600143" lon="12.040291168402664"><ele>272.0</ele><time>2026-04-18T10:52:15Z</time></trkpt><trkpt lat="42.1003990667884" lon="12.040378895011308"><ele>271.33333333333337</ele><time>2026-04-18T10:52:16Z</time></trkpt><trkpt lat="42.1004213654052" lon="12.040476436235913"><ele>270.6666666666667</ele><time>2026-04-18T10:52:17Z</time></trkpt><trkpt lat="42.10043586020896" lon="12.040585091202406"><ele>270.0</ele><time>2026-04-18T10:52:18Z</time></trkpt><trkpt lat="42.10044393214675" lon="12.04070254560835"><ele>269.3333333333333</ele><time>2026-04-18T10:52:19Z</time></trkpt><trkpt lat="42.100451588181116" lon="12.04081641826261"><ele>268.66666666666663</ele><time>2026-04-18T10:52:20Z</time></trkpt><trkpt lat="42.100455654322495" lon="12.040914975352832"><ele>268.0</ele><time>2026-04-18T10:52:21Z</time></trkpt><trkpt lat="42.10045939482066" lon="12.041000427967877"><ele>266.16666666666663</ele><time>2026-04-18T10:52:22Z</time></trkpt><trkpt lat="42.10047332468483" lon="12.04108845107782"><ele>264.3333333333333</ele><time>2026-04-18T10:52:23Z</time></trkpt><trkpt lat="42.10048738668376" lon="12.041174757429685"><ele>262.5</ele><time>2026-04-18T10:52:24Z</time></trkpt><trkpt lat="42.10049539913643" lon="12.041262642179731"><ele>260.6666666666667</ele><time>2026-04-18T10:52:25Z</time></trkpt><trkpt lat="42.10050590422196" lon="12.041347617127375"><ele>258.83333333333337</ele><time>2026-04-18T10:52:26Z</time></trkpt><trkpt lat="42.10055778378614" lon="12.041490850384022"><ele>257.0</ele><time>2026-04-18T10:52:28Z</time></trkpt><trkpt lat="42.10063521387898" lon="12.041577889788808"><ele>257.0</ele><time>2026-04-18T10:52:30Z</time></trkpt><trkpt lat="42.10074309251312" lon="12.041635876947186"><ele>257.0</ele><time>2026-04-18T10:52:32Z</time></trkpt><trkpt lat="42.1008512042147" lon="12.041632632373899"><ele>257.0</ele><time>2026-04-18T10:52:34Z</time></trkpt><trkpt lat="42.10091508283876" lon="12.041623266181983"><ele>257.0</ele><time>2026-04-18T10:53:14.001Z</time></trkpt><trkpt lat="42.101024839137764" lon="12.041600394846826"><ele>257.0</ele><time>2026-04-18T10:53:17.001Z</time></trkpt><trkpt lat="42.10112235529991" lon="12.041594338217305"><ele>257.0</ele><time>2026-04-18T10:53:19.001Z</time></trkpt><trkpt lat="42.1012275758414" lon="12.041528131899245"><ele>257.0</ele><time>2026-04-18T10:53:21.001Z</time></trkpt><trkpt lat="42.10131303023006" lon="12.041466719967483"><ele>257.0</ele><time>2026-04-18T10:53:23.001Z</time></trkpt><trkpt lat="42.1014060437058" lon="12.04144414967615"><ele>257.0</ele><time>2026-04-18T10:53:26.001Z</time></trkpt><trkpt lat="42.101475590939316" lon="12.041417646635571"><ele>257.0</ele><time>2026-04-18T10:53:28.001Z</time></trkpt><trkpt lat="42.10157342316787" lon="12.041405638530419"><ele>252.8</ele><time>2026-04-18T10:53:30.001Z</time></trkpt><trkpt lat="42.101678115508946" lon="12.041410932198852"><ele>248.6</ele><time>2026-04-18T10:53:32.001Z</time></trkpt><trkpt lat="42.10176407369308" lon="12.041384817665039"><ele>244.40000000000003</ele><time>2026-04-18T10:53:34.001Z</time></trkpt><trkpt lat="42.101819558705046" lon="12.041265171573066"><ele>240.20000000000002</ele><time>2026-04-18T10:53:36.001Z</time></trkpt><trkpt lat="42.10188826484679" lon="12.041138655659912"><ele>236.0</ele><time>2026-04-18T10:53:38.001Z</time></trkpt><trkpt lat="42.10190728728292" lon="12.04105035732123"><ele>236.0</ele><time>2026-04-18T10:53:39.001Z</time></trkpt><trkpt lat="42.101919793770094" lon="12.040963940172192"><ele>236.00000000000003</ele><time>2026-04-18T10:53:40.001Z</time></trkpt><trkpt lat="42.10193326192843" lon="12.040880791413592"><ele>236.00000000000003</ele><time>2026-04-18T10:53:41.001Z</time></trkpt><trkpt lat="42.1020013086538" lon="12.040740663047005"><ele>236.0</ele><time>2026-04-18T10:53:43.001Z</time></trkpt><trkpt lat="42.10207656954974" lon="12.04059006052182"><ele>236.0</ele><time>2026-04-18T10:53:45.001Z</time></trkpt><trkpt lat="42.1021186703435" lon="12.04047072838392"><ele>236.14285714285714</ele><time>2026-04-18T10:53:46.001Z</time></trkpt><trkpt lat="42.102142635668876" lon="12.04037766280876"><ele>236.28571428571428</ele><time>2026-04-18T10:53:47.001Z</time></trkpt><trkpt lat="42.102170914909976" lon="12.040296109945796"><ele>236.42857142857142</ele><time>2026-04-18T10:53:48.001Z</time></trkpt><trkpt lat="42.10219508505291" lon="12.040209479068178"><ele>236.57142857142856</ele><time>2026-04-18T10:53:49.001Z</time></trkpt><trkpt lat="42.10222376003919" lon="12.040106067178852"><ele>236.71428571428572</ele><time>2026-04-18T10:53:50.001Z</time></trkpt><trkpt lat="42.10225045241339" lon="12.04001616410059"><ele>236.85714285714283</ele><time>2026-04-18T10:53:51.001Z</time></trkpt><trkpt lat="42.10227764298093" lon="12.039936426113982"><ele>236.99999999999997</ele><time>2026-04-18T10:53:52.001Z</time></trkpt><trkpt lat="42.102301965201185" lon="12.039838403360559"><ele>236.5</ele><time>2026-04-18T10:53:53.001Z</time></trkpt><trkpt lat="42.102327228482665" lon="12.039753614373959"><ele>236.0</ele><time>2026-04-18T10:53:54.001Z</time></trkpt><trkpt lat="42.102372175631785" lon="12.039637064246394"><ele>235.5</ele><time>2026-04-18T10:53:55.001Z</time></trkpt><trkpt lat="42.102417250228996" lon="12.039557149240057"><ele>235.0</ele><time>2026-04-18T10:53:56.001Z</time></trkpt><trkpt lat="42.10246091260581" lon="12.03946590422072"><ele>234.5</ele><time>2026-04-18T10:53:57.001Z</time></trkpt><trkpt lat="42.102507767216196" lon="12.039396099069684"><ele>234.0</ele><time>2026-04-18T10:53:58.001Z</time></trkpt><trkpt lat="42.10256408349571" lon="12.039264396884562"><ele>232.33333333333334</ele><time>2026-04-18T10:54:00.001Z</time></trkpt><trkpt lat="42.10261834056661" lon="12.039193777386561"><ele>230.66666666666669</ele><time>2026-04-18T10:54:02.002Z</time></trkpt><trkpt lat="42.10269908574489" lon="12.039178997849694"><ele>229.0</ele><time>2026-04-18T10:54:04.002Z</time></trkpt><trkpt lat="42.10280463883413" lon="12.039154930610557"><ele>227.33333333333334</ele><time>2026-04-18T10:54:06.002Z</time></trkpt><trkpt lat="42.102900657725506" lon="12.039124462509717"><ele>225.66666666666669</ele><time>2026-04-18T10:54:08.002Z</time></trkpt><trkpt lat="42.10296486036088" lon="12.039081981259406"><ele>224.0</ele><time>2026-04-18T10:54:09.002Z</time></trkpt><trkpt lat="42.103083312737525" lon="12.039026657894189"><ele>224.0</ele><time>2026-04-18T10:54:11Z</time></trkpt><trkpt lat="42.1031523168557" lon="12.03899163027998"><ele>223.99999999999997</ele><time>2026-04-18T10:54:12Z</time></trkpt><trkpt lat="42.103220417292015" lon="12.038925558998695"><ele>223.99999999999997</ele><time>2026-04-18T10:54:13Z</time></trkpt><trkpt lat="42.1032909100482" lon="12.038837542038072"><ele>224.0</ele><time>2026-04-18T10:54:14Z</time></trkpt><trkpt lat="42.103376230623766" lon="12.038727180765266"><ele>224.0</ele><time>2026-04-18T10:54:15Z</time></trkpt><trkpt lat="42.10345114690566" lon="12.038638516314519"><ele>223.0</ele><time>2026-04-18T10:54:16Z</time></trkpt><trkpt lat="42.10352540074976" lon="12.038551661626538"><ele>221.99999999999997</ele><time>2026-04-18T10:54:17Z</time></trkpt><trkpt lat="42.10360061905048" lon="12.038480961665035"><ele>220.99999999999997</ele><time>2026-04-18T10:54:18Z</time></trkpt><trkpt lat="42.10368152092706" lon="12.038425955544632"><ele>220.0</ele><time>2026-04-18T10:54:19Z</time></trkpt><trkpt lat="42.10376779152798" lon="12.03838293484811"><ele>219.0</ele><time>2026-04-18T10:54:20Z</time></trkpt><trkpt lat="42.10385801142531" lon="12.038346954637001"><ele>219.0</ele><time>2026-04-18T10:54:21Z</time></trkpt><trkpt lat="42.10395556479883" lon="12.038311638493598"><ele>218.99999999999997</ele><time>2026-04-18T10:54:22Z</time></trkpt><trkpt lat="42.10405561857241" lon="12.038272627159271"><ele>218.99999999999997</ele><time>2026-04-18T10:54:23Z</time></trkpt><trkpt lat="42.10416395038438" lon="12.038239443140071"><ele>219.0</ele><time>2026-04-18T10:54:24Z</time></trkpt><trkpt lat="42.1042740003803" lon="12.038212569390938"><ele>219.0</ele><time>2026-04-18T10:54:25Z</time></trkpt><trkpt lat="42.10438449030087" lon="12.038167556792333"><ele>218.83333333333334</ele><time>2026-04-18T10:54:26Z</time></trkpt><trkpt lat="42.104481061076655" lon="12.03811966336377"><ele>218.66666666666669</ele><time>2026-04-18T10:54:27Z</time></trkpt><trkpt lat="42.10456713189977" lon="12.038082369564615"><ele>218.5</ele><time>2026-04-18T10:54:28Z</time></trkpt><trkpt lat="42.10464586595322" lon="12.038044628816193"><ele>218.33333333333334</ele><time>2026-04-18T10:54:29Z</time></trkpt><trkpt lat="42.104714866856675" lon="12.037991025037927"><ele>218.16666666666669</ele><time>2026-04-18T10:54:30Z</time></trkpt><trkpt lat="42.10477928109679" lon="12.037930830677054"><ele>218.0</ele><time>2026-04-18T10:54:31Z</time></trkpt><trkpt lat="42.10483664987465" lon="12.037854325207164"><ele>218.0</ele><time>2026-04-18T10:54:32Z</time></trkpt><trkpt lat="42.10488586738011" lon="12.037777204559497"><ele>218.0</ele><time>2026-04-18T10:54:33Z</time></trkpt><trkpt lat="42.10493747901707" lon="12.037705965366161"><ele>218.0</ele><time>2026-04-18T10:54:34Z</time></trkpt><trkpt lat="42.10499052882927" lon="12.0376435749642"><ele>218.0</ele><time>2026-04-18T10:54:35Z</time></trkpt><trkpt lat="42.10503437854663" lon="12.037572784502041"><ele>218.0</ele><time>2026-04-18T10:54:36Z</time></trkpt><trkpt lat="42.10507039432985" lon="12.037489069277546"><ele>218.0</ele><time>2026-04-18T10:54:37Z</time></trkpt><trkpt lat="42.10509345575647" lon="12.037387380597462"><ele>218.0</ele><time>2026-04-18T10:54:38Z</time></trkpt><trkpt lat="42.105099442748475" lon="12.03728839886754"><ele>215.60000000000002</ele><time>2026-04-18T10:54:39Z</time></trkpt><trkpt lat="42.105096919075976" lon="12.03719728022323"><ele>213.20000000000002</ele><time>2026-04-18T10:54:40Z</time></trkpt><trkpt lat="42.10510216520954" lon="12.037041995719738"><ele>210.8</ele><time>2026-04-18T10:54:42Z</time></trkpt><trkpt lat="42.10509984182122" lon="12.036904617803527"><ele>208.4</ele><time>2026-04-18T10:54:44Z</time></trkpt><trkpt lat="42.10508913925378" lon="12.036743931614117"><ele>206.0</ele><time>2026-04-18T10:54:46Z</time></trkpt><trkpt lat="42.10505713134476" lon="12.03665504520558"><ele>206.50000000000003</ele><time>2026-04-18T10:54:47Z</time></trkpt><trkpt lat="42.10501940428123" lon="12.036567989949402"><ele>207.0</ele><time>2026-04-18T10:54:48Z</time></trkpt><trkpt lat="42.10498608613318" lon="12.036492118271637"><ele>207.5</ele><time>2026-04-18T10:54:49Z</time></trkpt><trkpt lat="42.10491925488568" lon="12.036338308014079"><ele>208.0</ele><time>2026-04-18T10:54:51.001Z</time></trkpt><trkpt lat="42.10488255701858" lon="12.036257062490959"><ele>208.50000000000003</ele><time>2026-04-18T10:54:52.001Z</time></trkpt><trkpt lat="42.1048318956285" lon="12.036134852341055"><ele>209.0</ele><time>2026-04-18T10:54:54.001Z</time></trkpt><trkpt lat="42.10487734674373" lon="12.03602058890937"><ele>209.0</ele><time>2026-04-18T10:54:57.001Z</time></trkpt><trkpt lat="42.10494767003307" lon="12.035994903036059"><ele>209.0</ele><time>2026-04-18T10:54:59.001Z</time></trkpt><trkpt lat="42.105013375028136" lon="12.035928838136561"><ele>209.0</ele><time>2026-04-18T10:55:00.001Z</time></trkpt><trkpt lat="42.10507507226705" lon="12.035867355110272"><ele>209.0</ele><time>2026-04-18T10:55:01.001Z</time></trkpt><trkpt lat="42.10513106140478" lon="12.03580058552127"><ele>209.0</ele><time>2026-04-18T10:55:02.001Z</time></trkpt><trkpt lat="42.10517657513819" lon="12.035735052481819"><ele>209.0</ele><time>2026-04-18T10:55:03.001Z</time></trkpt><trkpt lat="42.10522485291431" lon="12.03567707482032"><ele>209.0</ele><time>2026-04-18T10:55:04.001Z</time></trkpt><trkpt lat="42.105287241656335" lon="12.035631946499121"><ele>210.85714285714286</ele><time>2026-04-18T10:55:05.001Z</time></trkpt><trkpt lat="42.1053439578521" lon="12.035588291165864"><ele>212.71428571428572</ele><time>2026-04-18T10:55:06.001Z</time></trkpt><trkpt lat="42.10539426213949" lon="12.035514059297752"><ele>214.57142857142856</ele><time>2026-04-18T10:55:07.001Z</time></trkpt><trkpt lat="42.10542825731231" lon="12.035437704777095"><ele>216.42857142857144</ele><time>2026-04-18T10:55:08.001Z</time></trkpt><trkpt lat="42.10548432668328" lon="12.035354983317259"><ele>218.2857142857143</ele><time>2026-04-18T10:55:09.001Z</time></trkpt><trkpt lat="42.10554853171136" lon="12.035281600718728"><ele>220.14285714285714</ele><time>2026-04-18T10:55:10.001Z</time></trkpt><trkpt lat="42.10560147607844" lon="12.035222352490758"><ele>222.0</ele><time>2026-04-18T10:55:11.001Z</time></trkpt><trkpt lat="42.10564598005608" lon="12.035128410519196"><ele>222.0</ele><time>2026-04-18T10:55:12.001Z</time></trkpt><trkpt lat="42.10567412390598" lon="12.035039669306896"><ele>222.0</ele><time>2026-04-18T10:55:13.001Z</time></trkpt><trkpt lat="42.10575600982586" lon="12.034898491912248"><ele>222.0</ele><time>2026-04-18T10:55:15.001Z</time></trkpt><trkpt lat="42.105815411693065" lon="12.034818967987448"><ele>222.0</ele><time>2026-04-18T10:55:16.001Z</time></trkpt><trkpt lat="42.10586816536001" lon="12.03474181011105"><ele>222.0</ele><time>2026-04-18T10:55:17.001Z</time></trkpt><trkpt lat="42.105915073436336" lon="12.03466080784516"><ele>222.0</ele><time>2026-04-18T10:55:18.001Z</time></trkpt><trkpt lat="42.10596919031686" lon="12.034575404506468"><ele>222.0</ele><time>2026-04-18T10:55:19.001Z</time></trkpt><trkpt lat="42.106009008855345" lon="12.03449069460765"><ele>222.0</ele><time>2026-04-18T10:55:20.001Z</time></trkpt><trkpt lat="42.106052477240326" lon="12.034353468197208"><ele>222.0</ele><time>2026-04-18T10:55:22.001Z</time></trkpt><trkpt lat="42.10602431130793" lon="12.034184197870633"><ele>222.0</ele><time>2026-04-18T10:55:24.001Z</time></trkpt><trkpt lat="42.10597750198681" lon="12.034074633629059"><ele>222.0</ele><time>2026-04-18T10:55:25.001Z</time></trkpt><trkpt lat="42.10593006236323" lon="12.03394654366719"><ele>222.0</ele><time>2026-04-18T10:55:26.001Z</time></trkpt><trkpt lat="42.10588386396633" lon="12.03381596087261"><ele>222.0</ele><time>2026-04-18T10:55:27.001Z</time></trkpt><trkpt lat="42.10583449939577" lon="12.033684085025346"><ele>222.0</ele><time>2026-04-18T10:55:28.001Z</time></trkpt><trkpt lat="42.10579543285162" lon="12.033562145713212"><ele>222.0</ele><time>2026-04-18T10:55:29.001Z</time></trkpt><trkpt lat="42.10575889124471" lon="12.033454201608414"><ele>222.0</ele><time>2026-04-18T10:55:30.001Z</time></trkpt><trkpt lat="42.105722801510765" lon="12.033346519801936"><ele>225.6</ele><time>2026-04-18T10:55:31.001Z</time></trkpt><trkpt lat="42.105676257787024" lon="12.033228654772085"><ele>229.2</ele><time>2026-04-18T10:55:32.001Z</time></trkpt><trkpt lat="42.105605759572555" lon="12.033124040587804"><ele>232.8</ele><time>2026-04-18T10:55:33.001Z</time></trkpt><trkpt lat="42.10555394935214" lon="12.033049114883909"><ele>236.4</ele><time>2026-04-18T10:55:34.001Z</time></trkpt><trkpt lat="42.105537297821414" lon="12.032890672808088"><ele>240.0</ele><time>2026-04-18T10:55:36.001Z</time></trkpt><trkpt lat="42.10555572725234" lon="12.03272252016027"><ele>240.0</ele><time>2026-04-18T10:55:38.001Z</time></trkpt><trkpt lat="42.1055633725629" lon="12.032630721752522"><ele>240.0</ele><time>2026-04-18T10:55:39.001Z</time></trkpt><trkpt lat="42.10558869606744" lon="12.032502871713817"><ele>240.0</ele><time>2026-04-18T10:55:41.001Z</time></trkpt><trkpt lat="42.10565314035551" lon="12.032468783499297"><ele>240.0</ele><time>2026-04-18T10:55:44.001Z</time></trkpt><trkpt lat="42.105721475199374" lon="12.032436255052332"><ele>240.0</ele><time>2026-04-18T10:55:46.001Z</time></trkpt><trkpt lat="42.105844749772466" lon="12.032352765543388"><ele>240.0</ele><time>2026-04-18T10:55:48.001Z</time></trkpt><trkpt lat="42.10592453343916" lon="12.032301876946383"><ele>239.0</ele><time>2026-04-18T10:55:49.001Z</time></trkpt><trkpt lat="42.10600596318718" lon="12.032267232364472"><ele>238.0</ele><time>2026-04-18T10:55:50.001Z</time></trkpt><trkpt lat="42.106075163532545" lon="12.032224747884541"><ele>237.0</ele><time>2026-04-18T10:55:51.001Z</time></trkpt><trkpt lat="42.10614578704244" lon="12.032202435589959"><ele>236.0</ele><time>2026-04-18T10:55:52.001Z</time></trkpt><trkpt lat="42.106214358839885" lon="12.032187057196868"><ele>235.0</ele><time>2026-04-18T10:55:53.001Z</time></trkpt><trkpt lat="42.106275528772784" lon="12.032126155298336"><ele>234.0</ele><time>2026-04-18T10:55:54.001Z</time></trkpt><trkpt lat="42.10634229948069" lon="12.032057872930185"><ele>234.0</ele><time>2026-04-18T10:55:55.001Z</time></trkpt><trkpt lat="42.10642220666402" lon="12.03199638166414"><ele>234.0</ele><time>2026-04-18T10:55:56.002Z</time></trkpt><trkpt lat="42.10649687978783" lon="12.031940672234306"><ele>234.0</ele><time>2026-04-18T10:55:57.002Z</time></trkpt><trkpt lat="42.106557103190475" lon="12.031883385807511"><ele>234.0</ele><time>2026-04-18T10:55:58.002Z</time></trkpt><trkpt lat="42.10660011361992" lon="12.031814484910262"><ele>234.0</ele><time>2026-04-18T10:55:59.002Z</time></trkpt><trkpt lat="42.10664486702222" lon="12.031693034618238"><ele>234.0</ele><time>2026-04-18T10:56:01.002Z</time></trkpt><trkpt lat="42.10670195261517" lon="12.03155179071749"><ele>235.83333333333334</ele><time>2026-04-18T10:56:03.002Z</time></trkpt><trkpt lat="42.1067410355421" lon="12.031466194338753"><ele>237.66666666666669</ele><time>2026-04-18T10:56:04.002Z</time></trkpt><trkpt lat="42.106781356584264" lon="12.031371799160326"><ele>239.5</ele><time>2026-04-18T10:56:05.002Z</time></trkpt><trkpt lat="42.106852202510545" lon="12.031248982204822"><ele>241.33333333333334</ele><time>2026-04-18T10:56:07.002Z</time></trkpt><trkpt lat="42.10691128137502" lon="12.031182430651723"><ele>243.16666666666669</ele><time>2026-04-18T10:56:09.002Z</time></trkpt><trkpt lat="42.10696100175808" lon="12.031255556457033"><ele>245.0</ele><time>2026-04-18T10:56:24Z</time></trkpt><trkpt lat="42.106909602071575" lon="12.031318415625067"><ele>245.0</ele><time>2026-04-18T10:56:26Z</time></trkpt><trkpt lat="42.10683783350769" lon="12.031354466286444"><ele>245.0</ele><time>2026-04-18T10:56:28Z</time></trkpt><trkpt lat="42.10677250712944" lon="12.03140430271414"><ele>245.0</ele><time>2026-04-18T10:56:31Z</time></trkpt><trkpt lat="42.10674921112715" lon="12.031484143976783"><ele>245.0</ele><time>2026-04-18T10:56:33Z</time></trkpt><trkpt lat="42.106718024127034" lon="12.031566277632617"><ele>245.0</ele><time>2026-04-18T10:56:36Z</time></trkpt><trkpt lat="42.106642858655" lon="12.031559590077157"><ele>245.0</ele><time>2026-04-18T10:57:36.001Z</time></trkpt><trkpt lat="42.106634989310976" lon="12.031446507569914"><ele>245.0</ele><time>2026-04-18T10:57:38.001Z</time></trkpt><trkpt lat="42.10669302841419" lon="12.03135573145466"><ele>245.00000000000003</ele><time>2026-04-18T10:57:41.001Z</time></trkpt><trkpt lat="42.10676640001401" lon="12.031311309357509"><ele>245.0</ele><time>2026-04-18T10:57:44.001Z</time></trkpt><trkpt lat="42.10676701314866" lon="12.031430031828085"><ele>245.0</ele><time>2026-04-18T10:58:05.001Z</time></trkpt><trkpt lat="42.1067348955416" lon="12.031503707566129"><ele>245.0</ele><time>2026-04-18T10:58:06.001Z</time></trkpt><trkpt lat="42.10667627146783" lon="12.031612510204758"><ele>245.00000000000003</ele><time>2026-04-18T10:58:08.002Z</time></trkpt><trkpt lat="42.10661618524777" lon="12.031729361642673"><ele>245.0</ele><time>2026-04-18T10:58:10.002Z</time></trkpt><trkpt lat="42.10654758186347" lon="12.031855738459575"><ele>243.16666666666669</ele><time>2026-04-18T10:58:12.002Z</time></trkpt><trkpt lat="42.10650046740746" lon="12.031916639104985"><ele>241.33333333333334</ele><time>2026-04-18T10:58:13.002Z</time></trkpt><trkpt lat="42.10644438212136" lon="12.031971741260774"><ele>239.5</ele><time>2026-04-18T10:58:14.002Z</time></trkpt><trkpt lat="42.106377252629564" lon="12.032017862599407"><ele>237.66666666666669</ele><time>2026-04-18T10:58:15.002Z</time></trkpt><trkpt lat="42.10629610982905" lon="12.032074227189046"><ele>235.83333333333334</ele><time>2026-04-18T10:58:16.002Z</time></trkpt><trkpt lat="42.10621819693706" lon="12.032127551804589"><ele>234.0</ele><time>2026-04-18T10:58:17.002Z</time></trkpt><trkpt lat="42.106152112260716" lon="12.032169953793641"><ele>234.0</ele><time>2026-04-18T10:58:18.002Z</time></trkpt><trkpt lat="42.10608781045795" lon="12.032194854386056"><ele>234.00000000000003</ele><time>2026-04-18T10:58:19.002Z</time></trkpt><trkpt lat="42.1060224454509" lon="12.03221903437681"><ele>234.0</ele><time>2026-04-18T10:58:20.002Z</time></trkpt><trkpt lat="42.1059587688364" lon="12.032260507962587"><ele>234.0</ele><time>2026-04-18T10:58:21.002Z</time></trkpt><trkpt lat="42.105893067229175" lon="12.032301313094585"><ele>234.00000000000003</ele><time>2026-04-18T10:58:22.002Z</time></trkpt><trkpt lat="42.105821383411076" lon="12.03233388450486"><ele>234.0</ele><time>2026-04-18T10:58:23Z</time></trkpt><trkpt lat="42.105760925168205" lon="12.032371703749845"><ele>234.0</ele><time>2026-04-18T10:58:24Z</time></trkpt><trkpt lat="42.10567277714926" lon="12.032410722622892"><ele>235.5</ele><time>2026-04-18T10:58:26Z</time></trkpt><trkpt lat="42.10561212599625" lon="12.03245106726161"><ele>237.0</ele><time>2026-04-18T10:58:28Z</time></trkpt><trkpt lat="42.10556896875418" lon="12.032520414918604"><ele>238.5</ele><time>2026-04-18T10:58:31Z</time></trkpt><trkpt lat="42.10554695101825" lon="12.032881156225185"><ele>240.0</ele><time>2026-04-18T10:58:34Z</time></trkpt><trkpt lat="42.105544653074936" lon="12.032984644457178"><ele>240.0</ele><time>2026-04-18T10:58:35Z</time></trkpt><trkpt lat="42.10556375373362" lon="12.033068783366478"><ele>240.0</ele><time>2026-04-18T10:58:36Z</time></trkpt><trkpt lat="42.10563108796899" lon="12.033143659354689"><ele>240.0</ele><time>2026-04-18T10:58:38Z</time></trkpt><trkpt lat="42.105673648965144" lon="12.033068663065349"><ele>240.0</ele><time>2026-04-18T10:58:41Z</time></trkpt><trkpt lat="42.10568494366006" lon="12.033157921779033"><ele>240.0</ele><time>2026-04-18T10:59:03.001Z</time></trkpt><trkpt lat="42.105600627203025" lon="12.033227336422769"><ele>240.0</ele><time>2026-04-18T10:59:06.001Z</time></trkpt><trkpt lat="42.10551201042333" lon="12.033287425202458"><ele>240.0</ele><time>2026-04-18T10:59:10.001Z</time></trkpt><trkpt lat="42.1054389565923" lon="12.03324703542998"><ele>240.0</ele><time>2026-04-18T10:59:12.001Z</time></trkpt><trkpt lat="42.1054423020892" lon="12.033137161364532"><ele>240.0</ele><time>2026-04-18T10:59:14.001Z</time></trkpt><trkpt lat="42.10550626615345" lon="12.033087329661303"><ele>240.0</ele><time>2026-04-18T10:59:17.001Z</time></trkpt><trkpt lat="42.10557770146289" lon="12.033093489249152"><ele>240.0</ele><time>2026-04-18T10:59:20.001Z</time></trkpt><trkpt lat="42.10561930985265" lon="12.033161618349677"><ele>240.0</ele><time>2026-04-18T10:59:25.001Z</time></trkpt><trkpt lat="42.105684660545194" lon="12.033263110563826"><ele>236.4</ele><time>2026-04-18T10:59:47.001Z</time></trkpt><trkpt lat="42.10574672067163" lon="12.033393852441392"><ele>232.8</ele><time>2026-04-18T10:59:49.001Z</time></trkpt><trkpt lat="42.10579029572872" lon="12.033530148576618"><ele>229.2</ele><time>2026-04-18T10:59:51.001Z</time></trkpt><trkpt lat="42.10582810309159" lon="12.033641386433002"><ele>225.6</ele><time>2026-04-18T10:59:52.001Z</time></trkpt><trkpt lat="42.10586444194103" lon="12.033759410420753"><ele>222.0</ele><time>2026-04-18T10:59:53.001Z</time></trkpt><trkpt lat="42.105912162108616" lon="12.033887323939732"><ele>222.0</ele><time>2026-04-18T10:59:54.001Z</time></trkpt><trkpt lat="42.10595634619841" lon="12.033997620266534"><ele>222.0</ele><time>2026-04-18T10:59:55.001Z</time></trkpt><trkpt lat="42.10599181642804" lon="12.03409706459412"><ele>222.0</ele><time>2026-04-18T10:59:56.001Z</time></trkpt><trkpt lat="42.10602166822856" lon="12.03418650711749"><ele>222.0</ele><time>2026-04-18T10:59:57.001Z</time></trkpt><trkpt lat="42.1060376331354" lon="12.034346928562492"><ele>222.0</ele><time>2026-04-18T10:59:59.001Z</time></trkpt><trkpt lat="42.106011591215335" lon="12.034476874186302"><ele>221.6</ele><time>2026-04-18T11:00:01.001Z</time></trkpt><trkpt lat="42.105958141007655" lon="12.03459075523041"><ele>221.2</ele><time>2026-04-18T11:00:03.001Z</time></trkpt><trkpt lat="42.105900408281734" lon="12.03466468213064"><ele>220.8</ele><time>2026-04-18T11:00:04.001Z</time></trkpt><trkpt lat="42.10583100204661" lon="12.034770173061878"><ele>220.4</ele><time>2026-04-18T11:00:05.001Z</time></trkpt><trkpt lat="42.10576670103444" lon="12.034870043704222"><ele>220.0</ele><time>2026-04-18T11:00:06.001Z</time></trkpt><trkpt lat="42.105719669857656" lon="12.034948794391093"><ele>220.33333333333331</ele><time>2026-04-18T11:00:07.001Z</time></trkpt><trkpt lat="42.105674085000445" lon="12.035024396402855"><ele>220.66666666666666</ele><time>2026-04-18T11:00:08.001Z</time></trkpt><trkpt lat="42.1056275783279" lon="12.035094672492706"><ele>221.0</ele><time>2026-04-18T11:00:09.001Z</time></trkpt><trkpt lat="42.10558736931715" lon="12.03517530451558"><ele>221.33333333333331</ele><time>2026-04-18T11:00:10.001Z</time></trkpt><trkpt lat="42.105541793867616" lon="12.035266744875338"><ele>221.66666666666666</ele><time>2026-04-18T11:00:11.001Z</time></trkpt><trkpt lat="42.105490118420576" lon="12.035354799980308"><ele>222.0</ele><time>2026-04-18T11:00:12.001Z</time></trkpt><trkpt lat="42.10542224588883" lon="12.035434045496546"><ele>222.0</ele><time>2026-04-18T11:00:13.001Z</time></trkpt><trkpt lat="42.105349099933655" lon="12.035506116562692"><ele>222.0</ele><time>2026-04-18T11:00:14.001Z</time></trkpt><trkpt lat="42.10527668048651" lon="12.035582731780442"><ele>222.0</ele><time>2026-04-18T11:00:15.001Z</time></trkpt><trkpt lat="42.10522071653879" lon="12.035657652457623"><ele>222.0</ele><time>2026-04-18T11:00:16.001Z</time></trkpt><trkpt lat="42.10517364494086" lon="12.035717397132023"><ele>222.0</ele><time>2026-04-18T11:00:17.001Z</time></trkpt><trkpt lat="42.105082911022265" lon="12.035835788822425"><ele>221.0</ele><time>2026-04-18T11:00:19.001Z</time></trkpt><trkpt lat="42.10503552482043" lon="12.035897860238132"><ele>220.0</ele><time>2026-04-18T11:00:20.001Z</time></trkpt><trkpt lat="42.104948110692575" lon="12.035975786662851"><ele>219.0</ele><time>2026-04-18T11:00:22.002Z</time></trkpt><trkpt lat="42.10486822870203" lon="12.035992499778569"><ele>218.0</ele><time>2026-04-18T11:00:24.002Z</time></trkpt><trkpt lat="42.10485683156426" lon="12.03612869173067"><ele>217.0</ele><time>2026-04-18T11:00:28.002Z</time></trkpt><trkpt lat="42.104897546536904" lon="12.036262146894545"><ele>215.39999999999998</ele><time>2026-04-18T11:00:30Z</time></trkpt><trkpt lat="42.10495657450922" lon="12.036376781231057"><ele>213.79999999999998</ele><time>2026-04-18T11:00:31Z</time></trkpt><trkpt lat="42.105017092504845" lon="12.036488067445191"><ele>212.2</ele><time>2026-04-18T11:00:32Z</time></trkpt><trkpt lat="42.105064467697154" lon="12.036596256962161"><ele>210.6</ele><time>2026-04-18T11:00:33Z</time></trkpt><trkpt lat="42.10510147883069" lon="12.036704170162018"><ele>209.0</ele><time>2026-04-18T11:00:34Z</time></trkpt><trkpt lat="42.10511876359386" lon="12.036854280087711"><ele>209.00000000000003</ele><time>2026-04-18T11:00:36Z</time></trkpt><trkpt lat="42.1051014684606" lon="12.03704217337958"><ele>209.0</ele><time>2026-04-18T11:00:38Z</time></trkpt><trkpt lat="42.10509452919685" lon="12.037149453925378"><ele>209.0</ele><time>2026-04-18T11:00:39Z</time></trkpt><trkpt lat="42.105089619569334" lon="12.03724605460949"><ele>209.0</ele><time>2026-04-18T11:00:40Z</time></trkpt><trkpt lat="42.105077401973006" lon="12.037337521870885"><ele>209.00000000000003</ele><time>2026-04-18T11:00:41Z</time></trkpt><trkpt lat="42.105060274279836" lon="12.037431096161397"><ele>209.0</ele><time>2026-04-18T11:00:42Z</time></trkpt><trkpt lat="42.10502895417064" lon="12.03752980318877"><ele>209.0</ele><time>2026-04-18T11:00:43Z</time></trkpt><trkpt lat="42.10498769455667" lon="12.037625814358822"><ele>209.0</ele><time>2026-04-18T11:00:44Z</time></trkpt><trkpt lat="42.10493592059942" lon="12.0377013642173"><ele>209.0</ele><time>2026-04-18T11:00:45Z</time></trkpt><trkpt lat="42.10487909735763" lon="12.037765018437403"><ele>209.0</ele><time>2026-04-18T11:00:46Z</time></trkpt><trkpt lat="42.104821084917724" lon="12.037829514096035"><ele>209.0</ele><time>2026-04-18T11:00:47Z</time></trkpt><trkpt lat="42.104774396692655" lon="12.037897640017817"><ele>209.0</ele><time>2026-04-18T11:00:48Z</time></trkpt><trkpt lat="42.10474261925503" lon="12.037978265264138"><ele>209.0</ele><time>2026-04-18T11:00:49Z</time></trkpt><trkpt lat="42.10476303642173" lon="12.038140556286518"><ele>209.50000000000003</ele><time>2026-04-18T11:00:51Z</time></trkpt><trkpt lat="42.1048111330942" lon="12.038239132863175"><ele>210.0</ele><time>2026-04-18T11:00:52Z</time></trkpt><trkpt lat="42.10487388829327" lon="12.038322438554271"><ele>210.5</ele><time>2026-04-18T11:00:53Z</time></trkpt><trkpt lat="42.10493249230014" lon="12.038400558615326"><ele>211.0</ele><time>2026-04-18T11:00:54Z</time></trkpt><trkpt lat="42.10497976445367" lon="12.038458547744671"><ele>211.50000000000003</ele><time>2026-04-18T11:00:55Z</time></trkpt><trkpt lat="42.10507108552648" lon="12.038543588737165"><ele>212.0</ele><time>2026-04-18T11:00:57Z</time></trkpt><trkpt lat="42.105172992817586" lon="12.038610851854733"><ele>212.0</ele><time>2026-04-18T11:00:59Z</time></trkpt><trkpt lat="42.10528350853864" lon="12.038661880819928"><ele>212.0</ele><time>2026-04-18T11:01:01Z</time></trkpt><trkpt lat="42.10539302764999" lon="12.038720405546902"><ele>212.0</ele><time>2026-04-18T11:01:03Z</time></trkpt><trkpt lat="42.10547791488857" lon="12.038772580873877"><ele>212.0</ele><time>2026-04-18T11:01:05Z</time></trkpt><trkpt lat="42.10555108910219" lon="12.03880018710626"><ele>212.0</ele><time>2026-04-18T11:01:07Z</time></trkpt><trkpt lat="42.10563549293081" lon="12.038832421129163"><ele>212.00000000000003</ele><time>2026-04-18T11:01:09Z</time></trkpt><trkpt lat="42.10569234865884" lon="12.038876560463978"><ele>212.0</ele><time>2026-04-18T11:01:11Z</time></trkpt><trkpt lat="42.105750994937296" lon="12.038954769768669"><ele>212.0</ele><time>2026-04-18T11:01:33.001Z</time></trkpt><trkpt lat="42.1058134839339" lon="12.038997021177611"><ele>212.0</ele><time>2026-04-18T11:01:35.001Z</time></trkpt><trkpt lat="42.10589900715079" lon="12.03896368102256"><ele>212.00000000000003</ele><time>2026-04-18T11:01:37.001Z</time></trkpt><trkpt lat="42.10598344658338" lon="12.038869060655427"><ele>212.0</ele><time>2026-04-18T11:01:39.001Z</time></trkpt><trkpt lat="42.106047745717255" lon="12.03885878653188"><ele>211.00000000000003</ele><time>2026-04-18T11:01:41.001Z</time></trkpt><trkpt lat="42.106111312806874" lon="12.038814617892315"><ele>210.0</ele><time>2026-04-18T11:01:45.001Z</time></trkpt><trkpt lat="42.1061955147194" lon="12.038832003128187"><ele>209.0</ele><time>2026-04-18T11:01:50.001Z</time></trkpt><trkpt lat="42.10626181504348" lon="12.038798723037216"><ele>208.0</ele><time>2026-04-18T11:01:56.001Z</time></trkpt><trkpt lat="42.106331697451665" lon="12.038746375366111"><ele>207.00000000000003</ele><time>2026-04-18T11:02:00.001Z</time></trkpt><trkpt lat="42.106373266045196" lon="12.03864922501922"><ele>206.0</ele><time>2026-04-18T11:02:03.001Z</time></trkpt><trkpt lat="42.10644883368208" lon="12.038590915851398"><ele>206.00000000000003</ele><time>2026-04-18T11:02:06.001Z</time></trkpt><trkpt lat="42.106516333871426" lon="12.038532970947621"><ele>206.0</ele><time>2026-04-18T11:02:09.001Z</time></trkpt><trkpt lat="42.106580161856506" lon="12.038505800167986"><ele>206.0</ele><time>2026-04-18T11:02:12.001Z</time></trkpt><trkpt lat="42.1066127263528" lon="12.038421704811379"><ele>206.0</ele><time>2026-04-18T11:02:19.001Z</time></trkpt><trkpt lat="42.10668029508259" lon="12.03833836877106"><ele>206.00000000000003</ele><time>2026-04-18T11:02:44Z</time></trkpt><trkpt lat="42.106727023317404" lon="12.03845554074651"><ele>206.0</ele><time>2026-04-18T11:02:47Z</time></trkpt><trkpt lat="42.106761238588916" lon="12.038536882621385"><ele>203.16666666666669</ele><time>2026-04-18T11:02:49Z</time></trkpt><trkpt lat="42.106795724263904" lon="12.038636430469484"><ele>200.33333333333334</ele><time>2026-04-18T11:02:51Z</time></trkpt><trkpt lat="42.10682066245919" lon="12.038750301948037"><ele>197.5</ele><time>2026-04-18T11:02:57Z</time></trkpt><trkpt lat="42.10686512397147" lon="12.038865723502756"><ele>194.66666666666669</ele><time>2026-04-18T11:03:02Z</time></trkpt><trkpt lat="42.10693427564943" lon="12.038924020595237"><ele>191.83333333333334</ele><time>2026-04-18T11:03:04Z</time></trkpt><trkpt lat="42.10700892685891" lon="12.038959681814939"><ele>189.0</ele><time>2026-04-18T11:03:06Z</time></trkpt><trkpt lat="42.107060852189775" lon="12.039013888438388"><ele>189.0</ele><time>2026-04-18T11:03:09Z</time></trkpt><trkpt lat="42.107126250610676" lon="12.03903266646778"><ele>189.0</ele><time>2026-04-18T11:03:27Z</time></trkpt><trkpt lat="42.10718208549897" lon="12.039133311959645"><ele>189.0</ele><time>2026-04-18T11:03:31Z</time></trkpt><trkpt lat="42.1072308400446" lon="12.039200087651109"><ele>189.0</ele><time>2026-04-18T11:03:33Z</time></trkpt><trkpt lat="42.107260897446444" lon="12.039277864490087"><ele>189.0</ele><time>2026-04-18T11:03:36.001Z</time></trkpt><trkpt lat="42.107307799751304" lon="12.039371378357599"><ele>189.0</ele><time>2026-04-18T11:03:40.001Z</time></trkpt><trkpt lat="42.10733693935488" lon="12.039464210109307"><ele>188.0</ele><time>2026-04-18T11:03:42.001Z</time></trkpt><trkpt lat="42.10737303696106" lon="12.039576050783635"><ele>187.0</ele><time>2026-04-18T11:03:44.001Z</time></trkpt><trkpt lat="42.107414373823104" lon="12.039641866253913"><ele>186.0</ele><time>2026-04-18T11:03:47.001Z</time></trkpt><trkpt lat="42.10745961915581" lon="12.039735392062697"><ele>185.0</ele><time>2026-04-18T11:03:56.001Z</time></trkpt><trkpt lat="42.10756435319064" lon="12.03977636143325"><ele>184.0</ele><time>2026-04-18T11:04:10.001Z</time></trkpt><trkpt lat="42.10763885595702" lon="12.03982836329853"><ele>183.0</ele><time>2026-04-18T11:04:22.001Z</time></trkpt><trkpt lat="42.107704116983335" lon="12.039886880650586"><ele>183.5</ele><time>2026-04-18T11:04:31.001Z</time></trkpt><trkpt lat="42.107778167538385" lon="12.040000588415193"><ele>184.0</ele><time>2026-04-18T11:04:47.999Z</time></trkpt><trkpt lat="42.107821504438824" lon="12.040120077600461"><ele>184.5</ele><time>2026-04-18T11:05:28Z</time></trkpt><trkpt lat="42.10787323952366" lon="12.040178012140665"><ele>185.0</ele><time>2026-04-18T11:05:34Z</time></trkpt><trkpt lat="42.10794502843955" lon="12.040199412124977"><ele>185.5</ele><time>2026-04-18T11:05:51Z</time></trkpt><trkpt lat="42.10801120975362" lon="12.040296275964492"><ele>186.0</ele><time>2026-04-18T11:06:19.001Z</time></trkpt><trkpt lat="42.10803691919388" lon="12.0403861497451"><ele>186.00000000000003</ele><time>2026-04-18T11:06:25.001Z</time></trkpt><trkpt lat="42.10803353384386" lon="12.040485559153016"><ele>186.0</ele><time>2026-04-18T11:06:35.001Z</time></trkpt><trkpt lat="42.108030145887625" lon="12.040573048073856"><ele>186.0</ele><time>2026-04-18T11:06:44.001Z</time></trkpt><trkpt lat="42.10807178303768" lon="12.040650273866374"><ele>186.0</ele><time>2026-04-18T11:17:41Z</time></trkpt><trkpt lat="42.108110625378366" lon="12.04072739819713"><ele>186.0</ele><time>2026-04-18T11:17:45.001Z</time></trkpt><trkpt lat="42.10810604903754" lon="12.040815695626652"><ele>186.00000000000003</ele><time>2026-04-18T11:17:47.001Z</time></trkpt><trkpt lat="42.10810432458774" lon="12.04093938789862"><ele>186.0</ele><time>2026-04-18T11:17:50.001Z</time></trkpt><trkpt lat="42.10811301546599" lon="12.041030138950386"><ele>187.16666666666666</ele><time>2026-04-18T11:17:52.001Z</time></trkpt><trkpt lat="42.10814681039607" lon="12.041138862850161"><ele>188.33333333333331</ele><time>2026-04-18T11:17:55.001Z</time></trkpt><trkpt lat="42.10811641727855" lon="12.041241885588077"><ele>189.5</ele><time>2026-04-18T11:17:57.001Z</time></trkpt><trkpt lat="42.108132633700315" lon="12.04132858147898"><ele>190.66666666666666</ele><time>2026-04-18T11:17:59.001Z</time></trkpt><trkpt lat="42.10813043873438" lon="12.041415808511026"><ele>191.83333333333331</ele><time>2026-04-18T11:18:03.001Z</time></trkpt><trkpt lat="42.10811224217951" lon="12.041514440264542"><ele>193.0</ele><time>2026-04-18T11:18:17.001Z</time></trkpt><trkpt lat="42.10808117171533" lon="12.041609744565536"><ele>192.99999999999997</ele><time>2026-04-18T11:18:25.002Z</time></trkpt><trkpt lat="42.10809573455537" lon="12.04171158595855"><ele>193.0</ele><time>2026-04-18T11:18:27.002Z</time></trkpt><trkpt lat="42.10809896455807" lon="12.041799794637258"><ele>193.0</ele><time>2026-04-18T11:18:29.002Z</time></trkpt><trkpt lat="42.108060537589274" lon="12.04191513173809"><ele>193.0</ele><time>2026-04-18T11:18:30.002Z</time></trkpt><trkpt lat="42.10803659501436" lon="12.041995495465976"><ele>192.99999999999997</ele><time>2026-04-18T11:18:31.002Z</time></trkpt><trkpt lat="42.107999967771754" lon="12.04215008817731"><ele>193.0</ele><time>2026-04-18T11:18:33.002Z</time></trkpt><trkpt lat="42.1079588952896" lon="12.042263406022819"><ele>192.99999999999997</ele><time>2026-04-18T11:18:35.002Z</time></trkpt><trkpt lat="42.107921280548354" lon="12.042350887948817"><ele>193.0</ele><time>2026-04-18T11:18:37.002Z</time></trkpt><trkpt lat="42.1078808461821" lon="12.042447029001789"><ele>193.0</ele><time>2026-04-18T11:18:40.002Z</time></trkpt><trkpt lat="42.10783760395504" lon="12.042528415094607"><ele>193.0</ele><time>2026-04-18T11:18:42.002Z</time></trkpt><trkpt lat="42.107744010109705" lon="12.04257419977859"><ele>192.99999999999997</ele><time>2026-04-18T11:18:44.002Z</time></trkpt><trkpt lat="42.10768562763519" lon="12.042625455577262"><ele>193.0</ele><time>2026-04-18T11:18:45.002Z</time></trkpt><trkpt lat="42.107584819200646" lon="12.042710576081358"><ele>190.75</ele><time>2026-04-18T11:18:47.002Z</time></trkpt><trkpt lat="42.1074286620723" lon="12.042787335776701"><ele>188.5</ele><time>2026-04-18T11:18:49.002Z</time></trkpt><trkpt lat="42.10732455867982" lon="12.042841721697167"><ele>186.25</ele><time>2026-04-18T11:18:50.002Z</time></trkpt><trkpt lat="42.1072327768658" lon="12.04288838288858"><ele>184.0</ele><time>2026-04-18T11:18:51.002Z</time></trkpt><trkpt lat="42.10714615145983" lon="12.04292318547952"><ele>184.0</ele><time>2026-04-18T11:18:53.002Z</time></trkpt><trkpt lat="42.10704598775868" lon="12.042964185020036"><ele>184.0</ele><time>2026-04-18T11:18:54.002Z</time></trkpt><trkpt lat="42.10695803926699" lon="12.042990421086445"><ele>184.0</ele><time>2026-04-18T11:18:55.003Z</time></trkpt><trkpt lat="42.10683660449828" lon="12.043044685682098"><ele>184.0</ele><time>2026-04-18T11:18:57.003Z</time></trkpt><trkpt lat="42.10675966561313" lon="12.04307764243877"><ele>184.0</ele><time>2026-04-18T11:18:59.003Z</time></trkpt><trkpt lat="42.10668762072401" lon="12.04306617030055"><ele>183.79999999999998</ele><time>2026-04-18T11:19:01.003Z</time></trkpt><trkpt lat="42.10656932880456" lon="12.04303928771157"><ele>183.6</ele><time>2026-04-18T11:19:03.003Z</time></trkpt><trkpt lat="42.10649064637458" lon="12.043029676547004"><ele>183.4</ele><time>2026-04-18T11:19:04.003Z</time></trkpt><trkpt lat="42.10638996076957" lon="12.043032611311693"><ele>183.2</ele><time>2026-04-18T11:19:06.003Z</time></trkpt><trkpt lat="42.10631575845114" lon="12.04304784194626"><ele>183.0</ele><time>2026-04-18T11:19:08.003Z</time></trkpt><trkpt lat="42.10621170306919" lon="12.042983013588383"><ele>183.0</ele><time>2026-04-18T11:19:10.003Z</time></trkpt><trkpt lat="42.10615091738227" lon="12.042944509448466"><ele>183.0</ele><time>2026-04-18T11:19:11.003Z</time></trkpt><trkpt lat="42.10607299889142" lon="12.042898278984396"><ele>183.0</ele><time>2026-04-18T11:19:12.003Z</time></trkpt><trkpt lat="42.105995668258956" lon="12.042865892945462"><ele>183.0</ele><time>2026-04-18T11:19:13.003Z</time></trkpt><trkpt lat="42.10592250560502" lon="12.042841196151674"><ele>183.0</ele><time>2026-04-18T11:19:14.003Z</time></trkpt><trkpt lat="42.10585627781245" lon="12.042842177205197"><ele>183.0</ele><time>2026-04-18T11:19:15.003Z</time></trkpt><trkpt lat="42.10577747138632" lon="12.042825473275268"><ele>182.4</ele><time>2026-04-18T11:19:16.003Z</time></trkpt><trkpt lat="42.10563371367024" lon="12.0427757011236"><ele>181.8</ele><time>2026-04-18T11:19:18.003Z</time></trkpt><trkpt lat="42.10555059911577" lon="12.042720983437679"><ele>181.2</ele><time>2026-04-18T11:19:19.003Z</time></trkpt><trkpt lat="42.105489765020096" lon="12.04267543031516"><ele>180.6</ele><time>2026-04-18T11:19:20.003Z</time></trkpt><trkpt lat="42.105431126818424" lon="12.042641167160083"><ele>180.0</ele><time>2026-04-18T11:19:21.003Z</time></trkpt><trkpt lat="42.10532690225325" lon="12.042541664053573"><ele>182.6</ele><time>2026-04-18T11:19:23Z</time></trkpt><trkpt lat="42.105266595999446" lon="12.042443987503596"><ele>185.2</ele><time>2026-04-18T11:19:24Z</time></trkpt><trkpt lat="42.10520438082516" lon="12.04234178687472"><ele>187.8</ele><time>2026-04-18T11:19:26Z</time></trkpt><trkpt lat="42.10511717987626" lon="12.042209693523741"><ele>190.4</ele><time>2026-04-18T11:19:28Z</time></trkpt><trkpt lat="42.10508698029359" lon="12.042128461244697"><ele>193.0</ele><time>2026-04-18T11:19:29Z</time></trkpt><trkpt lat="42.10501893682322" lon="12.042035059313372"><ele>192.99999999999997</ele><time>2026-04-18T11:19:31Z</time></trkpt><trkpt lat="42.10496282599909" lon="12.041931136360663"><ele>193.0</ele><time>2026-04-18T11:19:32Z</time></trkpt><trkpt lat="42.10490795128513" lon="12.04186795890178"><ele>193.0</ele><time>2026-04-18T11:19:33Z</time></trkpt><trkpt lat="42.104847801212834" lon="12.041811789807626"><ele>193.0</ele><time>2026-04-18T11:19:34Z</time></trkpt><trkpt lat="42.104784489789566" lon="12.041748372799548"><ele>192.99999999999997</ele><time>2026-04-18T11:19:35Z</time></trkpt><trkpt lat="42.10471729184321" lon="12.04168788547918"><ele>193.0</ele><time>2026-04-18T11:19:36Z</time></trkpt><trkpt lat="42.10465037413426" lon="12.041633981442114"><ele>193.83333333333331</ele><time>2026-04-18T11:19:37Z</time></trkpt><trkpt lat="42.10459768358001" lon="12.04155606159072"><ele>194.66666666666666</ele><time>2026-04-18T11:19:38Z</time></trkpt><trkpt lat="42.10456549212406" lon="12.041467360823999"><ele>195.5</ele><time>2026-04-18T11:19:39Z</time></trkpt><trkpt lat="42.10455622802294" lon="12.041374673027873"><ele>196.33333333333331</ele><time>2026-04-18T11:19:40Z</time></trkpt><trkpt lat="42.10453471994409" lon="12.041269274927481"><ele>197.16666666666666</ele><time>2026-04-18T11:19:41Z</time></trkpt><trkpt lat="42.10449846048193" lon="12.041195316542343"><ele>198.0</ele><time>2026-04-18T11:19:42Z</time></trkpt><trkpt lat="42.10442138738199" lon="12.041078335004944"><ele>198.0</ele><time>2026-04-18T11:19:44Z</time></trkpt><trkpt lat="42.1043258414617" lon="12.04091738394451"><ele>198.0</ele><time>2026-04-18T11:19:46Z</time></trkpt><trkpt lat="42.104269123768006" lon="12.04085012968865"><ele>198.0</ele><time>2026-04-18T11:19:47Z</time></trkpt><trkpt lat="42.10419299125551" lon="12.040764204765585"><ele>198.0</ele><time>2026-04-18T11:19:49.001Z</time></trkpt><trkpt lat="42.10412441253546" lon="12.040685885515897"><ele>198.0</ele><time>2026-04-18T11:19:51.001Z</time></trkpt><trkpt lat="42.10407308564591" lon="12.04063659946298"><ele>200.25</ele><time>2026-04-18T11:19:52.001Z</time></trkpt><trkpt lat="42.10401937276691" lon="12.040561696567595"><ele>202.5</ele><time>2026-04-18T11:19:54.001Z</time></trkpt><trkpt lat="42.10398132115913" lon="12.040491924453507"><ele>204.75</ele><time>2026-04-18T11:19:55.001Z</time></trkpt><trkpt lat="42.1037835279497" lon="12.040296926786763"><ele>207.0</ele><time>2026-04-18T11:19:57.001Z</time></trkpt><trkpt lat="42.1037463928467" lon="12.040169679413472"><ele>207.0</ele><time>2026-04-18T11:19:58.001Z</time></trkpt><trkpt lat="42.10373276205007" lon="12.040074850070589"><ele>207.0</ele><time>2026-04-18T11:19:59.001Z</time></trkpt><trkpt lat="42.10376022032554" lon="12.039963521507865"><ele>207.0</ele><time>2026-04-18T11:20:00.001Z</time></trkpt><trkpt lat="42.10373850194142" lon="12.039858971014935"><ele>207.0</ele><time>2026-04-18T11:20:01.001Z</time></trkpt><trkpt lat="42.10371094341022" lon="12.039716148982059"><ele>207.0</ele><time>2026-04-18T11:20:03.001Z</time></trkpt><trkpt lat="42.10368112467666" lon="12.039586629222796"><ele>207.0</ele><time>2026-04-18T11:20:05.001Z</time></trkpt><trkpt lat="42.10364124891852" lon="12.039438911724059"><ele>208.39999999999998</ele><time>2026-04-18T11:20:07.001Z</time></trkpt><trkpt lat="42.103611844849766" lon="12.03933033064036"><ele>209.79999999999998</ele><time>2026-04-18T11:20:09.001Z</time></trkpt><trkpt lat="42.10356853181412" lon="12.03921159897816"><ele>211.2</ele><time>2026-04-18T11:20:45.002Z</time></trkpt><trkpt lat="42.10354407128471" lon="12.03903917711847"><ele>212.6</ele><time>2026-04-18T11:20:47.002Z</time></trkpt><trkpt lat="42.10349460678025" lon="12.038883896233338"><ele>214.0</ele><time>2026-04-18T11:20:49.002Z</time></trkpt><trkpt lat="42.10341808494457" lon="12.038798028445814"><ele>215.0</ele><time>2026-04-18T11:20:51.002Z</time></trkpt><trkpt lat="42.10331020875481" lon="12.038823824413127"><ele>215.99999999999997</ele><time>2026-04-18T11:20:53.002Z</time></trkpt><trkpt lat="42.10323954547223" lon="12.038878139023593"><ele>216.99999999999997</ele><time>2026-04-18T11:20:54.002Z</time></trkpt><trkpt lat="42.10317354987963" lon="12.038941291039272"><ele>218.0</ele><time>2026-04-18T11:20:55.002Z</time></trkpt><trkpt lat="42.103050092040945" lon="12.039032205428056"><ele>219.0</ele><time>2026-04-18T11:20:57.002Z</time></trkpt><trkpt lat="42.102962554752445" lon="12.03906766274685"><ele>219.33333333333334</ele><time>2026-04-18T11:20:58.002Z</time></trkpt><trkpt lat="42.10288317755395" lon="12.039099428520506"><ele>219.66666666666669</ele><time>2026-04-18T11:20:59.002Z</time></trkpt><trkpt lat="42.102807110354284" lon="12.039133614065094"><ele>220.0</ele><time>2026-04-18T11:21:00.002Z</time></trkpt><trkpt lat="42.102729242675636" lon="12.039175647963406"><ele>220.33333333333334</ele><time>2026-04-18T11:21:01.002Z</time></trkpt><trkpt lat="42.10265364854945" lon="12.039218384785851"><ele>220.66666666666669</ele><time>2026-04-18T11:21:02.003Z</time></trkpt><trkpt lat="42.102580225969426" lon="12.039267196755047"><ele>221.0</ele><time>2026-04-18T11:21:03.003Z</time></trkpt><trkpt lat="42.10251886918645" lon="12.03933759415291"><ele>221.0</ele><time>2026-04-18T11:21:04.003Z</time></trkpt><trkpt lat="42.102467328555434" lon="12.039440314831426"><ele>221.00000000000003</ele><time>2026-04-18T11:21:05.003Z</time></trkpt><trkpt lat="42.102415629598944" lon="12.039564855046702"><ele>221.00000000000003</ele><time>2026-04-18T11:21:06.003Z</time></trkpt><trkpt lat="42.10234798907944" lon="12.039684064704288"><ele>221.0</ele><time>2026-04-18T11:21:07.003Z</time></trkpt><trkpt lat="42.10229392393621" lon="12.03980061105435"><ele>221.0</ele><time>2026-04-18T11:21:08.003Z</time></trkpt><trkpt lat="42.10226705540373" lon="12.039930021747635"><ele>223.2857142857143</ele><time>2026-04-18T11:21:09.003Z</time></trkpt><trkpt lat="42.10225428291447" lon="12.040022121424848"><ele>225.57142857142856</ele><time>2026-04-18T11:21:10.003Z</time></trkpt><trkpt lat="42.10223634133993" lon="12.040108332922479"><ele>227.85714285714283</ele><time>2026-04-18T11:21:11.003Z</time></trkpt><trkpt lat="42.102199836659544" lon="12.040205411379459"><ele>230.14285714285714</ele><time>2026-04-18T11:21:12.003Z</time></trkpt><trkpt lat="42.102164397858346" lon="12.040297833889797"><ele>232.42857142857142</ele><time>2026-04-18T11:21:13.003Z</time></trkpt><trkpt lat="42.102129769910064" lon="12.040383022591744"><ele>234.7142857142857</ele><time>2026-04-18T11:21:14.003Z</time></trkpt><trkpt lat="42.10209594121604" lon="12.040471685696515"><ele>236.99999999999997</ele><time>2026-04-18T11:21:15.003Z</time></trkpt><trkpt lat="42.10205327784811" lon="12.040558544127586"><ele>237.0</ele><time>2026-04-18T11:21:16.003Z</time></trkpt><trkpt lat="42.102025301786455" lon="12.040651184710514"><ele>237.0</ele><time>2026-04-18T11:21:17.003Z</time></trkpt><trkpt lat="42.10199829622717" lon="12.040746962930639"><ele>237.0</ele><time>2026-04-18T11:21:18.003Z</time></trkpt><trkpt lat="42.10196955408893" lon="12.040828112906999"><ele>237.0</ele><time>2026-04-18T11:21:19.003Z</time></trkpt><trkpt lat="42.10190731807091" lon="12.040944612140198"><ele>237.0</ele><time>2026-04-18T11:21:21.003Z</time></trkpt><trkpt lat="42.10185960092735" lon="12.04106567520354"><ele>237.0</ele><time>2026-04-18T11:21:23.003Z</time></trkpt><trkpt lat="42.10183686585406" lon="12.041166194220704"><ele>236.8</ele><time>2026-04-18T11:21:25.003Z</time></trkpt><trkpt lat="42.10179927198677" lon="12.0412631084864"><ele>236.6</ele><time>2026-04-18T11:21:27.003Z</time></trkpt><trkpt lat="42.10172352664092" lon="12.041431815861188"><ele>236.40000000000003</ele><time>2026-04-18T11:21:29.001Z</time></trkpt><trkpt lat="42.10167509015639" lon="12.041551638524195"><ele>236.20000000000002</ele><time>2026-04-18T11:21:30.001Z</time></trkpt><trkpt lat="42.10163437576486" lon="12.041658513453486"><ele>236.0</ele><time>2026-04-18T11:21:31.001Z</time></trkpt><trkpt lat="42.1015869855938" lon="12.041790198026574"><ele>238.60000000000002</ele><time>2026-04-18T11:21:33.001Z</time></trkpt><trkpt lat="42.10154968695541" lon="12.04195330314986"><ele>241.20000000000002</ele><time>2026-04-18T11:21:35.001Z</time></trkpt><trkpt lat="42.10153274958427" lon="12.042048924644272"><ele>243.79999999999998</ele><time>2026-04-18T11:21:36.001Z</time></trkpt><trkpt lat="42.101496882290405" lon="12.042152398029474"><ele>246.39999999999998</ele><time>2026-04-18T11:21:37.001Z</time></trkpt><trkpt lat="42.10144611672279" lon="12.042268466229547"><ele>249.0</ele><time>2026-04-18T11:21:38.001Z</time></trkpt><trkpt lat="42.10139374865351" lon="12.042386758455804"><ele>249.0</ele><time>2026-04-18T11:21:39.001Z</time></trkpt><trkpt lat="42.101336207910386" lon="12.042464506267661"><ele>248.99999999999997</ele><time>2026-04-18T11:21:40.001Z</time></trkpt><trkpt lat="42.1012792887857" lon="12.042543040314953"><ele>248.99999999999997</ele><time>2026-04-18T11:21:41.001Z</time></trkpt><trkpt lat="42.10123767781453" lon="12.042621921774053"><ele>249.0</ele><time>2026-04-18T11:21:42.001Z</time></trkpt><trkpt lat="42.10115577161261" lon="12.042720545429347"><ele>249.0</ele><time>2026-04-18T11:21:44.001Z</time></trkpt><trkpt lat="42.10104032448225" lon="12.042662497401976"><ele>249.0</ele><time>2026-04-18T11:21:46.001Z</time></trkpt><trkpt lat="42.10096081416736" lon="12.042527915153382"><ele>248.99999999999997</ele><time>2026-04-18T11:21:48.001Z</time></trkpt><trkpt lat="42.10091687835442" lon="12.042425368370353"><ele>248.99999999999997</ele><time>2026-04-18T11:21:49.001Z</time></trkpt><trkpt lat="42.10086761626348" lon="12.042329109133071"><ele>249.0</ele><time>2026-04-18T11:21:50.001Z</time></trkpt><trkpt lat="42.1008117568368" lon="12.042235972206317"><ele>249.0</ele><time>2026-04-18T11:21:51.001Z</time></trkpt><trkpt lat="42.10075108129334" lon="12.042132350932672"><ele>248.2</ele><time>2026-04-18T11:21:52.001Z</time></trkpt><trkpt lat="42.10069241524718" lon="12.042019072683207"><ele>247.39999999999998</ele><time>2026-04-18T11:21:53.001Z</time></trkpt><trkpt lat="42.10064154317134" lon="12.04191489147802"><ele>246.6</ele><time>2026-04-18T11:21:54.001Z</time></trkpt><trkpt lat="42.10060134544108" lon="12.041802089771728"><ele>245.8</ele><time>2026-04-18T11:21:55.001Z</time></trkpt><trkpt lat="42.10056851808876" lon="12.041677790600772"><ele>245.0</ele><time>2026-04-18T11:21:56.001Z</time></trkpt><trkpt lat="42.10054655002062" lon="12.04155332064792"><ele>247.00000000000003</ele><time>2026-04-18T11:21:57.001Z</time></trkpt><trkpt lat="42.10052931134782" lon="12.041426781744775"><ele>249.0</ele><time>2026-04-18T11:21:58.001Z</time></trkpt><trkpt lat="42.100507975960944" lon="12.041309773196419"><ele>251.0</ele><time>2026-04-18T11:21:59.001Z</time></trkpt><trkpt lat="42.1004884215655" lon="12.041214728749035"><ele>253.0</ele><time>2026-04-18T11:22:00.001Z</time></trkpt><trkpt lat="42.100484787854604" lon="12.04111113203506"><ele>255.00000000000003</ele><time>2026-04-18T11:22:01.001Z</time></trkpt><trkpt lat="42.100479073484784" lon="12.041001977992273"><ele>257.0</ele><time>2026-04-18T11:22:02.001Z</time></trkpt><trkpt lat="42.100460758137636" lon="12.040896375687955"><ele>259.2</ele><time>2026-04-18T11:22:03.001Z</time></trkpt><trkpt lat="42.100448908534304" lon="12.040787189748013"><ele>261.4</ele><time>2026-04-18T11:22:04.001Z</time></trkpt><trkpt lat="42.10045148218504" lon="12.040652025935952"><ele>263.6</ele><time>2026-04-18T11:22:05.001Z</time></trkpt><trkpt lat="42.100440315164775" lon="12.04052134981151"><ele>265.8</ele><time>2026-04-18T11:22:06.001Z</time></trkpt><trkpt lat="42.100401593988536" lon="12.040405184933423"><ele>268.0</ele><time>2026-04-18T11:22:07.001Z</time></trkpt><trkpt lat="42.10036081923643" lon="12.040283613391924"><ele>268.0</ele><time>2026-04-18T11:22:08.001Z</time></trkpt><trkpt lat="42.10031244114829" lon="12.040215080902927"><ele>268.0</ele><time>2026-04-18T11:22:09.001Z</time></trkpt><trkpt lat="42.10025675937244" lon="12.040164777352619"><ele>268.0</ele><time>2026-04-18T11:22:10.001Z</time></trkpt><trkpt lat="42.10020320460215" lon="12.040110309003996"><ele>268.0</ele><time>2026-04-18T11:22:11.001Z</time></trkpt><trkpt lat="42.100146695995555" lon="12.040036973355186"><ele>268.0</ele><time>2026-04-18T11:22:12.001Z</time></trkpt><trkpt lat="42.100112938669206" lon="12.03994118409909"><ele>268.0</ele><time>2026-04-18T11:22:13.001Z</time></trkpt><trkpt lat="42.10006735805696" lon="12.039798034388873"><ele>268.8</ele><time>2026-04-18T11:22:15.001Z</time></trkpt><trkpt lat="42.10002668374565" lon="12.039726189713662"><ele>269.6</ele><time>2026-04-18T11:22:16.001Z</time></trkpt><trkpt lat="42.099985709446244" lon="12.039654353198788"><ele>270.4</ele><time>2026-04-18T11:22:17.001Z</time></trkpt><trkpt lat="42.099915777825935" lon="12.039498679688226"><ele>271.2</ele><time>2026-04-18T11:22:19.001Z</time></trkpt><trkpt lat="42.09983401312153" lon="12.039416277899578"><ele>272.0</ele><time>2026-04-18T11:22:20.001Z</time></trkpt><trkpt lat="42.09974099508099" lon="12.039319834517217"><ele>273.1666666666667</ele><time>2026-04-18T11:22:21.001Z</time></trkpt><trkpt lat="42.09966708893131" lon="12.039242071600858"><ele>274.33333333333337</ele><time>2026-04-18T11:22:22.001Z</time></trkpt><trkpt lat="42.099599316786666" lon="12.039156916716765"><ele>275.5</ele><time>2026-04-18T11:22:23.001Z</time></trkpt><trkpt lat="42.099543009588835" lon="12.039058929080955"><ele>276.6666666666667</ele><time>2026-04-18T11:22:24.001Z</time></trkpt><trkpt lat="42.09950573001125" lon="12.038967613293801"><ele>277.8333333333333</ele><time>2026-04-18T11:22:25.001Z</time></trkpt><trkpt lat="42.09946486474497" lon="12.038873351227187"><ele>279.0</ele><time>2026-04-18T11:22:26.001Z</time></trkpt><trkpt lat="42.099428698948124" lon="12.038793762571576"><ele>281.6666666666667</ele><time>2026-04-18T11:22:27.002Z</time></trkpt><trkpt lat="42.09940643560428" lon="12.038695502617434"><ele>284.3333333333333</ele><time>2026-04-18T11:22:28.002Z</time></trkpt><trkpt lat="42.09938352480421" lon="12.038615935521525"><ele>287.0</ele><time>2026-04-18T11:22:29.002Z</time></trkpt><trkpt lat="42.09935783994342" lon="12.038512056798222"><ele>289.66666666666663</ele><time>2026-04-18T11:22:32.002Z</time></trkpt><trkpt lat="42.09935254495423" lon="12.03841723737079"><ele>292.3333333333333</ele><time>2026-04-18T11:22:33.002Z</time></trkpt><trkpt lat="42.0993357020087" lon="12.038257857677605"><ele>295.0</ele><time>2026-04-18T11:22:35.002Z</time></trkpt><trkpt lat="42.09933374155925" lon="12.03810827914873"><ele>297.6</ele><time>2026-04-18T11:22:37.002Z</time></trkpt><trkpt lat="42.099339724317666" lon="12.037926367466497"><ele>300.2</ele><time>2026-04-18T11:22:39.002Z</time></trkpt><trkpt lat="42.099360257325245" lon="12.037828050985341"><ele>302.8</ele><time>2026-04-18T11:22:40.002Z</time></trkpt><trkpt lat="42.09935828121661" lon="12.037735572259061"><ele>305.4</ele><time>2026-04-18T11:22:41.002Z</time></trkpt><trkpt lat="42.09937091449616" lon="12.037643850365724"><ele>308.0</ele><time>2026-04-18T11:22:42.002Z</time></trkpt><trkpt lat="42.099403741237815" lon="12.037500978460033"><ele>309.33333333333337</ele><time>2026-04-18T11:22:43.002Z</time></trkpt><trkpt lat="42.09942235212879" lon="12.037351958609833"><ele>310.6666666666667</ele><time>2026-04-18T11:22:44.002Z</time></trkpt><trkpt lat="42.09943367417381" lon="12.03723322161601"><ele>312.0</ele><time>2026-04-18T11:22:45.002Z</time></trkpt><trkpt lat="42.0994362545749" lon="12.037135949177785"><ele>313.3333333333333</ele><time>2026-04-18T11:22:46.002Z</time></trkpt><trkpt lat="42.099416924664204" lon="12.037052326587967"><ele>314.66666666666663</ele><time>2026-04-18T11:22:47.002Z</time></trkpt><trkpt lat="42.09943760168929" lon="12.036942646784484"><ele>316.0</ele><time>2026-04-18T11:22:48.002Z</time></trkpt><trkpt lat="42.09942682226361" lon="12.036858359864674"><ele>316.0</ele><time>2026-04-18T11:22:49.002Z</time></trkpt><trkpt lat="42.09941964976051" lon="12.036711118645522"><ele>316.0</ele><time>2026-04-18T11:22:51.002Z</time></trkpt><trkpt lat="42.09942556118579" lon="12.03655848470544"><ele>316.0</ele><time>2026-04-18T11:22:53.002Z</time></trkpt><trkpt lat="42.09942433498311" lon="12.03644533079234"><ele>316.0</ele><time>2026-04-18T11:22:54.002Z</time></trkpt><trkpt lat="42.09938009469883" lon="12.036332977254174"><ele>316.0</ele><time>2026-04-18T11:22:57.002Z</time></trkpt><trkpt lat="42.09931893375037" lon="12.036381143553896"><ele>317.75</ele><time>2026-04-18T11:23:02.002Z</time></trkpt><trkpt lat="42.09924965100033" lon="12.036456663286204"><ele>319.5</ele><time>2026-04-18T11:23:05.002Z</time></trkpt><trkpt lat="42.09923723063999" lon="12.03625551595478"><ele>321.25</ele><time>2026-04-18T11:23:10.003Z</time></trkpt><trkpt lat="42.099181588319105" lon="12.036061306867675"><ele>323.0</ele><time>2026-04-18T11:23:12.003Z</time></trkpt><trkpt lat="42.09915416814243" lon="12.035955358630101"><ele>323.0</ele><time>2026-04-18T11:23:13.003Z</time></trkpt><trkpt lat="42.099190029617326" lon="12.035846358710026"><ele>323.0</ele><time>2026-04-18T11:23:15.003Z</time></trkpt><trkpt lat="42.09922118921102" lon="12.035655211093069"><ele>323.0</ele><time>2026-04-18T11:23:17.003Z</time></trkpt><trkpt lat="42.09922743973003" lon="12.03546265945066"><ele>323.0</ele><time>2026-04-18T11:23:18.003Z</time></trkpt><trkpt lat="42.099261518857126" lon="12.035336082848168"><ele>324.4</ele><time>2026-04-18T11:23:19.003Z</time></trkpt><trkpt lat="42.09927334753923" lon="12.035234827305832"><ele>325.79999999999995</ele><time>2026-04-18T11:23:20.003Z</time></trkpt><trkpt lat="42.09923908948839" lon="12.03507033138048"><ele>327.2</ele><time>2026-04-18T11:23:22.003Z</time></trkpt><trkpt lat="42.09919617014219" lon="12.034955002007782"><ele>328.6</ele><time>2026-04-18T11:23:23.003Z</time></trkpt><trkpt lat="42.09916525506988" lon="12.034822699968188"><ele>330.0</ele><time>2026-04-18T11:23:24.003Z</time></trkpt><trkpt lat="42.0991304711052" lon="12.034730080756546"><ele>331.0</ele><time>2026-04-18T11:23:25.003Z</time></trkpt><trkpt lat="42.099106476461415" lon="12.034596455024143"><ele>332.0</ele><time>2026-04-18T11:23:27.003Z</time></trkpt><trkpt lat="42.09907937005979" lon="12.034512711241371"><ele>333.0</ele><time>2026-04-18T11:23:28.003Z</time></trkpt><trkpt lat="42.099044830236444" lon="12.03441830155625"><ele>334.0</ele><time>2026-04-18T11:23:29.003Z</time></trkpt><trkpt lat="42.09900885608325" lon="12.0343186050243"><ele>335.0</ele><time>2026-04-18T11:23:30.003Z</time></trkpt><trkpt lat="42.09899470295417" lon="12.034230719072632"><ele>336.0</ele><time>2026-04-18T11:23:31.003Z</time></trkpt><trkpt lat="42.09897480005153" lon="12.034150200347884"><ele>341.0</ele><time>2026-04-18T11:23:32.003Z</time></trkpt><trkpt lat="42.0989549014362" lon="12.033965374854942"><ele>346.0</ele><time>2026-04-18T11:23:34.003Z</time></trkpt><trkpt lat="42.09894816543184" lon="12.033810322228568"><ele>351.0</ele><time>2026-04-18T11:23:36.001Z</time></trkpt><trkpt lat="42.09895185017467" lon="12.033718123735879"><ele>356.0</ele><time>2026-04-18T11:23:37.001Z</time></trkpt><trkpt lat="42.09898017705559" lon="12.033571808702819"><ele>361.0</ele><time>2026-04-18T11:23:38.001Z</time></trkpt><trkpt lat="42.09899215956526" lon="12.03342477384588"><ele>361.5</ele><time>2026-04-18T11:23:39.001Z</time></trkpt><trkpt lat="42.09898754083653" lon="12.033301367889957"><ele>362.0</ele><time>2026-04-18T11:23:41.001Z</time></trkpt><trkpt lat="42.09899882749" lon="12.03318916216843"><ele>362.5</ele><time>2026-04-18T11:23:42.001Z</time></trkpt><trkpt lat="42.099018503147406" lon="12.03306754279457"><ele>363.0</ele><time>2026-04-18T11:23:43.001Z</time></trkpt><trkpt lat="42.09904343300871" lon="12.032960985906218"><ele>363.5</ele><time>2026-04-18T11:23:44.001Z</time></trkpt><trkpt lat="42.0990732224361" lon="12.032878622174355"><ele>364.0</ele><time>2026-04-18T11:23:45.001Z</time></trkpt><trkpt lat="42.09912983014069" lon="12.032809671764355"><ele>363.25</ele><time>2026-04-18T11:23:48.001Z</time></trkpt><trkpt lat="42.09916047021644" lon="12.03270703945951"><ele>362.5</ele><time>2026-04-18T11:23:53.001Z</time></trkpt><trkpt lat="42.09920491743717" lon="12.032608360894"><ele>361.75</ele><time>2026-04-18T11:23:55.001Z</time></trkpt><trkpt lat="42.099265555725296" lon="12.032551933900466"><ele>361.0</ele><time>2026-04-18T11:24:00.001Z</time></trkpt><trkpt lat="42.099911495695004" lon="12.031490306196066"><ele>361.0</ele><time>2026-04-18T11:24:01.001Z</time></trkpt><trkpt lat="42.0999063449234" lon="12.031365051790157"><ele>361.0</ele><time>2026-04-18T11:24:02.001Z</time></trkpt><trkpt lat="42.09991509173328" lon="12.031241895531647"><ele>361.0</ele><time>2026-04-18T11:24:03.001Z</time></trkpt><trkpt lat="42.09990355106526" lon="12.031126450507145"><ele>361.0</ele><time>2026-04-18T11:24:04.001Z</time></trkpt><trkpt lat="42.09988831262102" lon="12.030995771497789"><ele>361.0</ele><time>2026-04-18T11:24:05.001Z</time></trkpt><trkpt lat="42.09983229225023" lon="12.030889131878226"><ele>359.20000000000005</ele><time>2026-04-18T11:24:06.001Z</time></trkpt><trkpt lat="42.09982212888693" lon="12.030793387813246"><ele>357.40000000000003</ele><time>2026-04-18T11:24:07.001Z</time></trkpt><trkpt lat="42.09981567393691" lon="12.030607959135232"><ele>355.6</ele><time>2026-04-18T11:24:09.001Z</time></trkpt><trkpt lat="42.09981642546306" lon="12.030452298095899"><ele>353.8</ele><time>2026-04-18T11:24:10.001Z</time></trkpt><trkpt lat="42.09981821240763" lon="12.030337853367968"><ele>352.0</ele><time>2026-04-18T11:24:11.001Z</time></trkpt><trkpt lat="42.09982950172663" lon="12.03023463703258"><ele>352.0</ele><time>2026-04-18T11:24:12.001Z</time></trkpt><trkpt lat="42.099836007887234" lon="12.030136104154241"><ele>352.0</ele><time>2026-04-18T11:24:13.001Z</time></trkpt><trkpt lat="42.099846670853374" lon="12.030003880646142"><ele>352.0</ele><time>2026-04-18T11:24:15.001Z</time></trkpt><trkpt lat="42.09969446012401" lon="12.0300925724775"><ele>352.0</ele><time>2026-04-18T11:24:19.001Z</time></trkpt><trkpt lat="42.09983963564343" lon="12.030081538447003"><ele>352.0</ele><time>2026-04-18T11:24:23.001Z</time></trkpt><trkpt lat="42.09961918288383" lon="12.030556787167363"><ele>352.0</ele><time>2026-04-18T11:24:32.002Z</time></trkpt><trkpt lat="42.099648096104104" lon="12.03044579297464"><ele>352.0</ele><time>2026-04-18T11:24:39.002Z</time></trkpt><trkpt lat="42.09968348381869" lon="12.030368181945983"><ele>352.0</ele><time>2026-04-18T11:24:43.002Z</time></trkpt><trkpt lat="42.0997247498802" lon="12.030303793125979"><ele>352.0</ele><time>2026-04-18T11:24:46.002Z</time></trkpt><trkpt lat="42.099794101254226" lon="12.030166914521986"><ele>352.0</ele><time>2026-04-18T11:24:48.002Z</time></trkpt><trkpt lat="42.09983792887237" lon="12.030079685512451"><ele>352.0</ele><time>2026-04-18T11:24:49.002Z</time></trkpt><trkpt lat="42.09985224207297" lon="12.029984088142639"><ele>352.0</ele><time>2026-04-18T11:24:50.002Z</time></trkpt><trkpt lat="42.09983768274794" lon="12.029888402607202"><ele>352.20000000000005</ele><time>2026-04-18T11:24:51.002Z</time></trkpt><trkpt lat="42.099803311379496" lon="12.029781925260036"><ele>352.4</ele><time>2026-04-18T11:24:52.002Z</time></trkpt><trkpt lat="42.09994479609999" lon="12.029590062862894"><ele>352.6</ele><time>2026-04-18T11:24:53.002Z</time></trkpt><trkpt lat="42.099912299044085" lon="12.029499655526587"><ele>352.79999999999995</ele><time>2026-04-18T11:24:54.002Z</time></trkpt><trkpt lat="42.099886379768485" lon="12.029389101657276"><ele>353.0</ele><time>2026-04-18T11:24:55.002Z</time></trkpt><trkpt lat="42.0998535048251" lon="12.029167464654694"><ele>348.0</ele><time>2026-04-18T11:24:57.002Z</time></trkpt><trkpt lat="42.09986171585126" lon="12.028985009671032"><ele>343.0</ele><time>2026-04-18T11:24:58.002Z</time></trkpt><trkpt lat="42.099876400961456" lon="12.028809227789168"><ele>338.0</ele><time>2026-04-18T11:24:59.002Z</time></trkpt><trkpt lat="42.099880113209665" lon="12.028652833870469"><ele>333.0</ele><time>2026-04-18T11:25:00.002Z</time></trkpt><trkpt lat="42.09987245757753" lon="12.028509567533376"><ele>333.0</ele><time>2026-04-18T11:25:01.002Z</time></trkpt><trkpt lat="42.099849600315174" lon="12.0283787830145"><ele>333.0</ele><time>2026-04-18T11:25:02.002Z</time></trkpt><trkpt lat="42.099873596103436" lon="12.028258486717005"><ele>333.0</ele><time>2026-04-18T11:25:03.002Z</time></trkpt><trkpt lat="42.09991156235789" lon="12.028141367305144"><ele>333.0</ele><time>2026-04-18T11:25:04.002Z</time></trkpt><trkpt lat="42.09996319557581" lon="12.028017523742081"><ele>333.0</ele><time>2026-04-18T11:25:05.002Z</time></trkpt><trkpt lat="42.09999320279169" lon="12.02788835628633"><ele>334.5</ele><time>2026-04-18T11:25:06.002Z</time></trkpt><trkpt lat="42.100038729878925" lon="12.027756837851753"><ele>336.0</ele><time>2026-04-18T11:25:07.002Z</time></trkpt><trkpt lat="42.100056521164845" lon="12.027596470775027"><ele>337.5</ele><time>2026-04-18T11:25:08.002Z</time></trkpt><trkpt lat="42.1000679709915" lon="12.027446316237315"><ele>339.0</ele><time>2026-04-18T11:25:09.002Z</time></trkpt><trkpt lat="42.100079708686465" lon="12.027290541107226"><ele>339.0</ele><time>2026-04-18T11:25:10.002Z</time></trkpt><trkpt lat="42.100071506548176" lon="12.027146036926153"><ele>339.0</ele><time>2026-04-18T11:25:11.002Z</time></trkpt><trkpt lat="42.10006497664634" lon="12.02698824772141"><ele>339.0</ele><time>2026-04-18T11:25:12.002Z</time></trkpt><trkpt lat="42.1000500266698" lon="12.02683992160088"><ele>339.0</ele><time>2026-04-18T11:25:13.002Z</time></trkpt><trkpt lat="42.100019410695026" lon="12.026715158123677"><ele>339.0</ele><time>2026-04-18T11:25:14.002Z</time></trkpt><trkpt lat="42.09997634460166" lon="12.026596874262406"><ele>338.2</ele><time>2026-04-18T11:25:15.002Z</time></trkpt><trkpt lat="42.09994192763835" lon="12.026487873248552"><ele>337.4</ele><time>2026-04-18T11:25:16.003Z</time></trkpt><trkpt lat="42.099923026020804" lon="12.02637878090042"><ele>336.6</ele><time>2026-04-18T11:25:17.003Z</time></trkpt><trkpt lat="42.09992271834844" lon="12.0262649342134"><ele>335.8</ele><time>2026-04-18T11:25:18.003Z</time></trkpt><trkpt lat="42.099928391995014" lon="12.026136563508635"><ele>335.0</ele><time>2026-04-18T11:25:19.003Z</time></trkpt><trkpt lat="42.099922523184276" lon="12.026003737509924"><ele>331.75</ele><time>2026-04-18T11:25:20.003Z</time></trkpt><trkpt lat="42.099916219697384" lon="12.025861697397646"><ele>328.5</ele><time>2026-04-18T11:25:21.003Z</time></trkpt><trkpt lat="42.09990847468605" lon="12.025704947563225"><ele>325.25</ele><time>2026-04-18T11:25:22.003Z</time></trkpt><trkpt lat="42.099897864888234" lon="12.025544006922713"><ele>322.0</ele><time>2026-04-18T11:25:23.003Z</time></trkpt><trkpt lat="42.09989215978513" lon="12.025392997753679"><ele>321.8</ele><time>2026-04-18T11:25:24.003Z</time></trkpt><trkpt lat="42.09988608396106" lon="12.025251181164354"><ele>321.6</ele><time>2026-04-18T11:25:25.003Z</time></trkpt><trkpt lat="42.09988084292073" lon="12.025109526852283"><ele>321.40000000000003</ele><time>2026-04-18T11:25:26.003Z</time></trkpt><trkpt lat="42.09987271132519" lon="12.024965320837014"><ele>321.20000000000005</ele><time>2026-04-18T11:25:27.003Z</time></trkpt><trkpt lat="42.09985670408084" lon="12.024829064066493"><ele>321.0</ele><time>2026-04-18T11:25:28.003Z</time></trkpt><trkpt lat="42.09984618970119" lon="12.02468274894725"><ele>321.6</ele><time>2026-04-18T11:25:29.003Z</time></trkpt><trkpt lat="42.09980458073409" lon="12.024519755705622"><ele>322.20000000000005</ele><time>2026-04-18T11:25:30.003Z</time></trkpt><trkpt lat="42.09977906194607" lon="12.024349411202982"><ele>322.79999999999995</ele><time>2026-04-18T11:25:31.003Z</time></trkpt><trkpt lat="42.099755653597114" lon="12.024205041921885"><ele>323.4</ele><time>2026-04-18T11:25:32.003Z</time></trkpt><trkpt lat="42.09972552405782" lon="12.024104956753936"><ele>324.0</ele><time>2026-04-18T11:25:33.003Z</time></trkpt><trkpt lat="42.09968918931093" lon="12.024025438807561"><ele>325.3333333333333</ele><time>2026-04-18T11:25:34.003Z</time></trkpt><trkpt lat="42.09965934658442" lon="12.023946962279046"><ele>326.6666666666667</ele><time>2026-04-18T11:25:35.003Z</time></trkpt><trkpt lat="42.099620897299204" lon="12.023860005404398"><ele>328.0</ele><time>2026-04-18T11:25:36.003Z</time></trkpt><trkpt lat="42.09958362211202" lon="12.023760258879419"><ele>329.33333333333337</ele><time>2026-04-18T11:25:37.003Z</time></trkpt><trkpt lat="42.09954262628892" lon="12.02364020218205"><ele>330.6666666666667</ele><time>2026-04-18T11:25:38.003Z</time></trkpt><trkpt lat="42.09951012412949" lon="12.023513956447664"><ele>332.0</ele><time>2026-04-18T11:25:39.003Z</time></trkpt><trkpt lat="42.09947071992928" lon="12.023382641298983"><ele>333.6</ele><time>2026-04-18T11:25:40.003Z</time></trkpt><trkpt lat="42.099458221816626" lon="12.023229917892005"><ele>335.20000000000005</ele><time>2026-04-18T11:25:41.001Z</time></trkpt><trkpt lat="42.09946009979991" lon="12.0230904944407"><ele>336.8</ele><time>2026-04-18T11:25:42.001Z</time></trkpt><trkpt lat="42.09943814377672" lon="12.022965906146991"><ele>338.4</ele><time>2026-04-18T11:25:43.001Z</time></trkpt><trkpt lat="42.09940740660077" lon="12.022863190242745"><ele>340.0</ele><time>2026-04-18T11:25:44.001Z</time></trkpt><trkpt lat="42.09939423379096" lon="12.022776786709109"><ele>340.0</ele><time>2026-04-18T11:25:45.001Z</time></trkpt><trkpt lat="42.09938170272439" lon="12.022667184826396"><ele>340.0</ele><time>2026-04-18T11:25:46.001Z</time></trkpt><trkpt lat="42.099382627968815" lon="12.022540224885878"><ele>340.0</ele><time>2026-04-18T11:25:47.001Z</time></trkpt><trkpt lat="42.09936649181346" lon="12.022408087907463"><ele>340.0</ele><time>2026-04-18T11:25:48.001Z</time></trkpt><trkpt lat="42.099355169708" lon="12.022276041186"><ele>340.0</ele><time>2026-04-18T11:25:49.001Z</time></trkpt><trkpt lat="42.09932802369546" lon="12.02213285455239"><ele>340.4</ele><time>2026-04-18T11:25:50.001Z</time></trkpt><trkpt lat="42.09930227626497" lon="12.021984270326675"><ele>340.8</ele><time>2026-04-18T11:25:51.001Z</time></trkpt><trkpt lat="42.09927003766984" lon="12.021855943643716"><ele>341.20000000000005</ele><time>2026-04-18T11:25:52.001Z</time></trkpt><trkpt lat="42.09925688394152" lon="12.021738641305443"><ele>341.6</ele><time>2026-04-18T11:25:53.001Z</time></trkpt><trkpt lat="42.09924301268889" lon="12.021646171643763"><ele>342.0</ele><time>2026-04-18T11:25:54.001Z</time></trkpt><trkpt lat="42.09923185231667" lon="12.02149669712449"><ele>343.40000000000003</ele><time>2026-04-18T11:25:56.001Z</time></trkpt><trkpt lat="42.09922344416616" lon="12.021409987430141"><ele>344.8</ele><time>2026-04-18T11:25:57.001Z</time></trkpt><trkpt lat="42.09921587566956" lon="12.021299812831765"><ele>346.2</ele><time>2026-04-18T11:25:58.001Z</time></trkpt><trkpt lat="42.099201303010254" lon="12.021171218958841"><ele>347.6</ele><time>2026-04-18T11:25:59.001Z</time></trkpt><trkpt lat="42.09918708876156" lon="12.021027861556846"><ele>349.0</ele><time>2026-04-18T11:26:00.001Z</time></trkpt><trkpt lat="42.099173890971684" lon="12.02089113424958"><ele>349.2</ele><time>2026-04-18T11:26:01.001Z</time></trkpt><trkpt lat="42.09915583915985" lon="12.02075810807505"><ele>349.4</ele><time>2026-04-18T11:26:02.001Z</time></trkpt><trkpt lat="42.0991362927828" lon="12.020634897663243"><ele>349.6</ele><time>2026-04-18T11:26:03.001Z</time></trkpt><trkpt lat="42.09911808593998" lon="12.020519272857124"><ele>349.8</ele><time>2026-04-18T11:26:04.001Z</time></trkpt><trkpt lat="42.099089988623476" lon="12.020390070017863"><ele>350.0</ele><time>2026-04-18T11:26:05.001Z</time></trkpt><trkpt lat="42.09906256125561" lon="12.020258103715769"><ele>349.8</ele><time>2026-04-18T11:26:06.001Z</time></trkpt><trkpt lat="42.099046849730954" lon="12.02011532386846"><ele>349.6</ele><time>2026-04-18T11:26:07.001Z</time></trkpt><trkpt lat="42.09901614080724" lon="12.019973219820844"><ele>349.4</ele><time>2026-04-18T11:26:08.001Z</time></trkpt><trkpt lat="42.09897094248596" lon="12.019842722717659"><ele>349.2</ele><time>2026-04-18T11:26:09.001Z</time></trkpt><trkpt lat="42.09894333968448" lon="12.01969886515038"><ele>349.0</ele><time>2026-04-18T11:26:10.001Z</time></trkpt><trkpt lat="42.098896467778914" lon="12.019568431897051"><ele>349.0</ele><time>2026-04-18T11:26:11.001Z</time></trkpt><trkpt lat="42.098846319849564" lon="12.019454861835902"><ele>349.0</ele><time>2026-04-18T11:26:12.001Z</time></trkpt><trkpt lat="42.09880946169297" lon="12.019363000832957"><ele>349.0</ele><time>2026-04-18T11:26:13.001Z</time></trkpt><trkpt lat="42.09881964469204" lon="12.019260479163352"><ele>349.0</ele><time>2026-04-18T11:26:14.001Z</time></trkpt><trkpt lat="42.09882298432931" lon="12.019158261018662"><ele>349.0</ele><time>2026-04-18T11:26:15.001Z</time></trkpt><trkpt lat="42.09885152803263" lon="12.019039038814416"><ele>349.0</ele><time>2026-04-18T11:26:16.001Z</time></trkpt><trkpt lat="42.098885209058615" lon="12.018903178884841"><ele>349.6</ele><time>2026-04-18T11:26:17.001Z</time></trkpt><trkpt lat="42.09893063625567" lon="12.018764941687742"><ele>350.2</ele><time>2026-04-18T11:26:18.001Z</time></trkpt><trkpt lat="42.09897896439527" lon="12.018630129695378"><ele>350.8</ele><time>2026-04-18T11:26:19.001Z</time></trkpt><trkpt lat="42.099026169983766" lon="12.01852094215098"><ele>351.40000000000003</ele><time>2026-04-18T11:26:20.001Z</time></trkpt><trkpt lat="42.099071783332874" lon="12.018431680738678"><ele>352.0</ele><time>2026-04-18T11:26:21.001Z</time></trkpt><trkpt lat="42.099122039715816" lon="12.018348640578669"><ele>354.3333333333333</ele><time>2026-04-18T11:26:22.001Z</time></trkpt><trkpt lat="42.099168873116504" lon="12.018243995784633"><ele>356.66666666666663</ele><time>2026-04-18T11:26:23.001Z</time></trkpt><trkpt lat="42.09919775303168" lon="12.01812305698357"><ele>359.0</ele><time>2026-04-18T11:26:24.001Z</time></trkpt><trkpt lat="42.0992180360317" lon="12.018021517549949"><ele>361.3333333333333</ele><time>2026-04-18T11:26:25.001Z</time></trkpt><trkpt lat="42.09923607470702" lon="12.017932634990798"><ele>363.6666666666667</ele><time>2026-04-18T11:26:26.001Z</time></trkpt><trkpt lat="42.09923269106934" lon="12.017828661981651"><ele>366.0</ele><time>2026-04-18T11:26:27.001Z</time></trkpt><trkpt lat="42.09920285663958" lon="12.017698261879369"><ele>366.0</ele><time>2026-04-18T11:26:28.001Z</time></trkpt><trkpt lat="42.09916838375269" lon="12.017542108254938"><ele>366.0</ele><time>2026-04-18T11:26:29.001Z</time></trkpt><trkpt lat="42.09914027355977" lon="12.01739135126623"><ele>366.0</ele><time>2026-04-18T11:26:30.001Z</time></trkpt><trkpt lat="42.09911795444508" lon="12.017260989799713"><ele>366.0</ele><time>2026-04-18T11:26:31.001Z</time></trkpt><trkpt lat="42.09910996440737" lon="12.017130014104302"><ele>366.0</ele><time>2026-04-18T11:26:32.001Z</time></trkpt><trkpt lat="42.09910875887841" lon="12.016976958542973"><ele>364.0</ele><time>2026-04-18T11:26:33.001Z</time></trkpt><trkpt lat="42.09907379651153" lon="12.016814044238604"><ele>362.0</ele><time>2026-04-18T11:26:34.001Z</time></trkpt><trkpt lat="42.0990497870376" lon="12.016655725786038"><ele>360.0</ele><time>2026-04-18T11:26:35.001Z</time></trkpt><trkpt lat="42.09904690849083" lon="12.016505058475198"><ele>358.0</ele><time>2026-04-18T11:26:36.001Z</time></trkpt><trkpt lat="42.09907064792953" lon="12.016315407059514"><ele>360.75</ele><time>2026-04-18T11:26:37.001Z</time></trkpt><trkpt lat="42.0990981275482" lon="12.01613303503263"><ele>363.5</ele><time>2026-04-18T11:26:38.001Z</time></trkpt><trkpt lat="42.09912704929604" lon="12.015979089673202"><ele>366.25</ele><time>2026-04-18T11:26:39.001Z</time></trkpt><trkpt lat="42.09916025579387" lon="12.015838690440525"><ele>369.0</ele><time>2026-04-18T11:26:40.001Z</time></trkpt><trkpt lat="42.099186629123075" lon="12.015705684121523"><ele>369.0</ele><time>2026-04-18T11:26:41.001Z</time></trkpt><trkpt lat="42.099221609636786" lon="12.015595406972446"><ele>369.0</ele><time>2026-04-18T11:26:42.001Z</time></trkpt><trkpt lat="42.09926483377177" lon="12.015487067567806"><ele>369.0</ele><time>2026-04-18T11:26:43.001Z</time></trkpt><trkpt lat="42.09929144630298" lon="12.015370075507393"><ele>369.0</ele><time>2026-04-18T11:26:44.001Z</time></trkpt><trkpt lat="42.09930763781185" lon="12.01524266653812"><ele>369.0</ele><time>2026-04-18T11:26:45.001Z</time></trkpt><trkpt lat="42.09930536425624" lon="12.01514031620112"><ele>369.0</ele><time>2026-04-18T11:26:46.001Z</time></trkpt><trkpt lat="42.09928581015628" lon="12.01503809969144"><ele>369.0</ele><time>2026-04-18T11:26:47.001Z</time></trkpt><trkpt lat="42.09929745331615" lon="12.014928273687584"><ele>369.0</ele><time>2026-04-18T11:26:48.001Z</time></trkpt><trkpt lat="42.09930326530588" lon="12.01478123250593"><ele>369.0</ele><time>2026-04-18T11:26:49.002Z</time></trkpt><trkpt lat="42.09933308379537" lon="12.014613916977476"><ele>369.0</ele><time>2026-04-18T11:26:50.002Z</time></trkpt><trkpt lat="42.099358832198284" lon="12.01444228453361"><ele>369.0</ele><time>2026-04-18T11:26:51.002Z</time></trkpt><trkpt lat="42.099410886016585" lon="12.014277010209101"><ele>368.4</ele><time>2026-04-18T11:26:52.002Z</time></trkpt><trkpt lat="42.09945580450067" lon="12.014119392984904"><ele>367.79999999999995</ele><time>2026-04-18T11:26:53.002Z</time></trkpt><trkpt lat="42.099452161769406" lon="12.013984256368762"><ele>367.20000000000005</ele><time>2026-04-18T11:26:54.002Z</time></trkpt><trkpt lat="42.0994510515751" lon="12.013867474522888"><ele>366.6</ele><time>2026-04-18T11:26:55.002Z</time></trkpt><trkpt lat="42.09943326401756" lon="12.013750114763686"><ele>366.0</ele><time>2026-04-18T11:26:56.002Z</time></trkpt><trkpt lat="42.09943881742204" lon="12.013621718691287"><ele>366.0</ele><time>2026-04-18T11:26:57.002Z</time></trkpt><trkpt lat="42.099469981747475" lon="12.013497987010588"><ele>366.0</ele><time>2026-04-18T11:26:58.002Z</time></trkpt><trkpt lat="42.099515395650826" lon="12.013366717938675"><ele>366.0</ele><time>2026-04-18T11:26:59.002Z</time></trkpt><trkpt lat="42.099563385742556" lon="12.013230474742597"><ele>366.0</ele><time>2026-04-18T11:27:00.002Z</time></trkpt><trkpt lat="42.09961412166082" lon="12.013108310538959"><ele>366.0</ele><time>2026-04-18T11:27:01.002Z</time></trkpt><trkpt lat="42.099671207487766" lon="12.012986267575709"><ele>366.3333333333333</ele><time>2026-04-18T11:27:02.002Z</time></trkpt><trkpt lat="42.09972711265387" lon="12.012849478190702"><ele>366.6666666666667</ele><time>2026-04-18T11:27:03.002Z</time></trkpt><trkpt lat="42.09976284015401" lon="12.012727968778592"><ele>367.0</ele><time>2026-04-18T11:27:04.002Z</time></trkpt><trkpt lat="42.09977760406463" lon="12.01263073326354"><ele>367.33333333333337</ele><time>2026-04-18T11:27:05.002Z</time></trkpt><trkpt lat="42.099784643238465" lon="12.012536920145328"><ele>367.6666666666667</ele><time>2026-04-18T11:27:06.002Z</time></trkpt><trkpt lat="42.09977341702606" lon="12.012414422796397"><ele>368.0</ele><time>2026-04-18T11:27:08.002Z</time></trkpt><trkpt lat="42.09978862168604" lon="12.012326565085523"><ele>368.0</ele><time>2026-04-18T11:27:11.002Z</time></trkpt><trkpt lat="42.09991081156214" lon="12.012312580013411"><ele>368.0</ele><time>2026-04-18T11:27:13.002Z</time></trkpt><trkpt lat="42.09994629865783" lon="12.012234796170475"><ele>368.0</ele><time>2026-04-18T11:27:27.002Z</time></trkpt><trkpt lat="42.09993597900515" lon="12.012111218953724"><ele>368.0</ele><time>2026-04-18T11:27:29.002Z</time></trkpt><trkpt lat="42.09992986328712" lon="12.011968712268263"><ele>368.0</ele><time>2026-04-18T11:27:31.002Z</time></trkpt><trkpt lat="42.09990330966314" lon="12.011863999706739"><ele>368.0</ele><time>2026-04-18T11:27:33.002Z</time></trkpt><trkpt lat="42.09992899181817" lon="12.01177131384979"><ele>368.0</ele><time>2026-04-18T11:27:36.002Z</time></trkpt><trkpt lat="42.0998778721817" lon="12.011698175260625"><ele>368.0</ele><time>2026-04-18T11:27:38.003Z</time></trkpt><trkpt lat="42.09987592446612" lon="12.011504861208604"><ele>368.0</ele><time>2026-04-18T11:27:40.003Z</time></trkpt><trkpt lat="42.099871083760945" lon="12.011395252710667"><ele>368.0</ele><time>2026-04-18T11:27:41.003Z</time></trkpt><trkpt lat="42.099862891866145" lon="12.011308303707207"><ele>368.0</ele><time>2026-04-18T11:27:42.003Z</time></trkpt><trkpt lat="42.099832772761715" lon="12.011158715513096"><ele>369.1666666666667</ele><time>2026-04-18T11:27:44.003Z</time></trkpt><trkpt lat="42.099828217017425" lon="12.011063835541202"><ele>370.33333333333337</ele><time>2026-04-18T11:27:46.003Z</time></trkpt><trkpt lat="42.099824919667284" lon="12.010962765588747"><ele>371.5</ele><time>2026-04-18T11:27:48Z</time></trkpt><trkpt lat="42.09979387989938" lon="12.010872085510796"><ele>372.6666666666667</ele><time>2026-04-18T11:27:49Z</time></trkpt><trkpt lat="42.09977005436864" lon="12.01078681665406"><ele>373.8333333333333</ele><time>2026-04-18T11:27:50Z</time></trkpt><trkpt lat="42.099742845436474" lon="12.010691308265985"><ele>375.0</ele><time>2026-04-18T11:27:51Z</time></trkpt><trkpt lat="42.09970366351284" lon="12.01057785043584"><ele>376.6</ele><time>2026-04-18T11:27:52Z</time></trkpt><trkpt lat="42.0996493275207" lon="12.010445226153236"><ele>378.2</ele><time>2026-04-18T11:27:54Z</time></trkpt><trkpt lat="42.09954120659774" lon="12.010317702401624"><ele>379.79999999999995</ele><time>2026-04-18T11:27:56Z</time></trkpt><trkpt lat="42.099470516241084" lon="12.010230634665572"><ele>381.4</ele><time>2026-04-18T11:27:57Z</time></trkpt><trkpt lat="42.09940831017427" lon="12.01013213668831"><ele>383.0</ele><time>2026-04-18T11:27:58Z</time></trkpt><trkpt lat="42.099358158447835" lon="12.010043533625208"><ele>383.2857142857143</ele><time>2026-04-18T11:27:59Z</time></trkpt><trkpt lat="42.09931781719029" lon="12.00997170637847"><ele>383.57142857142856</ele><time>2026-04-18T11:28:00Z</time></trkpt><trkpt lat="42.099283363442225" lon="12.009897571680693"><ele>383.8571428571429</ele><time>2026-04-18T11:28:01Z</time></trkpt><trkpt lat="42.0992425467374" lon="12.009813372646994"><ele>384.1428571428571</ele><time>2026-04-18T11:28:02Z</time></trkpt><trkpt lat="42.0991955989075" lon="12.009738145008562"><ele>384.42857142857144</ele><time>2026-04-18T11:28:03Z</time></trkpt><trkpt lat="42.0991536126358" lon="12.009660946053886"><ele>384.7142857142857</ele><time>2026-04-18T11:28:04Z</time></trkpt><trkpt lat="42.09910955029353" lon="12.009576053027288"><ele>385.0</ele><time>2026-04-18T11:28:05Z</time></trkpt><trkpt lat="42.09906073363442" lon="12.009492735637842"><ele>385.6</ele><time>2026-04-18T11:28:06Z</time></trkpt><trkpt lat="42.09901158740945" lon="12.009396503125625"><ele>386.2</ele><time>2026-04-18T11:28:07Z</time></trkpt><trkpt lat="42.098964279901075" lon="12.009303857811144"><ele>386.79999999999995</ele><time>2026-04-18T11:28:08Z</time></trkpt><trkpt lat="42.09892695149815" lon="12.00922164909346"><ele>387.4</ele><time>2026-04-18T11:28:09Z</time></trkpt><trkpt lat="42.09885949064073" lon="12.009071815866717"><ele>388.0</ele><time>2026-04-18T11:28:11Z</time></trkpt><trkpt lat="42.09882377048688" lon="12.008936686318828"><ele>389.83333333333337</ele><time>2026-04-18T11:28:13Z</time></trkpt><trkpt lat="42.09875982001206" lon="12.008849964494361"><ele>391.6666666666667</ele><time>2026-04-18T11:28:16.001Z</time></trkpt><trkpt lat="42.09864563881527" lon="12.008755814981328"><ele>393.5</ele><time>2026-04-18T11:28:18.001Z</time></trkpt><trkpt lat="42.0985867437982" lon="12.008697864827594"><ele>395.33333333333337</ele><time>2026-04-18T11:28:19.001Z</time></trkpt><trkpt lat="42.0985243530436" lon="12.008642219884635"><ele>397.1666666666667</ele><time>2026-04-18T11:28:20.001Z</time></trkpt><trkpt lat="42.09846735881252" lon="12.008585951160722"><ele>399.0</ele><time>2026-04-18T11:28:21.001Z</time></trkpt><trkpt lat="42.09840749570984" lon="12.008536770241413"><ele>399.0</ele><time>2026-04-18T11:28:22.001Z</time></trkpt><trkpt lat="42.09832396455064" lon="12.008482716178184"><ele>399.0</ele><time>2026-04-18T11:28:24.001Z</time></trkpt><trkpt lat="42.09826406234374" lon="12.008409916252333"><ele>399.0</ele><time>2026-04-18T11:28:25.001Z</time></trkpt><trkpt lat="42.0982027301201" lon="12.008312994228254"><ele>399.0</ele><time>2026-04-18T11:28:26.001Z</time></trkpt><trkpt lat="42.09814900382661" lon="12.008222849126966"><ele>399.0</ele><time>2026-04-18T11:28:27.001Z</time></trkpt><trkpt lat="42.09810317577916" lon="12.008162139694843"><ele>399.0</ele><time>2026-04-18T11:28:28.001Z</time></trkpt><trkpt lat="42.098046708535904" lon="12.008088617476709"><ele>397.4</ele><time>2026-04-18T11:28:30.001Z</time></trkpt><trkpt lat="42.09801586475697" lon="12.007965356861108"><ele>395.79999999999995</ele><time>2026-04-18T11:28:32.001Z</time></trkpt><trkpt lat="42.09799613280733" lon="12.007857408790503"><ele>394.20000000000005</ele><time>2026-04-18T11:28:34.001Z</time></trkpt><trkpt lat="42.097954811770954" lon="12.007734111388428"><ele>392.6</ele><time>2026-04-18T11:28:36.001Z</time></trkpt><trkpt lat="42.097929350093175" lon="12.007628476488057"><ele>391.0</ele><time>2026-04-18T11:28:38.001Z</time></trkpt><trkpt lat="42.09786610637984" lon="12.007459515875217"><ele>390.33333333333337</ele><time>2026-04-18T11:28:40.001Z</time></trkpt><trkpt lat="42.097832447568884" lon="12.007383574468333"><ele>389.6666666666667</ele><time>2026-04-18T11:28:41.001Z</time></trkpt><trkpt lat="42.097774271859535" lon="12.007266460309438"><ele>389.0</ele><time>2026-04-18T11:28:43.001Z</time></trkpt><trkpt lat="42.097710298396464" lon="12.007150719310589"><ele>388.33333333333337</ele><time>2026-04-18T11:28:45.001Z</time></trkpt><trkpt lat="42.097643892728385" lon="12.007057541663736"><ele>387.6666666666667</ele><time>2026-04-18T11:28:47.001Z</time></trkpt><trkpt lat="42.09761032914136" lon="12.00696818610049"><ele>387.0</ele><time>2026-04-18T11:28:50.001Z</time></trkpt><trkpt lat="42.09763258222615" lon="12.00687700006276"><ele>387.0</ele><time>2026-04-18T11:28:54.001Z</time></trkpt><trkpt lat="42.097587335392866" lon="12.006709584025424"><ele>387.0</ele><time>2026-04-18T11:28:57.001Z</time></trkpt><trkpt lat="42.09753840942213" lon="12.006622389250357"><ele>387.0</ele><time>2026-04-18T11:28:58.001Z</time></trkpt><trkpt lat="42.09749754518497" lon="12.006522178164278"><ele>387.0</ele><time>2026-04-18T11:28:59.001Z</time></trkpt><trkpt lat="42.09744793713569" lon="12.006423189006846"><ele>387.0</ele><time>2026-04-18T11:29:00.001Z</time></trkpt><trkpt lat="42.09740607951927" lon="12.006323781590742"><ele>386.8333333333333</ele><time>2026-04-18T11:29:01.001Z</time></trkpt><trkpt lat="42.09736252947289" lon="12.006224455167295"><ele>386.66666666666663</ele><time>2026-04-18T11:29:02.001Z</time></trkpt><trkpt lat="42.09732340150594" lon="12.006130534189525"><ele>386.5</ele><time>2026-04-18T11:29:03.001Z</time></trkpt><trkpt lat="42.09727568908903" lon="12.006045090205024"><ele>386.3333333333333</ele><time>2026-04-18T11:29:04.001Z</time></trkpt><trkpt lat="42.09722838945863" lon="12.005969787628764"><ele>386.16666666666663</ele><time>2026-04-18T11:29:05.001Z</time></trkpt><trkpt lat="42.09718757374236" lon="12.005889034443914"><ele>386.0</ele><time>2026-04-18T11:29:06.001Z</time></trkpt><trkpt lat="42.09716573291416" lon="12.005804088827862"><ele>388.66666666666663</ele><time>2026-04-18T11:29:07.001Z</time></trkpt><trkpt lat="42.097158310128535" lon="12.005715528559062"><ele>391.3333333333333</ele><time>2026-04-18T11:29:09.002Z</time></trkpt><trkpt lat="42.097093932143075" lon="12.005701442375683"><ele>394.0</ele><time>2026-04-18T11:29:14.002Z</time></trkpt><trkpt lat="42.09703421917103" lon="12.005735601708716"><ele>396.66666666666663</ele><time>2026-04-18T11:29:23.002Z</time></trkpt><trkpt lat="42.09694480359608" lon="12.005667704296336"><ele>399.3333333333333</ele><time>2026-04-18T11:29:25.002Z</time></trkpt><trkpt lat="42.09688961995821" lon="12.005593479712514"><ele>402.0</ele><time>2026-04-18T11:29:26.002Z</time></trkpt><trkpt lat="42.096814580246736" lon="12.005550419044464"><ele>402.0</ele><time>2026-04-18T11:29:27.002Z</time></trkpt><trkpt lat="42.09672074859849" lon="12.005495897965439"><ele>402.0</ele><time>2026-04-18T11:29:28.002Z</time></trkpt><trkpt lat="42.09662041309654" lon="12.005464434262075"><ele>402.0</ele><time>2026-04-18T11:29:29.002Z</time></trkpt><trkpt lat="42.09654822044357" lon="12.00544770044907"><ele>402.0</ele><time>2026-04-18T11:29:30.002Z</time></trkpt><trkpt lat="42.096477348301754" lon="12.005459011734752"><ele>402.0</ele><time>2026-04-18T11:29:31.002Z</time></trkpt><trkpt lat="42.09637436468682" lon="12.005439718840185"><ele>401.1666666666667</ele><time>2026-04-18T11:29:32.002Z</time></trkpt><trkpt lat="42.09626706612151" lon="12.005451025438358"><ele>400.33333333333337</ele><time>2026-04-18T11:29:33.002Z</time></trkpt><trkpt lat="42.096166673908975" lon="12.005454093178733"><ele>399.5</ele><time>2026-04-18T11:29:34.002Z</time></trkpt><trkpt lat="42.096085617507036" lon="12.00544729273476"><ele>398.6666666666667</ele><time>2026-04-18T11:29:35.002Z</time></trkpt><trkpt lat="42.09601156876701" lon="12.005447762209105"><ele>397.83333333333337</ele><time>2026-04-18T11:29:36.002Z</time></trkpt><trkpt lat="42.09594654566242" lon="12.005375097872744"><ele>397.0</ele><time>2026-04-18T11:29:37.002Z</time></trkpt><trkpt lat="42.09588512587821" lon="12.00528062886481"><ele>397.0</ele><time>2026-04-18T11:29:38.002Z</time></trkpt><trkpt lat="42.095835066993565" lon="12.005170173437941"><ele>397.0</ele><time>2026-04-18T11:29:39.002Z</time></trkpt><trkpt lat="42.09579603230814" lon="12.005039989396586"><ele>397.0</ele><time>2026-04-18T11:29:40.002Z</time></trkpt><trkpt lat="42.09576563381307" lon="12.00488249208025"><ele>397.0</ele><time>2026-04-18T11:29:41.002Z</time></trkpt><trkpt lat="42.09573384840125" lon="12.00473275010176"><ele>397.0</ele><time>2026-04-18T11:29:42.002Z</time></trkpt><trkpt lat="42.0956853609185" lon="12.004580293880336"><ele>397.0</ele><time>2026-04-18T11:29:43.002Z</time></trkpt><trkpt lat="42.09561852774236" lon="12.004445615797644"><ele>397.0</ele><time>2026-04-18T11:29:44.002Z</time></trkpt><trkpt lat="42.09554851997549" lon="12.0043342406786"><ele>397.0</ele><time>2026-04-18T11:29:45.002Z</time></trkpt><trkpt lat="42.09547606634723" lon="12.004246099060015"><ele>397.0</ele><time>2026-04-18T11:29:46.002Z</time></trkpt><trkpt lat="42.09540766814129" lon="12.004160796476873"><ele>397.0</ele><time>2026-04-18T11:29:47.002Z</time></trkpt><trkpt lat="42.09533996183064" lon="12.004048093189024"><ele>397.0</ele><time>2026-04-18T11:29:48.002Z</time></trkpt><trkpt lat="42.09527926126075" lon="12.003921873066117"><ele>397.0</ele><time>2026-04-18T11:29:49.002Z</time></trkpt><trkpt lat="42.09521660829851" lon="12.003793637701888"><ele>397.0</ele><time>2026-04-18T11:29:50.002Z</time></trkpt><trkpt lat="42.09514008387264" lon="12.003663294004102"><ele>397.0</ele><time>2026-04-18T11:29:51.002Z</time></trkpt><trkpt lat="42.095064416599556" lon="12.003533468411478"><ele>397.0</ele><time>2026-04-18T11:29:52.002Z</time></trkpt><trkpt lat="42.0950038559894" lon="12.00339577990244"><ele>397.0</ele><time>2026-04-18T11:29:53Z</time></trkpt><trkpt lat="42.0949555273569" lon="12.003266962626634"><ele>397.0</ele><time>2026-04-18T11:29:54Z</time></trkpt><trkpt lat="42.09492029983226" lon="12.00314073710198"><ele>397.0</ele><time>2026-04-18T11:29:55Z</time></trkpt><trkpt lat="42.094911330460945" lon="12.002993039194793"><ele>397.0</ele><time>2026-04-18T11:29:56Z</time></trkpt><trkpt lat="42.09491246965152" lon="12.00284413792405"><ele>397.20000000000005</ele><time>2026-04-18T11:29:57Z</time></trkpt><trkpt lat="42.09492175134783" lon="12.002690815738452"><ele>397.4</ele><time>2026-04-18T11:29:58Z</time></trkpt><trkpt lat="42.094912407695155" lon="12.002551072641749"><ele>397.6</ele><time>2026-04-18T11:29:59Z</time></trkpt><trkpt lat="42.09492814008461" lon="12.002414984635006"><ele>397.79999999999995</ele><time>2026-04-18T11:30:00Z</time></trkpt><trkpt lat="42.09494031364552" lon="12.002319607167582"><ele>398.0</ele><time>2026-04-18T11:30:01Z</time></trkpt><trkpt lat="42.09495952500375" lon="12.002210060957484"><ele>397.59999999999997</ele><time>2026-04-18T11:30:02Z</time></trkpt><trkpt lat="42.09497787114967" lon="12.002066257434743"><ele>397.2</ele><time>2026-04-18T11:30:03Z</time></trkpt><trkpt lat="42.09501425138328" lon="12.001920010472263"><ele>396.8</ele><time>2026-04-18T11:30:04Z</time></trkpt><trkpt lat="42.09504162889315" lon="12.001778047216007"><ele>396.4</ele><time>2026-04-18T11:30:05Z</time></trkpt><trkpt lat="42.09507917265817" lon="12.001635920485949"><ele>396.0</ele><time>2026-04-18T11:30:06Z</time></trkpt><trkpt lat="42.095125306967155" lon="12.001495568831077"><ele>396.0</ele><time>2026-04-18T11:30:07Z</time></trkpt><trkpt lat="42.095174969417734" lon="12.001363565813863"><ele>396.0</ele><time>2026-04-18T11:30:08Z</time></trkpt><trkpt lat="42.09522345636753" lon="12.001237588556869"><ele>396.0</ele><time>2026-04-18T11:30:09Z</time></trkpt><trkpt lat="42.09528406733411" lon="12.001126134686052"><ele>396.0</ele><time>2026-04-18T11:30:10Z</time></trkpt><trkpt lat="42.0953148987223" lon="12.001002897930997"><ele>396.0</ele><time>2026-04-18T11:30:11Z</time></trkpt><trkpt lat="42.095333315626725" lon="12.000883483400527"><ele>394.0</ele><time>2026-04-18T11:30:12Z</time></trkpt><trkpt lat="42.09533025989977" lon="12.000762289299026"><ele>392.0</ele><time>2026-04-18T11:30:13Z</time></trkpt><trkpt lat="42.09529793574108" lon="12.000638376679513"><ele>390.0</ele><time>2026-04-18T11:30:14Z</time></trkpt><trkpt lat="42.09524695045397" lon="12.000508556485283"><ele>388.0</ele><time>2026-04-18T11:30:15Z</time></trkpt><trkpt lat="42.09517099295969" lon="12.000370597351276"><ele>386.0</ele><time>2026-04-18T11:30:16Z</time></trkpt><trkpt lat="42.09510802447818" lon="12.00022715946068"><ele>386.0</ele><time>2026-04-18T11:30:17Z</time></trkpt><trkpt lat="42.095038939581016" lon="12.000088155015797"><ele>386.0</ele><time>2026-04-18T11:30:18Z</time></trkpt><trkpt lat="42.094960628915636" lon="11.999953114472406"><ele>386.0</ele><time>2026-04-18T11:30:19Z</time></trkpt><trkpt lat="42.09488796911689" lon="11.999831776704262"><ele>386.0</ele><time>2026-04-18T11:30:20Z</time></trkpt><trkpt lat="42.094843904501225" lon="11.999707841493926"><ele>386.3333333333333</ele><time>2026-04-18T11:30:21Z</time></trkpt><trkpt lat="42.094795756289834" lon="11.999612512727527"><ele>386.66666666666663</ele><time>2026-04-18T11:30:22Z</time></trkpt><trkpt lat="42.09475620190026" lon="11.999533488085953"><ele>387.0</ele><time>2026-04-18T11:30:23Z</time></trkpt><trkpt lat="42.09469875903958" lon="11.999435192012891"><ele>387.33333333333337</ele><time>2026-04-18T11:30:25Z</time></trkpt><trkpt lat="42.09468585845302" lon="11.999337580019873"><ele>387.6666666666667</ele><time>2026-04-18T11:30:56.001Z</time></trkpt><trkpt lat="42.09468244238219" lon="11.999250448531562"><ele>388.0</ele><time>2026-04-18T11:31:00.001Z</time></trkpt><trkpt lat="42.094594836811126" lon="11.99920377959171"><ele>388.0</ele><time>2026-04-18T11:31:04.001Z</time></trkpt><trkpt lat="42.09450512987681" lon="11.999193453862562"><ele>388.0</ele><time>2026-04-18T11:31:06.001Z</time></trkpt><trkpt lat="42.09440566295291" lon="11.999175731973562"><ele>388.0</ele><time>2026-04-18T11:31:08.001Z</time></trkpt><trkpt lat="42.094270279556106" lon="11.999146731427459"><ele>388.0</ele><time>2026-04-18T11:31:10.001Z</time></trkpt><trkpt lat="42.09417785580317" lon="11.999128871421124"><ele>388.0</ele><time>2026-04-18T11:31:11.001Z</time></trkpt><trkpt lat="42.094057285875884" lon="11.999110419767248"><ele>388.4</ele><time>2026-04-18T11:31:12.001Z</time></trkpt><trkpt lat="42.09397527445362" lon="11.9990938662829"><ele>388.79999999999995</ele><time>2026-04-18T11:31:13.001Z</time></trkpt><trkpt lat="42.09388716212568" lon="11.999074447076008"><ele>389.2</ele><time>2026-04-18T11:31:14.001Z</time></trkpt><trkpt lat="42.09375823005897" lon="11.999046039801703"><ele>389.6</ele><time>2026-04-18T11:31:15.001Z</time></trkpt><trkpt lat="42.09364616885972" lon="11.999024093009632"><ele>390.0</ele><time>2026-04-18T11:31:16.001Z</time></trkpt><trkpt lat="42.09353776127761" lon="11.998999979892966"><ele>390.0</ele><time>2026-04-18T11:31:17.001Z</time></trkpt><trkpt lat="42.093428647149764" lon="11.998972667920633"><ele>390.0</ele><time>2026-04-18T11:31:18.001Z</time></trkpt><trkpt lat="42.09331679162346" lon="11.998944031738446"><ele>390.0</ele><time>2026-04-18T11:31:19.001Z</time></trkpt><trkpt lat="42.09318773584337" lon="11.998921070829352"><ele>390.0</ele><time>2026-04-18T11:31:20.002Z</time></trkpt><trkpt lat="42.093061175484074" lon="11.998895918863493"><ele>391.0</ele><time>2026-04-18T11:31:21.002Z</time></trkpt><trkpt lat="42.092918348392956" lon="11.998866737362922"><ele>392.0</ele><time>2026-04-18T11:31:22.002Z</time></trkpt><trkpt lat="42.092759204620336" lon="11.998831788378187"><ele>393.0</ele><time>2026-04-18T11:31:23.002Z</time></trkpt><trkpt lat="42.09258690581937" lon="11.99879480442148"><ele>393.66666666666663</ele><time>2026-04-18T11:31:24.002Z</time></trkpt><trkpt lat="42.09239855649546" lon="11.998757866353866"><ele>394.3333333333333</ele><time>2026-04-18T11:31:25.002Z</time></trkpt><trkpt lat="42.09223868682616" lon="11.998728742285799"><ele>395.0</ele><time>2026-04-18T11:31:26.002Z</time></trkpt><trkpt lat="42.09209362127725" lon="11.99870584523012"><ele>395.0</ele><time>2026-04-18T11:31:27.002Z</time></trkpt><trkpt lat="42.091935238815175" lon="11.998699462265764"><ele>395.0</ele><time>2026-04-18T11:31:28.002Z</time></trkpt><trkpt lat="42.09175693003773" lon="11.998712400334925"><ele>395.0</ele><time>2026-04-18T11:31:29.002Z</time></trkpt><trkpt lat="42.09158981396386" lon="11.998734890033692"><ele>399.0</ele><time>2026-04-18T11:31:30.002Z</time></trkpt><trkpt lat="42.09141874891998" lon="11.998737632785158"><ele>403.0</ele><time>2026-04-18T11:31:31.002Z</time></trkpt><trkpt lat="42.09125421014056" lon="11.998760766472774"><ele>407.0</ele><time>2026-04-18T11:31:32.002Z</time></trkpt><trkpt lat="42.09109501142689" lon="11.998801981844423"><ele>407.0</ele><time>2026-04-18T11:31:33.002Z</time></trkpt><trkpt lat="42.090946940879405" lon="11.998817149475899"><ele>407.0</ele><time>2026-04-18T11:31:34.002Z</time></trkpt><trkpt lat="42.090812544597064" lon="11.998834654260417"><ele>407.0</ele><time>2026-04-18T11:31:35.002Z</time></trkpt><trkpt lat="42.090682303883895" lon="11.998845235744707"><ele>407.0</ele><time>2026-04-18T11:31:36.002Z</time></trkpt><trkpt lat="42.09055472695006" lon="11.998850489869668"><ele>408.0</ele><time>2026-04-18T11:31:37.002Z</time></trkpt><trkpt lat="42.090440817749446" lon="11.998852349735976"><ele>409.0</ele><time>2026-04-18T11:31:38.002Z</time></trkpt><trkpt lat="42.09033350673682" lon="11.998852211558251"><ele>410.0</ele><time>2026-04-18T11:31:39.002Z</time></trkpt><trkpt lat="42.09021611685213" lon="11.998844596670006"><ele>411.0</ele><time>2026-04-18T11:31:40.002Z</time></trkpt><trkpt lat="42.09007977255824" lon="11.998822455043932"><ele>411.0</ele><time>2026-04-18T11:31:41.002Z</time></trkpt><trkpt lat="42.0899298776718" lon="11.998794514576007"><ele>411.0</ele><time>2026-04-18T11:31:42.002Z</time></trkpt><trkpt lat="42.08978147211442" lon="11.998767604563874"><ele>411.0</ele><time>2026-04-18T11:31:43.002Z</time></trkpt><trkpt lat="42.089625905520315" lon="11.998763973046835"><ele>412.0</ele><time>2026-04-18T11:31:44.002Z</time></trkpt><trkpt lat="42.08948741768642" lon="11.998721962410961"><ele>413.0</ele><time>2026-04-18T11:31:45.002Z</time></trkpt><trkpt lat="42.08934869160142" lon="11.99870040815885"><ele>414.0</ele><time>2026-04-18T11:31:46.002Z</time></trkpt><trkpt lat="42.089198905049074" lon="11.998696811129246"><ele>415.0</ele><time>2026-04-18T11:31:47.002Z</time></trkpt><trkpt lat="42.0890305260457" lon="11.998669185683116"><ele>415.5</ele><time>2026-04-18T11:31:48.002Z</time></trkpt><trkpt lat="42.0888867329768" lon="11.998648743243143"><ele>416.0</ele><time>2026-04-18T11:31:49.002Z</time></trkpt><trkpt lat="42.08875787548692" lon="11.998636445324218"><ele>416.5</ele><time>2026-04-18T11:31:50.002Z</time></trkpt><trkpt lat="42.08863860602349" lon="11.9986280320358"><ele>417.0</ele><time>2026-04-18T11:31:51.002Z</time></trkpt><trkpt lat="42.0885131696784" lon="11.998613146947969"><ele>417.0</ele><time>2026-04-18T11:31:52.002Z</time></trkpt><trkpt lat="42.08838114266977" lon="11.998579345824323"><ele>417.0</ele><time>2026-04-18T11:31:53.002Z</time></trkpt><trkpt lat="42.088255015305315" lon="11.998548408671383"><ele>417.0</ele><time>2026-04-18T11:31:54.002Z</time></trkpt><trkpt lat="42.088133805530944" lon="11.998507225936507"><ele>417.0</ele><time>2026-04-18T11:31:55.002Z</time></trkpt><trkpt lat="42.088011441629284" lon="11.998460712216097"><ele>415.25</ele><time>2026-04-18T11:31:56.002Z</time></trkpt><trkpt lat="42.08788524639944" lon="11.998411037371913"><ele>413.5</ele><time>2026-04-18T11:31:57.002Z</time></trkpt><trkpt lat="42.08776109439699" lon="11.998376696890801"><ele>411.75</ele><time>2026-04-18T11:31:58.002Z</time></trkpt><trkpt lat="42.08763082848287" lon="11.998359802737792"><ele>410.0</ele><time>2026-04-18T11:31:59Z</time></trkpt><trkpt lat="42.087504340815904" lon="11.998327488937864"><ele>415.5</ele><time>2026-04-18T11:32:00Z</time></trkpt><trkpt lat="42.08738404504653" lon="11.998324374238289"><ele>421.0</ele><time>2026-04-18T11:32:01Z</time></trkpt><trkpt lat="42.08727375196444" lon="11.998323632099813"><ele>426.5</ele><time>2026-04-18T11:32:02Z</time></trkpt><trkpt lat="42.08716061528872" lon="11.998323540520158"><ele>432.0</ele><time>2026-04-18T11:32:03Z</time></trkpt><trkpt lat="42.08704550495103" lon="11.998323540520106"><ele>432.0</ele><time>2026-04-18T11:32:04Z</time></trkpt><trkpt lat="42.08692700084256" lon="11.998323493499663"><ele>432.0</ele><time>2026-04-18T11:32:05Z</time></trkpt><trkpt lat="42.08680986942227" lon="11.998322535648487"><ele>432.0</ele><time>2026-04-18T11:32:06Z</time></trkpt><trkpt lat="42.08668475745636" lon="11.998338493572378"><ele>432.0</ele><time>2026-04-18T11:32:07Z</time></trkpt><trkpt lat="42.08655815335987" lon="11.998325696820226"><ele>432.5</ele><time>2026-04-18T11:32:08Z</time></trkpt><trkpt lat="42.08643808344145" lon="11.998317779871973"><ele>433.0</ele><time>2026-04-18T11:32:09Z</time></trkpt><trkpt lat="42.086317274323655" lon="11.99831185999842"><ele>433.5</ele><time>2026-04-18T11:32:10Z</time></trkpt><trkpt lat="42.08618944678839" lon="11.99831210866812"><ele>434.0</ele><time>2026-04-18T11:32:11Z</time></trkpt><trkpt lat="42.086059202900614" lon="11.99831304718081"><ele>434.0</ele><time>2026-04-18T11:32:12Z</time></trkpt><trkpt lat="42.08593439740874" lon="11.998321140761334"><ele>434.0</ele><time>2026-04-18T11:32:13Z</time></trkpt><trkpt lat="42.08580572650104" lon="11.998330486074417"><ele>434.0</ele><time>2026-04-18T11:32:14Z</time></trkpt><trkpt lat="42.08568784179148" lon="11.998324462832429"><ele>434.0</ele><time>2026-04-18T11:32:15Z</time></trkpt><trkpt lat="42.0855717299067" lon="11.998329655694373"><ele>436.5</ele><time>2026-04-18T11:32:16Z</time></trkpt><trkpt lat="42.08545838966637" lon="11.998331710088431"><ele>439.0</ele><time>2026-04-18T11:32:17Z</time></trkpt><trkpt lat="42.08533938931901" lon="11.99834720488689"><ele>441.5</ele><time>2026-04-18T11:32:18Z</time></trkpt><trkpt lat="42.08522239406689" lon="11.998367218070962"><ele>444.0</ele><time>2026-04-18T11:32:19Z</time></trkpt><trkpt lat="42.08510312834008" lon="11.9983966683071"><ele>442.1666666666667</ele><time>2026-04-18T11:32:20Z</time></trkpt><trkpt lat="42.084995911572" lon="11.99843292570984"><ele>440.33333333333337</ele><time>2026-04-18T11:32:21Z</time></trkpt><trkpt lat="42.08490476122556" lon="11.998467816330473"><ele>438.5</ele><time>2026-04-18T11:32:22Z</time></trkpt><trkpt lat="42.08482186262491" lon="11.99852272278018"><ele>436.6666666666667</ele><time>2026-04-18T11:32:23Z</time></trkpt><trkpt lat="42.084744358581624" lon="11.99852793555912"><ele>434.83333333333337</ele><time>2026-04-18T11:32:24Z</time></trkpt><trkpt lat="42.08467652166243" lon="11.998518705309538"><ele>433.0</ele><time>2026-04-18T11:32:25Z</time></trkpt><trkpt lat="42.08460584832038" lon="11.998510551085579"><ele>433.0</ele><time>2026-04-18T11:32:26Z</time></trkpt><trkpt lat="42.08453012894371" lon="11.998505565361526"><ele>432.99999999999994</ele><time>2026-04-18T11:32:27Z</time></trkpt><trkpt lat="42.084420852886076" lon="11.998592704964516"><ele>432.99999999999994</ele><time>2026-04-18T11:32:28Z</time></trkpt><trkpt lat="42.084345294908665" lon="11.99865845265141"><ele>433.0</ele><time>2026-04-18T11:32:29Z</time></trkpt><trkpt lat="42.08427273870981" lon="11.998721110119943"><ele>433.0</ele><time>2026-04-18T11:32:30Z</time></trkpt><trkpt lat="42.08420015367178" lon="11.998790008273607"><ele>433.0</ele><time>2026-04-18T11:32:31Z</time></trkpt><trkpt lat="42.08411260514424" lon="11.998869789181777"><ele>433.0</ele><time>2026-04-18T11:32:32Z</time></trkpt><trkpt lat="42.0840090228105" lon="11.998961005064993"><ele>433.0</ele><time>2026-04-18T11:32:33Z</time></trkpt><trkpt lat="42.083861588366524" lon="11.999032458348857"><ele>433.0</ele><time>2026-04-18T11:32:34Z</time></trkpt><trkpt lat="42.08369748111283" lon="11.999149011045578"><ele>432.6666666666667</ele><time>2026-04-18T11:32:35Z</time></trkpt><trkpt lat="42.083568843877146" lon="11.999260544662121"><ele>432.33333333333337</ele><time>2026-04-18T11:32:36Z</time></trkpt><trkpt lat="42.08342697138179" lon="11.999356362062452"><ele>432.0</ele><time>2026-04-18T11:32:37Z</time></trkpt><trkpt lat="42.083294594150125" lon="11.99943905379014"><ele>433.75</ele><time>2026-04-18T11:32:38.001Z</time></trkpt><trkpt lat="42.08315920669575" lon="11.99950186556984"><ele>435.5</ele><time>2026-04-18T11:32:39.001Z</time></trkpt><trkpt lat="42.0830159858545" lon="11.99954363038408"><ele>437.25</ele><time>2026-04-18T11:32:40.001Z</time></trkpt><trkpt lat="42.08286671545036" lon="11.999572144095431"><ele>439.0</ele><time>2026-04-18T11:32:41.001Z</time></trkpt><trkpt lat="42.082717505807736" lon="11.999591044810172"><ele>439.0</ele><time>2026-04-18T11:32:42.001Z</time></trkpt><trkpt lat="42.08259004126939" lon="11.999620939589223"><ele>439.0</ele><time>2026-04-18T11:32:43.001Z</time></trkpt><trkpt lat="42.08247086070034" lon="11.999659835153254"><ele>439.0</ele><time>2026-04-18T11:32:44.001Z</time></trkpt><trkpt lat="42.08235422691088" lon="11.999698804534644"><ele>439.0</ele><time>2026-04-18T11:32:45.001Z</time></trkpt><trkpt lat="42.08224245610002" lon="11.999764529095792"><ele>442.5</ele><time>2026-04-18T11:32:46.001Z</time></trkpt><trkpt lat="42.082115262421866" lon="11.999853193050647"><ele>446.0</ele><time>2026-04-18T11:32:47.001Z</time></trkpt><trkpt lat="42.08199599164601" lon="11.99995562656669"><ele>449.5</ele><time>2026-04-18T11:32:48.001Z</time></trkpt><trkpt lat="42.08188299039366" lon="12.0000563873215"><ele>453.0</ele><time>2026-04-18T11:32:49.001Z</time></trkpt><trkpt lat="42.081778129130704" lon="12.000152006702237"><ele>453.0</ele><time>2026-04-18T11:32:50.001Z</time></trkpt><trkpt lat="42.08167504583096" lon="12.000254082370477"><ele>453.0</ele><time>2026-04-18T11:32:51.001Z</time></trkpt><trkpt lat="42.08157810027832" lon="12.0003578183785"><ele>453.0</ele><time>2026-04-18T11:32:52.001Z</time></trkpt><trkpt lat="42.08146997061157" lon="12.000435104105833"><ele>453.0</ele><time>2026-04-18T11:32:53.001Z</time></trkpt><trkpt lat="42.08136940464554" lon="12.00052863112515"><ele>452.75</ele><time>2026-04-18T11:32:54.001Z</time></trkpt><trkpt lat="42.08126746280939" lon="12.000623437647453"><ele>452.5</ele><time>2026-04-18T11:32:55.001Z</time></trkpt><trkpt lat="42.081174843324284" lon="12.000733072122928"><ele>452.25</ele><time>2026-04-18T11:32:56.001Z</time></trkpt><trkpt lat="42.081078808101694" lon="12.000807723522815"><ele>452.0</ele><time>2026-04-18T11:32:57.001Z</time></trkpt><trkpt lat="42.0809860809187" lon="12.000886024123075"><ele>452.0</ele><time>2026-04-18T11:32:58.001Z</time></trkpt><trkpt lat="42.0808861778722" lon="12.000962655650786"><ele>452.0</ele><time>2026-04-18T11:32:59.001Z</time></trkpt><trkpt lat="42.080775714516996" lon="12.001028237680362"><ele>452.0</ele><time>2026-04-18T11:33:00.001Z</time></trkpt><trkpt lat="42.08066552026601" lon="12.001070811600817"><ele>452.0</ele><time>2026-04-18T11:33:01.001Z</time></trkpt><trkpt lat="42.08055516239629" lon="12.001098426632097"><ele>450.25</ele><time>2026-04-18T11:33:02.001Z</time></trkpt><trkpt lat="42.080436559437814" lon="12.001108948935652"><ele>448.5</ele><time>2026-04-18T11:33:03.001Z</time></trkpt><trkpt lat="42.080305313027196" lon="12.001097722447938"><ele>446.75</ele><time>2026-04-18T11:33:04.001Z</time></trkpt><trkpt lat="42.080159644629674" lon="12.001066427544393"><ele>445.0</ele><time>2026-04-18T11:33:05.001Z</time></trkpt><trkpt lat="42.0800045381212" lon="12.001014326745604"><ele>443.0</ele><time>2026-04-18T11:33:06.001Z</time></trkpt><trkpt lat="42.07984289201884" lon="12.000968043279578"><ele>441.0</ele><time>2026-04-18T11:33:07.001Z</time></trkpt><trkpt lat="42.07968366853515" lon="12.000926969998353"><ele>439.0</ele><time>2026-04-18T11:33:08.001Z</time></trkpt><trkpt lat="42.079534818419525" lon="12.000890835859003"><ele>439.0</ele><time>2026-04-18T11:33:09.001Z</time></trkpt><trkpt lat="42.079393415562855" lon="12.000851545504299"><ele>439.0</ele><time>2026-04-18T11:33:10.001Z</time></trkpt><trkpt lat="42.07924614140622" lon="12.000822454930429"><ele>439.0</ele><time>2026-04-18T11:33:11.001Z</time></trkpt><trkpt lat="42.07906870200054" lon="12.000774534829597"><ele>433.33333333333337</ele><time>2026-04-18T11:33:12.001Z</time></trkpt><trkpt lat="42.07887531194289" lon="12.000710123250096"><ele>427.66666666666663</ele><time>2026-04-18T11:33:13.001Z</time></trkpt><trkpt lat="42.078668505963634" lon="12.000654825099103"><ele>422.0</ele><time>2026-04-18T11:33:14.001Z</time></trkpt><trkpt lat="42.07846188628883" lon="12.000602077446485"><ele>422.0</ele><time>2026-04-18T11:33:15.001Z</time></trkpt><trkpt lat="42.078269074414045" lon="12.000549182121178"><ele>422.0</ele><time>2026-04-18T11:33:16.001Z</time></trkpt><trkpt lat="42.0780811349351" lon="12.000494662866453"><ele>422.0</ele><time>2026-04-18T11:33:17.001Z</time></trkpt><trkpt lat="42.07790612854048" lon="12.000451681994635"><ele>419.3333333333333</ele><time>2026-04-18T11:33:18.001Z</time></trkpt><trkpt lat="42.07774099869642" lon="12.000409079063353"><ele>416.66666666666663</ele><time>2026-04-18T11:33:19.001Z</time></trkpt><trkpt lat="42.07759106839962" lon="12.000366460049355"><ele>414.0</ele><time>2026-04-18T11:33:20.001Z</time></trkpt><trkpt lat="42.07745077157539" lon="12.000321825436917"><ele>412.75</ele><time>2026-04-18T11:33:21.001Z</time></trkpt><trkpt lat="42.07732258650599" lon="12.000258390402992"><ele>411.5</ele><time>2026-04-18T11:33:22.001Z</time></trkpt><trkpt lat="42.07720912097604" lon="12.000182848733363"><ele>410.25</ele><time>2026-04-18T11:33:23.001Z</time></trkpt><trkpt lat="42.07711833191906" lon="12.000102300763213"><ele>409.0</ele><time>2026-04-18T11:33:24.001Z</time></trkpt><trkpt lat="42.07703882806951" lon="12.000015423641733"><ele>409.0</ele><time>2026-04-18T11:33:25.001Z</time></trkpt><trkpt lat="42.076949756519454" lon="11.999905737315364"><ele>409.0</ele><time>2026-04-18T11:33:26.001Z</time></trkpt><trkpt lat="42.076853108737055" lon="11.999790766591563"><ele>409.0</ele><time>2026-04-18T11:33:27.001Z</time></trkpt><trkpt lat="42.076763762519796" lon="11.99966109835213"><ele>409.0</ele><time>2026-04-18T11:33:28.002Z</time></trkpt><trkpt lat="42.0766729890041" lon="11.999505144277686"><ele>408.33333333333337</ele><time>2026-04-18T11:33:29.002Z</time></trkpt><trkpt lat="42.07657366709925" lon="11.999325026092796"><ele>407.66666666666663</ele><time>2026-04-18T11:33:30.002Z</time></trkpt><trkpt lat="42.076458071424604" lon="11.999141981028094"><ele>407.0</ele><time>2026-04-18T11:33:31.002Z</time></trkpt><trkpt lat="42.07634258613922" lon="11.998953674463113"><ele>407.0</ele><time>2026-04-18T11:33:32.002Z</time></trkpt><trkpt lat="42.07623295592064" lon="11.998776712929107"><ele>407.0</ele><time>2026-04-18T11:33:33.002Z</time></trkpt><trkpt lat="42.0761220870743" lon="11.998613456829863"><ele>407.0</ele><time>2026-04-18T11:33:34.002Z</time></trkpt><trkpt lat="42.07600413599559" lon="11.998454244272846"><ele>406.0</ele><time>2026-04-18T11:33:35.002Z</time></trkpt><trkpt lat="42.07587819965942" lon="11.998314799056985"><ele>405.0</ele><time>2026-04-18T11:33:36.002Z</time></trkpt><trkpt lat="42.0757414104213" lon="11.998182569513993"><ele>404.0</ele><time>2026-04-18T11:33:37.002Z</time></trkpt><trkpt lat="42.07560213434233" lon="11.998053572984304"><ele>404.0</ele><time>2026-04-18T11:33:38.002Z</time></trkpt><trkpt lat="42.07546256134" lon="11.997939150671247"><ele>404.0</ele><time>2026-04-18T11:33:39.002Z</time></trkpt><trkpt lat="42.075327755148805" lon="11.997842265038951"><ele>404.0</ele><time>2026-04-18T11:33:40.002Z</time></trkpt><trkpt lat="42.07520699212093" lon="11.997757649185056"><ele>404.0</ele><time>2026-04-18T11:33:41.002Z</time></trkpt><trkpt lat="42.07511065462137" lon="11.997679696117613"><ele>404.0</ele><time>2026-04-18T11:33:42.002Z</time></trkpt><trkpt lat="42.07502145037757" lon="11.997587483165626"><ele>404.0</ele><time>2026-04-18T11:33:43.002Z</time></trkpt><trkpt lat="42.07492987623496" lon="11.997482380385604"><ele>404.0</ele><time>2026-04-18T11:33:44.002Z</time></trkpt><trkpt lat="42.0748418446134" lon="11.997371334601468"><ele>403.75</ele><time>2026-04-18T11:33:45.002Z</time></trkpt><trkpt lat="42.07475318577743" lon="11.997254625059645"><ele>403.5</ele><time>2026-04-18T11:33:46.002Z</time></trkpt><trkpt lat="42.07466702458788" lon="11.99713602994872"><ele>403.25</ele><time>2026-04-18T11:33:47.002Z</time></trkpt><trkpt lat="42.07457967620344" lon="11.997022113574676"><ele>403.0</ele><time>2026-04-18T11:33:48.002Z</time></trkpt><trkpt lat="42.074494256536774" lon="11.996903595920742"><ele>403.0</ele><time>2026-04-18T11:33:49.002Z</time></trkpt><trkpt lat="42.074409538454304" lon="11.996783673380156"><ele>403.0</ele><time>2026-04-18T11:33:50.002Z</time></trkpt><trkpt lat="42.07432651734757" lon="11.996671665103923"><ele>403.0</ele><time>2026-04-18T11:33:51.002Z</time></trkpt><trkpt lat="42.07424076005891" lon="11.996567588795408"><ele>403.0</ele><time>2026-04-18T11:33:52.002Z</time></trkpt><trkpt lat="42.07415831443453" lon="11.996479215437695"><ele>404.0</ele><time>2026-04-18T11:33:53.002Z</time></trkpt><trkpt lat="42.07408158167105" lon="11.996404572364089"><ele>405.0</ele><time>2026-04-18T11:33:54.002Z</time></trkpt><trkpt lat="42.07398878369824" lon="11.996338928840126"><ele>406.0</ele><time>2026-04-18T11:33:55.002Z</time></trkpt><trkpt lat="42.07388039570966" lon="11.996285821845078"><ele>407.0</ele><time>2026-04-18T11:33:56.002Z</time></trkpt><trkpt lat="42.07376675216567" lon="11.996243116843944"><ele>408.0</ele><time>2026-04-18T11:33:57.002Z</time></trkpt><trkpt lat="42.07364404141446" lon="11.996211615995538"><ele>408.0</ele><time>2026-04-18T11:33:58.002Z</time></trkpt><trkpt lat="42.07351509733904" lon="11.996187599296666"><ele>408.0</ele><time>2026-04-18T11:33:59.002Z</time></trkpt><trkpt lat="42.07337727469701" lon="11.996166150673407"><ele>408.0</ele><time>2026-04-18T11:34:00.002Z</time></trkpt><trkpt lat="42.07323826258543" lon="11.996150937686958"><ele>408.0</ele><time>2026-04-18T11:34:01.002Z</time></trkpt><trkpt lat="42.07310169741542" lon="11.996136518660597"><ele>404.5</ele><time>2026-04-18T11:34:02.002Z</time></trkpt><trkpt lat="42.07297885947903" lon="11.996122127954722"><ele>401.0</ele><time>2026-04-18T11:34:03.002Z</time></trkpt><trkpt lat="42.07286259834219" lon="11.996109841310393"><ele>397.5</ele><time>2026-04-18T11:34:04.002Z</time></trkpt><trkpt lat="42.07274650417631" lon="11.99609789916563"><ele>394.0</ele><time>2026-04-18T11:34:05Z</time></trkpt><trkpt lat="42.07263384322099" lon="11.996085767558938"><ele>394.0</ele><time>2026-04-18T11:34:06Z</time></trkpt><trkpt lat="42.07252411406052" lon="11.996063645066474"><ele>394.0</ele><time>2026-04-18T11:34:07Z</time></trkpt><trkpt lat="42.07241668364109" lon="11.996004310969544"><ele>394.0</ele><time>2026-04-18T11:34:08Z</time></trkpt><trkpt lat="42.072316398330635" lon="11.995935593444255"><ele>394.0</ele><time>2026-04-18T11:34:09Z</time></trkpt><trkpt lat="42.072214072012805" lon="11.995874703443349"><ele>396.0</ele><time>2026-04-18T11:34:10Z</time></trkpt><trkpt lat="42.07209656305251" lon="11.995818354439875"><ele>398.0</ele><time>2026-04-18T11:34:11Z</time></trkpt><trkpt lat="42.071973734369934" lon="11.995765692651169"><ele>400.0</ele><time>2026-04-18T11:34:12Z</time></trkpt><trkpt lat="42.071854601521984" lon="11.995708807617918"><ele>402.0</ele><time>2026-04-18T11:34:13Z</time></trkpt><trkpt lat="42.07174042622122" lon="11.995657290872588"><ele>402.0</ele><time>2026-04-18T11:34:14Z</time></trkpt><trkpt lat="42.07163422619634" lon="11.995623643113591"><ele>402.0</ele><time>2026-04-18T11:34:15Z</time></trkpt><trkpt lat="42.071527391078675" lon="11.995608119449328"><ele>402.0</ele><time>2026-04-18T11:34:16Z</time></trkpt><trkpt lat="42.07141882260477" lon="11.995615952937676"><ele>402.0</ele><time>2026-04-18T11:34:17Z</time></trkpt><trkpt lat="42.071302386832755" lon="11.995623102419724"><ele>402.0</ele><time>2026-04-18T11:34:18Z</time></trkpt><trkpt lat="42.071190751742066" lon="11.995664000576097"><ele>401.0</ele><time>2026-04-18T11:34:19Z</time></trkpt><trkpt lat="42.07108968050282" lon="11.995705834479239"><ele>400.0</ele><time>2026-04-18T11:34:20Z</time></trkpt><trkpt lat="42.071011339766315" lon="11.99576475894501"><ele>399.0</ele><time>2026-04-18T11:34:21Z</time></trkpt><trkpt lat="42.07091458941045" lon="11.995766509051258"><ele>398.0</ele><time>2026-04-18T11:34:22Z</time></trkpt><trkpt lat="42.070816636591864" lon="11.995746829199888"><ele>397.0</ele><time>2026-04-18T11:34:23Z</time></trkpt><trkpt lat="42.07070603884274" lon="11.995713734887797"><ele>393.25</ele><time>2026-04-18T11:34:24Z</time></trkpt><trkpt lat="42.07059744877099" lon="11.995658267609073"><ele>389.5</ele><time>2026-04-18T11:34:25Z</time></trkpt><trkpt lat="42.0704945129066" lon="11.995574259294932"><ele>385.75</ele><time>2026-04-18T11:34:26Z</time></trkpt><trkpt lat="42.070396183540296" lon="11.9954810088315"><ele>382.0</ele><time>2026-04-18T11:34:27Z</time></trkpt><trkpt lat="42.07030398489074" lon="11.995384615644788"><ele>382.0</ele><time>2026-04-18T11:34:28Z</time></trkpt><trkpt lat="42.070219950738654" lon="11.995281887104108"><ele>382.0</ele><time>2026-04-18T11:34:29Z</time></trkpt><trkpt lat="42.070136711827786" lon="11.995163209610633"><ele>382.0</ele><time>2026-04-18T11:34:30Z</time></trkpt><trkpt lat="42.07005450706979" lon="11.995033644786684"><ele>382.0</ele><time>2026-04-18T11:34:31Z</time></trkpt><trkpt lat="42.06997463846396" lon="11.994901154799246"><ele>379.0</ele><time>2026-04-18T11:34:32Z</time></trkpt><trkpt lat="42.06990417912112" lon="11.994774709960458"><ele>376.0</ele><time>2026-04-18T11:34:33Z</time></trkpt><trkpt lat="42.069839826572824" lon="11.994664704921524"><ele>373.0</ele><time>2026-04-18T11:34:34Z</time></trkpt><trkpt lat="42.06976890981029" lon="11.99455575625503"><ele>370.0</ele><time>2026-04-18T11:34:35Z</time></trkpt><trkpt lat="42.06969223558663" lon="11.994451248854698"><ele>367.0</ele><time>2026-04-18T11:34:36Z</time></trkpt><trkpt lat="42.06960396912115" lon="11.994366995912257"><ele>367.0</ele><time>2026-04-18T11:34:37Z</time></trkpt><trkpt lat="42.069507125511976" lon="11.994290436934852"><ele>367.0</ele><time>2026-04-18T11:34:38Z</time></trkpt><trkpt lat="42.069402463775944" lon="11.994220431323392"><ele>367.0</ele><time>2026-04-18T11:34:39.001Z</time></trkpt><trkpt lat="42.06928969756101" lon="11.99415928987584"><ele>367.0</ele><time>2026-04-18T11:34:40.001Z</time></trkpt><trkpt lat="42.06917069094663" lon="11.994127615247594"><ele>369.0</ele><time>2026-04-18T11:34:41.001Z</time></trkpt><trkpt lat="42.06904464925567" lon="11.994114266469568"><ele>371.0</ele><time>2026-04-18T11:34:42.001Z</time></trkpt><trkpt lat="42.06891299219767" lon="11.99413507822856"><ele>373.0</ele><time>2026-04-18T11:34:43.001Z</time></trkpt><trkpt lat="42.06878135121088" lon="11.99416256629187"><ele>375.0</ele><time>2026-04-18T11:34:44.001Z</time></trkpt><trkpt lat="42.06864631195845" lon="11.99419206446708"><ele>371.0</ele><time>2026-04-18T11:34:45.001Z</time></trkpt><trkpt lat="42.06850863252656" lon="11.994225391966665"><ele>367.0</ele><time>2026-04-18T11:34:46.001Z</time></trkpt><trkpt lat="42.068370039159426" lon="11.994256226904927"><ele>363.0</ele><time>2026-04-18T11:34:47.001Z</time></trkpt><trkpt lat="42.06823422043044" lon="11.994282755961684"><ele>359.0</ele><time>2026-04-18T11:34:48.001Z</time></trkpt><trkpt lat="42.06810413433967" lon="11.994327496316716"><ele>358.75</ele><time>2026-04-18T11:34:49.001Z</time></trkpt><trkpt lat="42.067972977378346" lon="11.994358431617028"><ele>358.5</ele><time>2026-04-18T11:34:50.001Z</time></trkpt><trkpt lat="42.06784539795487" lon="11.994413670644377"><ele>358.25</ele><time>2026-04-18T11:34:51.001Z</time></trkpt><trkpt lat="42.06772343760446" lon="11.994490882985424"><ele>358.0</ele><time>2026-04-18T11:34:52.001Z</time></trkpt><trkpt lat="42.067592058108076" lon="11.994526220269071"><ele>358.0</ele><time>2026-04-18T11:34:53.001Z</time></trkpt><trkpt lat="42.067464804917954" lon="11.994582754226084"><ele>358.0</ele><time>2026-04-18T11:34:54.001Z</time></trkpt><trkpt lat="42.067334716638406" lon="11.994639027136142"><ele>358.0</ele><time>2026-04-18T11:34:55.001Z</time></trkpt><trkpt lat="42.06721339668467" lon="11.994709159203762"><ele>358.0</ele><time>2026-04-18T11:34:56.001Z</time></trkpt><trkpt lat="42.06708085595973" lon="11.994744428225205"><ele>357.25</ele><time>2026-04-18T11:34:57.001Z</time></trkpt><trkpt lat="42.06696065519031" lon="11.994795754928358"><ele>356.5</ele><time>2026-04-18T11:34:58.001Z</time></trkpt><trkpt lat="42.06683919239246" lon="11.994850299431324"><ele>355.75</ele><time>2026-04-18T11:34:59.001Z</time></trkpt><trkpt lat="42.066718194594166" lon="11.994904636532137"><ele>355.0</ele><time>2026-04-18T11:35:00.001Z</time></trkpt><trkpt lat="42.06660035053623" lon="11.994980419441626"><ele>351.25</ele><time>2026-04-18T11:35:01.001Z</time></trkpt><trkpt lat="42.06646724341821" lon="11.995022305626879"><ele>347.5</ele><time>2026-04-18T11:35:02.001Z</time></trkpt><trkpt lat="42.0663409706084" lon="11.99508789382789"><ele>343.75</ele><time>2026-04-18T11:35:03.001Z</time></trkpt><trkpt lat="42.066209540240365" lon="11.99516426106477"><ele>340.0</ele><time>2026-04-18T11:35:04.001Z</time></trkpt><trkpt lat="42.06608302403284" lon="11.995249245857268"><ele>340.0</ele><time>2026-04-18T11:35:05.001Z</time></trkpt><trkpt lat="42.065960946373224" lon="11.995332625830024"><ele>340.0</ele><time>2026-04-18T11:35:06.001Z</time></trkpt><trkpt lat="42.06582860001283" lon="11.995428602269508"><ele>340.0</ele><time>2026-04-18T11:35:07.001Z</time></trkpt><trkpt lat="42.06569737306811" lon="11.99552389859429"><ele>340.0</ele><time>2026-04-18T11:35:08.001Z</time></trkpt><trkpt lat="42.06555848504168" lon="11.995624723900272"><ele>339.0</ele><time>2026-04-18T11:35:09.001Z</time></trkpt><trkpt lat="42.065424622003626" lon="11.99572322897513"><ele>338.0</ele><time>2026-04-18T11:35:10.001Z</time></trkpt><trkpt lat="42.065290301651245" lon="11.995832121878156"><ele>337.0</ele><time>2026-04-18T11:35:11.001Z</time></trkpt><trkpt lat="42.06517042262806" lon="11.995958347559107"><ele>335.75</ele><time>2026-04-18T11:35:12.001Z</time></trkpt><trkpt lat="42.06504493555485" lon="11.996067964579172"><ele>334.5</ele><time>2026-04-18T11:35:13.001Z</time></trkpt><trkpt lat="42.06493563346902" lon="11.99618699847574"><ele>333.25</ele><time>2026-04-18T11:35:14.001Z</time></trkpt><trkpt lat="42.0648227309909" lon="11.996272601551098"><ele>332.0</ele><time>2026-04-18T11:35:15.001Z</time></trkpt><trkpt lat="42.06470797967288" lon="11.99634134549269"><ele>331.75</ele><time>2026-04-18T11:35:16.001Z</time></trkpt><trkpt lat="42.06458742937449" lon="11.996397364103444"><ele>331.5</ele><time>2026-04-18T11:35:17.001Z</time></trkpt><trkpt lat="42.06446777007132" lon="11.996434004117512"><ele>331.25</ele><time>2026-04-18T11:35:18.001Z</time></trkpt><trkpt lat="42.06435828709541" lon="11.996459083339833"><ele>331.0</ele><time>2026-04-18T11:35:19.001Z</time></trkpt><trkpt lat="42.06426193999361" lon="11.996477000337963"><ele>331.0</ele><time>2026-04-18T11:35:20.001Z</time></trkpt><trkpt lat="42.064182655375916" lon="11.99648220663004"><ele>331.0</ele><time>2026-04-18T11:35:21.001Z</time></trkpt><trkpt lat="42.06411161530687" lon="11.996487800828472"><ele>331.0</ele><time>2026-04-18T11:35:22.001Z</time></trkpt><trkpt lat="42.06402558680859" lon="11.996513528976013"><ele>331.0</ele><time>2026-04-18T11:35:25.001Z</time></trkpt><trkpt lat="42.063883379608946" lon="11.996531712675246"><ele>331.0</ele><time>2026-04-18T11:35:27.001Z</time></trkpt><trkpt lat="42.06379991877984" lon="11.99652926197747"><ele>329.66666666666663</ele><time>2026-04-18T11:35:28.001Z</time></trkpt><trkpt lat="42.063726960135604" lon="11.996524041280152"><ele>328.3333333333333</ele><time>2026-04-18T11:35:29.001Z</time></trkpt><trkpt lat="42.063662357711785" lon="11.99651779273193"><ele>327.0</ele><time>2026-04-18T11:35:30.001Z</time></trkpt><trkpt lat="42.063535718767355" lon="11.996501044471408"><ele>325.6666666666667</ele><time>2026-04-18T11:35:32.002Z</time></trkpt><trkpt lat="42.06345819816799" lon="11.996491360386447"><ele>324.33333333333337</ele><time>2026-04-18T11:35:33.002Z</time></trkpt><trkpt lat="42.06337536678642" lon="11.996477718950732"><ele>323.0</ele><time>2026-04-18T11:35:34.002Z</time></trkpt><trkpt lat="42.06328397437489" lon="11.996465040346711"><ele>321.0</ele><time>2026-04-18T11:35:35.002Z</time></trkpt><trkpt lat="42.063184957688954" lon="11.996454687947695"><ele>319.0</ele><time>2026-04-18T11:35:36.002Z</time></trkpt><trkpt lat="42.06308693195667" lon="11.99643920735294"><ele>317.0</ele><time>2026-04-18T11:35:37.002Z</time></trkpt><trkpt lat="42.062986786639094" lon="11.996414682523872"><ele>315.0</ele><time>2026-04-18T11:35:38.002Z</time></trkpt><trkpt lat="42.06289193087552" lon="11.996390351944196"><ele>313.0</ele><time>2026-04-18T11:35:39.002Z</time></trkpt><trkpt lat="42.06280703228435" lon="11.99636615738981"><ele>313.0</ele><time>2026-04-18T11:35:40.002Z</time></trkpt><trkpt lat="42.06273076896331" lon="11.996337500483675"><ele>313.0</ele><time>2026-04-18T11:35:41.002Z</time></trkpt><trkpt lat="42.06266547400737" lon="11.99630265462016"><ele>313.0</ele><time>2026-04-18T11:35:42.002Z</time></trkpt><trkpt lat="42.062596329279636" lon="11.996244005951606"><ele>313.0</ele><time>2026-04-18T11:35:43.002Z</time></trkpt><trkpt lat="42.06254040420744" lon="11.996186072904292"><ele>313.0</ele><time>2026-04-18T11:35:44.002Z</time></trkpt><trkpt lat="42.06248787808191" lon="11.99611237230222"><ele>313.0</ele><time>2026-04-18T11:35:46.002Z</time></trkpt><trkpt lat="42.06243839572724" lon="11.996043917234733"><ele>313.0</ele><time>2026-04-18T11:35:49.002Z</time></trkpt><trkpt lat="42.06239037200917" lon="11.9959712492372"><ele>310.6</ele><time>2026-04-18T11:35:54.002Z</time></trkpt><trkpt lat="42.06235953895417" lon="11.995859356313206"><ele>308.20000000000005</ele><time>2026-04-18T11:35:57.002Z</time></trkpt><trkpt lat="42.06229302430616" lon="11.99576943117872"><ele>305.8</ele><time>2026-04-18T11:35:59.002Z</time></trkpt><trkpt lat="42.062248258849735" lon="11.995666662147498"><ele>303.40000000000003</ele><time>2026-04-18T11:36:01.002Z</time></trkpt><trkpt lat="42.06217708916225" lon="11.995566233479485"><ele>301.0</ele><time>2026-04-18T11:36:03.002Z</time></trkpt><trkpt lat="42.06208462453208" lon="11.995448837583345"><ele>301.0</ele><time>2026-04-18T11:36:05.002Z</time></trkpt><trkpt lat="42.062034839511526" lon="11.99539387432874"><ele>301.0</ele><time>2026-04-18T11:36:06.002Z</time></trkpt><trkpt lat="42.061957395474785" lon="11.995336723063073"><ele>301.0</ele><time>2026-04-18T11:36:07.002Z</time></trkpt><trkpt lat="42.06186868807334" lon="11.995274532700194"><ele>301.0</ele><time>2026-04-18T11:36:08.002Z</time></trkpt><trkpt lat="42.06176528317921" lon="11.995199239639636"><ele>301.0</ele><time>2026-04-18T11:36:09.002Z</time></trkpt><trkpt lat="42.061649905349924" lon="11.995123996577986"><ele>299.25</ele><time>2026-04-18T11:36:10.002Z</time></trkpt><trkpt lat="42.06153803682484" lon="11.995056660578987"><ele>297.5</ele><time>2026-04-18T11:36:11Z</time></trkpt><trkpt lat="42.061418745810435" lon="11.99498965858186"><ele>295.75</ele><time>2026-04-18T11:36:12Z</time></trkpt><trkpt lat="42.06129458213314" lon="11.994928274403108"><ele>294.0</ele><time>2026-04-18T11:36:13Z</time></trkpt><trkpt lat="42.06117638697026" lon="11.994867591050504"><ele>294.0</ele><time>2026-04-18T11:36:14Z</time></trkpt><trkpt lat="42.061067483910904" lon="11.994810747914569"><ele>294.0</ele><time>2026-04-18T11:36:15Z</time></trkpt><trkpt lat="42.06096165961203" lon="11.994759333137775"><ele>294.0</ele><time>2026-04-18T11:36:16Z</time></trkpt><trkpt lat="42.060857847407924" lon="11.994709133218137"><ele>294.0</ele><time>2026-04-18T11:36:17Z</time></trkpt><trkpt lat="42.060753666920164" lon="11.994647123558865"><ele>290.75</ele><time>2026-04-18T11:36:18Z</time></trkpt><trkpt lat="42.06064282038575" lon="11.994593906414357"><ele>287.5</ele><time>2026-04-18T11:36:19Z</time></trkpt><trkpt lat="42.060527845433086" lon="11.99454335973939"><ele>284.25</ele><time>2026-04-18T11:36:20Z</time></trkpt><trkpt lat="42.06041125995785" lon="11.99449588296544"><ele>281.0</ele><time>2026-04-18T11:36:21Z</time></trkpt><trkpt lat="42.06029326465201" lon="11.994446998814745"><ele>281.0</ele><time>2026-04-18T11:36:22Z</time></trkpt><trkpt lat="42.06018046838245" lon="11.99440143626602"><ele>281.0</ele><time>2026-04-18T11:36:23Z</time></trkpt><trkpt lat="42.060081798953185" lon="11.994360047506241"><ele>281.0</ele><time>2026-04-18T11:36:24Z</time></trkpt><trkpt lat="42.05999084690634" lon="11.994324713294802"><ele>281.0</ele><time>2026-04-18T11:36:25Z</time></trkpt><trkpt lat="42.059914499871155" lon="11.994301460118287"><ele>281.0</ele><time>2026-04-18T11:36:26Z</time></trkpt><trkpt lat="42.05983402836472" lon="11.994262072734545"><ele>280.40000000000003</ele><time>2026-04-18T11:36:27Z</time></trkpt><trkpt lat="42.05975515819011" lon="11.99425010172514"><ele>279.8</ele><time>2026-04-18T11:36:28Z</time></trkpt><trkpt lat="42.05964859349937" lon="11.99420545440562"><ele>279.20000000000005</ele><time>2026-04-18T11:36:29Z</time></trkpt><trkpt lat="42.059557264665855" lon="11.994180727161668"><ele>278.6</ele><time>2026-04-18T11:36:30Z</time></trkpt><trkpt lat="42.059460087173136" lon="11.994171302298184"><ele>278.0</ele><time>2026-04-18T11:36:31Z</time></trkpt><trkpt lat="42.05934948379339" lon="11.994139362876966"><ele>278.0</ele><time>2026-04-18T11:36:32Z</time></trkpt><trkpt lat="42.05923322937462" lon="11.9941335309359"><ele>278.0</ele><time>2026-04-18T11:36:33Z</time></trkpt><trkpt lat="42.05910352850659" lon="11.994148104695691"><ele>278.0</ele><time>2026-04-18T11:36:34Z</time></trkpt><trkpt lat="42.058966103689016" lon="11.994149043509065"><ele>278.0</ele><time>2026-04-18T11:36:35Z</time></trkpt><trkpt lat="42.05882748288294" lon="11.994146951314345"><ele>276.75</ele><time>2026-04-18T11:36:36Z</time></trkpt><trkpt lat="42.0586866433665" lon="11.994152531865815"><ele>275.5</ele><time>2026-04-18T11:36:37Z</time></trkpt><trkpt lat="42.058541833624055" lon="11.994151564002365"><ele>274.25</ele><time>2026-04-18T11:36:38Z</time></trkpt><trkpt lat="42.05840048294505" lon="11.994148067082667"><ele>273.0</ele><time>2026-04-18T11:36:39Z</time></trkpt><trkpt lat="42.05825980175306" lon="11.994147081514688"><ele>271.25</ele><time>2026-04-18T11:36:40Z</time></trkpt><trkpt lat="42.058119956562" lon="11.99415302383783"><ele>269.5</ele><time>2026-04-18T11:36:41Z</time></trkpt><trkpt lat="42.05798109815379" lon="11.994159403039573"><ele>267.75</ele><time>2026-04-18T11:36:42Z</time></trkpt><trkpt lat="42.0578438586943" lon="11.994166656270295"><ele>266.0</ele><time>2026-04-18T11:36:43Z</time></trkpt><trkpt lat="42.057705744896694" lon="11.994177247204656"><ele>265.5</ele><time>2026-04-18T11:36:44Z</time></trkpt><trkpt lat="42.05757411122192" lon="11.994197364862098"><ele>265.0</ele><time>2026-04-18T11:36:45Z</time></trkpt><trkpt lat="42.057435895612954" lon="11.994216733345608"><ele>264.5</ele><time>2026-04-18T11:36:46Z</time></trkpt><trkpt lat="42.05730154324563" lon="11.99424320899979"><ele>264.0</ele><time>2026-04-18T11:36:47Z</time></trkpt><trkpt lat="42.057161831491285" lon="11.99427451717815"><ele>262.5</ele><time>2026-04-18T11:36:48Z</time></trkpt><trkpt lat="42.05702634087287" lon="11.994331061023038"><ele>261.0</ele><time>2026-04-18T11:36:49Z</time></trkpt><trkpt lat="42.05688250824105" lon="11.994387250665953"><ele>259.5</ele><time>2026-04-18T11:36:50Z</time></trkpt><trkpt lat="42.05674289117403" lon="11.994441813130694"><ele>258.0</ele><time>2026-04-18T11:36:51Z</time></trkpt><trkpt lat="42.056604334579134" lon="11.994499545436113"><ele>257.5</ele><time>2026-04-18T11:36:52Z</time></trkpt><trkpt lat="42.05646656737311" lon="11.994560010940138"><ele>257.0</ele><time>2026-04-18T11:36:53Z</time></trkpt><trkpt lat="42.056331548496566" lon="11.99462030894605"><ele>256.5</ele><time>2026-04-18T11:36:54Z</time></trkpt><trkpt lat="42.05619299429619" lon="11.994660147184065"><ele>256.0</ele><time>2026-04-18T11:36:55.001Z</time></trkpt><trkpt lat="42.05606328330576" lon="11.994739674311864"><ele>256.0</ele><time>2026-04-18T11:36:56.001Z</time></trkpt><trkpt lat="42.05592467334798" lon="11.994774122222726"><ele>256.0</ele><time>2026-04-18T11:36:57.001Z</time></trkpt><trkpt lat="42.055791867761194" lon="11.994850222065562"><ele>256.0</ele><time>2026-04-18T11:36:58.001Z</time></trkpt><trkpt lat="42.05565268198406" lon="11.994906222068492"><ele>256.0</ele><time>2026-04-18T11:36:59.001Z</time></trkpt><trkpt lat="42.055507598713135" lon="11.994968692325694"><ele>254.33333333333331</ele><time>2026-04-18T11:37:00.001Z</time></trkpt><trkpt lat="42.055361156278245" lon="11.995028809583877"><ele>252.66666666666669</ele><time>2026-04-18T11:37:01.001Z</time></trkpt><trkpt lat="42.05521697850744" lon="11.99508968994227"><ele>251.0</ele><time>2026-04-18T11:37:02.001Z</time></trkpt><trkpt lat="42.05507503413752" lon="11.995146831206329"><ele>251.25</ele><time>2026-04-18T11:37:03.001Z</time></trkpt><trkpt lat="42.05493487391292" lon="11.995193486397444"><ele>251.5</ele><time>2026-04-18T11:37:04.001Z</time></trkpt><trkpt lat="42.05479930881375" lon="11.995246037657923"><ele>251.75</ele><time>2026-04-18T11:37:05.001Z</time></trkpt><trkpt lat="42.05466656620464" lon="11.99531035598786"><ele>252.0</ele><time>2026-04-18T11:37:06.001Z</time></trkpt><trkpt lat="42.05453363669362" lon="11.995375076422103"><ele>252.0</ele><time>2026-04-18T11:37:07.001Z</time></trkpt><trkpt lat="42.05439787223554" lon="11.995434453206206"><ele>252.0</ele><time>2026-04-18T11:37:08.001Z</time></trkpt><trkpt lat="42.05426797058086" lon="11.995486338447439"><ele>252.0</ele><time>2026-04-18T11:37:09.001Z</time></trkpt><trkpt lat="42.05413835604095" lon="11.995547228407194"><ele>252.0</ele><time>2026-04-18T11:37:10.001Z</time></trkpt><trkpt lat="42.05400617638405" lon="11.995602243951351"><ele>252.25</ele><time>2026-04-18T11:37:11.001Z</time></trkpt><trkpt lat="42.0538715027503" lon="11.995652271310844"><ele>252.5</ele><time>2026-04-18T11:37:12.001Z</time></trkpt><trkpt lat="42.05373469288053" lon="11.995708092714667"><ele>252.75</ele><time>2026-04-18T11:37:13.001Z</time></trkpt><trkpt lat="42.05359369983816" lon="11.995772046878386"><ele>253.0</ele><time>2026-04-18T11:37:14.001Z</time></trkpt><trkpt lat="42.0534523359417" lon="11.995835727564886"><ele>251.66666666666666</ele><time>2026-04-18T11:37:15.001Z</time></trkpt><trkpt lat="42.053310857583924" lon="11.995895524320582"><ele>250.33333333333331</ele><time>2026-04-18T11:37:16.001Z</time></trkpt><trkpt lat="42.053163643502934" lon="11.995953668635877"><ele>249.0</ele><time>2026-04-18T11:37:17.001Z</time></trkpt><trkpt lat="42.05301760331714" lon="11.996013689474733"><ele>248.25</ele><time>2026-04-18T11:37:18.001Z</time></trkpt><trkpt lat="42.05287736481347" lon="11.996073802950972"><ele>247.5</ele><time>2026-04-18T11:37:19.001Z</time></trkpt><trkpt lat="42.05274350116011" lon="11.99613335652123"><ele>246.75</ele><time>2026-04-18T11:37:20.001Z</time></trkpt><trkpt lat="42.05261206045272" lon="11.996194183885306"><ele>246.0</ele><time>2026-04-18T11:37:21.001Z</time></trkpt><trkpt lat="42.052486285003674" lon="11.996263950638761"><ele>245.25</ele><time>2026-04-18T11:37:22.001Z</time></trkpt><trkpt lat="42.05236254548762" lon="11.99635338619715"><ele>244.5</ele><time>2026-04-18T11:37:23.001Z</time></trkpt><trkpt lat="42.05223505850342" lon="11.996438219366741"><ele>243.75</ele><time>2026-04-18T11:37:24.001Z</time></trkpt><trkpt lat="42.05211784522371" lon="11.996547964912784"><ele>243.0</ele><time>2026-04-18T11:37:25.001Z</time></trkpt><trkpt lat="42.05199740909071" lon="11.996660727152424"><ele>241.0</ele><time>2026-04-18T11:37:26.001Z</time></trkpt><trkpt lat="42.051886444245305" lon="11.996798281919757"><ele>239.0</ele><time>2026-04-18T11:37:27.001Z</time></trkpt><trkpt lat="42.05174606302179" lon="11.996906960934824"><ele>237.0</ele><time>2026-04-18T11:37:28.001Z</time></trkpt><trkpt lat="42.051618475729825" lon="11.99702925006986"><ele>235.66666666666669</ele><time>2026-04-18T11:37:29.001Z</time></trkpt><trkpt lat="42.05149232473864" lon="11.997150387924746"><ele>234.33333333333334</ele><time>2026-04-18T11:37:30.001Z</time></trkpt><trkpt lat="42.05136802990874" lon="11.99726979521138"><ele>233.0</ele><time>2026-04-18T11:37:31.001Z</time></trkpt><trkpt lat="42.05124672073862" lon="11.997387128413887"><ele>231.75</ele><time>2026-04-18T11:37:32.001Z</time></trkpt><trkpt lat="42.051141244103285" lon="11.997516393617722"><ele>230.5</ele><time>2026-04-18T11:37:33.001Z</time></trkpt><trkpt lat="42.051037865608066" lon="11.997613321970087"><ele>229.25</ele><time>2026-04-18T11:37:34.001Z</time></trkpt><trkpt lat="42.05094475534226" lon="11.99770696076252"><ele>228.0</ele><time>2026-04-18T11:37:35.001Z</time></trkpt><trkpt lat="42.050866445350366" lon="11.997783281841736"><ele>228.0</ele><time>2026-04-18T11:37:36.001Z</time></trkpt><trkpt lat="42.050796072651465" lon="11.997851703563638"><ele>228.0</ele><time>2026-04-18T11:37:37.001Z</time></trkpt><trkpt lat="42.05073725713384" lon="11.997907992323375"><ele>228.0</ele><time>2026-04-18T11:37:38.001Z</time></trkpt><trkpt lat="42.05063744967607" lon="11.998010838643072"><ele>228.0</ele><time>2026-04-18T11:37:40.001Z</time></trkpt><trkpt lat="42.05058424117358" lon="11.998066974495861"><ele>228.0</ele><time>2026-04-18T11:37:41.001Z</time></trkpt><trkpt lat="42.05049626606906" lon="11.99815509943441"><ele>227.33333333333334</ele><time>2026-04-18T11:37:43.001Z</time></trkpt><trkpt lat="42.050440951792574" lon="11.998210862346948"><ele>226.66666666666669</ele><time>2026-04-18T11:37:44.001Z</time></trkpt><trkpt lat="42.05039089493075" lon="11.998263700061056"><ele>226.0</ele><time>2026-04-18T11:37:46.002Z</time></trkpt><trkpt lat="42.050296238565274" lon="11.998352905048618"><ele>225.33333333333334</ele><time>2026-04-18T11:37:48.002Z</time></trkpt><trkpt lat="42.05023662713019" lon="11.998431556941046"><ele>224.66666666666669</ele><time>2026-04-18T11:37:49.002Z</time></trkpt><trkpt lat="42.05018216492759" lon="11.998529489209735"><ele>224.0</ele><time>2026-04-18T11:37:50.002Z</time></trkpt><trkpt lat="42.05013200260843" lon="11.998639542462348"><ele>223.2</ele><time>2026-04-18T11:37:51.002Z</time></trkpt><trkpt lat="42.050084863771175" lon="11.998750291956403"><ele>222.39999999999998</ele><time>2026-04-18T11:37:52.002Z</time></trkpt><trkpt lat="42.0500305885633" lon="11.99887904173825"><ele>221.6</ele><time>2026-04-18T11:37:53.002Z</time></trkpt><trkpt lat="42.04997344092341" lon="11.999011267497604"><ele>220.8</ele><time>2026-04-18T11:37:54.002Z</time></trkpt><trkpt lat="42.04993049969738" lon="11.999144336456206"><ele>220.0</ele><time>2026-04-18T11:37:55.002Z</time></trkpt><trkpt lat="42.04987441851519" lon="11.999270346990244"><ele>218.75</ele><time>2026-04-18T11:37:56.002Z</time></trkpt><trkpt lat="42.0498166963486" lon="11.999395305758418"><ele>217.5</ele><time>2026-04-18T11:37:57.002Z</time></trkpt><trkpt lat="42.04975644178996" lon="11.999533547305887"><ele>216.25</ele><time>2026-04-18T11:37:58.002Z</time></trkpt><trkpt lat="42.04969085444564" lon="11.999669555626278"><ele>215.0</ele><time>2026-04-18T11:37:59.002Z</time></trkpt><trkpt lat="42.0496283824231" lon="11.99980727520017"><ele>215.0</ele><time>2026-04-18T11:38:00.002Z</time></trkpt><trkpt lat="42.04956581181365" lon="11.999928912744672"><ele>215.0</ele><time>2026-04-18T11:38:01.002Z</time></trkpt><trkpt lat="42.0494935360412" lon="12.000030100400386"><ele>215.0</ele><time>2026-04-18T11:38:02.002Z</time></trkpt><trkpt lat="42.049420817025236" lon="12.00013617600396"><ele>215.0</ele><time>2026-04-18T11:38:03.002Z</time></trkpt><trkpt lat="42.04934174339385" lon="12.000217148829357"><ele>215.0</ele><time>2026-04-18T11:38:04.002Z</time></trkpt><trkpt lat="42.04927039913206" lon="12.000306117461186"><ele>215.0</ele><time>2026-04-18T11:38:05.002Z</time></trkpt><trkpt lat="42.04917787784434" lon="12.000388519296909"><ele>215.0</ele><time>2026-04-18T11:38:06.002Z</time></trkpt><trkpt lat="42.04909406292589" lon="12.000472476044875"><ele>215.0</ele><time>2026-04-18T11:38:07.002Z</time></trkpt><trkpt lat="42.04899984985757" lon="12.000546273491807"><ele>215.0</ele><time>2026-04-18T11:38:08.002Z</time></trkpt><trkpt lat="42.048908223888404" lon="12.000631316679431"><ele>215.0</ele><time>2026-04-18T11:38:09.002Z</time></trkpt><trkpt lat="42.04881594836711" lon="12.000696535371002"><ele>214.6</ele><time>2026-04-18T11:38:10.002Z</time></trkpt><trkpt lat="42.04872245863518" lon="12.00074721245654"><ele>214.2</ele><time>2026-04-18T11:38:11.002Z</time></trkpt><trkpt lat="42.04863137556557" lon="12.000791200639352"><ele>213.8</ele><time>2026-04-18T11:38:12.002Z</time></trkpt><trkpt lat="42.04853788640815" lon="12.000839778844286"><ele>213.4</ele><time>2026-04-18T11:38:13.002Z</time></trkpt><trkpt lat="42.04845121618459" lon="12.000896337469786"><ele>213.0</ele><time>2026-04-18T11:38:14.002Z</time></trkpt><trkpt lat="42.04836478064246" lon="12.000957260111223"><ele>211.4</ele><time>2026-04-18T11:38:15.002Z</time></trkpt><trkpt lat="42.04828023774545" lon="12.001004601541378"><ele>209.8</ele><time>2026-04-18T11:38:16.002Z</time></trkpt><trkpt lat="42.04818381187306" lon="12.00105907172965"><ele>208.2</ele><time>2026-04-18T11:38:17Z</time></trkpt><trkpt lat="42.04808775404401" lon="12.001121355447536"><ele>206.6</ele><time>2026-04-18T11:38:18Z</time></trkpt><trkpt lat="42.04799122260845" lon="12.001181841441387"><ele>205.0</ele><time>2026-04-18T11:38:19Z</time></trkpt><trkpt lat="42.04788512597275" lon="12.001243457033139"><ele>205.0</ele><time>2026-04-18T11:38:20Z</time></trkpt><trkpt lat="42.04777219347228" lon="12.001305521118578"><ele>205.0</ele><time>2026-04-18T11:38:21Z</time></trkpt><trkpt lat="42.04763985313197" lon="12.001377979698724"><ele>205.0</ele><time>2026-04-18T11:38:22Z</time></trkpt><trkpt lat="42.047506820466694" lon="12.001451308988356"><ele>205.0</ele><time>2026-04-18T11:38:23Z</time></trkpt><trkpt lat="42.047371937402964" lon="12.001530564589064"><ele>205.25</ele><time>2026-04-18T11:38:24Z</time></trkpt><trkpt lat="42.04722781241397" lon="12.001572902423725"><ele>205.5</ele><time>2026-04-18T11:38:25Z</time></trkpt><trkpt lat="42.04709163179129" lon="12.00164905095759"><ele>205.75</ele><time>2026-04-18T11:38:26Z</time></trkpt><trkpt lat="42.04696387406486" lon="12.001728112259498"><ele>206.0</ele><time>2026-04-18T11:38:27Z</time></trkpt><trkpt lat="42.04685316917682" lon="12.001821179718805"><ele>203.25</ele><time>2026-04-18T11:38:28Z</time></trkpt><trkpt lat="42.04674415651289" lon="12.001880239062519"><ele>200.5</ele><time>2026-04-18T11:38:29Z</time></trkpt><trkpt lat="42.0466347974927" lon="12.001931936002997"><ele>197.75</ele><time>2026-04-18T11:38:30Z</time></trkpt><trkpt lat="42.04652314258459" lon="12.001942990127006"><ele>195.0</ele><time>2026-04-18T11:38:31Z</time></trkpt><trkpt lat="42.046401193965444" lon="12.001916247169707"><ele>194.5</ele><time>2026-04-18T11:38:32Z</time></trkpt><trkpt lat="42.04627331982082" lon="12.001870088278167"><ele>194.0</ele><time>2026-04-18T11:38:33Z</time></trkpt><trkpt lat="42.046154925397296" lon="12.001813347806102"><ele>193.5</ele><time>2026-04-18T11:38:34Z</time></trkpt><trkpt lat="42.046047463985275" lon="12.001747519027237"><ele>193.0</ele><time>2026-04-18T11:38:35Z</time></trkpt><trkpt lat="42.0459413011772" lon="12.001673816464207"><ele>193.5</ele><time>2026-04-18T11:38:36Z</time></trkpt><trkpt lat="42.04584195475277" lon="12.001601340858121"><ele>194.0</ele><time>2026-04-18T11:38:37Z</time></trkpt><trkpt lat="42.045747990575755" lon="12.001548915401315"><ele>194.5</ele><time>2026-04-18T11:38:38Z</time></trkpt><trkpt lat="42.045635548381874" lon="12.001496295461392"><ele>195.0</ele><time>2026-04-18T11:38:39Z</time></trkpt><trkpt lat="42.04552312866619" lon="12.001435440280849"><ele>192.5</ele><time>2026-04-18T11:38:40Z</time></trkpt><trkpt lat="42.045401153614144" lon="12.001372985426462"><ele>190.0</ele><time>2026-04-18T11:38:41Z</time></trkpt><trkpt lat="42.04526876175929" lon="12.001322573950755"><ele>187.5</ele><time>2026-04-18T11:38:42Z</time></trkpt><trkpt lat="42.04514489068541" lon="12.00127048041802"><ele>185.0</ele><time>2026-04-18T11:38:43Z</time></trkpt><trkpt lat="42.045019281124524" lon="12.001222348248048"><ele>182.25</ele><time>2026-04-18T11:38:44Z</time></trkpt><trkpt lat="42.04489770420791" lon="12.001178763523976"><ele>179.5</ele><time>2026-04-18T11:38:45Z</time></trkpt><trkpt lat="42.04477729450719" lon="12.001140306861187"><ele>176.75</ele><time>2026-04-18T11:38:46Z</time></trkpt><trkpt lat="42.04466057617755" lon="12.001120895107704"><ele>174.0</ele><time>2026-04-18T11:38:47Z</time></trkpt><trkpt lat="42.04453869004648" lon="12.001120430378569"><ele>174.0</ele><time>2026-04-18T11:38:48Z</time></trkpt><trkpt lat="42.0444168748519" lon="12.001135764075206"><ele>174.0</ele><time>2026-04-18T11:38:49Z</time></trkpt><trkpt lat="42.04429859441748" lon="12.001160399576372"><ele>174.0</ele><time>2026-04-18T11:38:50Z</time></trkpt><trkpt lat="42.04418273573681" lon="12.001206786973253"><ele>174.0</ele><time>2026-04-18T11:38:51Z</time></trkpt><trkpt lat="42.044062366307635" lon="12.001268695128077"><ele>171.5</ele><time>2026-04-18T11:38:52Z</time></trkpt><trkpt lat="42.04393778794889" lon="12.00134355005009"><ele>169.0</ele><time>2026-04-18T11:38:53Z</time></trkpt><trkpt lat="42.04381334724099" lon="12.001422292057176"><ele>166.5</ele><time>2026-04-18T11:38:54Z</time></trkpt><trkpt lat="42.04369367962927" lon="12.00148857624547"><ele>164.0</ele><time>2026-04-18T11:38:55Z</time></trkpt><trkpt lat="42.043574796609654" lon="12.001541297092276"><ele>164.0</ele><time>2026-04-18T11:38:56Z</time></trkpt><trkpt lat="42.04346066655048" lon="12.001585459061564"><ele>164.0</ele><time>2026-04-18T11:38:57.001Z</time></trkpt><trkpt lat="42.04334635210141" lon="12.001619409142494"><ele>164.0</ele><time>2026-04-18T11:38:58.001Z</time></trkpt><trkpt lat="42.04321597412005" lon="12.00163522411546"><ele>164.0</ele><time>2026-04-18T11:38:59.001Z</time></trkpt><trkpt lat="42.04308543632225" lon="12.001629313633147"><ele>162.25</ele><time>2026-04-18T11:39:00.001Z</time></trkpt><trkpt lat="42.04295858877075" lon="12.001619486497587"><ele>160.5</ele><time>2026-04-18T11:39:01.001Z</time></trkpt><trkpt lat="42.04283715477392" lon="12.001585657284943"><ele>158.75</ele><time>2026-04-18T11:39:02.001Z</time></trkpt><trkpt lat="42.04271739377527" lon="12.001537058064683"><ele>157.0</ele><time>2026-04-18T11:39:03.001Z</time></trkpt><trkpt lat="42.042591946932504" lon="12.0014721568559"><ele>155.5</ele><time>2026-04-18T11:39:04.001Z</time></trkpt><trkpt lat="42.04245710744108" lon="12.001396198001117"><ele>154.0</ele><time>2026-04-18T11:39:05.001Z</time></trkpt><trkpt lat="42.04231667827088" lon="12.001320108199376"><ele>152.5</ele><time>2026-04-18T11:39:06.001Z</time></trkpt><trkpt lat="42.04218065387588" lon="12.001250556704095"><ele>151.0</ele><time>2026-04-18T11:39:07.001Z</time></trkpt><trkpt lat="42.04204474821344" lon="12.00118697139444"><ele>151.0</ele><time>2026-04-18T11:39:08.001Z</time></trkpt><trkpt lat="42.04190371555149" lon="12.001132752464661"><ele>151.0</ele><time>2026-04-18T11:39:09.001Z</time></trkpt><trkpt lat="42.04175925413841" lon="12.001088103951249"><ele>151.0</ele><time>2026-04-18T11:39:10.001Z</time></trkpt><trkpt lat="42.04161677264723" lon="12.00105044731139"><ele>151.0</ele><time>2026-04-18T11:39:11.001Z</time></trkpt><trkpt lat="42.04147106175505" lon="12.001016482075316"><ele>149.25</ele><time>2026-04-18T11:39:12.001Z</time></trkpt><trkpt lat="42.041317771322774" lon="12.000986789478027"><ele>147.5</ele><time>2026-04-18T11:39:13.001Z</time></trkpt><trkpt lat="42.04117091260674" lon="12.000961622403635"><ele>145.75</ele><time>2026-04-18T11:39:14.001Z</time></trkpt><trkpt lat="42.04103006328033" lon="12.00093691098924"><ele>144.0</ele><time>2026-04-18T11:39:15.001Z</time></trkpt><trkpt lat="42.040895602956674" lon="12.000907350793318"><ele>142.5</ele><time>2026-04-18T11:39:16.001Z</time></trkpt><trkpt lat="42.04076016472976" lon="12.000881757705084"><ele>141.0</ele><time>2026-04-18T11:39:17.001Z</time></trkpt><trkpt lat="42.04062842358826" lon="12.000865552118963"><ele>139.5</ele><time>2026-04-18T11:39:18.001Z</time></trkpt><trkpt lat="42.040499005385634" lon="12.00085251727504"><ele>138.0</ele><time>2026-04-18T11:39:19.001Z</time></trkpt><trkpt lat="42.04037657022034" lon="12.000833453930863"><ele>137.0</ele><time>2026-04-18T11:39:20.001Z</time></trkpt><trkpt lat="42.0402472432652" lon="12.000825499638626"><ele>136.0</ele><time>2026-04-18T11:39:21.001Z</time></trkpt><trkpt lat="42.04010518140261" lon="12.00082091007563"><ele>135.0</ele><time>2026-04-18T11:39:22.001Z</time></trkpt><trkpt lat="42.03995632528005" lon="12.000823097748977"><ele>134.0</ele><time>2026-04-18T11:39:23.001Z</time></trkpt><trkpt lat="42.03981723689783" lon="12.000821864370929"><ele>131.25</ele><time>2026-04-18T11:39:24.001Z</time></trkpt><trkpt lat="42.03968321850654" lon="12.000810967791645"><ele>128.5</ele><time>2026-04-18T11:39:25.001Z</time></trkpt><trkpt lat="42.03954957170121" lon="12.000798567172321"><ele>125.75</ele><time>2026-04-18T11:39:26.001Z</time></trkpt><trkpt lat="42.03942146498272" lon="12.000799065346095"><ele>123.0</ele><time>2026-04-18T11:39:27.001Z</time></trkpt><trkpt lat="42.03929640971786" lon="12.000799965427873"><ele>123.0</ele><time>2026-04-18T11:39:28.001Z</time></trkpt><trkpt lat="42.03917136289656" lon="12.000793144108766"><ele>123.0</ele><time>2026-04-18T11:39:29.001Z</time></trkpt><trkpt lat="42.03904464133999" lon="12.00080123933131"><ele>123.0</ele><time>2026-04-18T11:39:30.001Z</time></trkpt><trkpt lat="42.03890914899036" lon="12.000815446478073"><ele>123.0</ele><time>2026-04-18T11:39:31.001Z</time></trkpt><trkpt lat="42.038770097121244" lon="12.00082555892139"><ele>122.5</ele><time>2026-04-18T11:39:32.001Z</time></trkpt><trkpt lat="42.03862911056212" lon="12.000832239921484"><ele>122.0</ele><time>2026-04-18T11:39:33.001Z</time></trkpt><trkpt lat="42.03849486543581" lon="12.00083811174693"><ele>121.5</ele><time>2026-04-18T11:39:34.001Z</time></trkpt><trkpt lat="42.03836264834968" lon="12.00084977602647"><ele>121.0</ele><time>2026-04-18T11:39:35.001Z</time></trkpt><trkpt lat="42.03822458952369" lon="12.000858853579718"><ele>118.75</ele><time>2026-04-18T11:39:36.001Z</time></trkpt><trkpt lat="42.03809174275819" lon="12.000875668260585"><ele>116.5</ele><time>2026-04-18T11:39:37.001Z</time></trkpt><trkpt lat="42.03796135059368" lon="12.000904536799654"><ele>114.25</ele><time>2026-04-18T11:39:38.001Z</time></trkpt><trkpt lat="42.03782902662123" lon="12.000930706395526"><ele>112.0</ele><time>2026-04-18T11:39:39.001Z</time></trkpt><trkpt lat="42.0377025930665" lon="12.000948500894648"><ele>112.0</ele><time>2026-04-18T11:39:40.001Z</time></trkpt><trkpt lat="42.03757198497453" lon="12.000973374906843"><ele>112.0</ele><time>2026-04-18T11:39:41.001Z</time></trkpt><trkpt lat="42.037439818383795" lon="12.001007096551326"><ele>112.0</ele><time>2026-04-18T11:39:42.001Z</time></trkpt><trkpt lat="42.03730647080738" lon="12.001031842148986"><ele>112.0</ele><time>2026-04-18T11:39:43.001Z</time></trkpt><trkpt lat="42.03716792763242" lon="12.001070778471982"><ele>110.25</ele><time>2026-04-18T11:39:44.001Z</time></trkpt><trkpt lat="42.0370194288852" lon="12.001110172271332"><ele>108.5</ele><time>2026-04-18T11:39:45.001Z</time></trkpt><trkpt lat="42.036876784716846" lon="12.001141112499097"><ele>106.75</ele><time>2026-04-18T11:39:46.002Z</time></trkpt><trkpt lat="42.03673982528938" lon="12.001162283069393"><ele>105.0</ele><time>2026-04-18T11:39:47.002Z</time></trkpt><trkpt lat="42.03660978322462" lon="12.00116978983774"><ele>104.0</ele><time>2026-04-18T11:39:48.002Z</time></trkpt><trkpt lat="42.03648249258732" lon="12.001161494459723"><ele>103.0</ele><time>2026-04-18T11:39:49.002Z</time></trkpt><trkpt lat="42.036358566285095" lon="12.001142305975913"><ele>102.0</ele><time>2026-04-18T11:39:50.002Z</time></trkpt><trkpt lat="42.036235371689806" lon="12.00110600523613"><ele>101.0</ele><time>2026-04-18T11:39:51.002Z</time></trkpt><trkpt lat="42.03611490521295" lon="12.001059357088128"><ele>101.0</ele><time>2026-04-18T11:39:52.002Z</time></trkpt><trkpt lat="42.03598937541871" lon="12.00101869936272"><ele>101.0</ele><time>2026-04-18T11:39:53.002Z</time></trkpt><trkpt lat="42.03586419606283" lon="12.000993587477359"><ele>101.0</ele><time>2026-04-18T11:39:54.002Z</time></trkpt><trkpt lat="42.035746007942514" lon="12.000961976822422"><ele>101.0</ele><time>2026-04-18T11:39:55.002Z</time></trkpt><trkpt lat="42.035635179949296" lon="12.000919909979725"><ele>99.75</ele><time>2026-04-18T11:39:56.002Z</time></trkpt><trkpt lat="42.03551968652897" lon="12.000893951331319"><ele>98.5</ele><time>2026-04-18T11:39:57.002Z</time></trkpt><trkpt lat="42.03541307492915" lon="12.000872986550812"><ele>97.25</ele><time>2026-04-18T11:39:58.002Z</time></trkpt><trkpt lat="42.03530032092251" lon="12.000836667186347"><ele>96.0</ele><time>2026-04-18T11:39:59.002Z</time></trkpt><trkpt lat="42.03518804360993" lon="12.000804318011815"><ele>93.75</ele><time>2026-04-18T11:40:00.002Z</time></trkpt><trkpt lat="42.035067926743565" lon="12.00077444512014"><ele>91.5</ele><time>2026-04-18T11:40:01.002Z</time></trkpt><trkpt lat="42.03494567945692" lon="12.000743847636995"><ele>89.25</ele><time>2026-04-18T11:40:02.002Z</time></trkpt><trkpt lat="42.03482362069845" lon="12.000714525978358"><ele>87.0</ele><time>2026-04-18T11:40:03.002Z</time></trkpt><trkpt lat="42.034705335661016" lon="12.000692241738088"><ele>86.0</ele><time>2026-04-18T11:40:04.002Z</time></trkpt><trkpt lat="42.0345840799193" lon="12.000666399559268"><ele>85.0</ele><time>2026-04-18T11:40:05.002Z</time></trkpt><trkpt lat="42.03445933269696" lon="12.000640389376379"><ele>84.0</ele><time>2026-04-18T11:40:06.002Z</time></trkpt><trkpt lat="42.034338205016795" lon="12.000609134493208"><ele>83.0</ele><time>2026-04-18T11:40:07.002Z</time></trkpt><trkpt lat="42.03421686403556" lon="12.000589741596864"><ele>81.75</ele><time>2026-04-18T11:40:08.002Z</time></trkpt><trkpt lat="42.034096376664564" lon="12.000582775538753"><ele>80.5</ele><time>2026-04-18T11:40:09.002Z</time></trkpt><trkpt lat="42.03397209083883" lon="12.000571731683072"><ele>79.25</ele><time>2026-04-18T11:40:10.002Z</time></trkpt><trkpt lat="42.033841274880004" lon="12.000562090544852"><ele>78.0</ele><time>2026-04-18T11:40:11.002Z</time></trkpt><trkpt lat="42.03371018385423" lon="12.000554603938175"><ele>78.0</ele><time>2026-04-18T11:40:12.002Z</time></trkpt><trkpt lat="42.033576432421825" lon="12.000544425812352"><ele>78.0</ele><time>2026-04-18T11:40:13.002Z</time></trkpt><trkpt lat="42.033443563161846" lon="12.000530482156009"><ele>78.0</ele><time>2026-04-18T11:40:14.002Z</time></trkpt><trkpt lat="42.03331173694765" lon="12.000515893315228"><ele>78.0</ele><time>2026-04-18T11:40:15.002Z</time></trkpt><trkpt lat="42.03318137594511" lon="12.000496954547563"><ele>77.25</ele><time>2026-04-18T11:40:16.002Z</time></trkpt><trkpt lat="42.033055659572234" lon="12.000481897506127"><ele>76.5</ele><time>2026-04-18T11:40:17.002Z</time></trkpt><trkpt lat="42.03292411090816" lon="12.000471648917083"><ele>75.75</ele><time>2026-04-18T11:40:18.002Z</time></trkpt><trkpt lat="42.03279322451372" lon="12.00046112882653"><ele>75.0</ele><time>2026-04-18T11:40:19.002Z</time></trkpt><trkpt lat="42.032657533732745" lon="12.000450747316082"><ele>75.0</ele><time>2026-04-18T11:40:20.002Z</time></trkpt><trkpt lat="42.032520696891325" lon="12.000435866895687"><ele>75.0</ele><time>2026-04-18T11:40:21.002Z</time></trkpt><trkpt lat="42.03238188411649" lon="12.000415617306638"><ele>75.0</ele><time>2026-04-18T11:40:22.002Z</time></trkpt><trkpt lat="42.0322429643185" lon="12.00039909882072"><ele>75.0</ele><time>2026-04-18T11:40:23Z</time></trkpt><trkpt lat="42.03210340218913" lon="12.00038551952238"><ele>73.25</ele><time>2026-04-18T11:40:24Z</time></trkpt><trkpt lat="42.0319673522" lon="12.000373524601144"><ele>71.5</ele><time>2026-04-18T11:40:25Z</time></trkpt><trkpt lat="42.03183172855954" lon="12.000359635860827"><ele>69.75</ele><time>2026-04-18T11:40:26Z</time></trkpt><trkpt lat="42.031695819348606" lon="12.000343710039392"><ele>68.0</ele><time>2026-04-18T11:40:27Z</time></trkpt><trkpt lat="42.031565110214764" lon="12.000330596426233"><ele>67.0</ele><time>2026-04-18T11:40:28Z</time></trkpt><trkpt lat="42.031434881154645" lon="12.00032138110829"><ele>66.0</ele><time>2026-04-18T11:40:29Z</time></trkpt><trkpt lat="42.031301581716235" lon="12.000307890197766"><ele>65.0</ele><time>2026-04-18T11:40:30Z</time></trkpt><trkpt lat="42.0311685123339" lon="12.000293858290007"><ele>64.0</ele><time>2026-04-18T11:40:31Z</time></trkpt><trkpt lat="42.03104038153658" lon="12.00028250706837"><ele>64.0</ele><time>2026-04-18T11:40:32Z</time></trkpt><trkpt lat="42.030908808043144" lon="12.000274311845748"><ele>64.0</ele><time>2026-04-18T11:40:33Z</time></trkpt><trkpt lat="42.030777844388055" lon="12.000271193518351"><ele>64.0</ele><time>2026-04-18T11:40:34Z</time></trkpt><trkpt lat="42.030644362186536" lon="12.00026608426847"><ele>64.0</ele><time>2026-04-18T11:40:35Z</time></trkpt><trkpt lat="42.03050897718135" lon="12.000263422321837"><ele>62.25</ele><time>2026-04-18T11:40:36Z</time></trkpt><trkpt lat="42.03037870957206" lon="12.000264102583033"><ele>60.5</ele><time>2026-04-18T11:40:37Z</time></trkpt><trkpt lat="42.03025461299119" lon="12.000279254866477"><ele>58.75</ele><time>2026-04-18T11:40:38Z</time></trkpt><trkpt lat="42.030127921444326" lon="12.000291079494142"><ele>57.0</ele><time>2026-04-18T11:40:39Z</time></trkpt><trkpt lat="42.03000472894108" lon="12.000304193962034"><ele>55.5</ele><time>2026-04-18T11:40:40Z</time></trkpt><trkpt lat="42.02987358583475" lon="12.000295535396189"><ele>54.0</ele><time>2026-04-18T11:40:41Z</time></trkpt><trkpt lat="42.0297444932275" lon="12.000305239291125"><ele>52.5</ele><time>2026-04-18T11:40:42Z</time></trkpt><trkpt lat="42.02961315940147" lon="12.0003745087485"><ele>51.0</ele><time>2026-04-18T11:40:43Z</time></trkpt><trkpt lat="42.029490688400465" lon="12.000425144468608"><ele>51.0</ele><time>2026-04-18T11:40:44Z</time></trkpt><trkpt lat="42.02936712359912" lon="12.000448461306057"><ele>51.0</ele><time>2026-04-18T11:40:45Z</time></trkpt><trkpt lat="42.02924625905841" lon="12.000484532850065"><ele>51.0</ele><time>2026-04-18T11:40:46Z</time></trkpt><trkpt lat="42.02913456286099" lon="12.000542825373369"><ele>51.0</ele><time>2026-04-18T11:40:47Z</time></trkpt><trkpt lat="42.029033795554625" lon="12.000550177557605"><ele>50.0</ele><time>2026-04-18T11:40:48Z</time></trkpt><trkpt lat="42.02893750160596" lon="12.000594127913411"><ele>49.0</ele><time>2026-04-18T11:40:49Z</time></trkpt><trkpt lat="42.02884829445023" lon="12.00065851741814"><ele>48.0</ele><time>2026-04-18T11:40:50Z</time></trkpt><trkpt lat="42.02874936029" lon="12.000707817774767"><ele>47.0</ele><time>2026-04-18T11:40:51Z</time></trkpt><trkpt lat="42.02864640293855" lon="12.000743308249186"><ele>46.0</ele><time>2026-04-18T11:40:52Z</time></trkpt><trkpt lat="42.02854900602738" lon="12.000806519979697"><ele>47.8</ele><time>2026-04-18T11:40:53Z</time></trkpt><trkpt lat="42.02847010540297" lon="12.000862602667103"><ele>49.599999999999994</ele><time>2026-04-18T11:40:54Z</time></trkpt><trkpt lat="42.02840604045856" lon="12.000923304599505"><ele>51.4</ele><time>2026-04-18T11:40:55Z</time></trkpt><trkpt lat="42.028354525979765" lon="12.000995751408796"><ele>53.2</ele><time>2026-04-18T11:40:56Z</time></trkpt><trkpt lat="42.028325945378526" lon="12.00109741970315"><ele>55.0</ele><time>2026-04-18T11:40:57Z</time></trkpt><trkpt lat="42.02835833231136" lon="12.001281651799115"><ele>54.99999999999999</ele><time>2026-04-18T11:40:59Z</time></trkpt><trkpt lat="42.02840310732907" lon="12.001372933971227"><ele>55.0</ele><time>2026-04-18T11:41:00.001Z</time></trkpt><trkpt lat="42.028442114798935" lon="12.001465287837867"><ele>55.0</ele><time>2026-04-18T11:41:01.001Z</time></trkpt><trkpt lat="42.02848667467652" lon="12.001565255562586"><ele>55.0</ele><time>2026-04-18T11:41:02.001Z</time></trkpt><trkpt lat="42.02854081673354" lon="12.001671902100137"><ele>54.99999999999999</ele><time>2026-04-18T11:41:03.001Z</time></trkpt><trkpt lat="42.028595015347875" lon="12.00177718360073"><ele>55.0</ele><time>2026-04-18T11:41:04.001Z</time></trkpt><trkpt lat="42.02864209267428" lon="12.001866253566234"><ele>55.166666666666664</ele><time>2026-04-18T11:41:05.001Z</time></trkpt><trkpt lat="42.02869403957358" lon="12.0019606607229"><ele>55.33333333333333</ele><time>2026-04-18T11:41:06.001Z</time></trkpt><trkpt lat="42.02874430838175" lon="12.00204812486316"><ele>55.5</ele><time>2026-04-18T11:41:07.001Z</time></trkpt><trkpt lat="42.028789070819855" lon="12.002125080758592"><ele>55.66666666666667</ele><time>2026-04-18T11:41:08.001Z</time></trkpt><trkpt lat="42.02886301549254" lon="12.002248302629607"><ele>55.833333333333336</ele><time>2026-04-18T11:41:10.001Z</time></trkpt><trkpt lat="42.02891208033508" lon="12.002317854711803"><ele>56.0</ele><time>2026-04-18T11:41:11.001Z</time></trkpt><trkpt lat="42.028954432114425" lon="12.00240063952514"><ele>56.0</ele><time>2026-04-18T11:41:12.001Z</time></trkpt><trkpt lat="42.02904025645831" lon="12.00254350921395"><ele>55.99999999999999</ele><time>2026-04-18T11:41:14.001Z</time></trkpt><trkpt lat="42.02908981645305" lon="12.002624329811457"><ele>55.99999999999999</ele><time>2026-04-18T11:41:15.001Z</time></trkpt><trkpt lat="42.02914762712178" lon="12.002718605737103"><ele>56.0</ele><time>2026-04-18T11:41:16.001Z</time></trkpt><trkpt lat="42.02919855559375" lon="12.002806100327385"><ele>56.0</ele><time>2026-04-18T11:41:17.001Z</time></trkpt><trkpt lat="42.02924578966349" lon="12.002891144462273"><ele>56.0</ele><time>2026-04-18T11:41:18.001Z</time></trkpt><trkpt lat="42.02929620940547" lon="12.002953574489851"><ele>55.99999999999999</ele><time>2026-04-18T11:41:19.001Z</time></trkpt><trkpt lat="42.02935713420132" lon="12.003103668116397"><ele>55.99999999999999</ele><time>2026-04-18T11:41:21.001Z</time></trkpt><trkpt lat="42.02943112964315" lon="12.003245345169384"><ele>56.0</ele><time>2026-04-18T11:41:23.001Z</time></trkpt><trkpt lat="42.02947251692831" lon="12.003321316936628"><ele>56.0</ele><time>2026-04-18T11:41:24.001Z</time></trkpt><trkpt lat="42.0295235003649" lon="12.003392581762661"><ele>55.16666666666667</ele><time>2026-04-18T11:41:25.001Z</time></trkpt><trkpt lat="42.02956866149956" lon="12.003475215149189"><ele>54.333333333333336</ele><time>2026-04-18T11:41:26.001Z</time></trkpt><trkpt lat="42.02961694190236" lon="12.003558778187589"><ele>53.5</ele><time>2026-04-18T11:41:27.001Z</time></trkpt><trkpt lat="42.02965659474423" lon="12.003634939370412"><ele>52.66666666666667</ele><time>2026-04-18T11:41:28.001Z</time></trkpt><trkpt lat="42.029702317010475" lon="12.003706912281395"><ele>51.833333333333336</ele><time>2026-04-18T11:41:29.001Z</time></trkpt><trkpt lat="42.02975110639723" lon="12.003786522892023"><ele>51.0</ele><time>2026-04-18T11:41:30.001Z</time></trkpt><trkpt lat="42.02980330222529" lon="12.003878249806705"><ele>51.0</ele><time>2026-04-18T11:41:31.001Z</time></trkpt><trkpt lat="42.02984590828732" lon="12.003982816234679"><ele>51.0</ele><time>2026-04-18T11:41:32.001Z</time></trkpt><trkpt lat="42.029899070179574" lon="12.00407460436561"><ele>51.0</ele><time>2026-04-18T11:41:33.001Z</time></trkpt><trkpt lat="42.02994664882036" lon="12.004156693750994"><ele>51.0</ele><time>2026-04-18T11:41:34.001Z</time></trkpt><trkpt lat="42.029990190481996" lon="12.004231817495834"><ele>51.0</ele><time>2026-04-18T11:41:35.001Z</time></trkpt><trkpt lat="42.03003603151312" lon="12.004310908668725"><ele>51.0</ele><time>2026-04-18T11:41:36.001Z</time></trkpt><trkpt lat="42.03009042933525" lon="12.004404613703107"><ele>51.85714285714286</ele><time>2026-04-18T11:41:37.001Z</time></trkpt><trkpt lat="42.03014778580313" lon="12.004474289263364"><ele>52.714285714285715</ele><time>2026-04-18T11:41:38.001Z</time></trkpt><trkpt lat="42.03018746780825" lon="12.004550070225973"><ele>53.57142857142857</ele><time>2026-04-18T11:41:39.001Z</time></trkpt><trkpt lat="42.03022249714315" lon="12.004628836091383"><ele>54.42857142857143</ele><time>2026-04-18T11:41:40.001Z</time></trkpt><trkpt lat="42.03027247129753" lon="12.004712563559718"><ele>55.28571428571428</ele><time>2026-04-18T11:41:41.001Z</time></trkpt><trkpt lat="42.030323238981076" lon="12.004795193558964"><ele>56.14285714285714</ele><time>2026-04-18T11:41:42.001Z</time></trkpt><trkpt lat="42.03036845851861" lon="12.004866227127383"><ele>57.0</ele><time>2026-04-18T11:41:43.001Z</time></trkpt><trkpt lat="42.03044511176651" lon="12.004986072076626"><ele>56.833333333333336</ele><time>2026-04-18T11:41:45.001Z</time></trkpt><trkpt lat="42.03053095530763" lon="12.00512313647905"><ele>56.66666666666667</ele><time>2026-04-18T11:41:47.001Z</time></trkpt><trkpt lat="42.030577473715056" lon="12.005200308522555"><ele>56.5</ele><time>2026-04-18T11:41:48.001Z</time></trkpt><trkpt lat="42.03062262631713" lon="12.005279804428378"><ele>56.333333333333336</ele><time>2026-04-18T11:41:49.002Z</time></trkpt><trkpt lat="42.030669730880525" lon="12.005372087445707"><ele>56.16666666666667</ele><time>2026-04-18T11:41:50.002Z</time></trkpt><trkpt lat="42.03071468983229" lon="12.005463097421632"><ele>56.0</ele><time>2026-04-18T11:41:51.002Z</time></trkpt><trkpt lat="42.030748793619196" lon="12.005534367267714"><ele>56.00000000000001</ele><time>2026-04-18T11:41:52.002Z</time></trkpt><trkpt lat="42.030782975989" lon="12.005605801122918"><ele>56.0</ele><time>2026-04-18T11:41:54.002Z</time></trkpt><trkpt lat="42.03084439591945" lon="12.005730184223012"><ele>56.0</ele><time>2026-04-18T11:41:56.002Z</time></trkpt><trkpt lat="42.03091873655988" lon="12.005876563730682"><ele>56.0</ele><time>2026-04-18T11:41:58.002Z</time></trkpt><trkpt lat="42.030957868106746" lon="12.005953615142097"><ele>56.00000000000001</ele><time>2026-04-18T11:41:59.002Z</time></trkpt><trkpt lat="42.030999725023015" lon="12.006034582658906"><ele>56.0</ele><time>2026-04-18T11:42:00.002Z</time></trkpt><trkpt lat="42.03104591538173" lon="12.00612059825389"><ele>57.16666666666667</ele><time>2026-04-18T11:42:01.002Z</time></trkpt><trkpt lat="42.03109402672289" lon="12.006209022816229"><ele>58.333333333333336</ele><time>2026-04-18T11:42:02.002Z</time></trkpt><trkpt lat="42.03114368167037" lon="12.006297359318948"><ele>59.5</ele><time>2026-04-18T11:42:03.002Z</time></trkpt><trkpt lat="42.031195707471475" lon="12.006390129335646"><ele>60.66666666666667</ele><time>2026-04-18T11:42:04.002Z</time></trkpt><trkpt lat="42.03124619113702" lon="12.0064814887724"><ele>61.833333333333336</ele><time>2026-04-18T11:42:05.002Z</time></trkpt><trkpt lat="42.03129332718252" lon="12.006570786154617"><ele>63.0</ele><time>2026-04-18T11:42:06.002Z</time></trkpt><trkpt lat="42.03133777882679" lon="12.00665540973923"><ele>63.0</ele><time>2026-04-18T11:42:07.002Z</time></trkpt><trkpt lat="42.03138013894117" lon="12.006737229373893"><ele>63.0</ele><time>2026-04-18T11:42:08.002Z</time></trkpt><trkpt lat="42.03141639763614" lon="12.006807488375017"><ele>63.0</ele><time>2026-04-18T11:42:09.002Z</time></trkpt><trkpt lat="42.031483045373555" lon="12.00693925591193"><ele>63.0</ele><time>2026-04-18T11:42:11.002Z</time></trkpt><trkpt lat="42.03152609283173" lon="12.007027097242684"><ele>63.0</ele><time>2026-04-18T11:42:12.002Z</time></trkpt><trkpt lat="42.03157159353065" lon="12.007122417450041"><ele>63.0</ele><time>2026-04-18T11:42:13.002Z</time></trkpt><trkpt lat="42.03161478929377" lon="12.007212908705565"><ele>63.42857142857143</ele><time>2026-04-18T11:42:14.002Z</time></trkpt><trkpt lat="42.031653750105605" lon="12.007294528004685"><ele>63.85714285714286</ele><time>2026-04-18T11:42:15.002Z</time></trkpt><trkpt lat="42.031689569057576" lon="12.00736956550386"><ele>64.28571428571428</ele><time>2026-04-18T11:42:16.002Z</time></trkpt><trkpt lat="42.03172652817387" lon="12.007445391417601"><ele>64.71428571428572</ele><time>2026-04-18T11:42:17.002Z</time></trkpt><trkpt lat="42.0317676931223" lon="12.0075285477032"><ele>65.14285714285714</ele><time>2026-04-18T11:42:18.002Z</time></trkpt><trkpt lat="42.03181484051234" lon="12.007623019103013"><ele>65.57142857142857</ele><time>2026-04-18T11:42:19.002Z</time></trkpt><trkpt lat="42.031859613348765" lon="12.007712310643589"><ele>66.0</ele><time>2026-04-18T11:42:20.002Z</time></trkpt><trkpt lat="42.03192697178899" lon="12.00778558016608"><ele>66.33333333333333</ele><time>2026-04-18T11:42:21.002Z</time></trkpt><trkpt lat="42.03197346436871" lon="12.007881457122005"><ele>66.66666666666667</ele><time>2026-04-18T11:42:22.002Z</time></trkpt><trkpt lat="42.032018882184154" lon="12.00796718051598"><ele>67.0</ele><time>2026-04-18T11:42:23.002Z</time></trkpt><trkpt lat="42.032064521656295" lon="12.00805432916534"><ele>67.33333333333334</ele><time>2026-04-18T11:42:24.002Z</time></trkpt><trkpt lat="42.03211104561697" lon="12.008146651530444"><ele>67.66666666666667</ele><time>2026-04-18T11:42:25.002Z</time></trkpt><trkpt lat="42.03216395510039" lon="12.008246805187303"><ele>68.0</ele><time>2026-04-18T11:42:26.002Z</time></trkpt><trkpt lat="42.03221386565441" lon="12.008340426655037"><ele>68.8</ele><time>2026-04-18T11:42:27.002Z</time></trkpt><trkpt lat="42.03226282005744" lon="12.008428126011191"><ele>69.6</ele><time>2026-04-18T11:42:28.002Z</time></trkpt><trkpt lat="42.0323103600241" lon="12.008522749387678"><ele>70.4</ele><time>2026-04-18T11:42:29Z</time></trkpt><trkpt lat="42.032362659856396" lon="12.008630525587533"><ele>71.2</ele><time>2026-04-18T11:42:30Z</time></trkpt><trkpt lat="42.03239914166561" lon="12.008757396210584"><ele>72.0</ele><time>2026-04-18T11:42:31Z</time></trkpt><trkpt lat="42.03245755330217" lon="12.008872651682342"><ele>72.4</ele><time>2026-04-18T11:42:32Z</time></trkpt><trkpt lat="42.03251320306042" lon="12.008985047854756"><ele>72.80000000000001</ele><time>2026-04-18T11:42:33Z</time></trkpt><trkpt lat="42.03256417098608" lon="12.009089744919855"><ele>73.2</ele><time>2026-04-18T11:42:34Z</time></trkpt><trkpt lat="42.03261383241725" lon="12.009199110812117"><ele>73.60000000000001</ele><time>2026-04-18T11:42:35Z</time></trkpt><trkpt lat="42.03266520960294" lon="12.009311050130394"><ele>74.0</ele><time>2026-04-18T11:42:36Z</time></trkpt><trkpt lat="42.03271800993906" lon="12.009419901444726"><ele>74.16666666666667</ele><time>2026-04-18T11:42:37Z</time></trkpt><trkpt lat="42.032760463118834" lon="12.00950593382655"><ele>74.33333333333334</ele><time>2026-04-18T11:42:38Z</time></trkpt><trkpt lat="42.032803779550974" lon="12.009587974613723"><ele>74.5</ele><time>2026-04-18T11:42:39Z</time></trkpt><trkpt lat="42.0328534815789" lon="12.009678746050083"><ele>74.66666666666667</ele><time>2026-04-18T11:42:40Z</time></trkpt><trkpt lat="42.03290716146219" lon="12.009774118499118"><ele>74.83333333333333</ele><time>2026-04-18T11:42:41Z</time></trkpt><trkpt lat="42.03296915164358" lon="12.009882826815714"><ele>75.0</ele><time>2026-04-18T11:42:42Z</time></trkpt><trkpt lat="42.03303616101029" lon="12.009998530378846"><ele>75.75</ele><time>2026-04-18T11:42:43Z</time></trkpt><trkpt lat="42.03310160604056" lon="12.010111532875547"><ele>76.5</ele><time>2026-04-18T11:42:44Z</time></trkpt><trkpt lat="42.033168206898225" lon="12.010227290725668"><ele>77.25</ele><time>2026-04-18T11:42:45Z</time></trkpt><trkpt lat="42.0332344809443" lon="12.010343839572041"><ele>78.0</ele><time>2026-04-18T11:42:46Z</time></trkpt><trkpt lat="42.0333095556371" lon="12.010480248197902"><ele>78.66666666666667</ele><time>2026-04-18T11:42:47Z</time></trkpt><trkpt lat="42.03339683746542" lon="12.010641505217617"><ele>79.33333333333334</ele><time>2026-04-18T11:42:48Z</time></trkpt><trkpt lat="42.03351742703082" lon="12.010785769291983"><ele>80.0</ele><time>2026-04-18T11:42:49Z</time></trkpt><trkpt lat="42.033604157348655" lon="12.010947500132493"><ele>80.0</ele><time>2026-04-18T11:42:50Z</time></trkpt><trkpt lat="42.03365084858861" lon="12.011114008443991"><ele>80.0</ele><time>2026-04-18T11:42:51Z</time></trkpt><trkpt lat="42.03372088519582" lon="12.011236622759634"><ele>80.0</ele><time>2026-04-18T11:42:52Z</time></trkpt><trkpt lat="42.0337778066513" lon="12.011336988594415"><ele>80.0</ele><time>2026-04-18T11:42:53Z</time></trkpt><trkpt lat="42.03381935722492" lon="12.011437275821873"><ele>80.0</ele><time>2026-04-18T11:42:54Z</time></trkpt><trkpt lat="42.033844264553075" lon="12.011531229986966"><ele>80.0</ele><time>2026-04-18T11:42:55Z</time></trkpt><trkpt lat="42.033875807213306" lon="12.011627660938757"><ele>80.0</ele><time>2026-04-18T11:42:56Z</time></trkpt><trkpt lat="42.03402335736412" lon="12.011739888676454"><ele>80.0</ele><time>2026-04-18T11:42:58.001Z</time></trkpt><trkpt lat="42.03405400715506" lon="12.011814197650066"><ele>80.0</ele><time>2026-04-18T11:42:59.001Z</time></trkpt><trkpt lat="42.034099072669335" lon="12.011922249681849"><ele>80.0</ele><time>2026-04-18T11:43:01.001Z</time></trkpt><trkpt lat="42.03412737656508" lon="12.012029648598425"><ele>80.16666666666667</ele><time>2026-04-18T11:43:03.001Z</time></trkpt><trkpt lat="42.03414680222328" lon="12.012120127660804"><ele>80.33333333333334</ele><time>2026-04-18T11:43:05.001Z</time></trkpt><trkpt lat="42.034155053255645" lon="12.012206472037743"><ele>80.5</ele><time>2026-04-18T11:43:07.001Z</time></trkpt><trkpt lat="42.03417074400406" lon="12.0123168820626"><ele>80.66666666666667</ele><time>2026-04-18T11:43:09.001Z</time></trkpt><trkpt lat="42.03418051823302" lon="12.012410808583878"><ele>80.83333333333333</ele><time>2026-04-18T11:43:11.001Z</time></trkpt><trkpt lat="42.03421432239852" lon="12.012533927522815"><ele>81.0</ele><time>2026-04-18T11:43:13.001Z</time></trkpt><trkpt lat="42.034287341029554" lon="12.012662678435866"><ele>79.2</ele><time>2026-04-18T11:43:15.001Z</time></trkpt><trkpt lat="42.034359899796826" lon="12.01278802318211"><ele>77.39999999999999</ele><time>2026-04-18T11:43:17.001Z</time></trkpt><trkpt lat="42.034419523573" lon="12.012889991273518"><ele>75.6</ele><time>2026-04-18T11:43:19.001Z</time></trkpt><trkpt lat="42.034459032331924" lon="12.012971545558722"><ele>73.8</ele><time>2026-04-18T11:43:22.001Z</time></trkpt><trkpt lat="42.03450453785132" lon="12.013047068376586"><ele>72.0</ele><time>2026-04-18T11:43:24.001Z</time></trkpt><trkpt lat="42.0345730051705" lon="12.013134364920143"><ele>72.0</ele><time>2026-04-18T11:43:26.001Z</time></trkpt><trkpt lat="42.03462960518926" lon="12.013196319757993"><ele>72.0</ele><time>2026-04-18T11:43:28.001Z</time></trkpt><trkpt lat="42.034694336701556" lon="12.01326072231475"><ele>72.0</ele><time>2026-04-18T11:43:30.001Z</time></trkpt><trkpt lat="42.03478358158751" lon="12.013347415152943"><ele>72.0</ele><time>2026-04-18T11:43:31.001Z</time></trkpt><trkpt lat="42.03485246087551" lon="12.01341568641595"><ele>72.0</ele><time>2026-04-18T11:43:32.001Z</time></trkpt><trkpt lat="42.034907902982695" lon="12.013469062124418"><ele>72.0</ele><time>2026-04-18T11:43:33.001Z</time></trkpt><trkpt lat="42.034966420350806" lon="12.013517595339769"><ele>69.83333333333333</ele><time>2026-04-18T11:43:34.001Z</time></trkpt><trkpt lat="42.03507159915607" lon="12.013572840596398"><ele>67.66666666666667</ele><time>2026-04-18T11:43:36.001Z</time></trkpt><trkpt lat="42.03516255609656" lon="12.013582741884875"><ele>65.5</ele><time>2026-04-18T11:43:39.001Z</time></trkpt><trkpt lat="42.035245454376195" lon="12.013600830316252"><ele>63.333333333333336</ele><time>2026-04-18T11:43:42.001Z</time></trkpt><trkpt lat="42.03532385790927" lon="12.013622303859693"><ele>61.16666666666667</ele><time>2026-04-18T11:43:55.002Z</time></trkpt><trkpt lat="42.03538796004875" lon="12.013640495253492"><ele>59.0</ele><time>2026-04-18T11:43:57.002Z</time></trkpt><trkpt lat="42.03545816314159" lon="12.013699729288597"><ele>59.0</ele><time>2026-04-18T11:43:59.002Z</time></trkpt><trkpt lat="42.035510780864655" lon="12.013811872650544"><ele>59.00000000000001</ele><time>2026-04-18T11:44:01.002Z</time></trkpt><trkpt lat="42.035522642894485" lon="12.01392943944918"><ele>59.00000000000001</ele><time>2026-04-18T11:44:03.002Z</time></trkpt><trkpt lat="42.03552627471222" lon="12.014055346937218"><ele>59.0</ele><time>2026-04-18T11:44:04.002Z</time></trkpt><trkpt lat="42.03553693903538" lon="12.014186607033984"><ele>59.0</ele><time>2026-04-18T11:44:05.002Z</time></trkpt><trkpt lat="42.035562144204576" lon="12.014323179168153"><ele>59.0</ele><time>2026-04-18T11:44:06.002Z</time></trkpt><trkpt lat="42.03560178048164" lon="12.014475188296245"><ele>59.0</ele><time>2026-04-18T11:44:07.002Z</time></trkpt><trkpt lat="42.03564594298055" lon="12.014648603015967"><ele>59.0</ele><time>2026-04-18T11:44:08.002Z</time></trkpt><trkpt lat="42.03568661779717" lon="12.014820373112036"><ele>59.0</ele><time>2026-04-18T11:44:09.002Z</time></trkpt><trkpt lat="42.035733256285496" lon="12.01500809502737"><ele>59.0</ele><time>2026-04-18T11:44:10.002Z</time></trkpt><trkpt lat="42.035771489725164" lon="12.015202127486946"><ele>59.0</ele><time>2026-04-18T11:44:11.002Z</time></trkpt><trkpt lat="42.035801794625904" lon="12.015397818947024"><ele>59.0</ele><time>2026-04-18T11:44:12.002Z</time></trkpt><trkpt lat="42.03582445647287" lon="12.015581115660074"><ele>59.0</ele><time>2026-04-18T11:44:13.002Z</time></trkpt><trkpt lat="42.035846192682136" lon="12.015732852055347"><ele>61.6</ele><time>2026-04-18T11:44:14.002Z</time></trkpt><trkpt lat="42.035883929940866" lon="12.015870320690002"><ele>64.2</ele><time>2026-04-18T11:44:15.002Z</time></trkpt><trkpt lat="42.035937492876144" lon="12.015985237804289"><ele>66.80000000000001</ele><time>2026-04-18T11:44:16.002Z</time></trkpt><trkpt lat="42.035996734246076" lon="12.01607065514476"><ele>69.4</ele><time>2026-04-18T11:44:17.002Z</time></trkpt><trkpt lat="42.036048059579365" lon="12.016160894672907"><ele>72.0</ele><time>2026-04-18T11:44:18.002Z</time></trkpt><trkpt lat="42.03611253884107" lon="12.016258018857242"><ele>72.0</ele><time>2026-04-18T11:44:19.002Z</time></trkpt><trkpt lat="42.03618535382607" lon="12.016366637367007"><ele>72.0</ele><time>2026-04-18T11:44:20.002Z</time></trkpt><trkpt lat="42.036250788608626" lon="12.016490853056979"><ele>72.0</ele><time>2026-04-18T11:44:21.002Z</time></trkpt><trkpt lat="42.03631165151365" lon="12.016611950408691"><ele>72.0</ele><time>2026-04-18T11:44:22.002Z</time></trkpt><trkpt lat="42.03636607415282" lon="12.016731966720942"><ele>72.0</ele><time>2026-04-18T11:44:23.002Z</time></trkpt><trkpt lat="42.03642160157298" lon="12.016862207007426"><ele>73.4</ele><time>2026-04-18T11:44:24.002Z</time></trkpt><trkpt lat="42.036479984765336" lon="12.016982058969283"><ele>74.80000000000001</ele><time>2026-04-18T11:44:25.002Z</time></trkpt><trkpt lat="42.03653686133113" lon="12.017093017869646"><ele>76.2</ele><time>2026-04-18T11:44:26.002Z</time></trkpt><trkpt lat="42.036587008610326" lon="12.017201848384683"><ele>77.60000000000001</ele><time>2026-04-18T11:44:27.002Z</time></trkpt><trkpt lat="42.036649075382904" lon="12.01732433704378"><ele>79.0</ele><time>2026-04-18T11:44:28.002Z</time></trkpt><trkpt lat="42.036720668909176" lon="12.017445176003612"><ele>82.0</ele><time>2026-04-18T11:44:29.002Z</time></trkpt><trkpt lat="42.036791417326754" lon="12.017557732180729"><ele>85.0</ele><time>2026-04-18T11:44:30.002Z</time></trkpt><trkpt lat="42.03685243178899" lon="12.01767505223706"><ele>88.0</ele><time>2026-04-18T11:44:31.002Z</time></trkpt><trkpt lat="42.036903131158574" lon="12.017786220390398"><ele>91.0</ele><time>2026-04-18T11:44:32.002Z</time></trkpt><trkpt lat="42.03693944365111" lon="12.017886630712841"><ele>94.0</ele><time>2026-04-18T11:44:33.002Z</time></trkpt><trkpt lat="42.03696962194728" lon="12.017961516310466"><ele>94.0</ele><time>2026-04-18T11:44:34.002Z</time></trkpt><trkpt lat="42.0370339526262" lon="12.01808903043572"><ele>94.0</ele><time>2026-04-18T11:44:36.001Z</time></trkpt><trkpt lat="42.037077227229865" lon="12.018158094598078"><ele>94.0</ele><time>2026-04-18T11:44:37.001Z</time></trkpt><trkpt lat="42.03712442789195" lon="12.018245466092655"><ele>94.0</ele><time>2026-04-18T11:44:38.001Z</time></trkpt><trkpt lat="42.037181104725235" lon="12.018368749842752"><ele>94.0</ele><time>2026-04-18T11:44:39Z</time></trkpt><trkpt lat="42.0372428386699" lon="12.018517046015248"><ele>96.6</ele><time>2026-04-18T11:44:40.001Z</time></trkpt><trkpt lat="42.03732709999739" lon="12.018673000841778"><ele>99.2</ele><time>2026-04-18T11:44:41Z</time></trkpt><trkpt lat="42.03741143757226" lon="12.018797434473399"><ele>101.79999999999998</ele><time>2026-04-18T11:44:42Z</time></trkpt><trkpt lat="42.03746020599099" lon="12.018891218774254"><ele>104.39999999999999</ele><time>2026-04-18T11:44:43Z</time></trkpt><trkpt lat="42.03751355917875" lon="12.018998708430463"><ele>107.0</ele><time>2026-04-18T11:44:44Z</time></trkpt><trkpt lat="42.03755702395537" lon="12.019086972772225"><ele>109.8</ele><time>2026-04-18T11:44:45Z</time></trkpt><trkpt lat="42.037621713966836" lon="12.019205871116727"><ele>112.6</ele><time>2026-04-18T11:44:47Z</time></trkpt><trkpt lat="42.03766732798482" lon="12.01928676290755"><ele>115.39999999999999</ele><time>2026-04-18T11:44:48Z</time></trkpt><trkpt lat="42.03774341911516" lon="12.019379707584338"><ele>118.19999999999999</ele><time>2026-04-18T11:44:49Z</time></trkpt><trkpt lat="42.037863765404595" lon="12.019489786360388"><ele>121.0</ele><time>2026-04-18T11:44:50Z</time></trkpt><trkpt lat="42.03796897181536" lon="12.019586472149244"><ele>121.00000000000001</ele><time>2026-04-18T11:44:51Z</time></trkpt><trkpt lat="42.03805861763204" lon="12.01964866795222"><ele>121.0</ele><time>2026-04-18T11:44:52Z</time></trkpt><trkpt lat="42.03814402025811" lon="12.019682898200017"><ele>121.0</ele><time>2026-04-18T11:44:53Z</time></trkpt><trkpt lat="42.038214708922254" lon="12.019724368914616"><ele>121.0</ele><time>2026-04-18T11:44:54Z</time></trkpt><trkpt lat="42.03827876590882" lon="12.019776095880296"><ele>121.00000000000001</ele><time>2026-04-18T11:44:55Z</time></trkpt><trkpt lat="42.03836488722651" lon="12.019861986641624"><ele>121.0</ele><time>2026-04-18T11:44:57Z</time></trkpt><trkpt lat="42.03838581054623" lon="12.019980039132907"><ele>122.6</ele><time>2026-04-18T11:44:59.001Z</time></trkpt><trkpt lat="42.03834573461035" lon="12.020133766149176"><ele>124.19999999999999</ele><time>2026-04-18T11:45:01.001Z</time></trkpt><trkpt lat="42.03832539292578" lon="12.020224024561706"><ele>125.80000000000001</ele><time>2026-04-18T11:45:02.001Z</time></trkpt><trkpt lat="42.03828257377525" lon="12.020373123824188"><ele>127.4</ele><time>2026-04-18T11:45:04.001Z</time></trkpt><trkpt lat="42.038251018365614" lon="12.020459114888643"><ele>129.0</ele><time>2026-04-18T11:45:26.001Z</time></trkpt><trkpt lat="42.03827491088183" lon="12.020591575007256"><ele>129.2</ele><time>2026-04-18T11:45:28.001Z</time></trkpt><trkpt lat="42.03819803761404" lon="12.020736027706192"><ele>129.4</ele><time>2026-04-18T11:45:30.001Z</time></trkpt><trkpt lat="42.03817026805883" lon="12.020817632989559"><ele>129.6</ele><time>2026-04-18T11:45:31.001Z</time></trkpt><trkpt lat="42.03815985942672" lon="12.020968489743062"><ele>129.8</ele><time>2026-04-18T11:45:33.001Z</time></trkpt><trkpt lat="42.03816030675139" lon="12.021062400484164"><ele>130.0</ele><time>2026-04-18T11:45:35.001Z</time></trkpt><trkpt lat="42.03811909441496" lon="12.021137759808536"><ele>131.0</ele><time>2026-04-18T11:45:39.001Z</time></trkpt><trkpt lat="42.03818164393366" lon="12.021116928780812"><ele>131.0</ele><time>2026-04-18T11:46:14.002Z</time></trkpt><trkpt lat="42.03824792905458" lon="12.021087280897188"><ele>131.0</ele><time>2026-04-18T11:46:24.002Z</time></trkpt><trkpt lat="42.038253998243896" lon="12.020992069880208"><ele>131.0</ele><time>2026-04-18T11:46:37.002Z</time></trkpt></trkseg></trk></gpx>